<?xml version="1.0" encoding="UTF-8" standalone="no" ?>
<gpx xmlns="http://www.topografix.com/GPX/1/1" xmlns:xsi="http://www.w3.org/2001/XMLSchema-instance" xsi:schemaLocation="http://www.topografix.com/GPX/1/1 http://www.topografix.com/GPX/1/1/gpx.xsd" version="1.1" creator="VisuGPX - https://www.visugpx.com">
  <metadata>
    <name>domfaing,plainfaing(mongade)</name>
  </metadata>
  <trk>
    <name><![CDATA[2023-09-21 16:24:50]]></name>
    <extensions>
      <line xmlns="http://www.topografix.com/GPX/gpx_style/0/2">
        <color>0000FF</color>
        <width>4</width>
      </line>
    </extensions>
    <trkseg>
      <trkpt lat="48.23744" lon="6.75377">
        <ele>395.2</ele>
        <time>2023-09-20T15:56:53Z</time>
      </trkpt>
      <trkpt lat="48.23744" lon="6.75376">
        <ele>395.2</ele>
        <time>2023-09-20T15:56:54Z</time>
      </trkpt>
      <trkpt lat="48.23743" lon="6.75376">
        <ele>434.82</ele>
        <time>2023-09-20T15:56:57Z</time>
      </trkpt>
      <trkpt lat="48.23743" lon="6.75376">
        <ele>434.82</ele>
        <time>2023-09-20T15:56:58Z</time>
      </trkpt>
      <trkpt lat="48.2374" lon="6.75374">
        <ele>435.36</ele>
        <time>2023-09-20T15:57:09Z</time>
      </trkpt>
      <trkpt lat="48.23741" lon="6.75471">
        <ele>483.53</ele>
        <time>2023-09-21T05:32:03Z</time>
      </trkpt>
      <trkpt lat="48.23741" lon="6.75472">
        <ele>479.35</ele>
        <time>2023-09-21T05:32:08Z</time>
      </trkpt>
      <trkpt lat="48.2374" lon="6.75472">
        <ele>475.44</ele>
        <time>2023-09-21T05:32:09Z</time>
      </trkpt>
      <trkpt lat="48.23738" lon="6.75476">
        <ele>471.74</ele>
        <time>2023-09-21T05:32:10Z</time>
      </trkpt>
      <trkpt lat="48.23738" lon="6.75476">
        <ele>468.2</ele>
        <time>2023-09-21T05:32:11Z</time>
      </trkpt>
      <trkpt lat="48.23738" lon="6.75475">
        <ele>464.85</ele>
        <time>2023-09-21T05:32:12Z</time>
      </trkpt>
      <trkpt lat="48.23738" lon="6.75475">
        <ele>461.63</ele>
        <time>2023-09-21T05:32:13Z</time>
      </trkpt>
      <trkpt lat="48.23738" lon="6.75476">
        <ele>458.56</ele>
        <time>2023-09-21T05:32:14Z</time>
      </trkpt>
      <trkpt lat="48.23739" lon="6.75476">
        <ele>452.81</ele>
        <time>2023-09-21T05:32:16Z</time>
      </trkpt>
      <trkpt lat="48.2374" lon="6.75476">
        <ele>447.68</ele>
        <time>2023-09-21T05:32:18Z</time>
      </trkpt>
      <trkpt lat="48.2374" lon="6.75476">
        <ele>442.97</ele>
        <time>2023-09-21T05:32:20Z</time>
      </trkpt>
      <trkpt lat="48.23741" lon="6.75477">
        <ele>438.69</ele>
        <time>2023-09-21T05:32:22Z</time>
      </trkpt>
      <trkpt lat="48.23742" lon="6.75478">
        <ele>434.83</ele>
        <time>2023-09-21T05:32:24Z</time>
      </trkpt>
      <trkpt lat="48.23734" lon="6.75476">
        <ele>431.32</ele>
        <time>2023-09-21T05:32:26Z</time>
      </trkpt>
      <trkpt lat="48.2373" lon="6.75478">
        <ele>428.14</ele>
        <time>2023-09-21T05:32:28Z</time>
      </trkpt>
      <trkpt lat="48.23726" lon="6.75478">
        <ele>424.07</ele>
        <time>2023-09-21T05:32:31Z</time>
      </trkpt>
      <trkpt lat="48.23726" lon="6.7548">
        <ele>422.85</ele>
        <time>2023-09-21T05:32:33Z</time>
      </trkpt>
      <trkpt lat="48.23726" lon="6.75483">
        <ele>419.13</ele>
        <time>2023-09-21T05:32:37Z</time>
      </trkpt>
      <trkpt lat="48.23727" lon="6.75483">
        <ele>416.09</ele>
        <time>2023-09-21T05:32:40Z</time>
      </trkpt>
      <trkpt lat="48.23728" lon="6.75482">
        <ele>412.7</ele>
        <time>2023-09-21T05:32:44Z</time>
      </trkpt>
      <trkpt lat="48.23728" lon="6.75486">
        <ele>409.47</ele>
        <time>2023-09-21T05:32:49Z</time>
      </trkpt>
      <trkpt lat="48.23729" lon="6.75489">
        <ele>405.92</ele>
        <time>2023-09-21T05:32:54Z</time>
      </trkpt>
      <trkpt lat="48.2373" lon="6.7549">
        <ele>405.86</ele>
        <time>2023-09-21T05:32:55Z</time>
      </trkpt>
      <trkpt lat="48.23731" lon="6.75493">
        <ele>403.31</ele>
        <time>2023-09-21T05:33:00Z</time>
      </trkpt>
      <trkpt lat="48.23733" lon="6.75498">
        <ele>400.27</ele>
        <time>2023-09-21T05:33:06Z</time>
      </trkpt>
      <trkpt lat="48.23734" lon="6.755">
        <ele>398.73</ele>
        <time>2023-09-21T05:33:09Z</time>
      </trkpt>
      <trkpt lat="48.23738" lon="6.75504">
        <ele>396.23</ele>
        <time>2023-09-21T05:33:14Z</time>
      </trkpt>
      <trkpt lat="48.23741" lon="6.75512">
        <ele>393.05</ele>
        <time>2023-09-21T05:33:27Z</time>
      </trkpt>
      <trkpt lat="48.23743" lon="6.75514">
        <ele>390.04</ele>
        <time>2023-09-21T05:33:30Z</time>
      </trkpt>
      <trkpt lat="48.23745" lon="6.75517">
        <ele>386.89</ele>
        <time>2023-09-21T05:33:33Z</time>
      </trkpt>
      <trkpt lat="48.23748" lon="6.7552">
        <ele>383.28</ele>
        <time>2023-09-21T05:33:37Z</time>
      </trkpt>
      <trkpt lat="48.2375" lon="6.75522">
        <ele>380.12</ele>
        <time>2023-09-21T05:33:41Z</time>
      </trkpt>
      <trkpt lat="48.23752" lon="6.75523">
        <ele>378.94</ele>
        <time>2023-09-21T05:33:43Z</time>
      </trkpt>
      <trkpt lat="48.23754" lon="6.75524">
        <ele>377.69</ele>
        <time>2023-09-21T05:33:45Z</time>
      </trkpt>
      <trkpt lat="48.23755" lon="6.75537">
        <ele>374.17</ele>
        <time>2023-09-21T05:33:50Z</time>
      </trkpt>
      <trkpt lat="48.23755" lon="6.7554">
        <ele>374.02</ele>
        <time>2023-09-21T05:33:51Z</time>
      </trkpt>
      <trkpt lat="48.23769" lon="6.75567">
        <ele>376.2</ele>
        <time>2023-09-21T05:34:11Z</time>
      </trkpt>
      <trkpt lat="48.23774" lon="6.75582">
        <ele>378.95</ele>
        <time>2023-09-21T05:34:31Z</time>
      </trkpt>
      <trkpt lat="48.23782" lon="6.75598">
        <ele>382.06</ele>
        <time>2023-09-21T05:34:50Z</time>
      </trkpt>
      <trkpt lat="48.23786" lon="6.75622">
        <ele>385.59</ele>
        <time>2023-09-21T05:35:09Z</time>
      </trkpt>
      <trkpt lat="48.23788" lon="6.75639">
        <ele>388.59</ele>
        <time>2023-09-21T05:35:25Z</time>
      </trkpt>
      <trkpt lat="48.23787" lon="6.75638">
        <ele>387.44</ele>
        <time>2023-09-21T05:35:27Z</time>
      </trkpt>
      <trkpt lat="48.23787" lon="6.7564">
        <ele>388.49</ele>
        <time>2023-09-21T05:35:40Z</time>
      </trkpt>
      <trkpt lat="48.23787" lon="6.75646">
        <ele>390.07</ele>
        <time>2023-09-21T05:36:23Z</time>
      </trkpt>
      <trkpt lat="48.23792" lon="6.75655">
        <ele>391.39</ele>
        <time>2023-09-21T05:36:50Z</time>
      </trkpt>
      <trkpt lat="48.23792" lon="6.75657">
        <ele>392.39</ele>
        <time>2023-09-21T05:36:52Z</time>
      </trkpt>
      <trkpt lat="48.23795" lon="6.75668">
        <ele>395.51</ele>
        <time>2023-09-21T05:37:05Z</time>
      </trkpt>
      <trkpt lat="48.23801" lon="6.75688">
        <ele>398.63</ele>
        <time>2023-09-21T05:37:23Z</time>
      </trkpt>
      <trkpt lat="48.23804" lon="6.757">
        <ele>400.54</ele>
        <time>2023-09-21T05:37:34Z</time>
      </trkpt>
      <trkpt lat="48.23808" lon="6.75713">
        <ele>403.64</ele>
        <time>2023-09-21T05:37:46Z</time>
      </trkpt>
      <trkpt lat="48.23812" lon="6.75725">
        <ele>405.53</ele>
        <time>2023-09-21T05:37:57Z</time>
      </trkpt>
      <trkpt lat="48.23813" lon="6.7573">
        <ele>406.46</ele>
        <time>2023-09-21T05:38:03Z</time>
      </trkpt>
      <trkpt lat="48.23813" lon="6.75729">
        <ele>407.25</ele>
        <time>2023-09-21T05:38:29Z</time>
      </trkpt>
      <trkpt lat="48.23814" lon="6.7573">
        <ele>407.1</ele>
        <time>2023-09-21T05:38:40Z</time>
      </trkpt>
      <trkpt lat="48.23819" lon="6.75739">
        <ele>409.65</ele>
        <time>2023-09-21T05:38:58Z</time>
      </trkpt>
      <trkpt lat="48.23824" lon="6.75743">
        <ele>412.92</ele>
        <time>2023-09-21T05:39:08Z</time>
      </trkpt>
      <trkpt lat="48.23829" lon="6.75747">
        <ele>415.63</ele>
        <time>2023-09-21T05:39:22Z</time>
      </trkpt>
      <trkpt lat="48.23836" lon="6.75758">
        <ele>418.9</ele>
        <time>2023-09-21T05:39:37Z</time>
      </trkpt>
      <trkpt lat="48.23842" lon="6.75766">
        <ele>422.05</ele>
        <time>2023-09-21T05:39:55Z</time>
      </trkpt>
      <trkpt lat="48.23847" lon="6.75782">
        <ele>425.36</ele>
        <time>2023-09-21T05:40:13Z</time>
      </trkpt>
      <trkpt lat="48.23853" lon="6.75788">
        <ele>426.37</ele>
        <time>2023-09-21T05:40:31Z</time>
      </trkpt>
      <trkpt lat="48.23854" lon="6.75792">
        <ele>427.07</ele>
        <time>2023-09-21T05:40:36Z</time>
      </trkpt>
      <trkpt lat="48.23859" lon="6.758">
        <ele>429.57</ele>
        <time>2023-09-21T05:40:47Z</time>
      </trkpt>
      <trkpt lat="48.23866" lon="6.75813">
        <ele>433.01</ele>
        <time>2023-09-21T05:41:02Z</time>
      </trkpt>
      <trkpt lat="48.23874" lon="6.75827">
        <ele>436.36</ele>
        <time>2023-09-21T05:41:20Z</time>
      </trkpt>
      <trkpt lat="48.23886" lon="6.75836">
        <ele>439.58</ele>
        <time>2023-09-21T05:41:37Z</time>
      </trkpt>
      <trkpt lat="48.23897" lon="6.75848">
        <ele>442.68</ele>
        <time>2023-09-21T05:41:55Z</time>
      </trkpt>
      <trkpt lat="48.23904" lon="6.75857">
        <ele>445.05</ele>
        <time>2023-09-21T05:42:12Z</time>
      </trkpt>
      <trkpt lat="48.23912" lon="6.7587">
        <ele>447.17</ele>
        <time>2023-09-21T05:42:28Z</time>
      </trkpt>
      <trkpt lat="48.23914" lon="6.75872">
        <ele>447.96</ele>
        <time>2023-09-21T05:42:30Z</time>
      </trkpt>
      <trkpt lat="48.23926" lon="6.7588">
        <ele>451.1</ele>
        <time>2023-09-21T05:42:51Z</time>
      </trkpt>
      <trkpt lat="48.2393" lon="6.75884">
        <ele>453.44</ele>
        <time>2023-09-21T05:43:01Z</time>
      </trkpt>
      <trkpt lat="48.23939" lon="6.75893">
        <ele>456.27</ele>
        <time>2023-09-21T05:43:22Z</time>
      </trkpt>
      <trkpt lat="48.23946" lon="6.75908">
        <ele>459.25</ele>
        <time>2023-09-21T05:43:40Z</time>
      </trkpt>
      <trkpt lat="48.23953" lon="6.75917">
        <ele>462.5</ele>
        <time>2023-09-21T05:43:54Z</time>
      </trkpt>
      <trkpt lat="48.23961" lon="6.75937">
        <ele>464.64</ele>
        <time>2023-09-21T05:44:11Z</time>
      </trkpt>
      <trkpt lat="48.2396" lon="6.75954">
        <ele>464.47</ele>
        <time>2023-09-21T05:44:25Z</time>
      </trkpt>
      <trkpt lat="48.2396" lon="6.75974">
        <ele>464.91</ele>
        <time>2023-09-21T05:44:41Z</time>
      </trkpt>
      <trkpt lat="48.23961" lon="6.75996">
        <ele>464.79</ele>
        <time>2023-09-21T05:44:56Z</time>
      </trkpt>
      <trkpt lat="48.23961" lon="6.76009">
        <ele>465</ele>
        <time>2023-09-21T05:45:05Z</time>
      </trkpt>
      <trkpt lat="48.2396" lon="6.76017">
        <ele>465.63</ele>
        <time>2023-09-21T05:45:11Z</time>
      </trkpt>
      <trkpt lat="48.23959" lon="6.7602">
        <ele>465.19</ele>
        <time>2023-09-21T05:45:13Z</time>
      </trkpt>
      <trkpt lat="48.2396" lon="6.76023">
        <ele>465.33</ele>
        <time>2023-09-21T05:45:14Z</time>
      </trkpt>
      <trkpt lat="48.23954" lon="6.76035">
        <ele>465.79</ele>
        <time>2023-09-21T05:45:23Z</time>
      </trkpt>
      <trkpt lat="48.23954" lon="6.76036">
        <ele>464.91</ele>
        <time>2023-09-21T05:45:24Z</time>
      </trkpt>
      <trkpt lat="48.23953" lon="6.76037">
        <ele>465.71</ele>
        <time>2023-09-21T05:45:25Z</time>
      </trkpt>
      <trkpt lat="48.23952" lon="6.76038">
        <ele>465.72</ele>
        <time>2023-09-21T05:45:26Z</time>
      </trkpt>
      <trkpt lat="48.23942" lon="6.76046">
        <ele>466.58</ele>
        <time>2023-09-21T05:45:37Z</time>
      </trkpt>
      <trkpt lat="48.23941" lon="6.76047">
        <ele>466.6</ele>
        <time>2023-09-21T05:45:38Z</time>
      </trkpt>
      <trkpt lat="48.2394" lon="6.76048">
        <ele>465.64</ele>
        <time>2023-09-21T05:45:39Z</time>
      </trkpt>
      <trkpt lat="48.23937" lon="6.76051">
        <ele>465.94</ele>
        <time>2023-09-21T05:45:42Z</time>
      </trkpt>
      <trkpt lat="48.23936" lon="6.76051">
        <ele>466.75</ele>
        <time>2023-09-21T05:45:43Z</time>
      </trkpt>
      <trkpt lat="48.23935" lon="6.76052">
        <ele>466.94</ele>
        <time>2023-09-21T05:45:44Z</time>
      </trkpt>
      <trkpt lat="48.23934" lon="6.76053">
        <ele>467.04</ele>
        <time>2023-09-21T05:45:45Z</time>
      </trkpt>
      <trkpt lat="48.23933" lon="6.76053">
        <ele>466.9</ele>
        <time>2023-09-21T05:45:46Z</time>
      </trkpt>
      <trkpt lat="48.23913" lon="6.76062">
        <ele>467.55</ele>
        <time>2023-09-21T05:46:05Z</time>
      </trkpt>
      <trkpt lat="48.23912" lon="6.76062">
        <ele>468.14</ele>
        <time>2023-09-21T05:46:06Z</time>
      </trkpt>
      <trkpt lat="48.23908" lon="6.76062">
        <ele>468.68</ele>
        <time>2023-09-21T05:46:19Z</time>
      </trkpt>
      <trkpt lat="48.23907" lon="6.76061">
        <ele>469.23</ele>
        <time>2023-09-21T05:46:48Z</time>
      </trkpt>
      <trkpt lat="48.23903" lon="6.76064">
        <ele>469.65</ele>
        <time>2023-09-21T05:47:36Z</time>
      </trkpt>
      <trkpt lat="48.23902" lon="6.76065">
        <ele>471.05</ele>
        <time>2023-09-21T05:48:17Z</time>
      </trkpt>
      <trkpt lat="48.239" lon="6.76068">
        <ele>472.11</ele>
        <time>2023-09-21T05:48:45Z</time>
      </trkpt>
      <trkpt lat="48.23883" lon="6.76073">
        <ele>473.03</ele>
        <time>2023-09-21T05:49:00Z</time>
      </trkpt>
      <trkpt lat="48.2387" lon="6.76082">
        <ele>472.92</ele>
        <time>2023-09-21T05:49:14Z</time>
      </trkpt>
      <trkpt lat="48.23866" lon="6.76085">
        <ele>473.21</ele>
        <time>2023-09-21T05:49:18Z</time>
      </trkpt>
      <trkpt lat="48.23865" lon="6.76086">
        <ele>473.38</ele>
        <time>2023-09-21T05:49:19Z</time>
      </trkpt>
      <trkpt lat="48.23864" lon="6.76088">
        <ele>473.04</ele>
        <time>2023-09-21T05:49:20Z</time>
      </trkpt>
      <trkpt lat="48.23858" lon="6.76095">
        <ele>474.43</ele>
        <time>2023-09-21T05:49:27Z</time>
      </trkpt>
      <trkpt lat="48.2385" lon="6.76101">
        <ele>475.67</ele>
        <time>2023-09-21T05:49:35Z</time>
      </trkpt>
      <trkpt lat="48.23846" lon="6.76102">
        <ele>475.89</ele>
        <time>2023-09-21T05:49:39Z</time>
      </trkpt>
      <trkpt lat="48.23845" lon="6.76103">
        <ele>475.97</ele>
        <time>2023-09-21T05:49:40Z</time>
      </trkpt>
      <trkpt lat="48.23826" lon="6.76105">
        <ele>476.14</ele>
        <time>2023-09-21T05:49:56Z</time>
      </trkpt>
      <trkpt lat="48.23821" lon="6.76107">
        <ele>475.73</ele>
        <time>2023-09-21T05:50:01Z</time>
      </trkpt>
      <trkpt lat="48.2382" lon="6.76108">
        <ele>475.89</ele>
        <time>2023-09-21T05:50:02Z</time>
      </trkpt>
      <trkpt lat="48.23819" lon="6.76109">
        <ele>476.21</ele>
        <time>2023-09-21T05:50:03Z</time>
      </trkpt>
      <trkpt lat="48.23818" lon="6.76109">
        <ele>475.8</ele>
        <time>2023-09-21T05:50:04Z</time>
      </trkpt>
      <trkpt lat="48.23802" lon="6.76112">
        <ele>475.91</ele>
        <time>2023-09-21T05:50:18Z</time>
      </trkpt>
      <trkpt lat="48.2379" lon="6.76114">
        <ele>477.27</ele>
        <time>2023-09-21T05:50:28Z</time>
      </trkpt>
      <trkpt lat="48.23775" lon="6.76114">
        <ele>478.44</ele>
        <time>2023-09-21T05:50:40Z</time>
      </trkpt>
      <trkpt lat="48.23773" lon="6.76113">
        <ele>478.44</ele>
        <time>2023-09-21T05:50:41Z</time>
      </trkpt>
      <trkpt lat="48.23771" lon="6.76114">
        <ele>478.53</ele>
        <time>2023-09-21T05:50:43Z</time>
      </trkpt>
      <trkpt lat="48.2377" lon="6.76114">
        <ele>478.82</ele>
        <time>2023-09-21T05:50:44Z</time>
      </trkpt>
      <trkpt lat="48.23769" lon="6.76115">
        <ele>479.07</ele>
        <time>2023-09-21T05:50:45Z</time>
      </trkpt>
      <trkpt lat="48.23768" lon="6.76118">
        <ele>479.35</ele>
        <time>2023-09-21T05:50:47Z</time>
      </trkpt>
      <trkpt lat="48.2377" lon="6.76121">
        <ele>479.7</ele>
        <time>2023-09-21T05:50:50Z</time>
      </trkpt>
      <trkpt lat="48.23771" lon="6.76122">
        <ele>479.76</ele>
        <time>2023-09-21T05:50:51Z</time>
      </trkpt>
      <trkpt lat="48.23775" lon="6.76125">
        <ele>480.87</ele>
        <time>2023-09-21T05:50:55Z</time>
      </trkpt>
      <trkpt lat="48.23776" lon="6.76125">
        <ele>481.65</ele>
        <time>2023-09-21T05:50:57Z</time>
      </trkpt>
      <trkpt lat="48.23778" lon="6.76125">
        <ele>481.79</ele>
        <time>2023-09-21T05:50:58Z</time>
      </trkpt>
      <trkpt lat="48.23792" lon="6.76131">
        <ele>484.19</ele>
        <time>2023-09-21T05:51:12Z</time>
      </trkpt>
      <trkpt lat="48.23802" lon="6.76134">
        <ele>485.23</ele>
        <time>2023-09-21T05:51:26Z</time>
      </trkpt>
      <trkpt lat="48.23805" lon="6.76136">
        <ele>485.06</ele>
        <time>2023-09-21T05:51:39Z</time>
      </trkpt>
      <trkpt lat="48.23803" lon="6.76136">
        <ele>485.78</ele>
        <time>2023-09-21T05:52:11Z</time>
      </trkpt>
      <trkpt lat="48.23806" lon="6.76135">
        <ele>487.37</ele>
        <time>2023-09-21T05:53:13Z</time>
      </trkpt>
      <trkpt lat="48.23807" lon="6.76136">
        <ele>489.02</ele>
        <time>2023-09-21T05:54:08Z</time>
      </trkpt>
      <trkpt lat="48.23807" lon="6.76137">
        <ele>490.34</ele>
        <time>2023-09-21T05:55:07Z</time>
      </trkpt>
      <trkpt lat="48.23808" lon="6.76135">
        <ele>491.47</ele>
        <time>2023-09-21T05:55:53Z</time>
      </trkpt>
      <trkpt lat="48.23807" lon="6.76134">
        <ele>492.13</ele>
        <time>2023-09-21T05:56:35Z</time>
      </trkpt>
      <trkpt lat="48.23802" lon="6.76137">
        <ele>493.23</ele>
        <time>2023-09-21T05:57:02Z</time>
      </trkpt>
      <trkpt lat="48.23804" lon="6.76139">
        <ele>494.28</ele>
        <time>2023-09-21T05:57:19Z</time>
      </trkpt>
      <trkpt lat="48.23799" lon="6.76136">
        <ele>493.89</ele>
        <time>2023-09-21T05:57:31Z</time>
      </trkpt>
      <trkpt lat="48.23793" lon="6.76136">
        <ele>494.39</ele>
        <time>2023-09-21T05:57:38Z</time>
      </trkpt>
      <trkpt lat="48.23792" lon="6.76135">
        <ele>494.33</ele>
        <time>2023-09-21T05:57:39Z</time>
      </trkpt>
      <trkpt lat="48.23776" lon="6.76125">
        <ele>491.84</ele>
        <time>2023-09-21T05:57:54Z</time>
      </trkpt>
      <trkpt lat="48.23757" lon="6.76119">
        <ele>490.29</ele>
        <time>2023-09-21T05:58:10Z</time>
      </trkpt>
      <trkpt lat="48.23734" lon="6.76122">
        <ele>491.83</ele>
        <time>2023-09-21T05:58:28Z</time>
      </trkpt>
      <trkpt lat="48.23712" lon="6.76133">
        <ele>492.21</ele>
        <time>2023-09-21T05:58:46Z</time>
      </trkpt>
      <trkpt lat="48.23698" lon="6.7615">
        <ele>492.91</ele>
        <time>2023-09-21T05:59:00Z</time>
      </trkpt>
      <trkpt lat="48.23695" lon="6.76183">
        <ele>493.16</ele>
        <time>2023-09-21T05:59:18Z</time>
      </trkpt>
      <trkpt lat="48.23697" lon="6.76218">
        <ele>493.09</ele>
        <time>2023-09-21T05:59:37Z</time>
      </trkpt>
      <trkpt lat="48.23701" lon="6.7625">
        <ele>493.22</ele>
        <time>2023-09-21T05:59:55Z</time>
      </trkpt>
      <trkpt lat="48.23706" lon="6.76289">
        <ele>493.81</ele>
        <time>2023-09-21T06:00:17Z</time>
      </trkpt>
      <trkpt lat="48.23709" lon="6.76319">
        <ele>494.75</ele>
        <time>2023-09-21T06:00:34Z</time>
      </trkpt>
      <trkpt lat="48.23708" lon="6.76356">
        <ele>495.06</ele>
        <time>2023-09-21T06:00:54Z</time>
      </trkpt>
      <trkpt lat="48.23707" lon="6.76396">
        <ele>495.28</ele>
        <time>2023-09-21T06:01:14Z</time>
      </trkpt>
      <trkpt lat="48.23699" lon="6.7641">
        <ele>495.18</ele>
        <time>2023-09-21T06:01:23Z</time>
      </trkpt>
      <trkpt lat="48.23698" lon="6.7641">
        <ele>495.2</ele>
        <time>2023-09-21T06:01:24Z</time>
      </trkpt>
      <trkpt lat="48.23697" lon="6.76411">
        <ele>495.56</ele>
        <time>2023-09-21T06:01:25Z</time>
      </trkpt>
      <trkpt lat="48.23696" lon="6.76412">
        <ele>495.1</ele>
        <time>2023-09-21T06:01:26Z</time>
      </trkpt>
      <trkpt lat="48.23695" lon="6.76413">
        <ele>495.31</ele>
        <time>2023-09-21T06:01:27Z</time>
      </trkpt>
      <trkpt lat="48.23694" lon="6.76414">
        <ele>495.17</ele>
        <time>2023-09-21T06:01:28Z</time>
      </trkpt>
      <trkpt lat="48.23693" lon="6.76415">
        <ele>495.02</ele>
        <time>2023-09-21T06:01:29Z</time>
      </trkpt>
      <trkpt lat="48.23689" lon="6.76418">
        <ele>494.75</ele>
        <time>2023-09-21T06:01:32Z</time>
      </trkpt>
      <trkpt lat="48.23688" lon="6.76419">
        <ele>494.87</ele>
        <time>2023-09-21T06:01:33Z</time>
      </trkpt>
      <trkpt lat="48.23671" lon="6.76434">
        <ele>493.84</ele>
        <time>2023-09-21T06:01:49Z</time>
      </trkpt>
      <trkpt lat="48.23669" lon="6.76435">
        <ele>494.64</ele>
        <time>2023-09-21T06:01:50Z</time>
      </trkpt>
      <trkpt lat="48.23654" lon="6.76451">
        <ele>495.58</ele>
        <time>2023-09-21T06:02:06Z</time>
      </trkpt>
      <trkpt lat="48.23649" lon="6.76456">
        <ele>495.85</ele>
        <time>2023-09-21T06:02:11Z</time>
      </trkpt>
      <trkpt lat="48.23631" lon="6.76476">
        <ele>496.57</ele>
        <time>2023-09-21T06:02:29Z</time>
      </trkpt>
      <trkpt lat="48.23627" lon="6.76498">
        <ele>496.93</ele>
        <time>2023-09-21T06:02:42Z</time>
      </trkpt>
      <trkpt lat="48.23627" lon="6.765">
        <ele>497.06</ele>
        <time>2023-09-21T06:02:43Z</time>
      </trkpt>
      <trkpt lat="48.2363" lon="6.76509">
        <ele>497.51</ele>
        <time>2023-09-21T06:02:53Z</time>
      </trkpt>
      <trkpt lat="48.23631" lon="6.76511">
        <ele>497.6</ele>
        <time>2023-09-21T06:02:54Z</time>
      </trkpt>
      <trkpt lat="48.23632" lon="6.76513">
        <ele>497.75</ele>
        <time>2023-09-21T06:02:55Z</time>
      </trkpt>
      <trkpt lat="48.23632" lon="6.76514">
        <ele>497.36</ele>
        <time>2023-09-21T06:02:56Z</time>
      </trkpt>
      <trkpt lat="48.23633" lon="6.76516">
        <ele>497.81</ele>
        <time>2023-09-21T06:02:57Z</time>
      </trkpt>
      <trkpt lat="48.23641" lon="6.76532">
        <ele>497.66</ele>
        <time>2023-09-21T06:03:07Z</time>
      </trkpt>
      <trkpt lat="48.23642" lon="6.76533">
        <ele>497.84</ele>
        <time>2023-09-21T06:03:08Z</time>
      </trkpt>
      <trkpt lat="48.23643" lon="6.76535">
        <ele>498.12</ele>
        <time>2023-09-21T06:03:09Z</time>
      </trkpt>
      <trkpt lat="48.23644" lon="6.76536">
        <ele>497.76</ele>
        <time>2023-09-21T06:03:10Z</time>
      </trkpt>
      <trkpt lat="48.23645" lon="6.76537">
        <ele>498.34</ele>
        <time>2023-09-21T06:03:11Z</time>
      </trkpt>
      <trkpt lat="48.23659" lon="6.76558">
        <ele>499</ele>
        <time>2023-09-21T06:03:26Z</time>
      </trkpt>
      <trkpt lat="48.23677" lon="6.76582">
        <ele>499.23</ele>
        <time>2023-09-21T06:03:45Z</time>
      </trkpt>
      <trkpt lat="48.23692" lon="6.76599">
        <ele>499.07</ele>
        <time>2023-09-21T06:04:00Z</time>
      </trkpt>
      <trkpt lat="48.23693" lon="6.766">
        <ele>498.91</ele>
        <time>2023-09-21T06:04:01Z</time>
      </trkpt>
      <trkpt lat="48.23694" lon="6.76601">
        <ele>498.75</ele>
        <time>2023-09-21T06:04:02Z</time>
      </trkpt>
      <trkpt lat="48.23695" lon="6.76602">
        <ele>498.88</ele>
        <time>2023-09-21T06:04:03Z</time>
      </trkpt>
      <trkpt lat="48.2371" lon="6.76614">
        <ele>501.01</ele>
        <time>2023-09-21T06:04:17Z</time>
      </trkpt>
      <trkpt lat="48.23717" lon="6.76623">
        <ele>501.27</ele>
        <time>2023-09-21T06:04:25Z</time>
      </trkpt>
      <trkpt lat="48.23718" lon="6.76624">
        <ele>501.35</ele>
        <time>2023-09-21T06:04:26Z</time>
      </trkpt>
      <trkpt lat="48.23719" lon="6.76625">
        <ele>501.57</ele>
        <time>2023-09-21T06:04:27Z</time>
      </trkpt>
      <trkpt lat="48.23735" lon="6.76647">
        <ele>501.1</ele>
        <time>2023-09-21T06:04:43Z</time>
      </trkpt>
      <trkpt lat="48.23737" lon="6.76649">
        <ele>501.23</ele>
        <time>2023-09-21T06:04:45Z</time>
      </trkpt>
      <trkpt lat="48.23738" lon="6.7665">
        <ele>501.51</ele>
        <time>2023-09-21T06:04:46Z</time>
      </trkpt>
      <trkpt lat="48.23756" lon="6.76688">
        <ele>502.19</ele>
        <time>2023-09-21T06:05:08Z</time>
      </trkpt>
      <trkpt lat="48.23772" lon="6.7672">
        <ele>503.42</ele>
        <time>2023-09-21T06:05:27Z</time>
      </trkpt>
      <trkpt lat="48.23775" lon="6.76726">
        <ele>503.41</ele>
        <time>2023-09-21T06:05:31Z</time>
      </trkpt>
      <trkpt lat="48.23776" lon="6.76727">
        <ele>503.48</ele>
        <time>2023-09-21T06:05:32Z</time>
      </trkpt>
      <trkpt lat="48.23794" lon="6.76762">
        <ele>504.38</ele>
        <time>2023-09-21T06:05:54Z</time>
      </trkpt>
      <trkpt lat="48.23807" lon="6.76797">
        <ele>504.71</ele>
        <time>2023-09-21T06:06:13Z</time>
      </trkpt>
      <trkpt lat="48.23811" lon="6.76834">
        <ele>504.85</ele>
        <time>2023-09-21T06:06:30Z</time>
      </trkpt>
      <trkpt lat="48.23811" lon="6.76868">
        <ele>506.05</ele>
        <time>2023-09-21T06:06:48Z</time>
      </trkpt>
      <trkpt lat="48.23802" lon="6.76909">
        <ele>507.89</ele>
        <time>2023-09-21T06:07:09Z</time>
      </trkpt>
      <trkpt lat="48.23794" lon="6.76943">
        <ele>508.01</ele>
        <time>2023-09-21T06:07:28Z</time>
      </trkpt>
      <trkpt lat="48.23787" lon="6.76983">
        <ele>508.57</ele>
        <time>2023-09-21T06:07:49Z</time>
      </trkpt>
      <trkpt lat="48.23783" lon="6.77002">
        <ele>508.99</ele>
        <time>2023-09-21T06:08:05Z</time>
      </trkpt>
      <trkpt lat="48.23781" lon="6.77003">
        <ele>509.47</ele>
        <time>2023-09-21T06:08:37Z</time>
      </trkpt>
      <trkpt lat="48.23782" lon="6.77006">
        <ele>509.75</ele>
        <time>2023-09-21T06:08:55Z</time>
      </trkpt>
      <trkpt lat="48.23781" lon="6.77005">
        <ele>509.9</ele>
        <time>2023-09-21T06:09:22Z</time>
      </trkpt>
      <trkpt lat="48.23779" lon="6.77004">
        <ele>510.68</ele>
        <time>2023-09-21T06:09:24Z</time>
      </trkpt>
      <trkpt lat="48.23778" lon="6.77005">
        <ele>510.32</ele>
        <time>2023-09-21T06:09:25Z</time>
      </trkpt>
      <trkpt lat="48.23762" lon="6.77015">
        <ele>509.9</ele>
        <time>2023-09-21T06:09:40Z</time>
      </trkpt>
      <trkpt lat="48.23752" lon="6.77028">
        <ele>509.3</ele>
        <time>2023-09-21T06:09:50Z</time>
      </trkpt>
      <trkpt lat="48.23751" lon="6.77029">
        <ele>509.62</ele>
        <time>2023-09-21T06:09:51Z</time>
      </trkpt>
      <trkpt lat="48.2375" lon="6.7703">
        <ele>509.86</ele>
        <time>2023-09-21T06:09:52Z</time>
      </trkpt>
      <trkpt lat="48.23737" lon="6.77037">
        <ele>509.05</ele>
        <time>2023-09-21T06:10:05Z</time>
      </trkpt>
      <trkpt lat="48.23736" lon="6.77041">
        <ele>509.08</ele>
        <time>2023-09-21T06:10:11Z</time>
      </trkpt>
      <trkpt lat="48.23736" lon="6.77043">
        <ele>508.99</ele>
        <time>2023-09-21T06:10:12Z</time>
      </trkpt>
      <trkpt lat="48.23737" lon="6.77044">
        <ele>509.34</ele>
        <time>2023-09-21T06:10:13Z</time>
      </trkpt>
      <trkpt lat="48.23737" lon="6.77046">
        <ele>509.55</ele>
        <time>2023-09-21T06:10:14Z</time>
      </trkpt>
      <trkpt lat="48.23738" lon="6.77048">
        <ele>509.8</ele>
        <time>2023-09-21T06:10:15Z</time>
      </trkpt>
      <trkpt lat="48.23741" lon="6.77057">
        <ele>509.79</ele>
        <time>2023-09-21T06:10:30Z</time>
      </trkpt>
      <trkpt lat="48.23741" lon="6.77058">
        <ele>509.64</ele>
        <time>2023-09-21T06:10:31Z</time>
      </trkpt>
      <trkpt lat="48.23742" lon="6.7706">
        <ele>510.41</ele>
        <time>2023-09-21T06:10:32Z</time>
      </trkpt>
      <trkpt lat="48.23741" lon="6.77066">
        <ele>510.61</ele>
        <time>2023-09-21T06:10:38Z</time>
      </trkpt>
      <trkpt lat="48.23741" lon="6.77064">
        <ele>510.22</ele>
        <time>2023-09-21T06:10:47Z</time>
      </trkpt>
      <trkpt lat="48.23741" lon="6.77063">
        <ele>510.22</ele>
        <time>2023-09-21T06:10:48Z</time>
      </trkpt>
      <trkpt lat="48.23739" lon="6.77055">
        <ele>510.72</ele>
        <time>2023-09-21T06:11:02Z</time>
      </trkpt>
      <trkpt lat="48.23738" lon="6.77055">
        <ele>511.09</ele>
        <time>2023-09-21T06:11:28Z</time>
      </trkpt>
      <trkpt lat="48.23735" lon="6.77054">
        <ele>510.38</ele>
        <time>2023-09-21T06:11:44Z</time>
      </trkpt>
      <trkpt lat="48.23732" lon="6.77056">
        <ele>511.12</ele>
        <time>2023-09-21T06:11:48Z</time>
      </trkpt>
      <trkpt lat="48.23731" lon="6.77057">
        <ele>511</ele>
        <time>2023-09-21T06:11:49Z</time>
      </trkpt>
      <trkpt lat="48.2372" lon="6.77073">
        <ele>514.45</ele>
        <time>2023-09-21T06:12:05Z</time>
      </trkpt>
      <trkpt lat="48.23717" lon="6.77076">
        <ele>514.36</ele>
        <time>2023-09-21T06:12:08Z</time>
      </trkpt>
      <trkpt lat="48.23717" lon="6.77078">
        <ele>515.14</ele>
        <time>2023-09-21T06:12:09Z</time>
      </trkpt>
      <trkpt lat="48.23704" lon="6.77092">
        <ele>517.25</ele>
        <time>2023-09-21T06:12:25Z</time>
      </trkpt>
      <trkpt lat="48.2369" lon="6.77103">
        <ele>520.58</ele>
        <time>2023-09-21T06:12:40Z</time>
      </trkpt>
      <trkpt lat="48.23677" lon="6.77118">
        <ele>523.18</ele>
        <time>2023-09-21T06:12:59Z</time>
      </trkpt>
      <trkpt lat="48.23674" lon="6.77119">
        <ele>522.92</ele>
        <time>2023-09-21T06:13:01Z</time>
      </trkpt>
      <trkpt lat="48.23671" lon="6.77123">
        <ele>524.13</ele>
        <time>2023-09-21T06:13:06Z</time>
      </trkpt>
      <trkpt lat="48.23664" lon="6.77128">
        <ele>525.19</ele>
        <time>2023-09-21T06:13:19Z</time>
      </trkpt>
      <trkpt lat="48.23655" lon="6.77135">
        <ele>528.42</ele>
        <time>2023-09-21T06:13:34Z</time>
      </trkpt>
      <trkpt lat="48.23651" lon="6.77143">
        <ele>529.26</ele>
        <time>2023-09-21T06:13:43Z</time>
      </trkpt>
      <trkpt lat="48.23642" lon="6.77152">
        <ele>532.54</ele>
        <time>2023-09-21T06:13:58Z</time>
      </trkpt>
      <trkpt lat="48.23636" lon="6.77165">
        <ele>536.1</ele>
        <time>2023-09-21T06:14:18Z</time>
      </trkpt>
      <trkpt lat="48.23631" lon="6.77168">
        <ele>537.08</ele>
        <time>2023-09-21T06:14:25Z</time>
      </trkpt>
      <trkpt lat="48.2362" lon="6.77178">
        <ele>540.2</ele>
        <time>2023-09-21T06:14:47Z</time>
      </trkpt>
      <trkpt lat="48.23615" lon="6.77194">
        <ele>543.43</ele>
        <time>2023-09-21T06:15:04Z</time>
      </trkpt>
      <trkpt lat="48.23612" lon="6.772">
        <ele>544.53</ele>
        <time>2023-09-21T06:15:11Z</time>
      </trkpt>
      <trkpt lat="48.23607" lon="6.77211">
        <ele>546.7</ele>
        <time>2023-09-21T06:15:30Z</time>
      </trkpt>
      <trkpt lat="48.23603" lon="6.77227">
        <ele>549.65</ele>
        <time>2023-09-21T06:15:48Z</time>
      </trkpt>
      <trkpt lat="48.23601" lon="6.7724">
        <ele>551.29</ele>
        <time>2023-09-21T06:16:00Z</time>
      </trkpt>
      <trkpt lat="48.23598" lon="6.77255">
        <ele>554.37</ele>
        <time>2023-09-21T06:16:15Z</time>
      </trkpt>
      <trkpt lat="48.23597" lon="6.77276">
        <ele>555.12</ele>
        <time>2023-09-21T06:16:37Z</time>
      </trkpt>
      <trkpt lat="48.23596" lon="6.77302">
        <ele>558.38</ele>
        <time>2023-09-21T06:16:56Z</time>
      </trkpt>
      <trkpt lat="48.23594" lon="6.77326">
        <ele>560.26</ele>
        <time>2023-09-21T06:17:11Z</time>
      </trkpt>
      <trkpt lat="48.23592" lon="6.77344">
        <ele>561.3</ele>
        <time>2023-09-21T06:17:24Z</time>
      </trkpt>
      <trkpt lat="48.23588" lon="6.77366">
        <ele>564.33</ele>
        <time>2023-09-21T06:17:42Z</time>
      </trkpt>
      <trkpt lat="48.23589" lon="6.7739">
        <ele>564.81</ele>
        <time>2023-09-21T06:17:58Z</time>
      </trkpt>
      <trkpt lat="48.23592" lon="6.77398">
        <ele>565.03</ele>
        <time>2023-09-21T06:18:18Z</time>
      </trkpt>
      <trkpt lat="48.23591" lon="6.77395">
        <ele>565.99</ele>
        <time>2023-09-21T06:18:39Z</time>
      </trkpt>
      <trkpt lat="48.23593" lon="6.77402">
        <ele>566.27</ele>
        <time>2023-09-21T06:19:00Z</time>
      </trkpt>
      <trkpt lat="48.23595" lon="6.774">
        <ele>566.09</ele>
        <time>2023-09-21T06:19:32Z</time>
      </trkpt>
      <trkpt lat="48.23595" lon="6.77405">
        <ele>566.27</ele>
        <time>2023-09-21T06:19:57Z</time>
      </trkpt>
      <trkpt lat="48.23602" lon="6.77428">
        <ele>566.33</ele>
        <time>2023-09-21T06:20:13Z</time>
      </trkpt>
      <trkpt lat="48.2361" lon="6.7745">
        <ele>566.63</ele>
        <time>2023-09-21T06:20:28Z</time>
      </trkpt>
      <trkpt lat="48.23621" lon="6.77471">
        <ele>566.4</ele>
        <time>2023-09-21T06:20:43Z</time>
      </trkpt>
      <trkpt lat="48.23633" lon="6.77487">
        <ele>566.53</ele>
        <time>2023-09-21T06:20:58Z</time>
      </trkpt>
      <trkpt lat="48.23646" lon="6.775">
        <ele>567.17</ele>
        <time>2023-09-21T06:21:13Z</time>
      </trkpt>
      <trkpt lat="48.2366" lon="6.77521">
        <ele>566.42</ele>
        <time>2023-09-21T06:21:29Z</time>
      </trkpt>
      <trkpt lat="48.23666" lon="6.77532">
        <ele>568.06</ele>
        <time>2023-09-21T06:21:37Z</time>
      </trkpt>
      <trkpt lat="48.23668" lon="6.77535">
        <ele>567.25</ele>
        <time>2023-09-21T06:21:39Z</time>
      </trkpt>
      <trkpt lat="48.23669" lon="6.77537">
        <ele>567.78</ele>
        <time>2023-09-21T06:21:40Z</time>
      </trkpt>
      <trkpt lat="48.23671" lon="6.77538">
        <ele>567.61</ele>
        <time>2023-09-21T06:21:41Z</time>
      </trkpt>
      <trkpt lat="48.23685" lon="6.77559">
        <ele>567.83</ele>
        <time>2023-09-21T06:21:56Z</time>
      </trkpt>
      <trkpt lat="48.2369" lon="6.77566">
        <ele>568.22</ele>
        <time>2023-09-21T06:22:01Z</time>
      </trkpt>
      <trkpt lat="48.23691" lon="6.77567">
        <ele>568.21</ele>
        <time>2023-09-21T06:22:02Z</time>
      </trkpt>
      <trkpt lat="48.23703" lon="6.77586">
        <ele>567.63</ele>
        <time>2023-09-21T06:22:16Z</time>
      </trkpt>
      <trkpt lat="48.23705" lon="6.77587">
        <ele>567.74</ele>
        <time>2023-09-21T06:22:17Z</time>
      </trkpt>
      <trkpt lat="48.23707" lon="6.77591">
        <ele>566.92</ele>
        <time>2023-09-21T06:22:20Z</time>
      </trkpt>
      <trkpt lat="48.2372" lon="6.77613">
        <ele>567.13</ele>
        <time>2023-09-21T06:22:34Z</time>
      </trkpt>
      <trkpt lat="48.23728" lon="6.77632">
        <ele>566.93</ele>
        <time>2023-09-21T06:22:46Z</time>
      </trkpt>
      <trkpt lat="48.23729" lon="6.77634">
        <ele>567.21</ele>
        <time>2023-09-21T06:22:47Z</time>
      </trkpt>
      <trkpt lat="48.23731" lon="6.77639">
        <ele>567.92</ele>
        <time>2023-09-21T06:22:50Z</time>
      </trkpt>
      <trkpt lat="48.23731" lon="6.77641">
        <ele>567.2</ele>
        <time>2023-09-21T06:22:51Z</time>
      </trkpt>
      <trkpt lat="48.23732" lon="6.77643">
        <ele>567.76</ele>
        <time>2023-09-21T06:22:52Z</time>
      </trkpt>
      <trkpt lat="48.23737" lon="6.77654">
        <ele>567.67</ele>
        <time>2023-09-21T06:22:58Z</time>
      </trkpt>
      <trkpt lat="48.23738" lon="6.77656">
        <ele>567.58</ele>
        <time>2023-09-21T06:22:59Z</time>
      </trkpt>
      <trkpt lat="48.23739" lon="6.77658">
        <ele>568.07</ele>
        <time>2023-09-21T06:23:00Z</time>
      </trkpt>
      <trkpt lat="48.23749" lon="6.77677">
        <ele>567.77</ele>
        <time>2023-09-21T06:23:12Z</time>
      </trkpt>
      <trkpt lat="48.2375" lon="6.77679">
        <ele>568.1</ele>
        <time>2023-09-21T06:23:13Z</time>
      </trkpt>
      <trkpt lat="48.23751" lon="6.7768">
        <ele>568.34</ele>
        <time>2023-09-21T06:23:14Z</time>
      </trkpt>
      <trkpt lat="48.23753" lon="6.77688">
        <ele>567.92</ele>
        <time>2023-09-21T06:23:18Z</time>
      </trkpt>
      <trkpt lat="48.23753" lon="6.7769">
        <ele>568.1</ele>
        <time>2023-09-21T06:23:19Z</time>
      </trkpt>
      <trkpt lat="48.23757" lon="6.77701">
        <ele>566.45</ele>
        <time>2023-09-21T06:23:24Z</time>
      </trkpt>
      <trkpt lat="48.23765" lon="6.77729">
        <ele>567.1</ele>
        <time>2023-09-21T06:23:38Z</time>
      </trkpt>
      <trkpt lat="48.23774" lon="6.77759">
        <ele>566.87</ele>
        <time>2023-09-21T06:23:52Z</time>
      </trkpt>
      <trkpt lat="48.23774" lon="6.77761">
        <ele>566.56</ele>
        <time>2023-09-21T06:23:53Z</time>
      </trkpt>
      <trkpt lat="48.23775" lon="6.77762">
        <ele>566.41</ele>
        <time>2023-09-21T06:23:54Z</time>
      </trkpt>
      <trkpt lat="48.23775" lon="6.77765">
        <ele>565.48</ele>
        <time>2023-09-21T06:23:56Z</time>
      </trkpt>
      <trkpt lat="48.23779" lon="6.77777">
        <ele>565.2</ele>
        <time>2023-09-21T06:24:03Z</time>
      </trkpt>
      <trkpt lat="48.2378" lon="6.77779">
        <ele>564.99</ele>
        <time>2023-09-21T06:24:04Z</time>
      </trkpt>
      <trkpt lat="48.23784" lon="6.77782">
        <ele>564.46</ele>
        <time>2023-09-21T06:24:24Z</time>
      </trkpt>
      <trkpt lat="48.23785" lon="6.77787">
        <ele>564.12</ele>
        <time>2023-09-21T06:24:27Z</time>
      </trkpt>
      <trkpt lat="48.23785" lon="6.7779">
        <ele>563.88</ele>
        <time>2023-09-21T06:24:28Z</time>
      </trkpt>
      <trkpt lat="48.23786" lon="6.77792">
        <ele>564.67</ele>
        <time>2023-09-21T06:24:29Z</time>
      </trkpt>
      <trkpt lat="48.23786" lon="6.77794">
        <ele>563.91</ele>
        <time>2023-09-21T06:24:30Z</time>
      </trkpt>
      <trkpt lat="48.23786" lon="6.77797">
        <ele>563.81</ele>
        <time>2023-09-21T06:24:31Z</time>
      </trkpt>
      <trkpt lat="48.23786" lon="6.77799">
        <ele>564.12</ele>
        <time>2023-09-21T06:24:32Z</time>
      </trkpt>
      <trkpt lat="48.23787" lon="6.77801">
        <ele>564.14</ele>
        <time>2023-09-21T06:24:33Z</time>
      </trkpt>
      <trkpt lat="48.23787" lon="6.77804">
        <ele>564.02</ele>
        <time>2023-09-21T06:24:34Z</time>
      </trkpt>
      <trkpt lat="48.23793" lon="6.77835">
        <ele>563.83</ele>
        <time>2023-09-21T06:24:50Z</time>
      </trkpt>
      <trkpt lat="48.23793" lon="6.77837">
        <ele>563.5</ele>
        <time>2023-09-21T06:24:51Z</time>
      </trkpt>
      <trkpt lat="48.23793" lon="6.77839">
        <ele>563.82</ele>
        <time>2023-09-21T06:24:52Z</time>
      </trkpt>
      <trkpt lat="48.23794" lon="6.77842">
        <ele>563.58</ele>
        <time>2023-09-21T06:24:53Z</time>
      </trkpt>
      <trkpt lat="48.23794" lon="6.77844">
        <ele>563.82</ele>
        <time>2023-09-21T06:24:54Z</time>
      </trkpt>
      <trkpt lat="48.23795" lon="6.77847">
        <ele>563.47</ele>
        <time>2023-09-21T06:24:55Z</time>
      </trkpt>
      <trkpt lat="48.23797" lon="6.77855">
        <ele>563.38</ele>
        <time>2023-09-21T06:24:59Z</time>
      </trkpt>
      <trkpt lat="48.23797" lon="6.77857">
        <ele>563.93</ele>
        <time>2023-09-21T06:25:00Z</time>
      </trkpt>
      <trkpt lat="48.23797" lon="6.77858">
        <ele>564.55</ele>
        <time>2023-09-21T06:25:01Z</time>
      </trkpt>
      <trkpt lat="48.23797" lon="6.7786">
        <ele>563.92</ele>
        <time>2023-09-21T06:25:02Z</time>
      </trkpt>
      <trkpt lat="48.23798" lon="6.77862">
        <ele>563.83</ele>
        <time>2023-09-21T06:25:03Z</time>
      </trkpt>
      <trkpt lat="48.23798" lon="6.77864">
        <ele>563.86</ele>
        <time>2023-09-21T06:25:04Z</time>
      </trkpt>
      <trkpt lat="48.23799" lon="6.77871">
        <ele>564.12</ele>
        <time>2023-09-21T06:25:09Z</time>
      </trkpt>
      <trkpt lat="48.23798" lon="6.77873">
        <ele>564.3</ele>
        <time>2023-09-21T06:25:10Z</time>
      </trkpt>
      <trkpt lat="48.23798" lon="6.77874">
        <ele>564.26</ele>
        <time>2023-09-21T06:25:11Z</time>
      </trkpt>
      <trkpt lat="48.23798" lon="6.77903">
        <ele>564.73</ele>
        <time>2023-09-21T06:25:28Z</time>
      </trkpt>
      <trkpt lat="48.23799" lon="6.77908">
        <ele>563.92</ele>
        <time>2023-09-21T06:25:30Z</time>
      </trkpt>
      <trkpt lat="48.238" lon="6.7791">
        <ele>564.09</ele>
        <time>2023-09-21T06:25:31Z</time>
      </trkpt>
      <trkpt lat="48.23803" lon="6.77941">
        <ele>564.84</ele>
        <time>2023-09-21T06:25:46Z</time>
      </trkpt>
      <trkpt lat="48.23804" lon="6.7795">
        <ele>564.93</ele>
        <time>2023-09-21T06:25:50Z</time>
      </trkpt>
      <trkpt lat="48.23805" lon="6.77952">
        <ele>564.96</ele>
        <time>2023-09-21T06:25:51Z</time>
      </trkpt>
      <trkpt lat="48.23804" lon="6.77985">
        <ele>565.44</ele>
        <time>2023-09-21T06:26:05Z</time>
      </trkpt>
      <trkpt lat="48.23801" lon="6.78016">
        <ele>565.66</ele>
        <time>2023-09-21T06:26:20Z</time>
      </trkpt>
      <trkpt lat="48.23801" lon="6.78044">
        <ele>565.53</ele>
        <time>2023-09-21T06:26:34Z</time>
      </trkpt>
      <trkpt lat="48.23801" lon="6.78046">
        <ele>565.54</ele>
        <time>2023-09-21T06:26:35Z</time>
      </trkpt>
      <trkpt lat="48.23805" lon="6.7805">
        <ele>566</ele>
        <time>2023-09-21T06:26:49Z</time>
      </trkpt>
      <trkpt lat="48.23804" lon="6.78056">
        <ele>566.62</ele>
        <time>2023-09-21T06:26:57Z</time>
      </trkpt>
      <trkpt lat="48.23803" lon="6.78057">
        <ele>566.43</ele>
        <time>2023-09-21T06:26:58Z</time>
      </trkpt>
      <trkpt lat="48.23798" lon="6.78068">
        <ele>566.36</ele>
        <time>2023-09-21T06:27:08Z</time>
      </trkpt>
      <trkpt lat="48.23797" lon="6.7807">
        <ele>566.34</ele>
        <time>2023-09-21T06:27:09Z</time>
      </trkpt>
      <trkpt lat="48.23796" lon="6.78072">
        <ele>566.22</ele>
        <time>2023-09-21T06:27:10Z</time>
      </trkpt>
      <trkpt lat="48.23796" lon="6.78073">
        <ele>566.26</ele>
        <time>2023-09-21T06:27:11Z</time>
      </trkpt>
      <trkpt lat="48.23795" lon="6.78074">
        <ele>566.41</ele>
        <time>2023-09-21T06:27:12Z</time>
      </trkpt>
      <trkpt lat="48.23794" lon="6.78076">
        <ele>566.63</ele>
        <time>2023-09-21T06:27:13Z</time>
      </trkpt>
      <trkpt lat="48.23785" lon="6.78099">
        <ele>566.34</ele>
        <time>2023-09-21T06:27:29Z</time>
      </trkpt>
      <trkpt lat="48.23778" lon="6.78111">
        <ele>567.66</ele>
        <time>2023-09-21T06:27:40Z</time>
      </trkpt>
      <trkpt lat="48.23775" lon="6.78122">
        <ele>568.78</ele>
        <time>2023-09-21T06:27:48Z</time>
      </trkpt>
      <trkpt lat="48.23774" lon="6.78123">
        <ele>569.02</ele>
        <time>2023-09-21T06:27:49Z</time>
      </trkpt>
      <trkpt lat="48.23773" lon="6.78125">
        <ele>568.9</ele>
        <time>2023-09-21T06:27:50Z</time>
      </trkpt>
      <trkpt lat="48.23772" lon="6.78126">
        <ele>568.9</ele>
        <time>2023-09-21T06:27:51Z</time>
      </trkpt>
      <trkpt lat="48.23771" lon="6.78132">
        <ele>569.98</ele>
        <time>2023-09-21T06:27:55Z</time>
      </trkpt>
      <trkpt lat="48.2377" lon="6.78135">
        <ele>570.03</ele>
        <time>2023-09-21T06:27:57Z</time>
      </trkpt>
      <trkpt lat="48.2377" lon="6.78137">
        <ele>570.23</ele>
        <time>2023-09-21T06:27:58Z</time>
      </trkpt>
      <trkpt lat="48.23769" lon="6.78139">
        <ele>570.55</ele>
        <time>2023-09-21T06:27:59Z</time>
      </trkpt>
      <trkpt lat="48.23766" lon="6.7815">
        <ele>571.12</ele>
        <time>2023-09-21T06:28:07Z</time>
      </trkpt>
      <trkpt lat="48.23765" lon="6.78152">
        <ele>571.41</ele>
        <time>2023-09-21T06:28:08Z</time>
      </trkpt>
      <trkpt lat="48.23765" lon="6.78154">
        <ele>571.52</ele>
        <time>2023-09-21T06:28:09Z</time>
      </trkpt>
      <trkpt lat="48.23764" lon="6.78155">
        <ele>571.73</ele>
        <time>2023-09-21T06:28:10Z</time>
      </trkpt>
      <trkpt lat="48.23764" lon="6.78157">
        <ele>571.63</ele>
        <time>2023-09-21T06:28:11Z</time>
      </trkpt>
      <trkpt lat="48.23764" lon="6.78159">
        <ele>571.53</ele>
        <time>2023-09-21T06:28:12Z</time>
      </trkpt>
      <trkpt lat="48.23761" lon="6.78184">
        <ele>572.2</ele>
        <time>2023-09-21T06:28:27Z</time>
      </trkpt>
      <trkpt lat="48.23759" lon="6.7819">
        <ele>572.71</ele>
        <time>2023-09-21T06:28:31Z</time>
      </trkpt>
      <trkpt lat="48.23758" lon="6.78191">
        <ele>572.71</ele>
        <time>2023-09-21T06:28:32Z</time>
      </trkpt>
      <trkpt lat="48.23755" lon="6.782">
        <ele>573.15</ele>
        <time>2023-09-21T06:28:37Z</time>
      </trkpt>
      <trkpt lat="48.23755" lon="6.78203">
        <ele>573.05</ele>
        <time>2023-09-21T06:28:38Z</time>
      </trkpt>
      <trkpt lat="48.23749" lon="6.78235">
        <ele>574.77</ele>
        <time>2023-09-21T06:28:55Z</time>
      </trkpt>
      <trkpt lat="48.23748" lon="6.78263">
        <ele>574.8</ele>
        <time>2023-09-21T06:29:10Z</time>
      </trkpt>
      <trkpt lat="48.23746" lon="6.78302">
        <ele>576.67</ele>
        <time>2023-09-21T06:29:30Z</time>
      </trkpt>
      <trkpt lat="48.23749" lon="6.78338">
        <ele>577.31</ele>
        <time>2023-09-21T06:29:47Z</time>
      </trkpt>
      <trkpt lat="48.23746" lon="6.7836">
        <ele>577.59</ele>
        <time>2023-09-21T06:30:00Z</time>
      </trkpt>
      <trkpt lat="48.23738" lon="6.78386">
        <ele>576.78</ele>
        <time>2023-09-21T06:30:16Z</time>
      </trkpt>
      <trkpt lat="48.23734" lon="6.78392">
        <ele>577.42</ele>
        <time>2023-09-21T06:30:21Z</time>
      </trkpt>
      <trkpt lat="48.23733" lon="6.78393">
        <ele>577.56</ele>
        <time>2023-09-21T06:30:22Z</time>
      </trkpt>
      <trkpt lat="48.23731" lon="6.78395">
        <ele>577.34</ele>
        <time>2023-09-21T06:30:24Z</time>
      </trkpt>
      <trkpt lat="48.2373" lon="6.78396">
        <ele>576.56</ele>
        <time>2023-09-21T06:30:25Z</time>
      </trkpt>
      <trkpt lat="48.23729" lon="6.78397">
        <ele>576.69</ele>
        <time>2023-09-21T06:30:26Z</time>
      </trkpt>
      <trkpt lat="48.23728" lon="6.78398">
        <ele>576.64</ele>
        <time>2023-09-21T06:30:27Z</time>
      </trkpt>
      <trkpt lat="48.23727" lon="6.78399">
        <ele>576.65</ele>
        <time>2023-09-21T06:30:28Z</time>
      </trkpt>
      <trkpt lat="48.23726" lon="6.784">
        <ele>576.83</ele>
        <time>2023-09-21T06:30:29Z</time>
      </trkpt>
      <trkpt lat="48.23725" lon="6.78401">
        <ele>576.58</ele>
        <time>2023-09-21T06:30:30Z</time>
      </trkpt>
      <trkpt lat="48.23724" lon="6.78403">
        <ele>576.74</ele>
        <time>2023-09-21T06:30:31Z</time>
      </trkpt>
      <trkpt lat="48.23723" lon="6.78404">
        <ele>576.27</ele>
        <time>2023-09-21T06:30:32Z</time>
      </trkpt>
      <trkpt lat="48.23723" lon="6.78406">
        <ele>576.5</ele>
        <time>2023-09-21T06:30:33Z</time>
      </trkpt>
      <trkpt lat="48.23722" lon="6.78407">
        <ele>576.22</ele>
        <time>2023-09-21T06:30:34Z</time>
      </trkpt>
      <trkpt lat="48.23709" lon="6.78423">
        <ele>575.3</ele>
        <time>2023-09-21T06:30:49Z</time>
      </trkpt>
      <trkpt lat="48.23696" lon="6.78438">
        <ele>575.47</ele>
        <time>2023-09-21T06:31:02Z</time>
      </trkpt>
      <trkpt lat="48.23681" lon="6.78455">
        <ele>577.01</ele>
        <time>2023-09-21T06:31:18Z</time>
      </trkpt>
      <trkpt lat="48.23675" lon="6.78461">
        <ele>576.54</ele>
        <time>2023-09-21T06:31:24Z</time>
      </trkpt>
      <trkpt lat="48.23675" lon="6.78462">
        <ele>577.21</ele>
        <time>2023-09-21T06:31:25Z</time>
      </trkpt>
      <trkpt lat="48.23674" lon="6.78463">
        <ele>576.85</ele>
        <time>2023-09-21T06:31:26Z</time>
      </trkpt>
      <trkpt lat="48.23654" lon="6.78473">
        <ele>577.47</ele>
        <time>2023-09-21T06:31:44Z</time>
      </trkpt>
      <trkpt lat="48.23633" lon="6.78482">
        <ele>577.95</ele>
        <time>2023-09-21T06:32:02Z</time>
      </trkpt>
      <trkpt lat="48.23627" lon="6.78484">
        <ele>578.35</ele>
        <time>2023-09-21T06:32:06Z</time>
      </trkpt>
      <trkpt lat="48.23602" lon="6.78491">
        <ele>578.6</ele>
        <time>2023-09-21T06:32:24Z</time>
      </trkpt>
      <trkpt lat="48.23587" lon="6.78496">
        <ele>578.78</ele>
        <time>2023-09-21T06:32:35Z</time>
      </trkpt>
      <trkpt lat="48.23586" lon="6.78497">
        <ele>578.76</ele>
        <time>2023-09-21T06:32:36Z</time>
      </trkpt>
      <trkpt lat="48.23564" lon="6.78514">
        <ele>578.56</ele>
        <time>2023-09-21T06:32:55Z</time>
      </trkpt>
      <trkpt lat="48.23547" lon="6.78532">
        <ele>579.57</ele>
        <time>2023-09-21T06:33:11Z</time>
      </trkpt>
      <trkpt lat="48.23529" lon="6.78557">
        <ele>578.38</ele>
        <time>2023-09-21T06:33:27Z</time>
      </trkpt>
      <trkpt lat="48.23517" lon="6.78571">
        <ele>579.51</ele>
        <time>2023-09-21T06:33:44Z</time>
      </trkpt>
      <trkpt lat="48.23518" lon="6.7857">
        <ele>579.52</ele>
        <time>2023-09-21T06:33:45Z</time>
      </trkpt>
      <trkpt lat="48.23521" lon="6.78568">
        <ele>578.95</ele>
        <time>2023-09-21T06:33:51Z</time>
      </trkpt>
      <trkpt lat="48.23509" lon="6.78574">
        <ele>579.32</ele>
        <time>2023-09-21T06:34:02Z</time>
      </trkpt>
      <trkpt lat="48.23507" lon="6.78574">
        <ele>579.96</ele>
        <time>2023-09-21T06:34:04Z</time>
      </trkpt>
      <trkpt lat="48.23496" lon="6.78576">
        <ele>580.58</ele>
        <time>2023-09-21T06:34:13Z</time>
      </trkpt>
      <trkpt lat="48.23493" lon="6.78576">
        <ele>580.34</ele>
        <time>2023-09-21T06:34:15Z</time>
      </trkpt>
      <trkpt lat="48.23487" lon="6.7858">
        <ele>580.92</ele>
        <time>2023-09-21T06:34:21Z</time>
      </trkpt>
      <trkpt lat="48.23484" lon="6.78581">
        <ele>580.73</ele>
        <time>2023-09-21T06:34:23Z</time>
      </trkpt>
      <trkpt lat="48.23466" lon="6.78597">
        <ele>581.09</ele>
        <time>2023-09-21T06:34:40Z</time>
      </trkpt>
      <trkpt lat="48.2345" lon="6.78612">
        <ele>580.81</ele>
        <time>2023-09-21T06:34:54Z</time>
      </trkpt>
      <trkpt lat="48.23439" lon="6.78605">
        <ele>579.2</ele>
        <time>2023-09-21T06:35:12Z</time>
      </trkpt>
      <trkpt lat="48.23437" lon="6.78604">
        <ele>578.65</ele>
        <time>2023-09-21T06:35:15Z</time>
      </trkpt>
      <trkpt lat="48.23434" lon="6.78599">
        <ele>577.89</ele>
        <time>2023-09-21T06:35:19Z</time>
      </trkpt>
      <trkpt lat="48.23424" lon="6.78592">
        <ele>578.01</ele>
        <time>2023-09-21T06:35:34Z</time>
      </trkpt>
      <trkpt lat="48.23421" lon="6.78589">
        <ele>577.25</ele>
        <time>2023-09-21T06:35:52Z</time>
      </trkpt>
      <trkpt lat="48.23419" lon="6.78587">
        <ele>577.37</ele>
        <time>2023-09-21T06:36:22Z</time>
      </trkpt>
      <trkpt lat="48.23417" lon="6.78587">
        <ele>578.58</ele>
        <time>2023-09-21T06:36:47Z</time>
      </trkpt>
      <trkpt lat="48.23414" lon="6.78584">
        <ele>577.74</ele>
        <time>2023-09-21T06:37:05Z</time>
      </trkpt>
      <trkpt lat="48.23404" lon="6.78582">
        <ele>576.58</ele>
        <time>2023-09-21T06:37:22Z</time>
      </trkpt>
      <trkpt lat="48.23395" lon="6.78578">
        <ele>576.5</ele>
        <time>2023-09-21T06:37:30Z</time>
      </trkpt>
      <trkpt lat="48.2339" lon="6.78574">
        <ele>576.32</ele>
        <time>2023-09-21T06:37:35Z</time>
      </trkpt>
      <trkpt lat="48.23389" lon="6.78573">
        <ele>575.77</ele>
        <time>2023-09-21T06:37:37Z</time>
      </trkpt>
      <trkpt lat="48.2338" lon="6.78567">
        <ele>575.2</ele>
        <time>2023-09-21T06:37:46Z</time>
      </trkpt>
      <trkpt lat="48.23361" lon="6.78554">
        <ele>574.8</ele>
        <time>2023-09-21T06:38:01Z</time>
      </trkpt>
      <trkpt lat="48.23344" lon="6.78544">
        <ele>575.93</ele>
        <time>2023-09-21T06:38:15Z</time>
      </trkpt>
      <trkpt lat="48.23342" lon="6.78543">
        <ele>576.22</ele>
        <time>2023-09-21T06:38:17Z</time>
      </trkpt>
      <trkpt lat="48.23334" lon="6.7854">
        <ele>576.49</ele>
        <time>2023-09-21T06:38:23Z</time>
      </trkpt>
      <trkpt lat="48.23332" lon="6.78537">
        <ele>576.81</ele>
        <time>2023-09-21T06:38:29Z</time>
      </trkpt>
      <trkpt lat="48.23326" lon="6.78538">
        <ele>577.18</ele>
        <time>2023-09-21T06:38:50Z</time>
      </trkpt>
      <trkpt lat="48.23326" lon="6.78542">
        <ele>576.93</ele>
        <time>2023-09-21T06:39:16Z</time>
      </trkpt>
      <trkpt lat="48.23323" lon="6.7854">
        <ele>577.01</ele>
        <time>2023-09-21T06:39:19Z</time>
      </trkpt>
      <trkpt lat="48.2332" lon="6.78538">
        <ele>576.99</ele>
        <time>2023-09-21T06:39:22Z</time>
      </trkpt>
      <trkpt lat="48.23312" lon="6.78535">
        <ele>576.58</ele>
        <time>2023-09-21T06:39:29Z</time>
      </trkpt>
      <trkpt lat="48.23288" lon="6.78524">
        <ele>576.77</ele>
        <time>2023-09-21T06:39:47Z</time>
      </trkpt>
      <trkpt lat="48.23283" lon="6.78522">
        <ele>577.34</ele>
        <time>2023-09-21T06:39:51Z</time>
      </trkpt>
      <trkpt lat="48.23265" lon="6.78514">
        <ele>578.62</ele>
        <time>2023-09-21T06:40:08Z</time>
      </trkpt>
      <trkpt lat="48.23263" lon="6.78512">
        <ele>579.77</ele>
        <time>2023-09-21T06:40:10Z</time>
      </trkpt>
      <trkpt lat="48.23261" lon="6.78511">
        <ele>579.71</ele>
        <time>2023-09-21T06:40:12Z</time>
      </trkpt>
      <trkpt lat="48.23252" lon="6.78505">
        <ele>582.01</ele>
        <time>2023-09-21T06:40:27Z</time>
      </trkpt>
      <trkpt lat="48.23248" lon="6.78498">
        <ele>584.66</ele>
        <time>2023-09-21T06:40:41Z</time>
      </trkpt>
      <trkpt lat="48.23246" lon="6.78497">
        <ele>584.69</ele>
        <time>2023-09-21T06:40:43Z</time>
      </trkpt>
      <trkpt lat="48.23238" lon="6.78494">
        <ele>584.64</ele>
        <time>2023-09-21T06:40:50Z</time>
      </trkpt>
      <trkpt lat="48.23233" lon="6.78492">
        <ele>584.37</ele>
        <time>2023-09-21T06:40:55Z</time>
      </trkpt>
      <trkpt lat="48.23225" lon="6.78485">
        <ele>586.34</ele>
        <time>2023-09-21T06:41:05Z</time>
      </trkpt>
      <trkpt lat="48.23205" lon="6.78478">
        <ele>587.2</ele>
        <time>2023-09-21T06:41:21Z</time>
      </trkpt>
      <trkpt lat="48.23195" lon="6.78478">
        <ele>587.98</ele>
        <time>2023-09-21T06:41:30Z</time>
      </trkpt>
      <trkpt lat="48.23183" lon="6.78473">
        <ele>589.89</ele>
        <time>2023-09-21T06:41:40Z</time>
      </trkpt>
      <trkpt lat="48.23177" lon="6.7847">
        <ele>590.88</ele>
        <time>2023-09-21T06:41:45Z</time>
      </trkpt>
      <trkpt lat="48.23173" lon="6.78468">
        <ele>590.84</ele>
        <time>2023-09-21T06:41:49Z</time>
      </trkpt>
      <trkpt lat="48.23163" lon="6.78467">
        <ele>591.38</ele>
        <time>2023-09-21T06:41:57Z</time>
      </trkpt>
      <trkpt lat="48.23146" lon="6.78474">
        <ele>592.35</ele>
        <time>2023-09-21T06:42:12Z</time>
      </trkpt>
      <trkpt lat="48.23127" lon="6.7848">
        <ele>594.03</ele>
        <time>2023-09-21T06:42:27Z</time>
      </trkpt>
      <trkpt lat="48.23124" lon="6.78482">
        <ele>594.26</ele>
        <time>2023-09-21T06:42:30Z</time>
      </trkpt>
      <trkpt lat="48.23117" lon="6.78485">
        <ele>595.08</ele>
        <time>2023-09-21T06:42:36Z</time>
      </trkpt>
      <trkpt lat="48.2311" lon="6.78488">
        <ele>595.08</ele>
        <time>2023-09-21T06:42:42Z</time>
      </trkpt>
      <trkpt lat="48.231" lon="6.78491">
        <ele>594.97</ele>
        <time>2023-09-21T06:42:50Z</time>
      </trkpt>
      <trkpt lat="48.23092" lon="6.78496">
        <ele>595.37</ele>
        <time>2023-09-21T06:42:57Z</time>
      </trkpt>
      <trkpt lat="48.2308" lon="6.78502">
        <ele>595.65</ele>
        <time>2023-09-21T06:43:06Z</time>
      </trkpt>
      <trkpt lat="48.23075" lon="6.78505">
        <ele>595.5</ele>
        <time>2023-09-21T06:43:10Z</time>
      </trkpt>
      <trkpt lat="48.23052" lon="6.7851">
        <ele>596.74</ele>
        <time>2023-09-21T06:43:27Z</time>
      </trkpt>
      <trkpt lat="48.23033" lon="6.78516">
        <ele>596.01</ele>
        <time>2023-09-21T06:43:42Z</time>
      </trkpt>
      <trkpt lat="48.23009" lon="6.78518">
        <ele>593.87</ele>
        <time>2023-09-21T06:43:59Z</time>
      </trkpt>
      <trkpt lat="48.22992" lon="6.78508">
        <ele>591.37</ele>
        <time>2023-09-21T06:44:15Z</time>
      </trkpt>
      <trkpt lat="48.22989" lon="6.78508">
        <ele>589.58</ele>
        <time>2023-09-21T06:44:18Z</time>
      </trkpt>
      <trkpt lat="48.22987" lon="6.78507">
        <ele>589.7</ele>
        <time>2023-09-21T06:44:21Z</time>
      </trkpt>
      <trkpt lat="48.2297" lon="6.785">
        <ele>587.55</ele>
        <time>2023-09-21T06:44:37Z</time>
      </trkpt>
      <trkpt lat="48.22948" lon="6.78496">
        <ele>586.64</ele>
        <time>2023-09-21T06:44:55Z</time>
      </trkpt>
      <trkpt lat="48.22939" lon="6.78496">
        <ele>587.51</ele>
        <time>2023-09-21T06:45:05Z</time>
      </trkpt>
      <trkpt lat="48.22931" lon="6.78498">
        <ele>588.09</ele>
        <time>2023-09-21T06:45:11Z</time>
      </trkpt>
      <trkpt lat="48.22928" lon="6.78498">
        <ele>588.39</ele>
        <time>2023-09-21T06:45:13Z</time>
      </trkpt>
      <trkpt lat="48.22909" lon="6.78504">
        <ele>589.67</ele>
        <time>2023-09-21T06:45:29Z</time>
      </trkpt>
      <trkpt lat="48.22894" lon="6.78507">
        <ele>592.06</ele>
        <time>2023-09-21T06:45:42Z</time>
      </trkpt>
      <trkpt lat="48.22886" lon="6.78508">
        <ele>592.91</ele>
        <time>2023-09-21T06:45:50Z</time>
      </trkpt>
      <trkpt lat="48.22875" lon="6.78514">
        <ele>594.79</ele>
        <time>2023-09-21T06:46:02Z</time>
      </trkpt>
      <trkpt lat="48.22874" lon="6.78515">
        <ele>594.98</ele>
        <time>2023-09-21T06:46:03Z</time>
      </trkpt>
      <trkpt lat="48.22871" lon="6.78516">
        <ele>595.51</ele>
        <time>2023-09-21T06:46:05Z</time>
      </trkpt>
      <trkpt lat="48.22854" lon="6.78516">
        <ele>597.76</ele>
        <time>2023-09-21T06:46:20Z</time>
      </trkpt>
      <trkpt lat="48.22834" lon="6.78517">
        <ele>600.85</ele>
        <time>2023-09-21T06:46:38Z</time>
      </trkpt>
      <trkpt lat="48.22828" lon="6.78515">
        <ele>601.94</ele>
        <time>2023-09-21T06:46:47Z</time>
      </trkpt>
      <trkpt lat="48.22814" lon="6.78508">
        <ele>602.91</ele>
        <time>2023-09-21T06:47:01Z</time>
      </trkpt>
      <trkpt lat="48.22804" lon="6.78497">
        <ele>604.07</ele>
        <time>2023-09-21T06:47:12Z</time>
      </trkpt>
      <trkpt lat="48.22788" lon="6.78476">
        <ele>604.82</ele>
        <time>2023-09-21T06:47:29Z</time>
      </trkpt>
      <trkpt lat="48.22785" lon="6.78473">
        <ele>604.88</ele>
        <time>2023-09-21T06:47:31Z</time>
      </trkpt>
      <trkpt lat="48.2278" lon="6.7847">
        <ele>604.7</ele>
        <time>2023-09-21T06:47:36Z</time>
      </trkpt>
      <trkpt lat="48.22779" lon="6.78469">
        <ele>604.35</ele>
        <time>2023-09-21T06:47:38Z</time>
      </trkpt>
      <trkpt lat="48.22766" lon="6.78461">
        <ele>605.41</ele>
        <time>2023-09-21T06:47:49Z</time>
      </trkpt>
      <trkpt lat="48.22754" lon="6.78457">
        <ele>605.15</ele>
        <time>2023-09-21T06:47:59Z</time>
      </trkpt>
      <trkpt lat="48.22737" lon="6.78466">
        <ele>605.94</ele>
        <time>2023-09-21T06:48:11Z</time>
      </trkpt>
      <trkpt lat="48.22736" lon="6.78467">
        <ele>605.91</ele>
        <time>2023-09-21T06:48:12Z</time>
      </trkpt>
      <trkpt lat="48.22733" lon="6.78467">
        <ele>606.42</ele>
        <time>2023-09-21T06:48:14Z</time>
      </trkpt>
      <trkpt lat="48.22728" lon="6.78471">
        <ele>606.71</ele>
        <time>2023-09-21T06:48:18Z</time>
      </trkpt>
      <trkpt lat="48.22711" lon="6.78483">
        <ele>606.6</ele>
        <time>2023-09-21T06:48:32Z</time>
      </trkpt>
      <trkpt lat="48.22696" lon="6.78496">
        <ele>607.84</ele>
        <time>2023-09-21T06:48:46Z</time>
      </trkpt>
      <trkpt lat="48.22694" lon="6.78497">
        <ele>608.02</ele>
        <time>2023-09-21T06:48:48Z</time>
      </trkpt>
      <trkpt lat="48.22676" lon="6.78502">
        <ele>608.72</ele>
        <time>2023-09-21T06:49:03Z</time>
      </trkpt>
      <trkpt lat="48.22662" lon="6.78507">
        <ele>608.38</ele>
        <time>2023-09-21T06:49:14Z</time>
      </trkpt>
      <trkpt lat="48.22645" lon="6.7851">
        <ele>609.32</ele>
        <time>2023-09-21T06:49:27Z</time>
      </trkpt>
      <trkpt lat="48.22641" lon="6.78512">
        <ele>609.76</ele>
        <time>2023-09-21T06:49:30Z</time>
      </trkpt>
      <trkpt lat="48.22628" lon="6.78517">
        <ele>610.15</ele>
        <time>2023-09-21T06:49:42Z</time>
      </trkpt>
      <trkpt lat="48.22622" lon="6.78521">
        <ele>610.95</ele>
        <time>2023-09-21T06:49:47Z</time>
      </trkpt>
      <trkpt lat="48.22617" lon="6.78526">
        <ele>610.9</ele>
        <time>2023-09-21T06:49:52Z</time>
      </trkpt>
      <trkpt lat="48.22596" lon="6.78551">
        <ele>610.6</ele>
        <time>2023-09-21T06:50:09Z</time>
      </trkpt>
      <trkpt lat="48.22582" lon="6.7858">
        <ele>610.16</ele>
        <time>2023-09-21T06:50:24Z</time>
      </trkpt>
      <trkpt lat="48.22577" lon="6.78586">
        <ele>610.02</ele>
        <time>2023-09-21T06:50:28Z</time>
      </trkpt>
      <trkpt lat="48.22574" lon="6.78598">
        <ele>609.58</ele>
        <time>2023-09-21T06:50:33Z</time>
      </trkpt>
      <trkpt lat="48.22571" lon="6.7863">
        <ele>608.94</ele>
        <time>2023-09-21T06:50:48Z</time>
      </trkpt>
      <trkpt lat="48.22569" lon="6.78656">
        <ele>609.22</ele>
        <time>2023-09-21T06:51:00Z</time>
      </trkpt>
      <trkpt lat="48.22571" lon="6.787">
        <ele>609.6</ele>
        <time>2023-09-21T06:51:21Z</time>
      </trkpt>
      <trkpt lat="48.22569" lon="6.78737">
        <ele>607.39</ele>
        <time>2023-09-21T06:51:39Z</time>
      </trkpt>
      <trkpt lat="48.22568" lon="6.78739">
        <ele>607.4</ele>
        <time>2023-09-21T06:51:40Z</time>
      </trkpt>
      <trkpt lat="48.22568" lon="6.78746">
        <ele>607.98</ele>
        <time>2023-09-21T06:51:44Z</time>
      </trkpt>
      <trkpt lat="48.22568" lon="6.78757">
        <ele>607.92</ele>
        <time>2023-09-21T06:51:50Z</time>
      </trkpt>
      <trkpt lat="48.22567" lon="6.78776">
        <ele>608.19</ele>
        <time>2023-09-21T06:51:59Z</time>
      </trkpt>
      <trkpt lat="48.22563" lon="6.78801">
        <ele>607.88</ele>
        <time>2023-09-21T06:52:13Z</time>
      </trkpt>
      <trkpt lat="48.22562" lon="6.78803">
        <ele>608.24</ele>
        <time>2023-09-21T06:52:14Z</time>
      </trkpt>
      <trkpt lat="48.22555" lon="6.78831">
        <ele>607.36</ele>
        <time>2023-09-21T06:52:28Z</time>
      </trkpt>
      <trkpt lat="48.22541" lon="6.78876">
        <ele>605.98</ele>
        <time>2023-09-21T06:52:51Z</time>
      </trkpt>
      <trkpt lat="48.22529" lon="6.78908">
        <ele>604.99</ele>
        <time>2023-09-21T06:53:09Z</time>
      </trkpt>
      <trkpt lat="48.22529" lon="6.78911">
        <ele>604.97</ele>
        <time>2023-09-21T06:53:11Z</time>
      </trkpt>
      <trkpt lat="48.22525" lon="6.78941">
        <ele>606.48</ele>
        <time>2023-09-21T06:53:27Z</time>
      </trkpt>
      <trkpt lat="48.22522" lon="6.78951">
        <ele>606.95</ele>
        <time>2023-09-21T06:53:33Z</time>
      </trkpt>
      <trkpt lat="48.2252" lon="6.7896">
        <ele>607.02</ele>
        <time>2023-09-21T06:53:38Z</time>
      </trkpt>
      <trkpt lat="48.22517" lon="6.78973">
        <ele>608</ele>
        <time>2023-09-21T06:53:45Z</time>
      </trkpt>
      <trkpt lat="48.22509" lon="6.79011">
        <ele>609.69</ele>
        <time>2023-09-21T06:54:05Z</time>
      </trkpt>
      <trkpt lat="48.22498" lon="6.79041">
        <ele>611.11</ele>
        <time>2023-09-21T06:54:22Z</time>
      </trkpt>
      <trkpt lat="48.22496" lon="6.79042">
        <ele>611.49</ele>
        <time>2023-09-21T06:54:23Z</time>
      </trkpt>
      <trkpt lat="48.22494" lon="6.79043">
        <ele>610.88</ele>
        <time>2023-09-21T06:54:24Z</time>
      </trkpt>
      <trkpt lat="48.22493" lon="6.79045">
        <ele>611.31</ele>
        <time>2023-09-21T06:54:25Z</time>
      </trkpt>
      <trkpt lat="48.22493" lon="6.79046">
        <ele>611.22</ele>
        <time>2023-09-21T06:54:26Z</time>
      </trkpt>
      <trkpt lat="48.22492" lon="6.79048">
        <ele>611.11</ele>
        <time>2023-09-21T06:54:27Z</time>
      </trkpt>
      <trkpt lat="48.22492" lon="6.7905">
        <ele>611.58</ele>
        <time>2023-09-21T06:54:28Z</time>
      </trkpt>
      <trkpt lat="48.22491" lon="6.79051">
        <ele>611.58</ele>
        <time>2023-09-21T06:54:29Z</time>
      </trkpt>
      <trkpt lat="48.2249" lon="6.79053">
        <ele>611.36</ele>
        <time>2023-09-21T06:54:30Z</time>
      </trkpt>
      <trkpt lat="48.2249" lon="6.79055">
        <ele>611.81</ele>
        <time>2023-09-21T06:54:31Z</time>
      </trkpt>
      <trkpt lat="48.22489" lon="6.79056">
        <ele>611.87</ele>
        <time>2023-09-21T06:54:32Z</time>
      </trkpt>
      <trkpt lat="48.22488" lon="6.79058">
        <ele>611.99</ele>
        <time>2023-09-21T06:54:33Z</time>
      </trkpt>
      <trkpt lat="48.22488" lon="6.79059">
        <ele>611.93</ele>
        <time>2023-09-21T06:54:34Z</time>
      </trkpt>
      <trkpt lat="48.22487" lon="6.79061">
        <ele>612.19</ele>
        <time>2023-09-21T06:54:35Z</time>
      </trkpt>
      <trkpt lat="48.22486" lon="6.79063">
        <ele>612.65</ele>
        <time>2023-09-21T06:54:36Z</time>
      </trkpt>
      <trkpt lat="48.22486" lon="6.79064">
        <ele>612.96</ele>
        <time>2023-09-21T06:54:37Z</time>
      </trkpt>
      <trkpt lat="48.22485" lon="6.79066">
        <ele>611.98</ele>
        <time>2023-09-21T06:54:38Z</time>
      </trkpt>
      <trkpt lat="48.22484" lon="6.79067">
        <ele>612.3</ele>
        <time>2023-09-21T06:54:39Z</time>
      </trkpt>
      <trkpt lat="48.22483" lon="6.79069">
        <ele>612.2</ele>
        <time>2023-09-21T06:54:40Z</time>
      </trkpt>
      <trkpt lat="48.22483" lon="6.7907">
        <ele>612.84</ele>
        <time>2023-09-21T06:54:41Z</time>
      </trkpt>
      <trkpt lat="48.22481" lon="6.79074">
        <ele>613.25</ele>
        <time>2023-09-21T06:54:44Z</time>
      </trkpt>
      <trkpt lat="48.2248" lon="6.79076">
        <ele>613.04</ele>
        <time>2023-09-21T06:54:45Z</time>
      </trkpt>
      <trkpt lat="48.2248" lon="6.79079">
        <ele>613.38</ele>
        <time>2023-09-21T06:54:47Z</time>
      </trkpt>
      <trkpt lat="48.22479" lon="6.79081">
        <ele>612.97</ele>
        <time>2023-09-21T06:54:48Z</time>
      </trkpt>
      <trkpt lat="48.22479" lon="6.79083">
        <ele>613.25</ele>
        <time>2023-09-21T06:54:49Z</time>
      </trkpt>
      <trkpt lat="48.22478" lon="6.79085">
        <ele>612.95</ele>
        <time>2023-09-21T06:54:50Z</time>
      </trkpt>
      <trkpt lat="48.22478" lon="6.79087">
        <ele>613.25</ele>
        <time>2023-09-21T06:54:51Z</time>
      </trkpt>
      <trkpt lat="48.22477" lon="6.79089">
        <ele>612.75</ele>
        <time>2023-09-21T06:54:52Z</time>
      </trkpt>
      <trkpt lat="48.22477" lon="6.79091">
        <ele>613.49</ele>
        <time>2023-09-21T06:54:53Z</time>
      </trkpt>
      <trkpt lat="48.22472" lon="6.7911">
        <ele>613.85</ele>
        <time>2023-09-21T06:55:06Z</time>
      </trkpt>
      <trkpt lat="48.22467" lon="6.7913">
        <ele>615.58</ele>
        <time>2023-09-21T06:55:18Z</time>
      </trkpt>
      <trkpt lat="48.22466" lon="6.79132">
        <ele>615.68</ele>
        <time>2023-09-21T06:55:19Z</time>
      </trkpt>
      <trkpt lat="48.22466" lon="6.79136">
        <ele>616.12</ele>
        <time>2023-09-21T06:55:22Z</time>
      </trkpt>
      <trkpt lat="48.22466" lon="6.79138">
        <ele>615.85</ele>
        <time>2023-09-21T06:55:23Z</time>
      </trkpt>
      <trkpt lat="48.22465" lon="6.79146">
        <ele>617.09</ele>
        <time>2023-09-21T06:55:28Z</time>
      </trkpt>
      <trkpt lat="48.22464" lon="6.79148">
        <ele>617.16</ele>
        <time>2023-09-21T06:55:29Z</time>
      </trkpt>
      <trkpt lat="48.22463" lon="6.79153">
        <ele>617.63</ele>
        <time>2023-09-21T06:55:32Z</time>
      </trkpt>
      <trkpt lat="48.22454" lon="6.79176">
        <ele>618.7</ele>
        <time>2023-09-21T06:55:45Z</time>
      </trkpt>
      <trkpt lat="48.22433" lon="6.79198">
        <ele>619.82</ele>
        <time>2023-09-21T06:56:03Z</time>
      </trkpt>
      <trkpt lat="48.22412" lon="6.79212">
        <ele>619.87</ele>
        <time>2023-09-21T06:56:20Z</time>
      </trkpt>
      <trkpt lat="48.22406" lon="6.7922">
        <ele>619.73</ele>
        <time>2023-09-21T06:56:26Z</time>
      </trkpt>
      <trkpt lat="48.22402" lon="6.79229">
        <ele>619.62</ele>
        <time>2023-09-21T06:56:33Z</time>
      </trkpt>
      <trkpt lat="48.224" lon="6.79232">
        <ele>619.43</ele>
        <time>2023-09-21T06:56:35Z</time>
      </trkpt>
      <trkpt lat="48.22399" lon="6.79233">
        <ele>619.68</ele>
        <time>2023-09-21T06:56:36Z</time>
      </trkpt>
      <trkpt lat="48.22389" lon="6.7925">
        <ele>620.93</ele>
        <time>2023-09-21T06:56:47Z</time>
      </trkpt>
      <trkpt lat="48.22386" lon="6.79255">
        <ele>620.99</ele>
        <time>2023-09-21T06:56:50Z</time>
      </trkpt>
      <trkpt lat="48.22385" lon="6.79256">
        <ele>620.96</ele>
        <time>2023-09-21T06:56:51Z</time>
      </trkpt>
      <trkpt lat="48.22384" lon="6.79258">
        <ele>621.27</ele>
        <time>2023-09-21T06:56:52Z</time>
      </trkpt>
      <trkpt lat="48.22383" lon="6.7926">
        <ele>620.98</ele>
        <time>2023-09-21T06:56:53Z</time>
      </trkpt>
      <trkpt lat="48.22383" lon="6.79261">
        <ele>621.17</ele>
        <time>2023-09-21T06:56:54Z</time>
      </trkpt>
      <trkpt lat="48.22382" lon="6.79263">
        <ele>621.15</ele>
        <time>2023-09-21T06:56:55Z</time>
      </trkpt>
      <trkpt lat="48.22382" lon="6.79265">
        <ele>621.34</ele>
        <time>2023-09-21T06:56:56Z</time>
      </trkpt>
      <trkpt lat="48.22381" lon="6.79266">
        <ele>621.47</ele>
        <time>2023-09-21T06:56:57Z</time>
      </trkpt>
      <trkpt lat="48.22381" lon="6.79268">
        <ele>621.33</ele>
        <time>2023-09-21T06:56:58Z</time>
      </trkpt>
      <trkpt lat="48.22379" lon="6.79273">
        <ele>622.3</ele>
        <time>2023-09-21T06:57:01Z</time>
      </trkpt>
      <trkpt lat="48.22379" lon="6.79279">
        <ele>621.51</ele>
        <time>2023-09-21T06:57:04Z</time>
      </trkpt>
      <trkpt lat="48.22378" lon="6.7928">
        <ele>621.41</ele>
        <time>2023-09-21T06:57:05Z</time>
      </trkpt>
      <trkpt lat="48.22375" lon="6.79292">
        <ele>622.41</ele>
        <time>2023-09-21T06:57:12Z</time>
      </trkpt>
      <trkpt lat="48.22375" lon="6.79295">
        <ele>621.94</ele>
        <time>2023-09-21T06:57:13Z</time>
      </trkpt>
      <trkpt lat="48.22374" lon="6.79296">
        <ele>622.89</ele>
        <time>2023-09-21T06:57:14Z</time>
      </trkpt>
      <trkpt lat="48.22373" lon="6.79298">
        <ele>622.81</ele>
        <time>2023-09-21T06:57:15Z</time>
      </trkpt>
      <trkpt lat="48.22373" lon="6.793">
        <ele>622.9</ele>
        <time>2023-09-21T06:57:16Z</time>
      </trkpt>
      <trkpt lat="48.22372" lon="6.79302">
        <ele>622.85</ele>
        <time>2023-09-21T06:57:17Z</time>
      </trkpt>
      <trkpt lat="48.22371" lon="6.79303">
        <ele>623.04</ele>
        <time>2023-09-21T06:57:18Z</time>
      </trkpt>
      <trkpt lat="48.2237" lon="6.79306">
        <ele>623.32</ele>
        <time>2023-09-21T06:57:19Z</time>
      </trkpt>
      <trkpt lat="48.2237" lon="6.79308">
        <ele>622.99</ele>
        <time>2023-09-21T06:57:20Z</time>
      </trkpt>
      <trkpt lat="48.22369" lon="6.79309">
        <ele>622.96</ele>
        <time>2023-09-21T06:57:21Z</time>
      </trkpt>
      <trkpt lat="48.22368" lon="6.79311">
        <ele>623.18</ele>
        <time>2023-09-21T06:57:22Z</time>
      </trkpt>
      <trkpt lat="48.22367" lon="6.79313">
        <ele>623.53</ele>
        <time>2023-09-21T06:57:23Z</time>
      </trkpt>
      <trkpt lat="48.22366" lon="6.79315">
        <ele>623.68</ele>
        <time>2023-09-21T06:57:24Z</time>
      </trkpt>
      <trkpt lat="48.22366" lon="6.79317">
        <ele>623.36</ele>
        <time>2023-09-21T06:57:25Z</time>
      </trkpt>
      <trkpt lat="48.22366" lon="6.79319">
        <ele>623.55</ele>
        <time>2023-09-21T06:57:26Z</time>
      </trkpt>
      <trkpt lat="48.22365" lon="6.7932">
        <ele>623.52</ele>
        <time>2023-09-21T06:57:27Z</time>
      </trkpt>
      <trkpt lat="48.22362" lon="6.79326">
        <ele>624.09</ele>
        <time>2023-09-21T06:57:31Z</time>
      </trkpt>
      <trkpt lat="48.22361" lon="6.79333">
        <ele>623.97</ele>
        <time>2023-09-21T06:57:35Z</time>
      </trkpt>
      <trkpt lat="48.22361" lon="6.79335">
        <ele>624.11</ele>
        <time>2023-09-21T06:57:36Z</time>
      </trkpt>
      <trkpt lat="48.22362" lon="6.79337">
        <ele>624.28</ele>
        <time>2023-09-21T06:57:37Z</time>
      </trkpt>
      <trkpt lat="48.22361" lon="6.79339">
        <ele>623.95</ele>
        <time>2023-09-21T06:57:38Z</time>
      </trkpt>
      <trkpt lat="48.22361" lon="6.79341">
        <ele>623.97</ele>
        <time>2023-09-21T06:57:39Z</time>
      </trkpt>
      <trkpt lat="48.22359" lon="6.79346">
        <ele>623.94</ele>
        <time>2023-09-21T06:57:42Z</time>
      </trkpt>
      <trkpt lat="48.22359" lon="6.79348">
        <ele>623.46</ele>
        <time>2023-09-21T06:57:43Z</time>
      </trkpt>
      <trkpt lat="48.22359" lon="6.7935">
        <ele>623.88</ele>
        <time>2023-09-21T06:57:44Z</time>
      </trkpt>
      <trkpt lat="48.22358" lon="6.79352">
        <ele>624.44</ele>
        <time>2023-09-21T06:57:45Z</time>
      </trkpt>
      <trkpt lat="48.22358" lon="6.79353">
        <ele>623.76</ele>
        <time>2023-09-21T06:57:46Z</time>
      </trkpt>
      <trkpt lat="48.22357" lon="6.79355">
        <ele>623.56</ele>
        <time>2023-09-21T06:57:47Z</time>
      </trkpt>
      <trkpt lat="48.22357" lon="6.79357">
        <ele>623.71</ele>
        <time>2023-09-21T06:57:48Z</time>
      </trkpt>
      <trkpt lat="48.22357" lon="6.79358">
        <ele>623.8</ele>
        <time>2023-09-21T06:57:49Z</time>
      </trkpt>
      <trkpt lat="48.22355" lon="6.79361">
        <ele>624.26</ele>
        <time>2023-09-21T06:57:51Z</time>
      </trkpt>
      <trkpt lat="48.22355" lon="6.79362">
        <ele>623.96</ele>
        <time>2023-09-21T06:57:52Z</time>
      </trkpt>
      <trkpt lat="48.22354" lon="6.79364">
        <ele>624.14</ele>
        <time>2023-09-21T06:57:53Z</time>
      </trkpt>
      <trkpt lat="48.22354" lon="6.79366">
        <ele>624.01</ele>
        <time>2023-09-21T06:57:54Z</time>
      </trkpt>
      <trkpt lat="48.2235" lon="6.79376">
        <ele>623.95</ele>
        <time>2023-09-21T06:58:06Z</time>
      </trkpt>
      <trkpt lat="48.22349" lon="6.79375">
        <ele>623.82</ele>
        <time>2023-09-21T06:58:13Z</time>
      </trkpt>
      <trkpt lat="48.22348" lon="6.79374">
        <ele>624.15</ele>
        <time>2023-09-21T06:58:14Z</time>
      </trkpt>
      <trkpt lat="48.22347" lon="6.79372">
        <ele>624.22</ele>
        <time>2023-09-21T06:58:15Z</time>
      </trkpt>
      <trkpt lat="48.22347" lon="6.79371">
        <ele>624.57</ele>
        <time>2023-09-21T06:58:16Z</time>
      </trkpt>
      <trkpt lat="48.22346" lon="6.79369">
        <ele>624.25</ele>
        <time>2023-09-21T06:58:17Z</time>
      </trkpt>
      <trkpt lat="48.22346" lon="6.79366">
        <ele>624.42</ele>
        <time>2023-09-21T06:58:18Z</time>
      </trkpt>
      <trkpt lat="48.22345" lon="6.79365">
        <ele>624.38</ele>
        <time>2023-09-21T06:58:19Z</time>
      </trkpt>
      <trkpt lat="48.22344" lon="6.79365">
        <ele>624.37</ele>
        <time>2023-09-21T06:58:20Z</time>
      </trkpt>
      <trkpt lat="48.22343" lon="6.79359">
        <ele>624.17</ele>
        <time>2023-09-21T06:58:24Z</time>
      </trkpt>
      <trkpt lat="48.22342" lon="6.79358">
        <ele>624.68</ele>
        <time>2023-09-21T06:58:25Z</time>
      </trkpt>
      <trkpt lat="48.22341" lon="6.79357">
        <ele>624.29</ele>
        <time>2023-09-21T06:58:26Z</time>
      </trkpt>
      <trkpt lat="48.2234" lon="6.79356">
        <ele>624.89</ele>
        <time>2023-09-21T06:58:27Z</time>
      </trkpt>
      <trkpt lat="48.22339" lon="6.79355">
        <ele>625.02</ele>
        <time>2023-09-21T06:58:28Z</time>
      </trkpt>
      <trkpt lat="48.22338" lon="6.79353">
        <ele>624.6</ele>
        <time>2023-09-21T06:58:29Z</time>
      </trkpt>
      <trkpt lat="48.22332" lon="6.79336">
        <ele>625.09</ele>
        <time>2023-09-21T06:58:39Z</time>
      </trkpt>
      <trkpt lat="48.22333" lon="6.79334">
        <ele>624.86</ele>
        <time>2023-09-21T06:58:40Z</time>
      </trkpt>
      <trkpt lat="48.22333" lon="6.79333">
        <ele>624.45</ele>
        <time>2023-09-21T06:58:41Z</time>
      </trkpt>
      <trkpt lat="48.22334" lon="6.7933">
        <ele>624.62</ele>
        <time>2023-09-21T06:58:47Z</time>
      </trkpt>
      <trkpt lat="48.22334" lon="6.79326">
        <ele>624.54</ele>
        <time>2023-09-21T06:58:52Z</time>
      </trkpt>
      <trkpt lat="48.22336" lon="6.79321">
        <ele>624.44</ele>
        <time>2023-09-21T06:59:01Z</time>
      </trkpt>
      <trkpt lat="48.22334" lon="6.7932">
        <ele>624.82</ele>
        <time>2023-09-21T06:59:15Z</time>
      </trkpt>
      <trkpt lat="48.22333" lon="6.79324">
        <ele>625.7</ele>
        <time>2023-09-21T06:59:35Z</time>
      </trkpt>
      <trkpt lat="48.22334" lon="6.79323">
        <ele>624.88</ele>
        <time>2023-09-21T06:59:41Z</time>
      </trkpt>
      <trkpt lat="48.22334" lon="6.79321">
        <ele>625.9</ele>
        <time>2023-09-21T06:59:55Z</time>
      </trkpt>
      <trkpt lat="48.22334" lon="6.79321">
        <ele>624.49</ele>
        <time>2023-09-21T07:00:04Z</time>
      </trkpt>
      <trkpt lat="48.22333" lon="6.79324">
        <ele>625.85</ele>
        <time>2023-09-21T07:00:10Z</time>
      </trkpt>
      <trkpt lat="48.22332" lon="6.79327">
        <ele>625.99</ele>
        <time>2023-09-21T07:00:12Z</time>
      </trkpt>
      <trkpt lat="48.22331" lon="6.79328">
        <ele>626.12</ele>
        <time>2023-09-21T07:00:25Z</time>
      </trkpt>
      <trkpt lat="48.22331" lon="6.79329">
        <ele>626.62</ele>
        <time>2023-09-21T07:00:41Z</time>
      </trkpt>
      <trkpt lat="48.22336" lon="6.79341">
        <ele>626.51</ele>
        <time>2023-09-21T07:00:49Z</time>
      </trkpt>
      <trkpt lat="48.22348" lon="6.79369">
        <ele>625.89</ele>
        <time>2023-09-21T07:01:07Z</time>
      </trkpt>
      <trkpt lat="48.22367" lon="6.794">
        <ele>624.95</ele>
        <time>2023-09-21T07:01:28Z</time>
      </trkpt>
      <trkpt lat="48.22379" lon="6.79425">
        <ele>626.67</ele>
        <time>2023-09-21T07:01:45Z</time>
      </trkpt>
      <trkpt lat="48.22384" lon="6.79438">
        <ele>626.51</ele>
        <time>2023-09-21T07:01:55Z</time>
      </trkpt>
      <trkpt lat="48.22385" lon="6.79441">
        <ele>626.71</ele>
        <time>2023-09-21T07:01:57Z</time>
      </trkpt>
      <trkpt lat="48.22389" lon="6.79449">
        <ele>626.41</ele>
        <time>2023-09-21T07:02:03Z</time>
      </trkpt>
      <trkpt lat="48.2239" lon="6.79454">
        <ele>626.49</ele>
        <time>2023-09-21T07:02:06Z</time>
      </trkpt>
      <trkpt lat="48.22392" lon="6.79475">
        <ele>627.17</ele>
        <time>2023-09-21T07:02:18Z</time>
      </trkpt>
      <trkpt lat="48.22403" lon="6.79505">
        <ele>626.59</ele>
        <time>2023-09-21T07:02:34Z</time>
      </trkpt>
      <trkpt lat="48.22409" lon="6.79525">
        <ele>626.1</ele>
        <time>2023-09-21T07:02:46Z</time>
      </trkpt>
      <trkpt lat="48.22408" lon="6.79533">
        <ele>626.48</ele>
        <time>2023-09-21T07:02:50Z</time>
      </trkpt>
      <trkpt lat="48.22414" lon="6.79549">
        <ele>626.79</ele>
        <time>2023-09-21T07:03:00Z</time>
      </trkpt>
      <trkpt lat="48.22417" lon="6.79561">
        <ele>627.49</ele>
        <time>2023-09-21T07:03:06Z</time>
      </trkpt>
      <trkpt lat="48.22423" lon="6.79588">
        <ele>627.44</ele>
        <time>2023-09-21T07:03:22Z</time>
      </trkpt>
      <trkpt lat="48.22437" lon="6.79613">
        <ele>626.79</ele>
        <time>2023-09-21T07:03:37Z</time>
      </trkpt>
      <trkpt lat="48.2244" lon="6.79622">
        <ele>627.1</ele>
        <time>2023-09-21T07:03:42Z</time>
      </trkpt>
      <trkpt lat="48.22449" lon="6.79638">
        <ele>626.69</ele>
        <time>2023-09-21T07:03:53Z</time>
      </trkpt>
      <trkpt lat="48.22462" lon="6.79671">
        <ele>626.52</ele>
        <time>2023-09-21T07:04:12Z</time>
      </trkpt>
      <trkpt lat="48.22475" lon="6.79706">
        <ele>626.35</ele>
        <time>2023-09-21T07:04:32Z</time>
      </trkpt>
      <trkpt lat="48.2249" lon="6.79724">
        <ele>626.34</ele>
        <time>2023-09-21T07:04:45Z</time>
      </trkpt>
      <trkpt lat="48.22495" lon="6.79729">
        <ele>626.39</ele>
        <time>2023-09-21T07:04:52Z</time>
      </trkpt>
      <trkpt lat="48.22501" lon="6.79751">
        <ele>626.15</ele>
        <time>2023-09-21T07:05:05Z</time>
      </trkpt>
      <trkpt lat="48.22503" lon="6.79754">
        <ele>626.22</ele>
        <time>2023-09-21T07:05:07Z</time>
      </trkpt>
      <trkpt lat="48.22506" lon="6.79768">
        <ele>626.02</ele>
        <time>2023-09-21T07:05:16Z</time>
      </trkpt>
      <trkpt lat="48.22508" lon="6.79773">
        <ele>626.47</ele>
        <time>2023-09-21T07:05:19Z</time>
      </trkpt>
      <trkpt lat="48.22523" lon="6.79796">
        <ele>627.14</ele>
        <time>2023-09-21T07:05:34Z</time>
      </trkpt>
      <trkpt lat="48.22536" lon="6.79819">
        <ele>627.03</ele>
        <time>2023-09-21T07:05:48Z</time>
      </trkpt>
      <trkpt lat="48.22538" lon="6.79822">
        <ele>627.22</ele>
        <time>2023-09-21T07:05:50Z</time>
      </trkpt>
      <trkpt lat="48.22547" lon="6.79841">
        <ele>627.73</ele>
        <time>2023-09-21T07:06:01Z</time>
      </trkpt>
      <trkpt lat="48.22549" lon="6.79858">
        <ele>626.6</ele>
        <time>2023-09-21T07:06:09Z</time>
      </trkpt>
      <trkpt lat="48.22553" lon="6.7987">
        <ele>625.71</ele>
        <time>2023-09-21T07:06:15Z</time>
      </trkpt>
      <trkpt lat="48.22564" lon="6.79897">
        <ele>625.96</ele>
        <time>2023-09-21T07:06:31Z</time>
      </trkpt>
      <trkpt lat="48.22565" lon="6.79898">
        <ele>625.97</ele>
        <time>2023-09-21T07:06:33Z</time>
      </trkpt>
      <trkpt lat="48.22569" lon="6.79917">
        <ele>626.16</ele>
        <time>2023-09-21T07:06:44Z</time>
      </trkpt>
      <trkpt lat="48.22573" lon="6.79922">
        <ele>625.4</ele>
        <time>2023-09-21T07:06:47Z</time>
      </trkpt>
      <trkpt lat="48.22575" lon="6.79931">
        <ele>625.09</ele>
        <time>2023-09-21T07:06:52Z</time>
      </trkpt>
      <trkpt lat="48.22578" lon="6.79938">
        <ele>625.57</ele>
        <time>2023-09-21T07:06:56Z</time>
      </trkpt>
      <trkpt lat="48.22585" lon="6.79971">
        <ele>625.78</ele>
        <time>2023-09-21T07:07:12Z</time>
      </trkpt>
      <trkpt lat="48.22586" lon="6.79975">
        <ele>624.77</ele>
        <time>2023-09-21T07:07:17Z</time>
      </trkpt>
      <trkpt lat="48.22586" lon="6.79977">
        <ele>625.79</ele>
        <time>2023-09-21T07:07:21Z</time>
      </trkpt>
      <trkpt lat="48.22588" lon="6.79984">
        <ele>625.94</ele>
        <time>2023-09-21T07:07:25Z</time>
      </trkpt>
      <trkpt lat="48.22589" lon="6.79997">
        <ele>626.17</ele>
        <time>2023-09-21T07:07:31Z</time>
      </trkpt>
      <trkpt lat="48.22588" lon="6.80011">
        <ele>626.47</ele>
        <time>2023-09-21T07:07:39Z</time>
      </trkpt>
      <trkpt lat="48.2259" lon="6.80042">
        <ele>625.99</ele>
        <time>2023-09-21T07:07:53Z</time>
      </trkpt>
      <trkpt lat="48.22589" lon="6.80053">
        <ele>625.61</ele>
        <time>2023-09-21T07:07:58Z</time>
      </trkpt>
      <trkpt lat="48.22589" lon="6.80056">
        <ele>625.65</ele>
        <time>2023-09-21T07:07:59Z</time>
      </trkpt>
      <trkpt lat="48.22589" lon="6.80058">
        <ele>625.45</ele>
        <time>2023-09-21T07:08:00Z</time>
      </trkpt>
      <trkpt lat="48.2259" lon="6.80062">
        <ele>625.09</ele>
        <time>2023-09-21T07:08:02Z</time>
      </trkpt>
      <trkpt lat="48.22591" lon="6.80073">
        <ele>625.21</ele>
        <time>2023-09-21T07:08:08Z</time>
      </trkpt>
      <trkpt lat="48.22592" lon="6.80075">
        <ele>624.92</ele>
        <time>2023-09-21T07:08:09Z</time>
      </trkpt>
      <trkpt lat="48.22595" lon="6.80085">
        <ele>625.54</ele>
        <time>2023-09-21T07:08:22Z</time>
      </trkpt>
      <trkpt lat="48.22595" lon="6.80087">
        <ele>625.21</ele>
        <time>2023-09-21T07:08:23Z</time>
      </trkpt>
      <trkpt lat="48.22596" lon="6.8009">
        <ele>625.2</ele>
        <time>2023-09-21T07:08:24Z</time>
      </trkpt>
      <trkpt lat="48.22596" lon="6.80092">
        <ele>625.56</ele>
        <time>2023-09-21T07:08:25Z</time>
      </trkpt>
      <trkpt lat="48.22596" lon="6.80094">
        <ele>625.31</ele>
        <time>2023-09-21T07:08:26Z</time>
      </trkpt>
      <trkpt lat="48.22596" lon="6.80097">
        <ele>625.41</ele>
        <time>2023-09-21T07:08:27Z</time>
      </trkpt>
      <trkpt lat="48.22596" lon="6.80101">
        <ele>625.49</ele>
        <time>2023-09-21T07:08:28Z</time>
      </trkpt>
      <trkpt lat="48.22594" lon="6.8012">
        <ele>624.6</ele>
        <time>2023-09-21T07:08:37Z</time>
      </trkpt>
      <trkpt lat="48.22594" lon="6.80122">
        <ele>625.04</ele>
        <time>2023-09-21T07:08:38Z</time>
      </trkpt>
      <trkpt lat="48.22595" lon="6.80124">
        <ele>624.44</ele>
        <time>2023-09-21T07:08:39Z</time>
      </trkpt>
      <trkpt lat="48.22595" lon="6.80126">
        <ele>624.76</ele>
        <time>2023-09-21T07:08:40Z</time>
      </trkpt>
      <trkpt lat="48.22595" lon="6.80127">
        <ele>624.97</ele>
        <time>2023-09-21T07:08:41Z</time>
      </trkpt>
      <trkpt lat="48.22595" lon="6.80129">
        <ele>624.67</ele>
        <time>2023-09-21T07:08:42Z</time>
      </trkpt>
      <trkpt lat="48.22595" lon="6.80131">
        <ele>624.76</ele>
        <time>2023-09-21T07:08:43Z</time>
      </trkpt>
      <trkpt lat="48.22595" lon="6.80133">
        <ele>624.5</ele>
        <time>2023-09-21T07:08:44Z</time>
      </trkpt>
      <trkpt lat="48.22596" lon="6.80136">
        <ele>624.23</ele>
        <time>2023-09-21T07:08:45Z</time>
      </trkpt>
      <trkpt lat="48.22597" lon="6.80138">
        <ele>624.39</ele>
        <time>2023-09-21T07:08:46Z</time>
      </trkpt>
      <trkpt lat="48.22597" lon="6.8014">
        <ele>624.03</ele>
        <time>2023-09-21T07:08:47Z</time>
      </trkpt>
      <trkpt lat="48.22597" lon="6.80142">
        <ele>624.18</ele>
        <time>2023-09-21T07:08:48Z</time>
      </trkpt>
      <trkpt lat="48.22601" lon="6.8018">
        <ele>623.76</ele>
        <time>2023-09-21T07:09:06Z</time>
      </trkpt>
      <trkpt lat="48.22603" lon="6.8019">
        <ele>623.57</ele>
        <time>2023-09-21T07:09:11Z</time>
      </trkpt>
      <trkpt lat="48.22603" lon="6.80192">
        <ele>623.57</ele>
        <time>2023-09-21T07:09:12Z</time>
      </trkpt>
      <trkpt lat="48.22604" lon="6.80194">
        <ele>623.45</ele>
        <time>2023-09-21T07:09:13Z</time>
      </trkpt>
      <trkpt lat="48.22611" lon="6.80228">
        <ele>623.62</ele>
        <time>2023-09-21T07:09:30Z</time>
      </trkpt>
      <trkpt lat="48.22611" lon="6.80234">
        <ele>623.12</ele>
        <time>2023-09-21T07:09:33Z</time>
      </trkpt>
      <trkpt lat="48.22611" lon="6.80235">
        <ele>623.41</ele>
        <time>2023-09-21T07:09:34Z</time>
      </trkpt>
      <trkpt lat="48.22612" lon="6.80237">
        <ele>623.37</ele>
        <time>2023-09-21T07:09:35Z</time>
      </trkpt>
      <trkpt lat="48.22612" lon="6.80239">
        <ele>623.34</ele>
        <time>2023-09-21T07:09:36Z</time>
      </trkpt>
      <trkpt lat="48.22612" lon="6.80241">
        <ele>623.16</ele>
        <time>2023-09-21T07:09:37Z</time>
      </trkpt>
      <trkpt lat="48.22612" lon="6.80243">
        <ele>623.13</ele>
        <time>2023-09-21T07:09:38Z</time>
      </trkpt>
      <trkpt lat="48.22613" lon="6.80245">
        <ele>622.98</ele>
        <time>2023-09-21T07:09:39Z</time>
      </trkpt>
      <trkpt lat="48.22613" lon="6.80247">
        <ele>623.47</ele>
        <time>2023-09-21T07:09:40Z</time>
      </trkpt>
      <trkpt lat="48.22616" lon="6.80257">
        <ele>623.31</ele>
        <time>2023-09-21T07:09:46Z</time>
      </trkpt>
      <trkpt lat="48.22616" lon="6.80259">
        <ele>622.87</ele>
        <time>2023-09-21T07:09:47Z</time>
      </trkpt>
      <trkpt lat="48.22622" lon="6.80268">
        <ele>622.83</ele>
        <time>2023-09-21T07:09:52Z</time>
      </trkpt>
      <trkpt lat="48.22635" lon="6.8027">
        <ele>622.98</ele>
        <time>2023-09-21T07:10:05Z</time>
      </trkpt>
      <trkpt lat="48.22634" lon="6.80272">
        <ele>623.22</ele>
        <time>2023-09-21T07:10:17Z</time>
      </trkpt>
      <trkpt lat="48.22633" lon="6.80273">
        <ele>623.6</ele>
        <time>2023-09-21T07:10:18Z</time>
      </trkpt>
      <trkpt lat="48.22632" lon="6.80275">
        <ele>623.37</ele>
        <time>2023-09-21T07:10:19Z</time>
      </trkpt>
      <trkpt lat="48.22632" lon="6.80277">
        <ele>623.05</ele>
        <time>2023-09-21T07:10:20Z</time>
      </trkpt>
      <trkpt lat="48.22631" lon="6.80279">
        <ele>622.97</ele>
        <time>2023-09-21T07:10:21Z</time>
      </trkpt>
      <trkpt lat="48.22631" lon="6.80285">
        <ele>622.89</ele>
        <time>2023-09-21T07:10:31Z</time>
      </trkpt>
      <trkpt lat="48.22631" lon="6.80287">
        <ele>622.34</ele>
        <time>2023-09-21T07:10:32Z</time>
      </trkpt>
      <trkpt lat="48.22632" lon="6.80288">
        <ele>622.93</ele>
        <time>2023-09-21T07:10:33Z</time>
      </trkpt>
      <trkpt lat="48.22632" lon="6.8029">
        <ele>623.08</ele>
        <time>2023-09-21T07:10:34Z</time>
      </trkpt>
      <trkpt lat="48.22633" lon="6.80292">
        <ele>622.75</ele>
        <time>2023-09-21T07:10:35Z</time>
      </trkpt>
      <trkpt lat="48.22633" lon="6.80294">
        <ele>622.9</ele>
        <time>2023-09-21T07:10:36Z</time>
      </trkpt>
      <trkpt lat="48.22634" lon="6.80296">
        <ele>622.52</ele>
        <time>2023-09-21T07:10:37Z</time>
      </trkpt>
      <trkpt lat="48.22634" lon="6.80298">
        <ele>623.13</ele>
        <time>2023-09-21T07:10:38Z</time>
      </trkpt>
      <trkpt lat="48.22637" lon="6.80332">
        <ele>621.95</ele>
        <time>2023-09-21T07:10:55Z</time>
      </trkpt>
      <trkpt lat="48.22632" lon="6.80351">
        <ele>621.2</ele>
        <time>2023-09-21T07:11:06Z</time>
      </trkpt>
      <trkpt lat="48.22608" lon="6.80336">
        <ele>618.69</ele>
        <time>2023-09-21T07:11:26Z</time>
      </trkpt>
      <trkpt lat="48.22601" lon="6.8033">
        <ele>617.97</ele>
        <time>2023-09-21T07:11:32Z</time>
      </trkpt>
      <trkpt lat="48.226" lon="6.8033">
        <ele>618.34</ele>
        <time>2023-09-21T07:11:33Z</time>
      </trkpt>
      <trkpt lat="48.22598" lon="6.80329">
        <ele>618.43</ele>
        <time>2023-09-21T07:11:34Z</time>
      </trkpt>
      <trkpt lat="48.22592" lon="6.8033">
        <ele>616.57</ele>
        <time>2023-09-21T07:11:40Z</time>
      </trkpt>
      <trkpt lat="48.22591" lon="6.80331">
        <ele>616.52</ele>
        <time>2023-09-21T07:11:41Z</time>
      </trkpt>
      <trkpt lat="48.22582" lon="6.80347">
        <ele>613.37</ele>
        <time>2023-09-21T07:11:54Z</time>
      </trkpt>
      <trkpt lat="48.22578" lon="6.80361">
        <ele>612.57</ele>
        <time>2023-09-21T07:12:03Z</time>
      </trkpt>
      <trkpt lat="48.22561" lon="6.80381">
        <ele>609.41</ele>
        <time>2023-09-21T07:12:18Z</time>
      </trkpt>
      <trkpt lat="48.22535" lon="6.80392">
        <ele>607.27</ele>
        <time>2023-09-21T07:12:38Z</time>
      </trkpt>
      <trkpt lat="48.22515" lon="6.8039">
        <ele>606.09</ele>
        <time>2023-09-21T07:12:52Z</time>
      </trkpt>
      <trkpt lat="48.2249" lon="6.80391">
        <ele>603.11</ele>
        <time>2023-09-21T07:13:10Z</time>
      </trkpt>
      <trkpt lat="48.22486" lon="6.80394">
        <ele>602.52</ele>
        <time>2023-09-21T07:13:14Z</time>
      </trkpt>
      <trkpt lat="48.22485" lon="6.80395">
        <ele>602.12</ele>
        <time>2023-09-21T07:13:15Z</time>
      </trkpt>
      <trkpt lat="48.22464" lon="6.80407">
        <ele>598.99</ele>
        <time>2023-09-21T07:13:31Z</time>
      </trkpt>
      <trkpt lat="48.22453" lon="6.80414">
        <ele>598.45</ele>
        <time>2023-09-21T07:13:39Z</time>
      </trkpt>
      <trkpt lat="48.22451" lon="6.80414">
        <ele>598.01</ele>
        <time>2023-09-21T07:13:40Z</time>
      </trkpt>
      <trkpt lat="48.22449" lon="6.80414">
        <ele>598.35</ele>
        <time>2023-09-21T07:13:41Z</time>
      </trkpt>
      <trkpt lat="48.22448" lon="6.80414">
        <ele>597.96</ele>
        <time>2023-09-21T07:13:42Z</time>
      </trkpt>
      <trkpt lat="48.22446" lon="6.80415">
        <ele>597.74</ele>
        <time>2023-09-21T07:13:43Z</time>
      </trkpt>
      <trkpt lat="48.22445" lon="6.80415">
        <ele>597.54</ele>
        <time>2023-09-21T07:13:44Z</time>
      </trkpt>
      <trkpt lat="48.22444" lon="6.80415">
        <ele>597.16</ele>
        <time>2023-09-21T07:13:45Z</time>
      </trkpt>
      <trkpt lat="48.22423" lon="6.80417">
        <ele>596.86</ele>
        <time>2023-09-21T07:14:00Z</time>
      </trkpt>
      <trkpt lat="48.22399" lon="6.80419">
        <ele>595.41</ele>
        <time>2023-09-21T07:14:18Z</time>
      </trkpt>
      <trkpt lat="48.22398" lon="6.80419">
        <ele>595.96</ele>
        <time>2023-09-21T07:14:19Z</time>
      </trkpt>
      <trkpt lat="48.22387" lon="6.80425">
        <ele>595.49</ele>
        <time>2023-09-21T07:14:33Z</time>
      </trkpt>
      <trkpt lat="48.22383" lon="6.80429">
        <ele>595.69</ele>
        <time>2023-09-21T07:14:40Z</time>
      </trkpt>
      <trkpt lat="48.22382" lon="6.8043">
        <ele>595.98</ele>
        <time>2023-09-21T07:14:41Z</time>
      </trkpt>
      <trkpt lat="48.22382" lon="6.80431">
        <ele>595.27</ele>
        <time>2023-09-21T07:14:42Z</time>
      </trkpt>
      <trkpt lat="48.22379" lon="6.80435">
        <ele>595.72</ele>
        <time>2023-09-21T07:14:45Z</time>
      </trkpt>
      <trkpt lat="48.22378" lon="6.80436">
        <ele>595.96</ele>
        <time>2023-09-21T07:14:46Z</time>
      </trkpt>
      <trkpt lat="48.22378" lon="6.80446">
        <ele>595.59</ele>
        <time>2023-09-21T07:14:59Z</time>
      </trkpt>
      <trkpt lat="48.22375" lon="6.80446">
        <ele>595.58</ele>
        <time>2023-09-21T07:15:02Z</time>
      </trkpt>
      <trkpt lat="48.22374" lon="6.80446">
        <ele>595.73</ele>
        <time>2023-09-21T07:15:03Z</time>
      </trkpt>
      <trkpt lat="48.22372" lon="6.80447">
        <ele>596.03</ele>
        <time>2023-09-21T07:15:04Z</time>
      </trkpt>
      <trkpt lat="48.22371" lon="6.80448">
        <ele>595.97</ele>
        <time>2023-09-21T07:15:05Z</time>
      </trkpt>
      <trkpt lat="48.2237" lon="6.80448">
        <ele>596.2</ele>
        <time>2023-09-21T07:15:06Z</time>
      </trkpt>
      <trkpt lat="48.22369" lon="6.80449">
        <ele>596.02</ele>
        <time>2023-09-21T07:15:07Z</time>
      </trkpt>
      <trkpt lat="48.22368" lon="6.8045">
        <ele>595.91</ele>
        <time>2023-09-21T07:15:08Z</time>
      </trkpt>
      <trkpt lat="48.22356" lon="6.80463">
        <ele>596.73</ele>
        <time>2023-09-21T07:15:21Z</time>
      </trkpt>
      <trkpt lat="48.22346" lon="6.80487">
        <ele>596.72</ele>
        <time>2023-09-21T07:15:35Z</time>
      </trkpt>
      <trkpt lat="48.22344" lon="6.80499">
        <ele>598.81</ele>
        <time>2023-09-21T07:15:44Z</time>
      </trkpt>
      <trkpt lat="48.22344" lon="6.80501">
        <ele>598.42</ele>
        <time>2023-09-21T07:15:45Z</time>
      </trkpt>
      <trkpt lat="48.22342" lon="6.80512">
        <ele>598.61</ele>
        <time>2023-09-21T07:15:51Z</time>
      </trkpt>
      <trkpt lat="48.22341" lon="6.80514">
        <ele>599.74</ele>
        <time>2023-09-21T07:15:52Z</time>
      </trkpt>
      <trkpt lat="48.22333" lon="6.80537">
        <ele>600.11</ele>
        <time>2023-09-21T07:16:04Z</time>
      </trkpt>
      <trkpt lat="48.22333" lon="6.80544">
        <ele>600.13</ele>
        <time>2023-09-21T07:16:07Z</time>
      </trkpt>
      <trkpt lat="48.22332" lon="6.80546">
        <ele>600.25</ele>
        <time>2023-09-21T07:16:08Z</time>
      </trkpt>
      <trkpt lat="48.22331" lon="6.80548">
        <ele>600.5</ele>
        <time>2023-09-21T07:16:09Z</time>
      </trkpt>
      <trkpt lat="48.22331" lon="6.8055">
        <ele>600.6</ele>
        <time>2023-09-21T07:16:10Z</time>
      </trkpt>
      <trkpt lat="48.2233" lon="6.80552">
        <ele>600.16</ele>
        <time>2023-09-21T07:16:11Z</time>
      </trkpt>
      <trkpt lat="48.2232" lon="6.80577">
        <ele>602.31</ele>
        <time>2023-09-21T07:16:26Z</time>
      </trkpt>
      <trkpt lat="48.22312" lon="6.80604">
        <ele>603.19</ele>
        <time>2023-09-21T07:16:41Z</time>
      </trkpt>
      <trkpt lat="48.22305" lon="6.80633">
        <ele>604.18</ele>
        <time>2023-09-21T07:16:57Z</time>
      </trkpt>
      <trkpt lat="48.22305" lon="6.80637">
        <ele>605.15</ele>
        <time>2023-09-21T07:16:59Z</time>
      </trkpt>
      <trkpt lat="48.22305" lon="6.8064">
        <ele>604.65</ele>
        <time>2023-09-21T07:17:00Z</time>
      </trkpt>
      <trkpt lat="48.22304" lon="6.80651">
        <ele>605.16</ele>
        <time>2023-09-21T07:17:03Z</time>
      </trkpt>
      <trkpt lat="48.22303" lon="6.80654">
        <ele>605.12</ele>
        <time>2023-09-21T07:17:04Z</time>
      </trkpt>
      <trkpt lat="48.22304" lon="6.8066">
        <ele>605.52</ele>
        <time>2023-09-21T07:17:08Z</time>
      </trkpt>
      <trkpt lat="48.22303" lon="6.80663">
        <ele>605.1</ele>
        <time>2023-09-21T07:17:09Z</time>
      </trkpt>
      <trkpt lat="48.22303" lon="6.80665">
        <ele>605.41</ele>
        <time>2023-09-21T07:17:10Z</time>
      </trkpt>
      <trkpt lat="48.22303" lon="6.80667">
        <ele>605.79</ele>
        <time>2023-09-21T07:17:11Z</time>
      </trkpt>
      <trkpt lat="48.22303" lon="6.80669">
        <ele>606</ele>
        <time>2023-09-21T07:17:12Z</time>
      </trkpt>
      <trkpt lat="48.22303" lon="6.80671">
        <ele>606.13</ele>
        <time>2023-09-21T07:17:13Z</time>
      </trkpt>
      <trkpt lat="48.22305" lon="6.80676">
        <ele>606.21</ele>
        <time>2023-09-21T07:17:17Z</time>
      </trkpt>
      <trkpt lat="48.22305" lon="6.80678">
        <ele>606.36</ele>
        <time>2023-09-21T07:17:18Z</time>
      </trkpt>
      <trkpt lat="48.22306" lon="6.8068">
        <ele>606.29</ele>
        <time>2023-09-21T07:17:19Z</time>
      </trkpt>
      <trkpt lat="48.22306" lon="6.80682">
        <ele>606.32</ele>
        <time>2023-09-21T07:17:20Z</time>
      </trkpt>
      <trkpt lat="48.22306" lon="6.80685">
        <ele>606.3</ele>
        <time>2023-09-21T07:17:21Z</time>
      </trkpt>
      <trkpt lat="48.22307" lon="6.80687">
        <ele>606</ele>
        <time>2023-09-21T07:17:22Z</time>
      </trkpt>
      <trkpt lat="48.22307" lon="6.80688">
        <ele>606.43</ele>
        <time>2023-09-21T07:17:23Z</time>
      </trkpt>
      <trkpt lat="48.22307" lon="6.80691">
        <ele>606.53</ele>
        <time>2023-09-21T07:17:24Z</time>
      </trkpt>
      <trkpt lat="48.22307" lon="6.80713">
        <ele>607.07</ele>
        <time>2023-09-21T07:17:36Z</time>
      </trkpt>
      <trkpt lat="48.22306" lon="6.80716">
        <ele>607.27</ele>
        <time>2023-09-21T07:17:38Z</time>
      </trkpt>
      <trkpt lat="48.22306" lon="6.80718">
        <ele>606.89</ele>
        <time>2023-09-21T07:17:39Z</time>
      </trkpt>
      <trkpt lat="48.22306" lon="6.80732">
        <ele>606.55</ele>
        <time>2023-09-21T07:17:47Z</time>
      </trkpt>
      <trkpt lat="48.22304" lon="6.80739">
        <ele>606.9</ele>
        <time>2023-09-21T07:17:51Z</time>
      </trkpt>
      <trkpt lat="48.22304" lon="6.80741">
        <ele>606.3</ele>
        <time>2023-09-21T07:17:52Z</time>
      </trkpt>
      <trkpt lat="48.22303" lon="6.80742">
        <ele>606.68</ele>
        <time>2023-09-21T07:17:53Z</time>
      </trkpt>
      <trkpt lat="48.22302" lon="6.80744">
        <ele>606.96</ele>
        <time>2023-09-21T07:17:54Z</time>
      </trkpt>
      <trkpt lat="48.22302" lon="6.80746">
        <ele>606.09</ele>
        <time>2023-09-21T07:17:55Z</time>
      </trkpt>
      <trkpt lat="48.22301" lon="6.80747">
        <ele>606.43</ele>
        <time>2023-09-21T07:17:56Z</time>
      </trkpt>
      <trkpt lat="48.223" lon="6.80749">
        <ele>606.42</ele>
        <time>2023-09-21T07:17:57Z</time>
      </trkpt>
      <trkpt lat="48.223" lon="6.80751">
        <ele>606.06</ele>
        <time>2023-09-21T07:17:58Z</time>
      </trkpt>
      <trkpt lat="48.22292" lon="6.80761">
        <ele>605.11</ele>
        <time>2023-09-21T07:18:05Z</time>
      </trkpt>
      <trkpt lat="48.22292" lon="6.80762">
        <ele>605.7</ele>
        <time>2023-09-21T07:18:06Z</time>
      </trkpt>
      <trkpt lat="48.22292" lon="6.80764">
        <ele>604.85</ele>
        <time>2023-09-21T07:18:07Z</time>
      </trkpt>
      <trkpt lat="48.22292" lon="6.80766">
        <ele>604.64</ele>
        <time>2023-09-21T07:18:08Z</time>
      </trkpt>
      <trkpt lat="48.22291" lon="6.80768">
        <ele>604.91</ele>
        <time>2023-09-21T07:18:09Z</time>
      </trkpt>
      <trkpt lat="48.22284" lon="6.80786">
        <ele>602.97</ele>
        <time>2023-09-21T07:18:19Z</time>
      </trkpt>
      <trkpt lat="48.22284" lon="6.80788">
        <ele>602.44</ele>
        <time>2023-09-21T07:18:20Z</time>
      </trkpt>
      <trkpt lat="48.22283" lon="6.8079">
        <ele>602.69</ele>
        <time>2023-09-21T07:18:21Z</time>
      </trkpt>
      <trkpt lat="48.22282" lon="6.80791">
        <ele>602.24</ele>
        <time>2023-09-21T07:18:22Z</time>
      </trkpt>
      <trkpt lat="48.22281" lon="6.80792">
        <ele>601.73</ele>
        <time>2023-09-21T07:18:23Z</time>
      </trkpt>
      <trkpt lat="48.22271" lon="6.80813">
        <ele>600.86</ele>
        <time>2023-09-21T07:18:35Z</time>
      </trkpt>
      <trkpt lat="48.2226" lon="6.80842">
        <ele>599.77</ele>
        <time>2023-09-21T07:18:49Z</time>
      </trkpt>
      <trkpt lat="48.22252" lon="6.80861">
        <ele>600.29</ele>
        <time>2023-09-21T07:19:00Z</time>
      </trkpt>
      <trkpt lat="48.22246" lon="6.80871">
        <ele>599.85</ele>
        <time>2023-09-21T07:19:07Z</time>
      </trkpt>
      <trkpt lat="48.22241" lon="6.80877">
        <ele>600.36</ele>
        <time>2023-09-21T07:19:12Z</time>
      </trkpt>
      <trkpt lat="48.2224" lon="6.80879">
        <ele>599.91</ele>
        <time>2023-09-21T07:19:13Z</time>
      </trkpt>
      <trkpt lat="48.22239" lon="6.80881">
        <ele>599.7</ele>
        <time>2023-09-21T07:19:14Z</time>
      </trkpt>
      <trkpt lat="48.22227" lon="6.80899">
        <ele>601.55</ele>
        <time>2023-09-21T07:19:27Z</time>
      </trkpt>
      <trkpt lat="48.22227" lon="6.80905">
        <ele>601.71</ele>
        <time>2023-09-21T07:19:30Z</time>
      </trkpt>
      <trkpt lat="48.22226" lon="6.80907">
        <ele>601.96</ele>
        <time>2023-09-21T07:19:31Z</time>
      </trkpt>
      <trkpt lat="48.22225" lon="6.80909">
        <ele>602.11</ele>
        <time>2023-09-21T07:19:32Z</time>
      </trkpt>
      <trkpt lat="48.22215" lon="6.80933">
        <ele>602.22</ele>
        <time>2023-09-21T07:19:45Z</time>
      </trkpt>
      <trkpt lat="48.22202" lon="6.80958">
        <ele>602.74</ele>
        <time>2023-09-21T07:19:58Z</time>
      </trkpt>
      <trkpt lat="48.22201" lon="6.8096">
        <ele>602.77</ele>
        <time>2023-09-21T07:19:59Z</time>
      </trkpt>
      <trkpt lat="48.222" lon="6.80961">
        <ele>602.67</ele>
        <time>2023-09-21T07:20:00Z</time>
      </trkpt>
      <trkpt lat="48.22199" lon="6.80963">
        <ele>602.72</ele>
        <time>2023-09-21T07:20:01Z</time>
      </trkpt>
      <trkpt lat="48.22199" lon="6.80965">
        <ele>602.42</ele>
        <time>2023-09-21T07:20:02Z</time>
      </trkpt>
      <trkpt lat="48.22198" lon="6.80967">
        <ele>602.6</ele>
        <time>2023-09-21T07:20:03Z</time>
      </trkpt>
      <trkpt lat="48.22197" lon="6.80968">
        <ele>603.4</ele>
        <time>2023-09-21T07:20:04Z</time>
      </trkpt>
      <trkpt lat="48.22196" lon="6.8097">
        <ele>602.83</ele>
        <time>2023-09-21T07:20:05Z</time>
      </trkpt>
      <trkpt lat="48.22195" lon="6.80971">
        <ele>602.64</ele>
        <time>2023-09-21T07:20:06Z</time>
      </trkpt>
      <trkpt lat="48.22194" lon="6.80972">
        <ele>602.81</ele>
        <time>2023-09-21T07:20:07Z</time>
      </trkpt>
      <trkpt lat="48.22181" lon="6.81001">
        <ele>603.79</ele>
        <time>2023-09-21T07:20:23Z</time>
      </trkpt>
      <trkpt lat="48.22179" lon="6.81022">
        <ele>605.09</ele>
        <time>2023-09-21T07:20:38Z</time>
      </trkpt>
      <trkpt lat="48.22174" lon="6.81026">
        <ele>605.1</ele>
        <time>2023-09-21T07:21:08Z</time>
      </trkpt>
      <trkpt lat="48.22172" lon="6.81032">
        <ele>604.92</ele>
        <time>2023-09-21T07:21:21Z</time>
      </trkpt>
      <trkpt lat="48.22172" lon="6.81033">
        <ele>605</ele>
        <time>2023-09-21T07:21:22Z</time>
      </trkpt>
      <trkpt lat="48.22172" lon="6.81036">
        <ele>605.42</ele>
        <time>2023-09-21T07:21:24Z</time>
      </trkpt>
      <trkpt lat="48.22173" lon="6.81038">
        <ele>605.32</ele>
        <time>2023-09-21T07:21:25Z</time>
      </trkpt>
      <trkpt lat="48.22173" lon="6.8104">
        <ele>605.38</ele>
        <time>2023-09-21T07:21:26Z</time>
      </trkpt>
      <trkpt lat="48.22173" lon="6.81042">
        <ele>605.37</ele>
        <time>2023-09-21T07:21:27Z</time>
      </trkpt>
      <trkpt lat="48.22173" lon="6.81044">
        <ele>605.17</ele>
        <time>2023-09-21T07:21:28Z</time>
      </trkpt>
      <trkpt lat="48.22172" lon="6.81046">
        <ele>605.57</ele>
        <time>2023-09-21T07:21:29Z</time>
      </trkpt>
      <trkpt lat="48.22171" lon="6.81048">
        <ele>605.32</ele>
        <time>2023-09-21T07:21:30Z</time>
      </trkpt>
      <trkpt lat="48.22171" lon="6.8105">
        <ele>605.75</ele>
        <time>2023-09-21T07:21:31Z</time>
      </trkpt>
      <trkpt lat="48.2217" lon="6.81061">
        <ele>605.94</ele>
        <time>2023-09-21T07:21:37Z</time>
      </trkpt>
      <trkpt lat="48.22169" lon="6.81062">
        <ele>606.03</ele>
        <time>2023-09-21T07:21:38Z</time>
      </trkpt>
      <trkpt lat="48.22169" lon="6.81064">
        <ele>605.9</ele>
        <time>2023-09-21T07:21:39Z</time>
      </trkpt>
      <trkpt lat="48.22168" lon="6.81066">
        <ele>606.1</ele>
        <time>2023-09-21T07:21:40Z</time>
      </trkpt>
      <trkpt lat="48.22168" lon="6.81068">
        <ele>605.95</ele>
        <time>2023-09-21T07:21:41Z</time>
      </trkpt>
      <trkpt lat="48.22165" lon="6.81089">
        <ele>606.91</ele>
        <time>2023-09-21T07:21:53Z</time>
      </trkpt>
      <trkpt lat="48.22164" lon="6.8109">
        <ele>607.13</ele>
        <time>2023-09-21T07:21:54Z</time>
      </trkpt>
      <trkpt lat="48.22164" lon="6.81092">
        <ele>607.15</ele>
        <time>2023-09-21T07:21:55Z</time>
      </trkpt>
      <trkpt lat="48.22163" lon="6.81093">
        <ele>607.3</ele>
        <time>2023-09-21T07:21:56Z</time>
      </trkpt>
      <trkpt lat="48.22162" lon="6.81096">
        <ele>606.49</ele>
        <time>2023-09-21T07:21:57Z</time>
      </trkpt>
      <trkpt lat="48.22162" lon="6.81097">
        <ele>607.38</ele>
        <time>2023-09-21T07:21:58Z</time>
      </trkpt>
      <trkpt lat="48.22159" lon="6.81104">
        <ele>608.18</ele>
        <time>2023-09-21T07:22:03Z</time>
      </trkpt>
      <trkpt lat="48.22159" lon="6.81106">
        <ele>608.07</ele>
        <time>2023-09-21T07:22:04Z</time>
      </trkpt>
      <trkpt lat="48.22157" lon="6.81121">
        <ele>609.63</ele>
        <time>2023-09-21T07:22:15Z</time>
      </trkpt>
      <trkpt lat="48.22156" lon="6.81122">
        <ele>609.4</ele>
        <time>2023-09-21T07:22:16Z</time>
      </trkpt>
      <trkpt lat="48.22155" lon="6.81124">
        <ele>609.13</ele>
        <time>2023-09-21T07:22:17Z</time>
      </trkpt>
      <trkpt lat="48.22149" lon="6.81139">
        <ele>610.94</ele>
        <time>2023-09-21T07:22:30Z</time>
      </trkpt>
      <trkpt lat="48.22135" lon="6.8117">
        <ele>613.66</ele>
        <time>2023-09-21T07:22:50Z</time>
      </trkpt>
      <trkpt lat="48.22133" lon="6.81175">
        <ele>613.45</ele>
        <time>2023-09-21T07:22:56Z</time>
      </trkpt>
      <trkpt lat="48.22132" lon="6.81182">
        <ele>613.79</ele>
        <time>2023-09-21T07:23:03Z</time>
      </trkpt>
      <trkpt lat="48.22132" lon="6.81183">
        <ele>613.54</ele>
        <time>2023-09-21T07:23:04Z</time>
      </trkpt>
      <trkpt lat="48.22132" lon="6.81184">
        <ele>613.68</ele>
        <time>2023-09-21T07:23:05Z</time>
      </trkpt>
      <trkpt lat="48.22129" lon="6.81194">
        <ele>613.87</ele>
        <time>2023-09-21T07:23:11Z</time>
      </trkpt>
      <trkpt lat="48.22129" lon="6.81195">
        <ele>614.62</ele>
        <time>2023-09-21T07:23:12Z</time>
      </trkpt>
      <trkpt lat="48.22129" lon="6.81197">
        <ele>614.48</ele>
        <time>2023-09-21T07:23:13Z</time>
      </trkpt>
      <trkpt lat="48.22128" lon="6.81199">
        <ele>614.37</ele>
        <time>2023-09-21T07:23:14Z</time>
      </trkpt>
      <trkpt lat="48.22129" lon="6.81201">
        <ele>614.72</ele>
        <time>2023-09-21T07:23:16Z</time>
      </trkpt>
      <trkpt lat="48.22129" lon="6.81204">
        <ele>615.09</ele>
        <time>2023-09-21T07:23:17Z</time>
      </trkpt>
      <trkpt lat="48.22129" lon="6.81208">
        <ele>614.25</ele>
        <time>2023-09-21T07:23:18Z</time>
      </trkpt>
      <trkpt lat="48.22129" lon="6.8121">
        <ele>614.96</ele>
        <time>2023-09-21T07:23:19Z</time>
      </trkpt>
      <trkpt lat="48.22129" lon="6.81211">
        <ele>614.81</ele>
        <time>2023-09-21T07:23:20Z</time>
      </trkpt>
      <trkpt lat="48.22129" lon="6.81213">
        <ele>614.93</ele>
        <time>2023-09-21T07:23:21Z</time>
      </trkpt>
      <trkpt lat="48.22129" lon="6.81216">
        <ele>614.71</ele>
        <time>2023-09-21T07:23:22Z</time>
      </trkpt>
      <trkpt lat="48.2213" lon="6.81217">
        <ele>614.53</ele>
        <time>2023-09-21T07:23:23Z</time>
      </trkpt>
      <trkpt lat="48.22129" lon="6.81219">
        <ele>614.37</ele>
        <time>2023-09-21T07:23:24Z</time>
      </trkpt>
      <trkpt lat="48.22129" lon="6.8122">
        <ele>614.94</ele>
        <time>2023-09-21T07:23:25Z</time>
      </trkpt>
      <trkpt lat="48.22129" lon="6.81222">
        <ele>614.92</ele>
        <time>2023-09-21T07:23:26Z</time>
      </trkpt>
      <trkpt lat="48.22129" lon="6.81224">
        <ele>614.59</ele>
        <time>2023-09-21T07:23:27Z</time>
      </trkpt>
      <trkpt lat="48.22132" lon="6.81234">
        <ele>615.16</ele>
        <time>2023-09-21T07:23:35Z</time>
      </trkpt>
      <trkpt lat="48.22132" lon="6.81236">
        <ele>615.54</ele>
        <time>2023-09-21T07:23:36Z</time>
      </trkpt>
      <trkpt lat="48.22132" lon="6.81237">
        <ele>615.71</ele>
        <time>2023-09-21T07:23:37Z</time>
      </trkpt>
      <trkpt lat="48.22132" lon="6.8124">
        <ele>616.03</ele>
        <time>2023-09-21T07:23:38Z</time>
      </trkpt>
      <trkpt lat="48.22132" lon="6.81242">
        <ele>616.02</ele>
        <time>2023-09-21T07:23:39Z</time>
      </trkpt>
      <trkpt lat="48.22132" lon="6.81244">
        <ele>616.26</ele>
        <time>2023-09-21T07:23:40Z</time>
      </trkpt>
      <trkpt lat="48.22132" lon="6.81245">
        <ele>616.23</ele>
        <time>2023-09-21T07:23:41Z</time>
      </trkpt>
      <trkpt lat="48.22132" lon="6.81249">
        <ele>616.15</ele>
        <time>2023-09-21T07:23:43Z</time>
      </trkpt>
      <trkpt lat="48.22132" lon="6.81252">
        <ele>616.54</ele>
        <time>2023-09-21T07:23:44Z</time>
      </trkpt>
      <trkpt lat="48.22132" lon="6.81255">
        <ele>616.68</ele>
        <time>2023-09-21T07:23:45Z</time>
      </trkpt>
      <trkpt lat="48.22133" lon="6.81257">
        <ele>616.17</ele>
        <time>2023-09-21T07:23:46Z</time>
      </trkpt>
      <trkpt lat="48.22133" lon="6.81259">
        <ele>616.52</ele>
        <time>2023-09-21T07:23:47Z</time>
      </trkpt>
      <trkpt lat="48.22132" lon="6.81261">
        <ele>616.49</ele>
        <time>2023-09-21T07:23:48Z</time>
      </trkpt>
      <trkpt lat="48.22132" lon="6.81263">
        <ele>616.5</ele>
        <time>2023-09-21T07:23:49Z</time>
      </trkpt>
      <trkpt lat="48.22133" lon="6.81271">
        <ele>616.97</ele>
        <time>2023-09-21T07:23:55Z</time>
      </trkpt>
      <trkpt lat="48.22133" lon="6.81273">
        <ele>617.33</ele>
        <time>2023-09-21T07:23:56Z</time>
      </trkpt>
      <trkpt lat="48.22133" lon="6.81275">
        <ele>617.48</ele>
        <time>2023-09-21T07:23:57Z</time>
      </trkpt>
      <trkpt lat="48.22133" lon="6.81277">
        <ele>617.59</ele>
        <time>2023-09-21T07:23:58Z</time>
      </trkpt>
      <trkpt lat="48.22132" lon="6.81301">
        <ele>618.44</ele>
        <time>2023-09-21T07:24:09Z</time>
      </trkpt>
      <trkpt lat="48.22131" lon="6.81302">
        <ele>618.45</ele>
        <time>2023-09-21T07:24:10Z</time>
      </trkpt>
      <trkpt lat="48.22131" lon="6.81305">
        <ele>618.42</ele>
        <time>2023-09-21T07:24:11Z</time>
      </trkpt>
      <trkpt lat="48.22131" lon="6.81307">
        <ele>618.47</ele>
        <time>2023-09-21T07:24:12Z</time>
      </trkpt>
      <trkpt lat="48.22131" lon="6.81309">
        <ele>618.69</ele>
        <time>2023-09-21T07:24:13Z</time>
      </trkpt>
      <trkpt lat="48.22131" lon="6.81311">
        <ele>618.82</ele>
        <time>2023-09-21T07:24:14Z</time>
      </trkpt>
      <trkpt lat="48.22131" lon="6.81315">
        <ele>618.65</ele>
        <time>2023-09-21T07:24:15Z</time>
      </trkpt>
      <trkpt lat="48.2213" lon="6.81319">
        <ele>618.66</ele>
        <time>2023-09-21T07:24:16Z</time>
      </trkpt>
      <trkpt lat="48.2213" lon="6.81321">
        <ele>619.2</ele>
        <time>2023-09-21T07:24:17Z</time>
      </trkpt>
      <trkpt lat="48.2213" lon="6.81323">
        <ele>619.29</ele>
        <time>2023-09-21T07:24:18Z</time>
      </trkpt>
      <trkpt lat="48.2213" lon="6.81326">
        <ele>619.31</ele>
        <time>2023-09-21T07:24:19Z</time>
      </trkpt>
      <trkpt lat="48.22129" lon="6.81328">
        <ele>619.09</ele>
        <time>2023-09-21T07:24:20Z</time>
      </trkpt>
      <trkpt lat="48.22126" lon="6.8135">
        <ele>620.84</ele>
        <time>2023-09-21T07:24:31Z</time>
      </trkpt>
      <trkpt lat="48.22126" lon="6.81353">
        <ele>620.15</ele>
        <time>2023-09-21T07:24:32Z</time>
      </trkpt>
      <trkpt lat="48.22126" lon="6.81355">
        <ele>619.91</ele>
        <time>2023-09-21T07:24:33Z</time>
      </trkpt>
      <trkpt lat="48.22125" lon="6.81358">
        <ele>620.19</ele>
        <time>2023-09-21T07:24:34Z</time>
      </trkpt>
      <trkpt lat="48.22125" lon="6.8136">
        <ele>620.26</ele>
        <time>2023-09-21T07:24:35Z</time>
      </trkpt>
      <trkpt lat="48.22126" lon="6.81361">
        <ele>620.77</ele>
        <time>2023-09-21T07:24:36Z</time>
      </trkpt>
      <trkpt lat="48.22126" lon="6.81363">
        <ele>620.83</ele>
        <time>2023-09-21T07:24:37Z</time>
      </trkpt>
      <trkpt lat="48.22126" lon="6.81365">
        <ele>620.38</ele>
        <time>2023-09-21T07:24:38Z</time>
      </trkpt>
      <trkpt lat="48.22126" lon="6.81367">
        <ele>620.8</ele>
        <time>2023-09-21T07:24:39Z</time>
      </trkpt>
      <trkpt lat="48.22127" lon="6.81369">
        <ele>620.51</ele>
        <time>2023-09-21T07:24:40Z</time>
      </trkpt>
      <trkpt lat="48.22138" lon="6.81402">
        <ele>621</ele>
        <time>2023-09-21T07:24:57Z</time>
      </trkpt>
      <trkpt lat="48.22154" lon="6.81434">
        <ele>619.91</ele>
        <time>2023-09-21T07:25:15Z</time>
      </trkpt>
      <trkpt lat="48.2217" lon="6.81463">
        <ele>619.53</ele>
        <time>2023-09-21T07:25:33Z</time>
      </trkpt>
      <trkpt lat="48.22173" lon="6.81468">
        <ele>619.4</ele>
        <time>2023-09-21T07:25:37Z</time>
      </trkpt>
      <trkpt lat="48.22174" lon="6.81469">
        <ele>619.41</ele>
        <time>2023-09-21T07:25:38Z</time>
      </trkpt>
      <trkpt lat="48.22175" lon="6.81471">
        <ele>619.41</ele>
        <time>2023-09-21T07:25:39Z</time>
      </trkpt>
      <trkpt lat="48.22176" lon="6.81472">
        <ele>619.6</ele>
        <time>2023-09-21T07:25:40Z</time>
      </trkpt>
      <trkpt lat="48.22177" lon="6.81473">
        <ele>619.41</ele>
        <time>2023-09-21T07:25:41Z</time>
      </trkpt>
      <trkpt lat="48.22177" lon="6.81475">
        <ele>619.16</ele>
        <time>2023-09-21T07:25:42Z</time>
      </trkpt>
      <trkpt lat="48.22178" lon="6.81477">
        <ele>618.88</ele>
        <time>2023-09-21T07:25:43Z</time>
      </trkpt>
      <trkpt lat="48.22178" lon="6.81479">
        <ele>619.36</ele>
        <time>2023-09-21T07:25:44Z</time>
      </trkpt>
      <trkpt lat="48.22178" lon="6.8148">
        <ele>619.82</ele>
        <time>2023-09-21T07:25:45Z</time>
      </trkpt>
      <trkpt lat="48.22192" lon="6.81502">
        <ele>619.01</ele>
        <time>2023-09-21T07:25:59Z</time>
      </trkpt>
      <trkpt lat="48.22194" lon="6.81508">
        <ele>619.33</ele>
        <time>2023-09-21T07:26:03Z</time>
      </trkpt>
      <trkpt lat="48.22195" lon="6.81509">
        <ele>619.55</ele>
        <time>2023-09-21T07:26:04Z</time>
      </trkpt>
      <trkpt lat="48.22208" lon="6.81529">
        <ele>619.83</ele>
        <time>2023-09-21T07:26:19Z</time>
      </trkpt>
      <trkpt lat="48.22218" lon="6.81543">
        <ele>619.34</ele>
        <time>2023-09-21T07:26:31Z</time>
      </trkpt>
      <trkpt lat="48.22218" lon="6.81545">
        <ele>619.86</ele>
        <time>2023-09-21T07:26:32Z</time>
      </trkpt>
      <trkpt lat="48.2222" lon="6.81546">
        <ele>619.65</ele>
        <time>2023-09-21T07:26:33Z</time>
      </trkpt>
      <trkpt lat="48.22234" lon="6.81563">
        <ele>618.65</ele>
        <time>2023-09-21T07:26:48Z</time>
      </trkpt>
      <trkpt lat="48.22241" lon="6.81569">
        <ele>618.44</ele>
        <time>2023-09-21T07:26:54Z</time>
      </trkpt>
      <trkpt lat="48.22246" lon="6.81577">
        <ele>618.09</ele>
        <time>2023-09-21T07:26:59Z</time>
      </trkpt>
      <trkpt lat="48.22248" lon="6.81578">
        <ele>618.26</ele>
        <time>2023-09-21T07:27:00Z</time>
      </trkpt>
      <trkpt lat="48.22249" lon="6.8158">
        <ele>618.43</ele>
        <time>2023-09-21T07:27:01Z</time>
      </trkpt>
      <trkpt lat="48.2226" lon="6.81597">
        <ele>618.6</ele>
        <time>2023-09-21T07:27:12Z</time>
      </trkpt>
      <trkpt lat="48.2226" lon="6.81599">
        <ele>618.48</ele>
        <time>2023-09-21T07:27:13Z</time>
      </trkpt>
      <trkpt lat="48.22261" lon="6.81601">
        <ele>618.53</ele>
        <time>2023-09-21T07:27:14Z</time>
      </trkpt>
      <trkpt lat="48.22261" lon="6.81603">
        <ele>618.04</ele>
        <time>2023-09-21T07:27:15Z</time>
      </trkpt>
      <trkpt lat="48.22262" lon="6.81605">
        <ele>618.44</ele>
        <time>2023-09-21T07:27:16Z</time>
      </trkpt>
      <trkpt lat="48.22262" lon="6.81606">
        <ele>618.34</ele>
        <time>2023-09-21T07:27:17Z</time>
      </trkpt>
      <trkpt lat="48.22263" lon="6.81608">
        <ele>618.19</ele>
        <time>2023-09-21T07:27:18Z</time>
      </trkpt>
      <trkpt lat="48.22263" lon="6.8161">
        <ele>618.19</ele>
        <time>2023-09-21T07:27:19Z</time>
      </trkpt>
      <trkpt lat="48.22264" lon="6.81611">
        <ele>618.17</ele>
        <time>2023-09-21T07:27:20Z</time>
      </trkpt>
      <trkpt lat="48.22264" lon="6.81613">
        <ele>618.14</ele>
        <time>2023-09-21T07:27:21Z</time>
      </trkpt>
      <trkpt lat="48.2227" lon="6.81633">
        <ele>617.37</ele>
        <time>2023-09-21T07:27:36Z</time>
      </trkpt>
      <trkpt lat="48.22273" lon="6.81636">
        <ele>616.76</ele>
        <time>2023-09-21T07:27:42Z</time>
      </trkpt>
      <trkpt lat="48.22273" lon="6.81637">
        <ele>617.06</ele>
        <time>2023-09-21T07:27:43Z</time>
      </trkpt>
      <trkpt lat="48.22274" lon="6.81639">
        <ele>617.36</ele>
        <time>2023-09-21T07:27:44Z</time>
      </trkpt>
      <trkpt lat="48.22275" lon="6.8164">
        <ele>616.51</ele>
        <time>2023-09-21T07:27:45Z</time>
      </trkpt>
      <trkpt lat="48.22275" lon="6.81642">
        <ele>616.21</ele>
        <time>2023-09-21T07:27:46Z</time>
      </trkpt>
      <trkpt lat="48.22275" lon="6.81644">
        <ele>617.15</ele>
        <time>2023-09-21T07:27:47Z</time>
      </trkpt>
      <trkpt lat="48.22279" lon="6.81656">
        <ele>616.51</ele>
        <time>2023-09-21T07:27:54Z</time>
      </trkpt>
      <trkpt lat="48.2228" lon="6.81658">
        <ele>616.12</ele>
        <time>2023-09-21T07:27:55Z</time>
      </trkpt>
      <trkpt lat="48.22289" lon="6.81686">
        <ele>617.34</ele>
        <time>2023-09-21T07:28:11Z</time>
      </trkpt>
      <trkpt lat="48.22292" lon="6.81704">
        <ele>616.89</ele>
        <time>2023-09-21T07:28:21Z</time>
      </trkpt>
      <trkpt lat="48.22292" lon="6.81706">
        <ele>616.88</ele>
        <time>2023-09-21T07:28:22Z</time>
      </trkpt>
      <trkpt lat="48.22293" lon="6.81708">
        <ele>616.72</ele>
        <time>2023-09-21T07:28:23Z</time>
      </trkpt>
      <trkpt lat="48.22293" lon="6.8171">
        <ele>616.74</ele>
        <time>2023-09-21T07:28:24Z</time>
      </trkpt>
      <trkpt lat="48.22294" lon="6.81712">
        <ele>617.02</ele>
        <time>2023-09-21T07:28:25Z</time>
      </trkpt>
      <trkpt lat="48.22294" lon="6.81714">
        <ele>616.81</ele>
        <time>2023-09-21T07:28:26Z</time>
      </trkpt>
      <trkpt lat="48.22294" lon="6.81716">
        <ele>617.19</ele>
        <time>2023-09-21T07:28:27Z</time>
      </trkpt>
      <trkpt lat="48.22294" lon="6.81717">
        <ele>617.65</ele>
        <time>2023-09-21T07:28:28Z</time>
      </trkpt>
      <trkpt lat="48.22294" lon="6.81719">
        <ele>617.13</ele>
        <time>2023-09-21T07:28:29Z</time>
      </trkpt>
      <trkpt lat="48.22294" lon="6.81721">
        <ele>616.92</ele>
        <time>2023-09-21T07:28:30Z</time>
      </trkpt>
      <trkpt lat="48.22294" lon="6.81722">
        <ele>617.03</ele>
        <time>2023-09-21T07:28:31Z</time>
      </trkpt>
      <trkpt lat="48.22298" lon="6.81734">
        <ele>617.07</ele>
        <time>2023-09-21T07:28:37Z</time>
      </trkpt>
      <trkpt lat="48.22299" lon="6.81737">
        <ele>617.04</ele>
        <time>2023-09-21T07:28:39Z</time>
      </trkpt>
      <trkpt lat="48.223" lon="6.81748">
        <ele>617.36</ele>
        <time>2023-09-21T07:28:45Z</time>
      </trkpt>
      <trkpt lat="48.22304" lon="6.81763">
        <ele>617.53</ele>
        <time>2023-09-21T07:28:54Z</time>
      </trkpt>
      <trkpt lat="48.22304" lon="6.81765">
        <ele>617.51</ele>
        <time>2023-09-21T07:28:55Z</time>
      </trkpt>
      <trkpt lat="48.22305" lon="6.81766">
        <ele>617.78</ele>
        <time>2023-09-21T07:28:56Z</time>
      </trkpt>
      <trkpt lat="48.22306" lon="6.81767">
        <ele>617.74</ele>
        <time>2023-09-21T07:28:57Z</time>
      </trkpt>
      <trkpt lat="48.22307" lon="6.81769">
        <ele>617.78</ele>
        <time>2023-09-21T07:28:58Z</time>
      </trkpt>
      <trkpt lat="48.22308" lon="6.8177">
        <ele>617.55</ele>
        <time>2023-09-21T07:28:59Z</time>
      </trkpt>
      <trkpt lat="48.22308" lon="6.81773">
        <ele>617.62</ele>
        <time>2023-09-21T07:29:00Z</time>
      </trkpt>
      <trkpt lat="48.22308" lon="6.81776">
        <ele>617.62</ele>
        <time>2023-09-21T07:29:01Z</time>
      </trkpt>
      <trkpt lat="48.22308" lon="6.8178">
        <ele>617.75</ele>
        <time>2023-09-21T07:29:03Z</time>
      </trkpt>
      <trkpt lat="48.22308" lon="6.81783">
        <ele>617.79</ele>
        <time>2023-09-21T07:29:04Z</time>
      </trkpt>
      <trkpt lat="48.22309" lon="6.81785">
        <ele>617.8</ele>
        <time>2023-09-21T07:29:05Z</time>
      </trkpt>
      <trkpt lat="48.2231" lon="6.81798">
        <ele>618.29</ele>
        <time>2023-09-21T07:29:12Z</time>
      </trkpt>
      <trkpt lat="48.2231" lon="6.818">
        <ele>618.31</ele>
        <time>2023-09-21T07:29:13Z</time>
      </trkpt>
      <trkpt lat="48.22311" lon="6.81803">
        <ele>618.27</ele>
        <time>2023-09-21T07:29:14Z</time>
      </trkpt>
      <trkpt lat="48.22312" lon="6.81806">
        <ele>618.2</ele>
        <time>2023-09-21T07:29:15Z</time>
      </trkpt>
      <trkpt lat="48.22312" lon="6.81823">
        <ele>618.18</ele>
        <time>2023-09-21T07:29:23Z</time>
      </trkpt>
      <trkpt lat="48.22313" lon="6.81825">
        <ele>618.22</ele>
        <time>2023-09-21T07:29:24Z</time>
      </trkpt>
      <trkpt lat="48.22313" lon="6.81827">
        <ele>618.36</ele>
        <time>2023-09-21T07:29:25Z</time>
      </trkpt>
      <trkpt lat="48.22318" lon="6.81851">
        <ele>618.64</ele>
        <time>2023-09-21T07:29:37Z</time>
      </trkpt>
      <trkpt lat="48.22318" lon="6.81853">
        <ele>618.53</ele>
        <time>2023-09-21T07:29:38Z</time>
      </trkpt>
      <trkpt lat="48.22319" lon="6.81855">
        <ele>618.6</ele>
        <time>2023-09-21T07:29:39Z</time>
      </trkpt>
      <trkpt lat="48.22319" lon="6.81857">
        <ele>618.77</ele>
        <time>2023-09-21T07:29:40Z</time>
      </trkpt>
      <trkpt lat="48.22319" lon="6.81859">
        <ele>618.52</ele>
        <time>2023-09-21T07:29:41Z</time>
      </trkpt>
      <trkpt lat="48.22319" lon="6.81861">
        <ele>618.69</ele>
        <time>2023-09-21T07:29:42Z</time>
      </trkpt>
      <trkpt lat="48.22319" lon="6.81864">
        <ele>619</ele>
        <time>2023-09-21T07:29:43Z</time>
      </trkpt>
      <trkpt lat="48.2232" lon="6.81866">
        <ele>619.02</ele>
        <time>2023-09-21T07:29:44Z</time>
      </trkpt>
      <trkpt lat="48.2232" lon="6.81868">
        <ele>619.17</ele>
        <time>2023-09-21T07:29:45Z</time>
      </trkpt>
      <trkpt lat="48.2232" lon="6.8187">
        <ele>619.09</ele>
        <time>2023-09-21T07:29:46Z</time>
      </trkpt>
      <trkpt lat="48.22321" lon="6.81872">
        <ele>619.06</ele>
        <time>2023-09-21T07:29:47Z</time>
      </trkpt>
      <trkpt lat="48.22322" lon="6.81874">
        <ele>619.14</ele>
        <time>2023-09-21T07:29:48Z</time>
      </trkpt>
      <trkpt lat="48.22322" lon="6.81876">
        <ele>619.25</ele>
        <time>2023-09-21T07:29:49Z</time>
      </trkpt>
      <trkpt lat="48.22323" lon="6.81879">
        <ele>619.28</ele>
        <time>2023-09-21T07:29:50Z</time>
      </trkpt>
      <trkpt lat="48.22323" lon="6.81881">
        <ele>619.3</ele>
        <time>2023-09-21T07:29:51Z</time>
      </trkpt>
      <trkpt lat="48.22324" lon="6.81882">
        <ele>619.29</ele>
        <time>2023-09-21T07:29:52Z</time>
      </trkpt>
      <trkpt lat="48.22325" lon="6.81884">
        <ele>619.21</ele>
        <time>2023-09-21T07:29:53Z</time>
      </trkpt>
      <trkpt lat="48.22326" lon="6.81887">
        <ele>619.51</ele>
        <time>2023-09-21T07:29:54Z</time>
      </trkpt>
      <trkpt lat="48.22326" lon="6.81889">
        <ele>619.53</ele>
        <time>2023-09-21T07:29:55Z</time>
      </trkpt>
      <trkpt lat="48.22327" lon="6.8189">
        <ele>619.47</ele>
        <time>2023-09-21T07:29:56Z</time>
      </trkpt>
      <trkpt lat="48.22328" lon="6.81892">
        <ele>619.34</ele>
        <time>2023-09-21T07:29:57Z</time>
      </trkpt>
      <trkpt lat="48.22328" lon="6.81894">
        <ele>619.17</ele>
        <time>2023-09-21T07:29:58Z</time>
      </trkpt>
      <trkpt lat="48.22329" lon="6.81896">
        <ele>619.82</ele>
        <time>2023-09-21T07:29:59Z</time>
      </trkpt>
      <trkpt lat="48.22329" lon="6.81898">
        <ele>619.61</ele>
        <time>2023-09-21T07:30:00Z</time>
      </trkpt>
      <trkpt lat="48.2233" lon="6.81899">
        <ele>619.8</ele>
        <time>2023-09-21T07:30:01Z</time>
      </trkpt>
      <trkpt lat="48.22331" lon="6.81901">
        <ele>619.96</ele>
        <time>2023-09-21T07:30:02Z</time>
      </trkpt>
      <trkpt lat="48.22332" lon="6.81903">
        <ele>619.89</ele>
        <time>2023-09-21T07:30:03Z</time>
      </trkpt>
      <trkpt lat="48.22332" lon="6.81905">
        <ele>619.68</ele>
        <time>2023-09-21T07:30:04Z</time>
      </trkpt>
      <trkpt lat="48.22333" lon="6.81906">
        <ele>620.39</ele>
        <time>2023-09-21T07:30:05Z</time>
      </trkpt>
      <trkpt lat="48.22344" lon="6.81935">
        <ele>620.29</ele>
        <time>2023-09-21T07:30:21Z</time>
      </trkpt>
      <trkpt lat="48.22353" lon="6.81964">
        <ele>621.01</ele>
        <time>2023-09-21T07:30:37Z</time>
      </trkpt>
      <trkpt lat="48.22355" lon="6.81969">
        <ele>621.41</ele>
        <time>2023-09-21T07:30:40Z</time>
      </trkpt>
      <trkpt lat="48.22356" lon="6.81971">
        <ele>621.48</ele>
        <time>2023-09-21T07:30:41Z</time>
      </trkpt>
      <trkpt lat="48.22356" lon="6.81973">
        <ele>621.44</ele>
        <time>2023-09-21T07:30:42Z</time>
      </trkpt>
      <trkpt lat="48.2236" lon="6.81982">
        <ele>621.37</ele>
        <time>2023-09-21T07:30:47Z</time>
      </trkpt>
      <trkpt lat="48.2236" lon="6.81983">
        <ele>621.54</ele>
        <time>2023-09-21T07:30:48Z</time>
      </trkpt>
      <trkpt lat="48.22361" lon="6.81984">
        <ele>621.66</ele>
        <time>2023-09-21T07:30:49Z</time>
      </trkpt>
      <trkpt lat="48.22362" lon="6.81986">
        <ele>621.9</ele>
        <time>2023-09-21T07:30:50Z</time>
      </trkpt>
      <trkpt lat="48.22363" lon="6.81987">
        <ele>620.95</ele>
        <time>2023-09-21T07:30:51Z</time>
      </trkpt>
      <trkpt lat="48.22363" lon="6.81989">
        <ele>621.4</ele>
        <time>2023-09-21T07:30:52Z</time>
      </trkpt>
      <trkpt lat="48.22364" lon="6.81991">
        <ele>621.69</ele>
        <time>2023-09-21T07:30:53Z</time>
      </trkpt>
      <trkpt lat="48.22364" lon="6.81993">
        <ele>621.77</ele>
        <time>2023-09-21T07:30:54Z</time>
      </trkpt>
      <trkpt lat="48.22366" lon="6.81998">
        <ele>621.49</ele>
        <time>2023-09-21T07:30:57Z</time>
      </trkpt>
      <trkpt lat="48.22383" lon="6.82028">
        <ele>620.83</ele>
        <time>2023-09-21T07:31:17Z</time>
      </trkpt>
      <trkpt lat="48.22386" lon="6.82032">
        <ele>620.48</ele>
        <time>2023-09-21T07:31:21Z</time>
      </trkpt>
      <trkpt lat="48.22387" lon="6.82034">
        <ele>620.15</ele>
        <time>2023-09-21T07:31:22Z</time>
      </trkpt>
      <trkpt lat="48.22387" lon="6.82035">
        <ele>620.07</ele>
        <time>2023-09-21T07:31:23Z</time>
      </trkpt>
      <trkpt lat="48.22388" lon="6.82036">
        <ele>619.73</ele>
        <time>2023-09-21T07:31:24Z</time>
      </trkpt>
      <trkpt lat="48.22389" lon="6.82038">
        <ele>620.24</ele>
        <time>2023-09-21T07:31:25Z</time>
      </trkpt>
      <trkpt lat="48.22395" lon="6.82048">
        <ele>619.28</ele>
        <time>2023-09-21T07:31:38Z</time>
      </trkpt>
      <trkpt lat="48.22396" lon="6.82049">
        <ele>618.85</ele>
        <time>2023-09-21T07:31:39Z</time>
      </trkpt>
      <trkpt lat="48.22398" lon="6.82053">
        <ele>618.01</ele>
        <time>2023-09-21T07:31:42Z</time>
      </trkpt>
      <trkpt lat="48.22399" lon="6.82055">
        <ele>618.38</ele>
        <time>2023-09-21T07:31:43Z</time>
      </trkpt>
      <trkpt lat="48.224" lon="6.82056">
        <ele>617.58</ele>
        <time>2023-09-21T07:31:44Z</time>
      </trkpt>
      <trkpt lat="48.22401" lon="6.82057">
        <ele>617.5</ele>
        <time>2023-09-21T07:31:45Z</time>
      </trkpt>
      <trkpt lat="48.22402" lon="6.82058">
        <ele>617.67</ele>
        <time>2023-09-21T07:31:46Z</time>
      </trkpt>
      <trkpt lat="48.2242" lon="6.8208">
        <ele>616.95</ele>
        <time>2023-09-21T07:32:02Z</time>
      </trkpt>
      <trkpt lat="48.22434" lon="6.82102">
        <ele>616.16</ele>
        <time>2023-09-21T07:32:17Z</time>
      </trkpt>
      <trkpt lat="48.2245" lon="6.8212">
        <ele>617.2</ele>
        <time>2023-09-21T07:32:31Z</time>
      </trkpt>
      <trkpt lat="48.22469" lon="6.82136">
        <ele>617.28</ele>
        <time>2023-09-21T07:32:47Z</time>
      </trkpt>
      <trkpt lat="48.22472" lon="6.8214">
        <ele>617.08</ele>
        <time>2023-09-21T07:32:50Z</time>
      </trkpt>
      <trkpt lat="48.22473" lon="6.82141">
        <ele>617.21</ele>
        <time>2023-09-21T07:32:51Z</time>
      </trkpt>
      <trkpt lat="48.22489" lon="6.82156">
        <ele>617.05</ele>
        <time>2023-09-21T07:33:05Z</time>
      </trkpt>
      <trkpt lat="48.22503" lon="6.82175">
        <ele>618.07</ele>
        <time>2023-09-21T07:33:20Z</time>
      </trkpt>
      <trkpt lat="48.22507" lon="6.82178">
        <ele>617.67</ele>
        <time>2023-09-21T07:33:28Z</time>
      </trkpt>
      <trkpt lat="48.22509" lon="6.82183">
        <ele>618.09</ele>
        <time>2023-09-21T07:33:31Z</time>
      </trkpt>
      <trkpt lat="48.2251" lon="6.82185">
        <ele>617.85</ele>
        <time>2023-09-21T07:33:32Z</time>
      </trkpt>
      <trkpt lat="48.22512" lon="6.8219">
        <ele>618.15</ele>
        <time>2023-09-21T07:33:42Z</time>
      </trkpt>
      <trkpt lat="48.22514" lon="6.82193">
        <ele>618.11</ele>
        <time>2023-09-21T07:33:44Z</time>
      </trkpt>
      <trkpt lat="48.22514" lon="6.82195">
        <ele>617.83</ele>
        <time>2023-09-21T07:33:45Z</time>
      </trkpt>
      <trkpt lat="48.22515" lon="6.82196">
        <ele>617.94</ele>
        <time>2023-09-21T07:33:46Z</time>
      </trkpt>
      <trkpt lat="48.22516" lon="6.82198">
        <ele>618.11</ele>
        <time>2023-09-21T07:33:47Z</time>
      </trkpt>
      <trkpt lat="48.22516" lon="6.822">
        <ele>618.17</ele>
        <time>2023-09-21T07:33:48Z</time>
      </trkpt>
      <trkpt lat="48.22518" lon="6.82204">
        <ele>618.41</ele>
        <time>2023-09-21T07:33:50Z</time>
      </trkpt>
      <trkpt lat="48.22519" lon="6.82205">
        <ele>618.19</ele>
        <time>2023-09-21T07:33:51Z</time>
      </trkpt>
      <trkpt lat="48.2252" lon="6.82207">
        <ele>618.24</ele>
        <time>2023-09-21T07:33:52Z</time>
      </trkpt>
      <trkpt lat="48.22525" lon="6.82222">
        <ele>617.93</ele>
        <time>2023-09-21T07:34:00Z</time>
      </trkpt>
      <trkpt lat="48.22526" lon="6.82224">
        <ele>618.34</ele>
        <time>2023-09-21T07:34:01Z</time>
      </trkpt>
      <trkpt lat="48.22531" lon="6.82241">
        <ele>618.49</ele>
        <time>2023-09-21T07:34:10Z</time>
      </trkpt>
      <trkpt lat="48.22532" lon="6.82242">
        <ele>618.19</ele>
        <time>2023-09-21T07:34:11Z</time>
      </trkpt>
      <trkpt lat="48.22533" lon="6.82244">
        <ele>618.1</ele>
        <time>2023-09-21T07:34:12Z</time>
      </trkpt>
      <trkpt lat="48.22534" lon="6.82245">
        <ele>618.56</ele>
        <time>2023-09-21T07:34:13Z</time>
      </trkpt>
      <trkpt lat="48.22535" lon="6.82247">
        <ele>617.79</ele>
        <time>2023-09-21T07:34:14Z</time>
      </trkpt>
      <trkpt lat="48.22536" lon="6.82249">
        <ele>618.36</ele>
        <time>2023-09-21T07:34:15Z</time>
      </trkpt>
      <trkpt lat="48.22537" lon="6.8225">
        <ele>618.6</ele>
        <time>2023-09-21T07:34:16Z</time>
      </trkpt>
      <trkpt lat="48.22538" lon="6.82252">
        <ele>618.03</ele>
        <time>2023-09-21T07:34:17Z</time>
      </trkpt>
      <trkpt lat="48.22538" lon="6.82254">
        <ele>618.49</ele>
        <time>2023-09-21T07:34:18Z</time>
      </trkpt>
      <trkpt lat="48.22544" lon="6.82271">
        <ele>618.38</ele>
        <time>2023-09-21T07:34:27Z</time>
      </trkpt>
      <trkpt lat="48.22545" lon="6.82273">
        <ele>618.52</ele>
        <time>2023-09-21T07:34:28Z</time>
      </trkpt>
      <trkpt lat="48.22546" lon="6.82274">
        <ele>618.04</ele>
        <time>2023-09-21T07:34:29Z</time>
      </trkpt>
      <trkpt lat="48.22546" lon="6.82277">
        <ele>618.63</ele>
        <time>2023-09-21T07:34:30Z</time>
      </trkpt>
      <trkpt lat="48.22547" lon="6.82278">
        <ele>618.69</ele>
        <time>2023-09-21T07:34:31Z</time>
      </trkpt>
      <trkpt lat="48.22548" lon="6.8228">
        <ele>618.31</ele>
        <time>2023-09-21T07:34:32Z</time>
      </trkpt>
      <trkpt lat="48.22548" lon="6.82282">
        <ele>618.38</ele>
        <time>2023-09-21T07:34:33Z</time>
      </trkpt>
      <trkpt lat="48.22549" lon="6.82299">
        <ele>618.75</ele>
        <time>2023-09-21T07:34:41Z</time>
      </trkpt>
      <trkpt lat="48.2255" lon="6.82301">
        <ele>618.78</ele>
        <time>2023-09-21T07:34:42Z</time>
      </trkpt>
      <trkpt lat="48.2255" lon="6.82302">
        <ele>618.55</ele>
        <time>2023-09-21T07:34:43Z</time>
      </trkpt>
      <trkpt lat="48.22551" lon="6.82304">
        <ele>618.33</ele>
        <time>2023-09-21T07:34:44Z</time>
      </trkpt>
      <trkpt lat="48.22551" lon="6.82305">
        <ele>618.51</ele>
        <time>2023-09-21T07:34:45Z</time>
      </trkpt>
      <trkpt lat="48.22551" lon="6.82307">
        <ele>618.8</ele>
        <time>2023-09-21T07:34:46Z</time>
      </trkpt>
      <trkpt lat="48.22552" lon="6.82309">
        <ele>619.1</ele>
        <time>2023-09-21T07:34:47Z</time>
      </trkpt>
      <trkpt lat="48.22552" lon="6.82311">
        <ele>618.84</ele>
        <time>2023-09-21T07:34:48Z</time>
      </trkpt>
      <trkpt lat="48.22552" lon="6.82313">
        <ele>618.88</ele>
        <time>2023-09-21T07:34:49Z</time>
      </trkpt>
      <trkpt lat="48.22552" lon="6.82315">
        <ele>618.84</ele>
        <time>2023-09-21T07:34:50Z</time>
      </trkpt>
      <trkpt lat="48.22553" lon="6.82317">
        <ele>618.99</ele>
        <time>2023-09-21T07:34:51Z</time>
      </trkpt>
      <trkpt lat="48.22553" lon="6.82319">
        <ele>618.93</ele>
        <time>2023-09-21T07:34:52Z</time>
      </trkpt>
      <trkpt lat="48.22554" lon="6.82352">
        <ele>618.45</ele>
        <time>2023-09-21T07:35:09Z</time>
      </trkpt>
      <trkpt lat="48.22549" lon="6.82377">
        <ele>617.21</ele>
        <time>2023-09-21T07:35:21Z</time>
      </trkpt>
      <trkpt lat="48.22548" lon="6.82378">
        <ele>617.13</ele>
        <time>2023-09-21T07:35:22Z</time>
      </trkpt>
      <trkpt lat="48.22548" lon="6.8238">
        <ele>617</ele>
        <time>2023-09-21T07:35:23Z</time>
      </trkpt>
      <trkpt lat="48.22547" lon="6.82382">
        <ele>617.09</ele>
        <time>2023-09-21T07:35:24Z</time>
      </trkpt>
      <trkpt lat="48.22547" lon="6.82384">
        <ele>617.27</ele>
        <time>2023-09-21T07:35:25Z</time>
      </trkpt>
      <trkpt lat="48.22547" lon="6.82386">
        <ele>617.61</ele>
        <time>2023-09-21T07:35:26Z</time>
      </trkpt>
      <trkpt lat="48.22541" lon="6.8241">
        <ele>616.5</ele>
        <time>2023-09-21T07:35:40Z</time>
      </trkpt>
      <trkpt lat="48.22539" lon="6.82425">
        <ele>616.44</ele>
        <time>2023-09-21T07:35:49Z</time>
      </trkpt>
      <trkpt lat="48.22539" lon="6.82427">
        <ele>616.62</ele>
        <time>2023-09-21T07:35:50Z</time>
      </trkpt>
      <trkpt lat="48.22538" lon="6.82428">
        <ele>616.83</ele>
        <time>2023-09-21T07:35:51Z</time>
      </trkpt>
      <trkpt lat="48.22538" lon="6.82429">
        <ele>616.9</ele>
        <time>2023-09-21T07:35:52Z</time>
      </trkpt>
      <trkpt lat="48.22538" lon="6.82431">
        <ele>616.87</ele>
        <time>2023-09-21T07:35:53Z</time>
      </trkpt>
      <trkpt lat="48.22538" lon="6.82433">
        <ele>616.6</ele>
        <time>2023-09-21T07:35:54Z</time>
      </trkpt>
      <trkpt lat="48.22538" lon="6.82434">
        <ele>616.93</ele>
        <time>2023-09-21T07:35:55Z</time>
      </trkpt>
      <trkpt lat="48.22538" lon="6.82436">
        <ele>617.02</ele>
        <time>2023-09-21T07:35:56Z</time>
      </trkpt>
      <trkpt lat="48.22537" lon="6.82452">
        <ele>616.63</ele>
        <time>2023-09-21T07:36:06Z</time>
      </trkpt>
      <trkpt lat="48.22534" lon="6.82476">
        <ele>617.2</ele>
        <time>2023-09-21T07:36:19Z</time>
      </trkpt>
      <trkpt lat="48.22531" lon="6.82498">
        <ele>617.19</ele>
        <time>2023-09-21T07:36:32Z</time>
      </trkpt>
      <trkpt lat="48.22528" lon="6.82517">
        <ele>617.66</ele>
        <time>2023-09-21T07:36:45Z</time>
      </trkpt>
      <trkpt lat="48.22524" lon="6.82543">
        <ele>618.19</ele>
        <time>2023-09-21T07:37:03Z</time>
      </trkpt>
      <trkpt lat="48.22522" lon="6.82558">
        <ele>618.58</ele>
        <time>2023-09-21T07:37:12Z</time>
      </trkpt>
      <trkpt lat="48.2252" lon="6.82579">
        <ele>618.57</ele>
        <time>2023-09-21T07:37:21Z</time>
      </trkpt>
      <trkpt lat="48.2252" lon="6.82581">
        <ele>618.57</ele>
        <time>2023-09-21T07:37:22Z</time>
      </trkpt>
      <trkpt lat="48.2252" lon="6.82583">
        <ele>618.48</ele>
        <time>2023-09-21T07:37:23Z</time>
      </trkpt>
      <trkpt lat="48.2252" lon="6.82585">
        <ele>618.75</ele>
        <time>2023-09-21T07:37:24Z</time>
      </trkpt>
      <trkpt lat="48.2252" lon="6.82587">
        <ele>618.59</ele>
        <time>2023-09-21T07:37:25Z</time>
      </trkpt>
      <trkpt lat="48.22519" lon="6.8259">
        <ele>618.7</ele>
        <time>2023-09-21T07:37:26Z</time>
      </trkpt>
      <trkpt lat="48.22518" lon="6.82593">
        <ele>618.58</ele>
        <time>2023-09-21T07:37:27Z</time>
      </trkpt>
      <trkpt lat="48.2251" lon="6.82627">
        <ele>618.53</ele>
        <time>2023-09-21T07:37:40Z</time>
      </trkpt>
      <trkpt lat="48.22499" lon="6.82683">
        <ele>617.73</ele>
        <time>2023-09-21T07:38:01Z</time>
      </trkpt>
      <trkpt lat="48.22492" lon="6.82729">
        <ele>616.42</ele>
        <time>2023-09-21T07:38:21Z</time>
      </trkpt>
      <trkpt lat="48.22487" lon="6.82771">
        <ele>616.89</ele>
        <time>2023-09-21T07:38:41Z</time>
      </trkpt>
      <trkpt lat="48.22483" lon="6.82804">
        <ele>617.71</ele>
        <time>2023-09-21T07:38:57Z</time>
      </trkpt>
      <trkpt lat="48.22475" lon="6.82834">
        <ele>618.72</ele>
        <time>2023-09-21T07:39:13Z</time>
      </trkpt>
      <trkpt lat="48.22468" lon="6.82857">
        <ele>620.05</ele>
        <time>2023-09-21T07:39:27Z</time>
      </trkpt>
      <trkpt lat="48.22463" lon="6.82879">
        <ele>621.64</ele>
        <time>2023-09-21T07:39:42Z</time>
      </trkpt>
      <trkpt lat="48.22454" lon="6.82906">
        <ele>623.5</ele>
        <time>2023-09-21T07:40:02Z</time>
      </trkpt>
      <trkpt lat="48.22454" lon="6.82908">
        <ele>624.07</ele>
        <time>2023-09-21T07:40:03Z</time>
      </trkpt>
      <trkpt lat="48.22454" lon="6.8291">
        <ele>624.23</ele>
        <time>2023-09-21T07:40:04Z</time>
      </trkpt>
      <trkpt lat="48.22453" lon="6.82912">
        <ele>624.13</ele>
        <time>2023-09-21T07:40:05Z</time>
      </trkpt>
      <trkpt lat="48.22452" lon="6.82934">
        <ele>625.9</ele>
        <time>2023-09-21T07:40:16Z</time>
      </trkpt>
      <trkpt lat="48.22451" lon="6.82944">
        <ele>626.67</ele>
        <time>2023-09-21T07:40:21Z</time>
      </trkpt>
      <trkpt lat="48.22453" lon="6.82967">
        <ele>627.47</ele>
        <time>2023-09-21T07:40:36Z</time>
      </trkpt>
      <trkpt lat="48.22452" lon="6.82974">
        <ele>628.32</ele>
        <time>2023-09-21T07:40:41Z</time>
      </trkpt>
      <trkpt lat="48.22451" lon="6.82976">
        <ele>628.27</ele>
        <time>2023-09-21T07:40:42Z</time>
      </trkpt>
      <trkpt lat="48.22445" lon="6.83006">
        <ele>630.01</ele>
        <time>2023-09-21T07:41:00Z</time>
      </trkpt>
      <trkpt lat="48.22438" lon="6.83045">
        <ele>629.75</ele>
        <time>2023-09-21T07:41:21Z</time>
      </trkpt>
      <trkpt lat="48.22437" lon="6.83066">
        <ele>630.59</ele>
        <time>2023-09-21T07:41:30Z</time>
      </trkpt>
      <trkpt lat="48.22437" lon="6.83068">
        <ele>630.77</ele>
        <time>2023-09-21T07:41:31Z</time>
      </trkpt>
      <trkpt lat="48.22437" lon="6.83069">
        <ele>630.7</ele>
        <time>2023-09-21T07:41:32Z</time>
      </trkpt>
      <trkpt lat="48.2244" lon="6.83108">
        <ele>631.63</ele>
        <time>2023-09-21T07:41:49Z</time>
      </trkpt>
      <trkpt lat="48.22447" lon="6.8314">
        <ele>632.82</ele>
        <time>2023-09-21T07:42:05Z</time>
      </trkpt>
      <trkpt lat="48.22462" lon="6.83173">
        <ele>633.19</ele>
        <time>2023-09-21T07:42:24Z</time>
      </trkpt>
      <trkpt lat="48.22476" lon="6.83193">
        <ele>632.85</ele>
        <time>2023-09-21T07:42:39Z</time>
      </trkpt>
      <trkpt lat="48.22482" lon="6.83215">
        <ele>632.91</ele>
        <time>2023-09-21T07:42:51Z</time>
      </trkpt>
      <trkpt lat="48.22482" lon="6.83216">
        <ele>632.56</ele>
        <time>2023-09-21T07:42:52Z</time>
      </trkpt>
      <trkpt lat="48.22483" lon="6.83218">
        <ele>632.81</ele>
        <time>2023-09-21T07:42:53Z</time>
      </trkpt>
      <trkpt lat="48.22484" lon="6.83219">
        <ele>632.58</ele>
        <time>2023-09-21T07:42:54Z</time>
      </trkpt>
      <trkpt lat="48.22484" lon="6.83221">
        <ele>632.78</ele>
        <time>2023-09-21T07:42:55Z</time>
      </trkpt>
      <trkpt lat="48.22484" lon="6.83223">
        <ele>632.81</ele>
        <time>2023-09-21T07:42:56Z</time>
      </trkpt>
      <trkpt lat="48.22484" lon="6.83225">
        <ele>633.18</ele>
        <time>2023-09-21T07:42:57Z</time>
      </trkpt>
      <trkpt lat="48.22485" lon="6.83227">
        <ele>632.91</ele>
        <time>2023-09-21T07:42:58Z</time>
      </trkpt>
      <trkpt lat="48.22485" lon="6.83229">
        <ele>633.09</ele>
        <time>2023-09-21T07:42:59Z</time>
      </trkpt>
      <trkpt lat="48.22485" lon="6.83231">
        <ele>632.76</ele>
        <time>2023-09-21T07:43:00Z</time>
      </trkpt>
      <trkpt lat="48.22485" lon="6.83233">
        <ele>632.95</ele>
        <time>2023-09-21T07:43:01Z</time>
      </trkpt>
      <trkpt lat="48.22485" lon="6.83241">
        <ele>632.73</ele>
        <time>2023-09-21T07:43:05Z</time>
      </trkpt>
      <trkpt lat="48.22484" lon="6.83243">
        <ele>632.89</ele>
        <time>2023-09-21T07:43:06Z</time>
      </trkpt>
      <trkpt lat="48.22477" lon="6.83271">
        <ele>632.28</ele>
        <time>2023-09-21T07:43:22Z</time>
      </trkpt>
      <trkpt lat="48.22476" lon="6.83281">
        <ele>631.23</ele>
        <time>2023-09-21T07:43:29Z</time>
      </trkpt>
      <trkpt lat="48.22476" lon="6.83291">
        <ele>629.03</ele>
        <time>2023-09-21T07:43:35Z</time>
      </trkpt>
      <trkpt lat="48.22478" lon="6.83318">
        <ele>628.02</ele>
        <time>2023-09-21T07:43:50Z</time>
      </trkpt>
      <trkpt lat="48.22479" lon="6.83323">
        <ele>627.67</ele>
        <time>2023-09-21T07:43:53Z</time>
      </trkpt>
      <trkpt lat="48.2248" lon="6.83327">
        <ele>626.95</ele>
        <time>2023-09-21T07:43:55Z</time>
      </trkpt>
      <trkpt lat="48.2248" lon="6.83328">
        <ele>626.64</ele>
        <time>2023-09-21T07:43:56Z</time>
      </trkpt>
      <trkpt lat="48.2248" lon="6.8333">
        <ele>627.44</ele>
        <time>2023-09-21T07:43:57Z</time>
      </trkpt>
      <trkpt lat="48.22481" lon="6.83337">
        <ele>626.74</ele>
        <time>2023-09-21T07:44:01Z</time>
      </trkpt>
      <trkpt lat="48.2248" lon="6.83344">
        <ele>626.56</ele>
        <time>2023-09-21T07:44:05Z</time>
      </trkpt>
      <trkpt lat="48.22481" lon="6.83376">
        <ele>625.44</ele>
        <time>2023-09-21T07:44:21Z</time>
      </trkpt>
      <trkpt lat="48.22481" lon="6.83381">
        <ele>625.19</ele>
        <time>2023-09-21T07:44:23Z</time>
      </trkpt>
      <trkpt lat="48.2248" lon="6.83382">
        <ele>625.23</ele>
        <time>2023-09-21T07:44:24Z</time>
      </trkpt>
      <trkpt lat="48.2248" lon="6.83385">
        <ele>624.9</ele>
        <time>2023-09-21T07:44:25Z</time>
      </trkpt>
      <trkpt lat="48.2248" lon="6.83387">
        <ele>625.15</ele>
        <time>2023-09-21T07:44:26Z</time>
      </trkpt>
      <trkpt lat="48.2248" lon="6.83389">
        <ele>625.21</ele>
        <time>2023-09-21T07:44:27Z</time>
      </trkpt>
      <trkpt lat="48.2248" lon="6.83391">
        <ele>624.71</ele>
        <time>2023-09-21T07:44:28Z</time>
      </trkpt>
      <trkpt lat="48.22479" lon="6.83393">
        <ele>625.05</ele>
        <time>2023-09-21T07:44:29Z</time>
      </trkpt>
      <trkpt lat="48.22479" lon="6.83396">
        <ele>625.14</ele>
        <time>2023-09-21T07:44:30Z</time>
      </trkpt>
      <trkpt lat="48.22478" lon="6.83415">
        <ele>625.32</ele>
        <time>2023-09-21T07:44:40Z</time>
      </trkpt>
      <trkpt lat="48.22478" lon="6.83417">
        <ele>625.24</ele>
        <time>2023-09-21T07:44:41Z</time>
      </trkpt>
      <trkpt lat="48.22477" lon="6.83419">
        <ele>624.81</ele>
        <time>2023-09-21T07:44:42Z</time>
      </trkpt>
      <trkpt lat="48.22477" lon="6.83421">
        <ele>624.84</ele>
        <time>2023-09-21T07:44:43Z</time>
      </trkpt>
      <trkpt lat="48.22477" lon="6.83423">
        <ele>624.9</ele>
        <time>2023-09-21T07:44:44Z</time>
      </trkpt>
      <trkpt lat="48.22477" lon="6.83425">
        <ele>625.04</ele>
        <time>2023-09-21T07:44:45Z</time>
      </trkpt>
      <trkpt lat="48.22476" lon="6.83426">
        <ele>624.85</ele>
        <time>2023-09-21T07:44:46Z</time>
      </trkpt>
      <trkpt lat="48.22477" lon="6.83428">
        <ele>625.29</ele>
        <time>2023-09-21T07:44:47Z</time>
      </trkpt>
      <trkpt lat="48.2247" lon="6.83462">
        <ele>625.76</ele>
        <time>2023-09-21T07:45:05Z</time>
      </trkpt>
      <trkpt lat="48.22464" lon="6.83483">
        <ele>625.45</ele>
        <time>2023-09-21T07:45:18Z</time>
      </trkpt>
      <trkpt lat="48.22463" lon="6.83488">
        <ele>625.33</ele>
        <time>2023-09-21T07:45:20Z</time>
      </trkpt>
      <trkpt lat="48.22463" lon="6.83501">
        <ele>625.21</ele>
        <time>2023-09-21T07:45:28Z</time>
      </trkpt>
      <trkpt lat="48.22463" lon="6.83503">
        <ele>625.14</ele>
        <time>2023-09-21T07:45:29Z</time>
      </trkpt>
      <trkpt lat="48.2246" lon="6.83518">
        <ele>625.28</ele>
        <time>2023-09-21T07:45:36Z</time>
      </trkpt>
      <trkpt lat="48.2246" lon="6.83521">
        <ele>625.44</ele>
        <time>2023-09-21T07:45:37Z</time>
      </trkpt>
      <trkpt lat="48.22451" lon="6.83542">
        <ele>625.23</ele>
        <time>2023-09-21T07:45:50Z</time>
      </trkpt>
      <trkpt lat="48.22449" lon="6.83546">
        <ele>625.82</ele>
        <time>2023-09-21T07:45:53Z</time>
      </trkpt>
      <trkpt lat="48.22439" lon="6.83564">
        <ele>625.02</ele>
        <time>2023-09-21T07:46:07Z</time>
      </trkpt>
      <trkpt lat="48.22438" lon="6.83566">
        <ele>624.75</ele>
        <time>2023-09-21T07:46:08Z</time>
      </trkpt>
      <trkpt lat="48.22431" lon="6.83574">
        <ele>624.09</ele>
        <time>2023-09-21T07:46:16Z</time>
      </trkpt>
      <trkpt lat="48.2243" lon="6.8358">
        <ele>623.91</ele>
        <time>2023-09-21T07:46:18Z</time>
      </trkpt>
      <trkpt lat="48.22429" lon="6.83583">
        <ele>624.01</ele>
        <time>2023-09-21T07:46:19Z</time>
      </trkpt>
      <trkpt lat="48.22428" lon="6.83586">
        <ele>623.98</ele>
        <time>2023-09-21T07:46:20Z</time>
      </trkpt>
      <trkpt lat="48.22427" lon="6.83588">
        <ele>623.8</ele>
        <time>2023-09-21T07:46:21Z</time>
      </trkpt>
      <trkpt lat="48.22426" lon="6.8359">
        <ele>623.99</ele>
        <time>2023-09-21T07:46:22Z</time>
      </trkpt>
      <trkpt lat="48.22422" lon="6.83599">
        <ele>623.77</ele>
        <time>2023-09-21T07:46:27Z</time>
      </trkpt>
      <trkpt lat="48.22421" lon="6.836">
        <ele>623.94</ele>
        <time>2023-09-21T07:46:28Z</time>
      </trkpt>
      <trkpt lat="48.22421" lon="6.83602">
        <ele>623.19</ele>
        <time>2023-09-21T07:46:29Z</time>
      </trkpt>
      <trkpt lat="48.2242" lon="6.83604">
        <ele>623.36</ele>
        <time>2023-09-21T07:46:30Z</time>
      </trkpt>
      <trkpt lat="48.22419" lon="6.83607">
        <ele>623.79</ele>
        <time>2023-09-21T07:46:31Z</time>
      </trkpt>
      <trkpt lat="48.22418" lon="6.8361">
        <ele>623.71</ele>
        <time>2023-09-21T07:46:32Z</time>
      </trkpt>
      <trkpt lat="48.2241" lon="6.83627">
        <ele>622.96</ele>
        <time>2023-09-21T07:46:41Z</time>
      </trkpt>
      <trkpt lat="48.22409" lon="6.83628">
        <ele>622.84</ele>
        <time>2023-09-21T07:46:42Z</time>
      </trkpt>
      <trkpt lat="48.22408" lon="6.8363">
        <ele>622.66</ele>
        <time>2023-09-21T07:46:43Z</time>
      </trkpt>
      <trkpt lat="48.22407" lon="6.83631">
        <ele>622.79</ele>
        <time>2023-09-21T07:46:44Z</time>
      </trkpt>
      <trkpt lat="48.22406" lon="6.83632">
        <ele>622.3</ele>
        <time>2023-09-21T07:46:45Z</time>
      </trkpt>
      <trkpt lat="48.22398" lon="6.83647">
        <ele>620.69</ele>
        <time>2023-09-21T07:46:55Z</time>
      </trkpt>
      <trkpt lat="48.22397" lon="6.83649">
        <ele>620.75</ele>
        <time>2023-09-21T07:46:56Z</time>
      </trkpt>
      <trkpt lat="48.22377" lon="6.83667">
        <ele>620.62</ele>
        <time>2023-09-21T07:47:13Z</time>
      </trkpt>
      <trkpt lat="48.22372" lon="6.83672">
        <ele>620.85</ele>
        <time>2023-09-21T07:47:34Z</time>
      </trkpt>
      <trkpt lat="48.22367" lon="6.83672">
        <ele>620.41</ele>
        <time>2023-09-21T07:47:56Z</time>
      </trkpt>
      <trkpt lat="48.22365" lon="6.83671">
        <ele>620.4</ele>
        <time>2023-09-21T07:47:57Z</time>
      </trkpt>
      <trkpt lat="48.22364" lon="6.83672">
        <ele>620</ele>
        <time>2023-09-21T07:47:58Z</time>
      </trkpt>
      <trkpt lat="48.22356" lon="6.8367">
        <ele>620.31</ele>
        <time>2023-09-21T07:48:10Z</time>
      </trkpt>
      <trkpt lat="48.22355" lon="6.8367">
        <ele>620.42</ele>
        <time>2023-09-21T07:48:11Z</time>
      </trkpt>
      <trkpt lat="48.22351" lon="6.83669">
        <ele>620.47</ele>
        <time>2023-09-21T07:48:14Z</time>
      </trkpt>
      <trkpt lat="48.22346" lon="6.83668">
        <ele>620.61</ele>
        <time>2023-09-21T07:48:27Z</time>
      </trkpt>
      <trkpt lat="48.22342" lon="6.83666">
        <ele>620.67</ele>
        <time>2023-09-21T07:48:31Z</time>
      </trkpt>
      <trkpt lat="48.22341" lon="6.83665">
        <ele>620.77</ele>
        <time>2023-09-21T07:48:32Z</time>
      </trkpt>
      <trkpt lat="48.2234" lon="6.83665">
        <ele>620.35</ele>
        <time>2023-09-21T07:48:33Z</time>
      </trkpt>
      <trkpt lat="48.22334" lon="6.83662">
        <ele>621.37</ele>
        <time>2023-09-21T07:48:38Z</time>
      </trkpt>
      <trkpt lat="48.22333" lon="6.83662">
        <ele>621.37</ele>
        <time>2023-09-21T07:48:39Z</time>
      </trkpt>
      <trkpt lat="48.22314" lon="6.8366">
        <ele>621.95</ele>
        <time>2023-09-21T07:48:54Z</time>
      </trkpt>
      <trkpt lat="48.22295" lon="6.83665">
        <ele>624</ele>
        <time>2023-09-21T07:49:11Z</time>
      </trkpt>
      <trkpt lat="48.22279" lon="6.83674">
        <ele>624.97</ele>
        <time>2023-09-21T07:49:25Z</time>
      </trkpt>
      <trkpt lat="48.22262" lon="6.83685">
        <ele>625.67</ele>
        <time>2023-09-21T07:49:40Z</time>
      </trkpt>
      <trkpt lat="48.22243" lon="6.83709">
        <ele>626.76</ele>
        <time>2023-09-21T07:49:57Z</time>
      </trkpt>
      <trkpt lat="48.22235" lon="6.83718">
        <ele>627.47</ele>
        <time>2023-09-21T07:50:05Z</time>
      </trkpt>
      <trkpt lat="48.22233" lon="6.83723">
        <ele>627.36</ele>
        <time>2023-09-21T07:50:08Z</time>
      </trkpt>
      <trkpt lat="48.22232" lon="6.83724">
        <ele>627.45</ele>
        <time>2023-09-21T07:50:09Z</time>
      </trkpt>
      <trkpt lat="48.22218" lon="6.83744">
        <ele>629.06</ele>
        <time>2023-09-21T07:50:25Z</time>
      </trkpt>
      <trkpt lat="48.22206" lon="6.83756">
        <ele>629.94</ele>
        <time>2023-09-21T07:50:36Z</time>
      </trkpt>
      <trkpt lat="48.22188" lon="6.8377">
        <ele>632.39</ele>
        <time>2023-09-21T07:50:52Z</time>
      </trkpt>
      <trkpt lat="48.22167" lon="6.83782">
        <ele>632.84</ele>
        <time>2023-09-21T07:51:11Z</time>
      </trkpt>
      <trkpt lat="48.22165" lon="6.83783">
        <ele>632.92</ele>
        <time>2023-09-21T07:51:12Z</time>
      </trkpt>
      <trkpt lat="48.22164" lon="6.83783">
        <ele>632.79</ele>
        <time>2023-09-21T07:51:13Z</time>
      </trkpt>
      <trkpt lat="48.22163" lon="6.83783">
        <ele>632.46</ele>
        <time>2023-09-21T07:51:14Z</time>
      </trkpt>
      <trkpt lat="48.22162" lon="6.83784">
        <ele>633.35</ele>
        <time>2023-09-21T07:51:15Z</time>
      </trkpt>
      <trkpt lat="48.2216" lon="6.83784">
        <ele>633.29</ele>
        <time>2023-09-21T07:51:16Z</time>
      </trkpt>
      <trkpt lat="48.22132" lon="6.83793">
        <ele>635.17</ele>
        <time>2023-09-21T07:51:39Z</time>
      </trkpt>
      <trkpt lat="48.22127" lon="6.83793">
        <ele>634.8</ele>
        <time>2023-09-21T07:51:43Z</time>
      </trkpt>
      <trkpt lat="48.22126" lon="6.83794">
        <ele>635.02</ele>
        <time>2023-09-21T07:51:44Z</time>
      </trkpt>
      <trkpt lat="48.22124" lon="6.83794">
        <ele>635.14</ele>
        <time>2023-09-21T07:51:45Z</time>
      </trkpt>
      <trkpt lat="48.22123" lon="6.83794">
        <ele>635.27</ele>
        <time>2023-09-21T07:51:46Z</time>
      </trkpt>
      <trkpt lat="48.22122" lon="6.83795">
        <ele>635.51</ele>
        <time>2023-09-21T07:51:47Z</time>
      </trkpt>
      <trkpt lat="48.22121" lon="6.83795">
        <ele>635.23</ele>
        <time>2023-09-21T07:51:48Z</time>
      </trkpt>
      <trkpt lat="48.2212" lon="6.83796">
        <ele>634.98</ele>
        <time>2023-09-21T07:51:49Z</time>
      </trkpt>
      <trkpt lat="48.22116" lon="6.83796">
        <ele>635.29</ele>
        <time>2023-09-21T07:51:52Z</time>
      </trkpt>
      <trkpt lat="48.22112" lon="6.83798">
        <ele>635.49</ele>
        <time>2023-09-21T07:51:56Z</time>
      </trkpt>
      <trkpt lat="48.22098" lon="6.83803">
        <ele>636.61</ele>
        <time>2023-09-21T07:52:08Z</time>
      </trkpt>
      <trkpt lat="48.22082" lon="6.83813">
        <ele>637.38</ele>
        <time>2023-09-21T07:52:22Z</time>
      </trkpt>
      <trkpt lat="48.22061" lon="6.83829">
        <ele>637.82</ele>
        <time>2023-09-21T07:52:40Z</time>
      </trkpt>
      <trkpt lat="48.22039" lon="6.83846">
        <ele>637.61</ele>
        <time>2023-09-21T07:53:00Z</time>
      </trkpt>
      <trkpt lat="48.22021" lon="6.83863">
        <ele>637.61</ele>
        <time>2023-09-21T07:53:17Z</time>
      </trkpt>
      <trkpt lat="48.22001" lon="6.8388">
        <ele>638.06</ele>
        <time>2023-09-21T07:53:35Z</time>
      </trkpt>
      <trkpt lat="48.21998" lon="6.83883">
        <ele>638.09</ele>
        <time>2023-09-21T07:53:38Z</time>
      </trkpt>
      <trkpt lat="48.21997" lon="6.83884">
        <ele>638.34</ele>
        <time>2023-09-21T07:53:39Z</time>
      </trkpt>
      <trkpt lat="48.21989" lon="6.8389">
        <ele>638.45</ele>
        <time>2023-09-21T07:53:46Z</time>
      </trkpt>
      <trkpt lat="48.21977" lon="6.83903">
        <ele>638.81</ele>
        <time>2023-09-21T07:53:59Z</time>
      </trkpt>
      <trkpt lat="48.21974" lon="6.83905">
        <ele>639.98</ele>
        <time>2023-09-21T07:54:01Z</time>
      </trkpt>
      <trkpt lat="48.21973" lon="6.83905">
        <ele>639.36</ele>
        <time>2023-09-21T07:54:02Z</time>
      </trkpt>
      <trkpt lat="48.21972" lon="6.83906">
        <ele>639.51</ele>
        <time>2023-09-21T07:54:03Z</time>
      </trkpt>
      <trkpt lat="48.21971" lon="6.83907">
        <ele>639.57</ele>
        <time>2023-09-21T07:54:04Z</time>
      </trkpt>
      <trkpt lat="48.2197" lon="6.83908">
        <ele>640.09</ele>
        <time>2023-09-21T07:54:05Z</time>
      </trkpt>
      <trkpt lat="48.2197" lon="6.83909">
        <ele>639.92</ele>
        <time>2023-09-21T07:54:06Z</time>
      </trkpt>
      <trkpt lat="48.21968" lon="6.8391">
        <ele>639.95</ele>
        <time>2023-09-21T07:54:07Z</time>
      </trkpt>
      <trkpt lat="48.21942" lon="6.83922">
        <ele>641.38</ele>
        <time>2023-09-21T07:54:28Z</time>
      </trkpt>
      <trkpt lat="48.21914" lon="6.83929">
        <ele>642.21</ele>
        <time>2023-09-21T07:54:51Z</time>
      </trkpt>
      <trkpt lat="48.219" lon="6.83933">
        <ele>643.35</ele>
        <time>2023-09-21T07:55:03Z</time>
      </trkpt>
      <trkpt lat="48.21899" lon="6.83934">
        <ele>643.48</ele>
        <time>2023-09-21T07:55:04Z</time>
      </trkpt>
      <trkpt lat="48.21898" lon="6.83935">
        <ele>643.38</ele>
        <time>2023-09-21T07:55:05Z</time>
      </trkpt>
      <trkpt lat="48.21896" lon="6.83935">
        <ele>643.54</ele>
        <time>2023-09-21T07:55:06Z</time>
      </trkpt>
      <trkpt lat="48.21895" lon="6.83936">
        <ele>643.73</ele>
        <time>2023-09-21T07:55:07Z</time>
      </trkpt>
      <trkpt lat="48.21874" lon="6.83944">
        <ele>644.99</ele>
        <time>2023-09-21T07:55:25Z</time>
      </trkpt>
      <trkpt lat="48.21866" lon="6.83947">
        <ele>645.66</ele>
        <time>2023-09-21T07:55:32Z</time>
      </trkpt>
      <trkpt lat="48.21865" lon="6.83947">
        <ele>645.86</ele>
        <time>2023-09-21T07:55:33Z</time>
      </trkpt>
      <trkpt lat="48.21864" lon="6.83947">
        <ele>645.49</ele>
        <time>2023-09-21T07:55:34Z</time>
      </trkpt>
      <trkpt lat="48.21862" lon="6.83948">
        <ele>645.8</ele>
        <time>2023-09-21T07:55:35Z</time>
      </trkpt>
      <trkpt lat="48.21861" lon="6.83949">
        <ele>646.28</ele>
        <time>2023-09-21T07:55:36Z</time>
      </trkpt>
      <trkpt lat="48.21841" lon="6.83954">
        <ele>646.88</ele>
        <time>2023-09-21T07:55:53Z</time>
      </trkpt>
      <trkpt lat="48.21817" lon="6.83959">
        <ele>649.24</ele>
        <time>2023-09-21T07:56:14Z</time>
      </trkpt>
      <trkpt lat="48.21797" lon="6.83963">
        <ele>650.88</ele>
        <time>2023-09-21T07:56:31Z</time>
      </trkpt>
      <trkpt lat="48.21782" lon="6.83971">
        <ele>652.79</ele>
        <time>2023-09-21T07:56:46Z</time>
      </trkpt>
      <trkpt lat="48.21779" lon="6.83973">
        <ele>653</ele>
        <time>2023-09-21T07:56:49Z</time>
      </trkpt>
      <trkpt lat="48.21776" lon="6.83975">
        <ele>653.03</ele>
        <time>2023-09-21T07:56:52Z</time>
      </trkpt>
      <trkpt lat="48.21762" lon="6.8399">
        <ele>654.19</ele>
        <time>2023-09-21T07:57:07Z</time>
      </trkpt>
      <trkpt lat="48.2175" lon="6.84004">
        <ele>653.87</ele>
        <time>2023-09-21T07:57:19Z</time>
      </trkpt>
      <trkpt lat="48.21738" lon="6.84019">
        <ele>655.09</ele>
        <time>2023-09-21T07:57:33Z</time>
      </trkpt>
      <trkpt lat="48.21725" lon="6.84039">
        <ele>657.05</ele>
        <time>2023-09-21T07:57:47Z</time>
      </trkpt>
      <trkpt lat="48.21716" lon="6.84059">
        <ele>657.48</ele>
        <time>2023-09-21T07:58:01Z</time>
      </trkpt>
      <trkpt lat="48.21716" lon="6.84061">
        <ele>657.12</ele>
        <time>2023-09-21T07:58:02Z</time>
      </trkpt>
      <trkpt lat="48.21713" lon="6.84066">
        <ele>657.24</ele>
        <time>2023-09-21T07:58:06Z</time>
      </trkpt>
      <trkpt lat="48.21705" lon="6.84091">
        <ele>656.74</ele>
        <time>2023-09-21T07:58:21Z</time>
      </trkpt>
      <trkpt lat="48.21703" lon="6.84113">
        <ele>654.95</ele>
        <time>2023-09-21T07:58:34Z</time>
      </trkpt>
      <trkpt lat="48.21701" lon="6.84132">
        <ele>654.86</ele>
        <time>2023-09-21T07:58:45Z</time>
      </trkpt>
      <trkpt lat="48.21701" lon="6.84156">
        <ele>653.3</ele>
        <time>2023-09-21T07:58:58Z</time>
      </trkpt>
      <trkpt lat="48.21698" lon="6.84179">
        <ele>652.23</ele>
        <time>2023-09-21T07:59:12Z</time>
      </trkpt>
      <trkpt lat="48.21697" lon="6.84181">
        <ele>651.98</ele>
        <time>2023-09-21T07:59:14Z</time>
      </trkpt>
      <trkpt lat="48.21696" lon="6.84183">
        <ele>652</ele>
        <time>2023-09-21T07:59:15Z</time>
      </trkpt>
      <trkpt lat="48.21696" lon="6.84185">
        <ele>651.72</ele>
        <time>2023-09-21T07:59:16Z</time>
      </trkpt>
      <trkpt lat="48.21692" lon="6.84212">
        <ele>651.82</ele>
        <time>2023-09-21T07:59:29Z</time>
      </trkpt>
      <trkpt lat="48.21687" lon="6.84245">
        <ele>650.88</ele>
        <time>2023-09-21T07:59:45Z</time>
      </trkpt>
      <trkpt lat="48.21687" lon="6.84249">
        <ele>651</ele>
        <time>2023-09-21T07:59:47Z</time>
      </trkpt>
      <trkpt lat="48.21686" lon="6.8425">
        <ele>650.95</ele>
        <time>2023-09-21T07:59:48Z</time>
      </trkpt>
      <trkpt lat="48.21685" lon="6.84252">
        <ele>651.21</ele>
        <time>2023-09-21T07:59:49Z</time>
      </trkpt>
      <trkpt lat="48.21684" lon="6.84254">
        <ele>651.11</ele>
        <time>2023-09-21T07:59:50Z</time>
      </trkpt>
      <trkpt lat="48.21684" lon="6.84256">
        <ele>650.84</ele>
        <time>2023-09-21T07:59:51Z</time>
      </trkpt>
      <trkpt lat="48.21683" lon="6.84262">
        <ele>651.12</ele>
        <time>2023-09-21T07:59:54Z</time>
      </trkpt>
      <trkpt lat="48.21683" lon="6.84265">
        <ele>650.9</ele>
        <time>2023-09-21T07:59:55Z</time>
      </trkpt>
      <trkpt lat="48.21682" lon="6.84266">
        <ele>650.86</ele>
        <time>2023-09-21T07:59:56Z</time>
      </trkpt>
      <trkpt lat="48.21674" lon="6.84297">
        <ele>651.84</ele>
        <time>2023-09-21T08:00:13Z</time>
      </trkpt>
      <trkpt lat="48.21673" lon="6.84305">
        <ele>651.88</ele>
        <time>2023-09-21T08:00:17Z</time>
      </trkpt>
      <trkpt lat="48.21673" lon="6.84308">
        <ele>652.38</ele>
        <time>2023-09-21T08:00:18Z</time>
      </trkpt>
      <trkpt lat="48.21673" lon="6.84309">
        <ele>652.35</ele>
        <time>2023-09-21T08:00:19Z</time>
      </trkpt>
      <trkpt lat="48.21674" lon="6.84337">
        <ele>654.81</ele>
        <time>2023-09-21T08:00:35Z</time>
      </trkpt>
      <trkpt lat="48.21677" lon="6.84351">
        <ele>655.98</ele>
        <time>2023-09-21T08:00:43Z</time>
      </trkpt>
      <trkpt lat="48.21683" lon="6.84362">
        <ele>656.69</ele>
        <time>2023-09-21T08:00:52Z</time>
      </trkpt>
      <trkpt lat="48.21687" lon="6.84369">
        <ele>656.55</ele>
        <time>2023-09-21T08:00:58Z</time>
      </trkpt>
      <trkpt lat="48.21688" lon="6.8437">
        <ele>656.63</ele>
        <time>2023-09-21T08:00:59Z</time>
      </trkpt>
      <trkpt lat="48.21689" lon="6.84372">
        <ele>657.09</ele>
        <time>2023-09-21T08:01:00Z</time>
      </trkpt>
      <trkpt lat="48.2169" lon="6.84373">
        <ele>657.06</ele>
        <time>2023-09-21T08:01:01Z</time>
      </trkpt>
      <trkpt lat="48.21691" lon="6.84375">
        <ele>657.4</ele>
        <time>2023-09-21T08:01:02Z</time>
      </trkpt>
      <trkpt lat="48.21692" lon="6.84376">
        <ele>657.29</ele>
        <time>2023-09-21T08:01:03Z</time>
      </trkpt>
      <trkpt lat="48.21693" lon="6.84377">
        <ele>657.29</ele>
        <time>2023-09-21T08:01:04Z</time>
      </trkpt>
      <trkpt lat="48.21693" lon="6.84379">
        <ele>657.6</ele>
        <time>2023-09-21T08:01:05Z</time>
      </trkpt>
      <trkpt lat="48.21694" lon="6.8438">
        <ele>657.81</ele>
        <time>2023-09-21T08:01:06Z</time>
      </trkpt>
      <trkpt lat="48.21695" lon="6.84381">
        <ele>657.71</ele>
        <time>2023-09-21T08:01:07Z</time>
      </trkpt>
      <trkpt lat="48.21696" lon="6.84383">
        <ele>657.48</ele>
        <time>2023-09-21T08:01:08Z</time>
      </trkpt>
      <trkpt lat="48.21697" lon="6.84384">
        <ele>657.7</ele>
        <time>2023-09-21T08:01:09Z</time>
      </trkpt>
      <trkpt lat="48.21698" lon="6.84386">
        <ele>657.77</ele>
        <time>2023-09-21T08:01:10Z</time>
      </trkpt>
      <trkpt lat="48.21698" lon="6.84388">
        <ele>657.62</ele>
        <time>2023-09-21T08:01:11Z</time>
      </trkpt>
      <trkpt lat="48.21698" lon="6.8439">
        <ele>657.81</ele>
        <time>2023-09-21T08:01:12Z</time>
      </trkpt>
      <trkpt lat="48.21699" lon="6.84391">
        <ele>657.81</ele>
        <time>2023-09-21T08:01:13Z</time>
      </trkpt>
      <trkpt lat="48.217" lon="6.84393">
        <ele>657.96</ele>
        <time>2023-09-21T08:01:14Z</time>
      </trkpt>
      <trkpt lat="48.217" lon="6.84394">
        <ele>658.19</ele>
        <time>2023-09-21T08:01:15Z</time>
      </trkpt>
      <trkpt lat="48.21701" lon="6.84396">
        <ele>658.06</ele>
        <time>2023-09-21T08:01:16Z</time>
      </trkpt>
      <trkpt lat="48.21702" lon="6.84397">
        <ele>657.63</ele>
        <time>2023-09-21T08:01:17Z</time>
      </trkpt>
      <trkpt lat="48.21707" lon="6.84424">
        <ele>657.58</ele>
        <time>2023-09-21T08:01:35Z</time>
      </trkpt>
      <trkpt lat="48.21708" lon="6.84424">
        <ele>657.93</ele>
        <time>2023-09-21T08:01:51Z</time>
      </trkpt>
      <trkpt lat="48.21711" lon="6.8442">
        <ele>656.58</ele>
        <time>2023-09-21T08:02:10Z</time>
      </trkpt>
      <trkpt lat="48.21713" lon="6.84413">
        <ele>657.15</ele>
        <time>2023-09-21T08:02:45Z</time>
      </trkpt>
      <trkpt lat="48.21713" lon="6.84413">
        <ele>657.17</ele>
        <time>2023-09-21T08:03:23Z</time>
      </trkpt>
      <trkpt lat="48.21714" lon="6.8441">
        <ele>656.82</ele>
        <time>2023-09-21T08:03:55Z</time>
      </trkpt>
      <trkpt lat="48.21721" lon="6.84413">
        <ele>656.95</ele>
        <time>2023-09-21T08:04:47Z</time>
      </trkpt>
      <trkpt lat="48.21726" lon="6.84418">
        <ele>657.04</ele>
        <time>2023-09-21T08:05:33Z</time>
      </trkpt>
      <trkpt lat="48.21725" lon="6.84419">
        <ele>656.77</ele>
        <time>2023-09-21T08:06:25Z</time>
      </trkpt>
      <trkpt lat="48.21722" lon="6.84421">
        <ele>657.81</ele>
        <time>2023-09-21T08:06:58Z</time>
      </trkpt>
      <trkpt lat="48.21721" lon="6.84418">
        <ele>657.05</ele>
        <time>2023-09-21T08:07:39Z</time>
      </trkpt>
      <trkpt lat="48.21723" lon="6.84414">
        <ele>657.29</ele>
        <time>2023-09-21T08:08:32Z</time>
      </trkpt>
      <trkpt lat="48.21723" lon="6.84411">
        <ele>658.26</ele>
        <time>2023-09-21T08:08:52Z</time>
      </trkpt>
      <trkpt lat="48.21719" lon="6.84412">
        <ele>658.85</ele>
        <time>2023-09-21T08:09:20Z</time>
      </trkpt>
      <trkpt lat="48.21713" lon="6.84427">
        <ele>658.5</ele>
        <time>2023-09-21T08:09:33Z</time>
      </trkpt>
      <trkpt lat="48.21712" lon="6.84432">
        <ele>658.5</ele>
        <time>2023-09-21T08:09:36Z</time>
      </trkpt>
      <trkpt lat="48.21711" lon="6.84434">
        <ele>658.26</ele>
        <time>2023-09-21T08:09:37Z</time>
      </trkpt>
      <trkpt lat="48.2171" lon="6.84435">
        <ele>658.28</ele>
        <time>2023-09-21T08:09:38Z</time>
      </trkpt>
      <trkpt lat="48.2171" lon="6.84437">
        <ele>657.82</ele>
        <time>2023-09-21T08:09:39Z</time>
      </trkpt>
      <trkpt lat="48.21709" lon="6.84439">
        <ele>657.77</ele>
        <time>2023-09-21T08:09:40Z</time>
      </trkpt>
      <trkpt lat="48.21709" lon="6.84439">
        <ele>657.11</ele>
        <time>2023-09-21T08:09:47Z</time>
      </trkpt>
      <trkpt lat="48.2171" lon="6.84434">
        <ele>657.99</ele>
        <time>2023-09-21T08:09:50Z</time>
      </trkpt>
      <trkpt lat="48.21711" lon="6.84433">
        <ele>658.25</ele>
        <time>2023-09-21T08:09:51Z</time>
      </trkpt>
      <trkpt lat="48.21711" lon="6.84431">
        <ele>658.13</ele>
        <time>2023-09-21T08:09:52Z</time>
      </trkpt>
      <trkpt lat="48.21713" lon="6.84427">
        <ele>658.27</ele>
        <time>2023-09-21T08:09:55Z</time>
      </trkpt>
      <trkpt lat="48.21714" lon="6.84427">
        <ele>659.14</ele>
        <time>2023-09-21T08:09:56Z</time>
      </trkpt>
      <trkpt lat="48.21717" lon="6.84425">
        <ele>659.26</ele>
        <time>2023-09-21T08:09:59Z</time>
      </trkpt>
      <trkpt lat="48.21718" lon="6.84424">
        <ele>658.94</ele>
        <time>2023-09-21T08:10:12Z</time>
      </trkpt>
      <trkpt lat="48.21719" lon="6.84419">
        <ele>659.01</ele>
        <time>2023-09-21T08:10:49Z</time>
      </trkpt>
      <trkpt lat="48.21718" lon="6.84415">
        <ele>658.51</ele>
        <time>2023-09-21T08:11:54Z</time>
      </trkpt>
      <trkpt lat="48.21722" lon="6.84416">
        <ele>658.98</ele>
        <time>2023-09-21T08:12:49Z</time>
      </trkpt>
      <trkpt lat="48.2172" lon="6.84417">
        <ele>659.86</ele>
        <time>2023-09-21T08:13:39Z</time>
      </trkpt>
      <trkpt lat="48.21718" lon="6.84418">
        <ele>659.76</ele>
        <time>2023-09-21T08:14:20Z</time>
      </trkpt>
      <trkpt lat="48.21719" lon="6.84416">
        <ele>660.01</ele>
        <time>2023-09-21T08:14:33Z</time>
      </trkpt>
      <trkpt lat="48.21721" lon="6.84418">
        <ele>660.43</ele>
        <time>2023-09-21T08:15:33Z</time>
      </trkpt>
      <trkpt lat="48.21719" lon="6.8442">
        <ele>660.39</ele>
        <time>2023-09-21T08:16:24Z</time>
      </trkpt>
      <trkpt lat="48.21719" lon="6.84417">
        <ele>659.75</ele>
        <time>2023-09-21T08:17:09Z</time>
      </trkpt>
      <trkpt lat="48.21718" lon="6.8442">
        <ele>660.61</ele>
        <time>2023-09-21T08:17:28Z</time>
      </trkpt>
      <trkpt lat="48.2171" lon="6.84428">
        <ele>660.74</ele>
        <time>2023-09-21T08:17:48Z</time>
      </trkpt>
      <trkpt lat="48.2171" lon="6.8443">
        <ele>660.4</ele>
        <time>2023-09-21T08:17:49Z</time>
      </trkpt>
      <trkpt lat="48.21709" lon="6.84432">
        <ele>660.46</ele>
        <time>2023-09-21T08:17:50Z</time>
      </trkpt>
      <trkpt lat="48.21707" lon="6.84438">
        <ele>659.69</ele>
        <time>2023-09-21T08:17:54Z</time>
      </trkpt>
      <trkpt lat="48.21696" lon="6.84459">
        <ele>657.75</ele>
        <time>2023-09-21T08:18:08Z</time>
      </trkpt>
      <trkpt lat="48.21687" lon="6.84481">
        <ele>656.12</ele>
        <time>2023-09-21T08:18:21Z</time>
      </trkpt>
      <trkpt lat="48.2168" lon="6.845">
        <ele>654.64</ele>
        <time>2023-09-21T08:18:35Z</time>
      </trkpt>
      <trkpt lat="48.21679" lon="6.84502">
        <ele>654.1</ele>
        <time>2023-09-21T08:18:36Z</time>
      </trkpt>
      <trkpt lat="48.21678" lon="6.84504">
        <ele>654.01</ele>
        <time>2023-09-21T08:18:37Z</time>
      </trkpt>
      <trkpt lat="48.21678" lon="6.84505">
        <ele>653.73</ele>
        <time>2023-09-21T08:18:38Z</time>
      </trkpt>
      <trkpt lat="48.21677" lon="6.84507">
        <ele>652.92</ele>
        <time>2023-09-21T08:18:39Z</time>
      </trkpt>
      <trkpt lat="48.21677" lon="6.8451">
        <ele>652.94</ele>
        <time>2023-09-21T08:18:40Z</time>
      </trkpt>
      <trkpt lat="48.21676" lon="6.84512">
        <ele>652.92</ele>
        <time>2023-09-21T08:18:41Z</time>
      </trkpt>
      <trkpt lat="48.21675" lon="6.84514">
        <ele>652.92</ele>
        <time>2023-09-21T08:18:42Z</time>
      </trkpt>
      <trkpt lat="48.21671" lon="6.84529">
        <ele>651.22</ele>
        <time>2023-09-21T08:18:50Z</time>
      </trkpt>
      <trkpt lat="48.21669" lon="6.84538">
        <ele>651.81</ele>
        <time>2023-09-21T08:19:05Z</time>
      </trkpt>
      <trkpt lat="48.21664" lon="6.84549">
        <ele>651.89</ele>
        <time>2023-09-21T08:19:28Z</time>
      </trkpt>
      <trkpt lat="48.21656" lon="6.84579">
        <ele>650.67</ele>
        <time>2023-09-21T08:19:45Z</time>
      </trkpt>
      <trkpt lat="48.21652" lon="6.84609">
        <ele>651.01</ele>
        <time>2023-09-21T08:20:00Z</time>
      </trkpt>
      <trkpt lat="48.21653" lon="6.84635">
        <ele>651.69</ele>
        <time>2023-09-21T08:20:13Z</time>
      </trkpt>
      <trkpt lat="48.21653" lon="6.84637">
        <ele>651.74</ele>
        <time>2023-09-21T08:20:14Z</time>
      </trkpt>
      <trkpt lat="48.21659" lon="6.84653">
        <ele>652.05</ele>
        <time>2023-09-21T08:20:25Z</time>
      </trkpt>
      <trkpt lat="48.21659" lon="6.84662">
        <ele>652.43</ele>
        <time>2023-09-21T08:20:30Z</time>
      </trkpt>
      <trkpt lat="48.2166" lon="6.84664">
        <ele>652.85</ele>
        <time>2023-09-21T08:20:31Z</time>
      </trkpt>
      <trkpt lat="48.2166" lon="6.84665">
        <ele>652.75</ele>
        <time>2023-09-21T08:20:32Z</time>
      </trkpt>
      <trkpt lat="48.21661" lon="6.84667">
        <ele>652.52</ele>
        <time>2023-09-21T08:20:33Z</time>
      </trkpt>
      <trkpt lat="48.21662" lon="6.84669">
        <ele>652.58</ele>
        <time>2023-09-21T08:20:34Z</time>
      </trkpt>
      <trkpt lat="48.21662" lon="6.8467">
        <ele>652.75</ele>
        <time>2023-09-21T08:20:35Z</time>
      </trkpt>
      <trkpt lat="48.21664" lon="6.84676">
        <ele>652.87</ele>
        <time>2023-09-21T08:20:39Z</time>
      </trkpt>
      <trkpt lat="48.21665" lon="6.84677">
        <ele>653.24</ele>
        <time>2023-09-21T08:20:40Z</time>
      </trkpt>
      <trkpt lat="48.21669" lon="6.84694">
        <ele>654.07</ele>
        <time>2023-09-21T08:20:50Z</time>
      </trkpt>
      <trkpt lat="48.2167" lon="6.84698">
        <ele>654.23</ele>
        <time>2023-09-21T08:20:53Z</time>
      </trkpt>
      <trkpt lat="48.2167" lon="6.847">
        <ele>654.14</ele>
        <time>2023-09-21T08:20:54Z</time>
      </trkpt>
      <trkpt lat="48.2167" lon="6.84703">
        <ele>654.03</ele>
        <time>2023-09-21T08:20:55Z</time>
      </trkpt>
      <trkpt lat="48.21673" lon="6.84714">
        <ele>654.73</ele>
        <time>2023-09-21T08:21:02Z</time>
      </trkpt>
      <trkpt lat="48.21674" lon="6.84716">
        <ele>654.8</ele>
        <time>2023-09-21T08:21:03Z</time>
      </trkpt>
      <trkpt lat="48.21674" lon="6.84718">
        <ele>654.83</ele>
        <time>2023-09-21T08:21:04Z</time>
      </trkpt>
      <trkpt lat="48.21675" lon="6.8472">
        <ele>654.45</ele>
        <time>2023-09-21T08:21:05Z</time>
      </trkpt>
      <trkpt lat="48.21675" lon="6.84722">
        <ele>655.03</ele>
        <time>2023-09-21T08:21:06Z</time>
      </trkpt>
      <trkpt lat="48.21676" lon="6.84724">
        <ele>654.85</ele>
        <time>2023-09-21T08:21:07Z</time>
      </trkpt>
      <trkpt lat="48.21677" lon="6.84725">
        <ele>655.04</ele>
        <time>2023-09-21T08:21:08Z</time>
      </trkpt>
      <trkpt lat="48.2168" lon="6.84737">
        <ele>655.53</ele>
        <time>2023-09-21T08:21:15Z</time>
      </trkpt>
      <trkpt lat="48.2168" lon="6.84738">
        <ele>655.5</ele>
        <time>2023-09-21T08:21:16Z</time>
      </trkpt>
      <trkpt lat="48.2168" lon="6.8474">
        <ele>655.55</ele>
        <time>2023-09-21T08:21:17Z</time>
      </trkpt>
      <trkpt lat="48.2168" lon="6.84742">
        <ele>656.4</ele>
        <time>2023-09-21T08:21:18Z</time>
      </trkpt>
      <trkpt lat="48.21681" lon="6.84744">
        <ele>655.7</ele>
        <time>2023-09-21T08:21:19Z</time>
      </trkpt>
      <trkpt lat="48.21681" lon="6.84746">
        <ele>655.91</ele>
        <time>2023-09-21T08:21:20Z</time>
      </trkpt>
      <trkpt lat="48.21682" lon="6.84748">
        <ele>656.17</ele>
        <time>2023-09-21T08:21:21Z</time>
      </trkpt>
      <trkpt lat="48.21682" lon="6.8475">
        <ele>656.18</ele>
        <time>2023-09-21T08:21:22Z</time>
      </trkpt>
      <trkpt lat="48.21682" lon="6.84751">
        <ele>656.46</ele>
        <time>2023-09-21T08:21:23Z</time>
      </trkpt>
      <trkpt lat="48.21682" lon="6.84753">
        <ele>656.2</ele>
        <time>2023-09-21T08:21:24Z</time>
      </trkpt>
      <trkpt lat="48.21683" lon="6.84755">
        <ele>656.58</ele>
        <time>2023-09-21T08:21:25Z</time>
      </trkpt>
      <trkpt lat="48.21683" lon="6.84759">
        <ele>656.59</ele>
        <time>2023-09-21T08:21:27Z</time>
      </trkpt>
      <trkpt lat="48.21683" lon="6.84761">
        <ele>656.57</ele>
        <time>2023-09-21T08:21:28Z</time>
      </trkpt>
      <trkpt lat="48.21685" lon="6.84774">
        <ele>657.01</ele>
        <time>2023-09-21T08:21:35Z</time>
      </trkpt>
      <trkpt lat="48.21686" lon="6.84776">
        <ele>656.66</ele>
        <time>2023-09-21T08:21:36Z</time>
      </trkpt>
      <trkpt lat="48.21689" lon="6.84798">
        <ele>656.71</ele>
        <time>2023-09-21T08:21:47Z</time>
      </trkpt>
      <trkpt lat="48.21689" lon="6.84801">
        <ele>657.07</ele>
        <time>2023-09-21T08:21:48Z</time>
      </trkpt>
      <trkpt lat="48.2169" lon="6.84812">
        <ele>657.22</ele>
        <time>2023-09-21T08:21:54Z</time>
      </trkpt>
      <trkpt lat="48.2169" lon="6.84813">
        <ele>657.32</ele>
        <time>2023-09-21T08:21:55Z</time>
      </trkpt>
      <trkpt lat="48.2169" lon="6.84815">
        <ele>657.28</ele>
        <time>2023-09-21T08:21:56Z</time>
      </trkpt>
      <trkpt lat="48.2169" lon="6.84817">
        <ele>657.42</ele>
        <time>2023-09-21T08:21:57Z</time>
      </trkpt>
      <trkpt lat="48.2169" lon="6.84819">
        <ele>657.6</ele>
        <time>2023-09-21T08:21:58Z</time>
      </trkpt>
      <trkpt lat="48.21691" lon="6.84821">
        <ele>657.31</ele>
        <time>2023-09-21T08:21:59Z</time>
      </trkpt>
      <trkpt lat="48.21691" lon="6.84823">
        <ele>657.42</ele>
        <time>2023-09-21T08:22:00Z</time>
      </trkpt>
      <trkpt lat="48.21694" lon="6.84852">
        <ele>658.36</ele>
        <time>2023-09-21T08:22:15Z</time>
      </trkpt>
      <trkpt lat="48.21693" lon="6.84861">
        <ele>658.27</ele>
        <time>2023-09-21T08:22:21Z</time>
      </trkpt>
      <trkpt lat="48.21692" lon="6.84878">
        <ele>658.57</ele>
        <time>2023-09-21T08:22:31Z</time>
      </trkpt>
      <trkpt lat="48.21692" lon="6.84881">
        <ele>658.51</ele>
        <time>2023-09-21T08:22:33Z</time>
      </trkpt>
      <trkpt lat="48.21693" lon="6.84886">
        <ele>659.54</ele>
        <time>2023-09-21T08:22:36Z</time>
      </trkpt>
      <trkpt lat="48.21693" lon="6.8489">
        <ele>658.55</ele>
        <time>2023-09-21T08:22:38Z</time>
      </trkpt>
      <trkpt lat="48.21693" lon="6.84891">
        <ele>659.59</ele>
        <time>2023-09-21T08:22:39Z</time>
      </trkpt>
      <trkpt lat="48.21693" lon="6.84893">
        <ele>659.15</ele>
        <time>2023-09-21T08:22:40Z</time>
      </trkpt>
      <trkpt lat="48.21693" lon="6.84896">
        <ele>658.94</ele>
        <time>2023-09-21T08:22:41Z</time>
      </trkpt>
      <trkpt lat="48.21693" lon="6.84898">
        <ele>659.22</ele>
        <time>2023-09-21T08:22:42Z</time>
      </trkpt>
      <trkpt lat="48.21694" lon="6.84901">
        <ele>659.16</ele>
        <time>2023-09-21T08:22:43Z</time>
      </trkpt>
      <trkpt lat="48.21694" lon="6.84903">
        <ele>659.15</ele>
        <time>2023-09-21T08:22:44Z</time>
      </trkpt>
      <trkpt lat="48.21695" lon="6.84905">
        <ele>659.29</ele>
        <time>2023-09-21T08:22:45Z</time>
      </trkpt>
      <trkpt lat="48.21694" lon="6.84907">
        <ele>659.17</ele>
        <time>2023-09-21T08:22:46Z</time>
      </trkpt>
      <trkpt lat="48.21694" lon="6.84909">
        <ele>659.03</ele>
        <time>2023-09-21T08:22:47Z</time>
      </trkpt>
      <trkpt lat="48.21694" lon="6.84911">
        <ele>658.84</ele>
        <time>2023-09-21T08:22:48Z</time>
      </trkpt>
      <trkpt lat="48.21695" lon="6.84913">
        <ele>659.38</ele>
        <time>2023-09-21T08:22:49Z</time>
      </trkpt>
      <trkpt lat="48.21695" lon="6.84915">
        <ele>659.44</ele>
        <time>2023-09-21T08:22:50Z</time>
      </trkpt>
      <trkpt lat="48.21695" lon="6.84917">
        <ele>659.52</ele>
        <time>2023-09-21T08:22:51Z</time>
      </trkpt>
      <trkpt lat="48.21695" lon="6.84919">
        <ele>659.49</ele>
        <time>2023-09-21T08:22:52Z</time>
      </trkpt>
      <trkpt lat="48.21696" lon="6.8495">
        <ele>660.45</ele>
        <time>2023-09-21T08:23:07Z</time>
      </trkpt>
      <trkpt lat="48.21697" lon="6.84952">
        <ele>660.53</ele>
        <time>2023-09-21T08:23:15Z</time>
      </trkpt>
      <trkpt lat="48.217" lon="6.8495">
        <ele>660.21</ele>
        <time>2023-09-21T08:23:17Z</time>
      </trkpt>
      <trkpt lat="48.21712" lon="6.84928">
        <ele>658.93</ele>
        <time>2023-09-21T08:23:32Z</time>
      </trkpt>
      <trkpt lat="48.21712" lon="6.84911">
        <ele>658.35</ele>
        <time>2023-09-21T08:23:40Z</time>
      </trkpt>
      <trkpt lat="48.21712" lon="6.84897">
        <ele>657.85</ele>
        <time>2023-09-21T08:23:46Z</time>
      </trkpt>
      <trkpt lat="48.21712" lon="6.84894">
        <ele>657.48</ele>
        <time>2023-09-21T08:23:47Z</time>
      </trkpt>
      <trkpt lat="48.21712" lon="6.84891">
        <ele>657.46</ele>
        <time>2023-09-21T08:23:48Z</time>
      </trkpt>
      <trkpt lat="48.21708" lon="6.84875">
        <ele>656.3</ele>
        <time>2023-09-21T08:23:56Z</time>
      </trkpt>
      <trkpt lat="48.21708" lon="6.84873">
        <ele>656.6</ele>
        <time>2023-09-21T08:23:57Z</time>
      </trkpt>
      <trkpt lat="48.21706" lon="6.84839">
        <ele>655.45</ele>
        <time>2023-09-21T08:24:13Z</time>
      </trkpt>
      <trkpt lat="48.21702" lon="6.84799">
        <ele>653.99</ele>
        <time>2023-09-21T08:24:26Z</time>
      </trkpt>
      <trkpt lat="48.21702" lon="6.84797">
        <ele>654.38</ele>
        <time>2023-09-21T08:24:27Z</time>
      </trkpt>
      <trkpt lat="48.21701" lon="6.84795">
        <ele>653.77</ele>
        <time>2023-09-21T08:24:28Z</time>
      </trkpt>
      <trkpt lat="48.21701" lon="6.84793">
        <ele>653.74</ele>
        <time>2023-09-21T08:24:29Z</time>
      </trkpt>
      <trkpt lat="48.21701" lon="6.8479">
        <ele>653.86</ele>
        <time>2023-09-21T08:24:30Z</time>
      </trkpt>
      <trkpt lat="48.21701" lon="6.84788">
        <ele>653.71</ele>
        <time>2023-09-21T08:24:31Z</time>
      </trkpt>
      <trkpt lat="48.217" lon="6.84786">
        <ele>653.89</ele>
        <time>2023-09-21T08:24:32Z</time>
      </trkpt>
      <trkpt lat="48.217" lon="6.84782">
        <ele>653.33</ele>
        <time>2023-09-21T08:24:34Z</time>
      </trkpt>
      <trkpt lat="48.217" lon="6.84779">
        <ele>653.54</ele>
        <time>2023-09-21T08:24:36Z</time>
      </trkpt>
      <trkpt lat="48.2169" lon="6.84741">
        <ele>652.17</ele>
        <time>2023-09-21T08:24:49Z</time>
      </trkpt>
      <trkpt lat="48.21683" lon="6.8471">
        <ele>650.53</ele>
        <time>2023-09-21T08:25:01Z</time>
      </trkpt>
      <trkpt lat="48.21673" lon="6.84683">
        <ele>649.41</ele>
        <time>2023-09-21T08:25:14Z</time>
      </trkpt>
      <trkpt lat="48.21665" lon="6.84659">
        <ele>648.08</ele>
        <time>2023-09-21T08:25:26Z</time>
      </trkpt>
      <trkpt lat="48.21665" lon="6.84657">
        <ele>648.22</ele>
        <time>2023-09-21T08:25:27Z</time>
      </trkpt>
      <trkpt lat="48.21664" lon="6.84655">
        <ele>648.31</ele>
        <time>2023-09-21T08:25:28Z</time>
      </trkpt>
      <trkpt lat="48.21662" lon="6.84622">
        <ele>646.69</ele>
        <time>2023-09-21T08:25:41Z</time>
      </trkpt>
      <trkpt lat="48.21668" lon="6.8459">
        <ele>646.74</ele>
        <time>2023-09-21T08:25:54Z</time>
      </trkpt>
      <trkpt lat="48.21668" lon="6.84587">
        <ele>646.81</ele>
        <time>2023-09-21T08:25:56Z</time>
      </trkpt>
      <trkpt lat="48.21668" lon="6.84585">
        <ele>646.65</ele>
        <time>2023-09-21T08:25:57Z</time>
      </trkpt>
      <trkpt lat="48.21669" lon="6.84582">
        <ele>646.72</ele>
        <time>2023-09-21T08:25:58Z</time>
      </trkpt>
      <trkpt lat="48.21674" lon="6.84545">
        <ele>646.69</ele>
        <time>2023-09-21T08:26:14Z</time>
      </trkpt>
      <trkpt lat="48.21677" lon="6.84537">
        <ele>647.14</ele>
        <time>2023-09-21T08:26:18Z</time>
      </trkpt>
      <trkpt lat="48.21678" lon="6.84535">
        <ele>648.03</ele>
        <time>2023-09-21T08:26:19Z</time>
      </trkpt>
      <trkpt lat="48.21679" lon="6.84533">
        <ele>647.75</ele>
        <time>2023-09-21T08:26:20Z</time>
      </trkpt>
      <trkpt lat="48.21679" lon="6.84531">
        <ele>647.6</ele>
        <time>2023-09-21T08:26:21Z</time>
      </trkpt>
      <trkpt lat="48.2168" lon="6.84529">
        <ele>648.19</ele>
        <time>2023-09-21T08:26:22Z</time>
      </trkpt>
      <trkpt lat="48.2168" lon="6.84527">
        <ele>648.31</ele>
        <time>2023-09-21T08:26:23Z</time>
      </trkpt>
      <trkpt lat="48.21681" lon="6.84525">
        <ele>648.05</ele>
        <time>2023-09-21T08:26:24Z</time>
      </trkpt>
      <trkpt lat="48.21684" lon="6.84516">
        <ele>648.77</ele>
        <time>2023-09-21T08:26:30Z</time>
      </trkpt>
      <trkpt lat="48.21692" lon="6.84496">
        <ele>651.28</ele>
        <time>2023-09-21T08:26:44Z</time>
      </trkpt>
      <trkpt lat="48.21694" lon="6.84493">
        <ele>650.84</ele>
        <time>2023-09-21T08:26:46Z</time>
      </trkpt>
      <trkpt lat="48.21694" lon="6.84491">
        <ele>652.02</ele>
        <time>2023-09-21T08:26:47Z</time>
      </trkpt>
      <trkpt lat="48.21695" lon="6.84489">
        <ele>651.59</ele>
        <time>2023-09-21T08:26:48Z</time>
      </trkpt>
      <trkpt lat="48.21696" lon="6.84488">
        <ele>652.22</ele>
        <time>2023-09-21T08:26:49Z</time>
      </trkpt>
      <trkpt lat="48.21696" lon="6.84486">
        <ele>652.31</ele>
        <time>2023-09-21T08:26:50Z</time>
      </trkpt>
      <trkpt lat="48.21704" lon="6.84463">
        <ele>653.63</ele>
        <time>2023-09-21T08:27:06Z</time>
      </trkpt>
      <trkpt lat="48.21709" lon="6.84444">
        <ele>654.74</ele>
        <time>2023-09-21T08:27:17Z</time>
      </trkpt>
      <trkpt lat="48.21713" lon="6.84436">
        <ele>654.98</ele>
        <time>2023-09-21T08:27:22Z</time>
      </trkpt>
      <trkpt lat="48.21717" lon="6.84432">
        <ele>655.47</ele>
        <time>2023-09-21T08:27:26Z</time>
      </trkpt>
      <trkpt lat="48.21713" lon="6.84429">
        <ele>655.25</ele>
        <time>2023-09-21T08:27:37Z</time>
      </trkpt>
      <trkpt lat="48.2171" lon="6.84435">
        <ele>655.35</ele>
        <time>2023-09-21T08:27:42Z</time>
      </trkpt>
      <trkpt lat="48.2171" lon="6.84436">
        <ele>654.98</ele>
        <time>2023-09-21T08:27:43Z</time>
      </trkpt>
      <trkpt lat="48.21695" lon="6.84459">
        <ele>652.96</ele>
        <time>2023-09-21T08:27:59Z</time>
      </trkpt>
      <trkpt lat="48.2169" lon="6.84477">
        <ele>651.42</ele>
        <time>2023-09-21T08:28:09Z</time>
      </trkpt>
      <trkpt lat="48.21686" lon="6.84486">
        <ele>650.86</ele>
        <time>2023-09-21T08:28:15Z</time>
      </trkpt>
      <trkpt lat="48.2168" lon="6.84497">
        <ele>649.15</ele>
        <time>2023-09-21T08:28:22Z</time>
      </trkpt>
      <trkpt lat="48.21678" lon="6.84503">
        <ele>648.73</ele>
        <time>2023-09-21T08:28:26Z</time>
      </trkpt>
      <trkpt lat="48.21677" lon="6.84508">
        <ele>649.02</ele>
        <time>2023-09-21T08:28:29Z</time>
      </trkpt>
      <trkpt lat="48.21669" lon="6.84532">
        <ele>647.38</ele>
        <time>2023-09-21T08:28:42Z</time>
      </trkpt>
      <trkpt lat="48.21665" lon="6.84545">
        <ele>646.28</ele>
        <time>2023-09-21T08:28:48Z</time>
      </trkpt>
      <trkpt lat="48.2166" lon="6.84561">
        <ele>645.74</ele>
        <time>2023-09-21T08:28:55Z</time>
      </trkpt>
      <trkpt lat="48.21657" lon="6.846">
        <ele>645.86</ele>
        <time>2023-09-21T08:29:14Z</time>
      </trkpt>
      <trkpt lat="48.21657" lon="6.84603">
        <ele>645.73</ele>
        <time>2023-09-21T08:29:15Z</time>
      </trkpt>
      <trkpt lat="48.21655" lon="6.84619">
        <ele>646.26</ele>
        <time>2023-09-21T08:29:22Z</time>
      </trkpt>
      <trkpt lat="48.21656" lon="6.84626">
        <ele>646.56</ele>
        <time>2023-09-21T08:29:26Z</time>
      </trkpt>
      <trkpt lat="48.21656" lon="6.84646">
        <ele>647.07</ele>
        <time>2023-09-21T08:29:40Z</time>
      </trkpt>
      <trkpt lat="48.21654" lon="6.84641">
        <ele>646.02</ele>
        <time>2023-09-21T08:30:00Z</time>
      </trkpt>
      <trkpt lat="48.21658" lon="6.84647">
        <ele>646.98</ele>
        <time>2023-09-21T08:30:12Z</time>
      </trkpt>
      <trkpt lat="48.2166" lon="6.84658">
        <ele>647.3</ele>
        <time>2023-09-21T08:30:17Z</time>
      </trkpt>
      <trkpt lat="48.21661" lon="6.84665">
        <ele>647.43</ele>
        <time>2023-09-21T08:30:20Z</time>
      </trkpt>
      <trkpt lat="48.21662" lon="6.84672">
        <ele>647.3</ele>
        <time>2023-09-21T08:30:24Z</time>
      </trkpt>
      <trkpt lat="48.21663" lon="6.8468">
        <ele>647.63</ele>
        <time>2023-09-21T08:30:29Z</time>
      </trkpt>
      <trkpt lat="48.21668" lon="6.84692">
        <ele>648.64</ele>
        <time>2023-09-21T08:30:39Z</time>
      </trkpt>
      <trkpt lat="48.21675" lon="6.84718">
        <ele>650.15</ele>
        <time>2023-09-21T08:30:54Z</time>
      </trkpt>
      <trkpt lat="48.21683" lon="6.84753">
        <ele>651.09</ele>
        <time>2023-09-21T08:31:12Z</time>
      </trkpt>
      <trkpt lat="48.21684" lon="6.84766">
        <ele>651.13</ele>
        <time>2023-09-21T08:31:19Z</time>
      </trkpt>
      <trkpt lat="48.21687" lon="6.84797">
        <ele>651.73</ele>
        <time>2023-09-21T08:31:35Z</time>
      </trkpt>
      <trkpt lat="48.21687" lon="6.84832">
        <ele>652.67</ele>
        <time>2023-09-21T08:31:52Z</time>
      </trkpt>
      <trkpt lat="48.21688" lon="6.84842">
        <ele>653.01</ele>
        <time>2023-09-21T08:31:57Z</time>
      </trkpt>
      <trkpt lat="48.21689" lon="6.84849">
        <ele>653.66</ele>
        <time>2023-09-21T08:32:01Z</time>
      </trkpt>
      <trkpt lat="48.2169" lon="6.8486">
        <ele>653.33</ele>
        <time>2023-09-21T08:32:07Z</time>
      </trkpt>
      <trkpt lat="48.21689" lon="6.84865">
        <ele>653.5</ele>
        <time>2023-09-21T08:32:10Z</time>
      </trkpt>
      <trkpt lat="48.21691" lon="6.84876">
        <ele>654.41</ele>
        <time>2023-09-21T08:32:16Z</time>
      </trkpt>
      <trkpt lat="48.21693" lon="6.84887">
        <ele>654.41</ele>
        <time>2023-09-21T08:32:22Z</time>
      </trkpt>
      <trkpt lat="48.21695" lon="6.84913">
        <ele>655.1</ele>
        <time>2023-09-21T08:32:35Z</time>
      </trkpt>
      <trkpt lat="48.21696" lon="6.84924">
        <ele>655.5</ele>
        <time>2023-09-21T08:32:41Z</time>
      </trkpt>
      <trkpt lat="48.21695" lon="6.8493">
        <ele>654.98</ele>
        <time>2023-09-21T08:32:44Z</time>
      </trkpt>
      <trkpt lat="48.21696" lon="6.84936">
        <ele>655.21</ele>
        <time>2023-09-21T08:32:47Z</time>
      </trkpt>
      <trkpt lat="48.21695" lon="6.84961">
        <ele>656.21</ele>
        <time>2023-09-21T08:33:00Z</time>
      </trkpt>
      <trkpt lat="48.21694" lon="6.84967">
        <ele>656.53</ele>
        <time>2023-09-21T08:33:04Z</time>
      </trkpt>
      <trkpt lat="48.21688" lon="6.84999">
        <ele>656.47</ele>
        <time>2023-09-21T08:33:20Z</time>
      </trkpt>
      <trkpt lat="48.21687" lon="6.85002">
        <ele>657.22</ele>
        <time>2023-09-21T08:33:22Z</time>
      </trkpt>
      <trkpt lat="48.21688" lon="6.85013">
        <ele>657.08</ele>
        <time>2023-09-21T08:33:26Z</time>
      </trkpt>
      <trkpt lat="48.21677" lon="6.8504">
        <ele>656.8</ele>
        <time>2023-09-21T08:33:42Z</time>
      </trkpt>
      <trkpt lat="48.21656" lon="6.85044">
        <ele>657.45</ele>
        <time>2023-09-21T08:34:00Z</time>
      </trkpt>
      <trkpt lat="48.21639" lon="6.85042">
        <ele>657.04</ele>
        <time>2023-09-21T08:34:15Z</time>
      </trkpt>
      <trkpt lat="48.21617" lon="6.85042">
        <ele>656.91</ele>
        <time>2023-09-21T08:34:34Z</time>
      </trkpt>
      <trkpt lat="48.21609" lon="6.85043">
        <ele>654.65</ele>
        <time>2023-09-21T08:34:40Z</time>
      </trkpt>
      <trkpt lat="48.21585" lon="6.85042">
        <ele>653.7</ele>
        <time>2023-09-21T08:34:56Z</time>
      </trkpt>
      <trkpt lat="48.21562" lon="6.85044">
        <ele>652.46</ele>
        <time>2023-09-21T08:35:13Z</time>
      </trkpt>
      <trkpt lat="48.21537" lon="6.8505">
        <ele>650.81</ele>
        <time>2023-09-21T08:35:31Z</time>
      </trkpt>
      <trkpt lat="48.21515" lon="6.8506">
        <ele>648.85</ele>
        <time>2023-09-21T08:35:46Z</time>
      </trkpt>
      <trkpt lat="48.21492" lon="6.85075">
        <ele>647.83</ele>
        <time>2023-09-21T08:36:03Z</time>
      </trkpt>
      <trkpt lat="48.2147" lon="6.85088">
        <ele>645.83</ele>
        <time>2023-09-21T08:36:19Z</time>
      </trkpt>
      <trkpt lat="48.21452" lon="6.85097">
        <ele>644.97</ele>
        <time>2023-09-21T08:36:33Z</time>
      </trkpt>
      <trkpt lat="48.21427" lon="6.85109">
        <ele>644.18</ele>
        <time>2023-09-21T08:36:52Z</time>
      </trkpt>
      <trkpt lat="48.21422" lon="6.85113">
        <ele>644.25</ele>
        <time>2023-09-21T08:36:56Z</time>
      </trkpt>
      <trkpt lat="48.21418" lon="6.85117">
        <ele>643.76</ele>
        <time>2023-09-21T08:37:14Z</time>
      </trkpt>
      <trkpt lat="48.21417" lon="6.8512">
        <ele>644.59</ele>
        <time>2023-09-21T08:37:37Z</time>
      </trkpt>
      <trkpt lat="48.21416" lon="6.8512">
        <ele>643.83</ele>
        <time>2023-09-21T08:37:41Z</time>
      </trkpt>
      <trkpt lat="48.21412" lon="6.85123">
        <ele>644.46</ele>
        <time>2023-09-21T08:38:02Z</time>
      </trkpt>
      <trkpt lat="48.21412" lon="6.85121">
        <ele>644.68</ele>
        <time>2023-09-21T08:38:07Z</time>
      </trkpt>
      <trkpt lat="48.2141" lon="6.85112">
        <ele>644.36</ele>
        <time>2023-09-21T08:38:21Z</time>
      </trkpt>
      <trkpt lat="48.21406" lon="6.85106">
        <ele>644.1</ele>
        <time>2023-09-21T08:38:37Z</time>
      </trkpt>
      <trkpt lat="48.21404" lon="6.85104">
        <ele>644.57</ele>
        <time>2023-09-21T08:38:53Z</time>
      </trkpt>
      <trkpt lat="48.21402" lon="6.85101">
        <ele>643.3</ele>
        <time>2023-09-21T08:39:09Z</time>
      </trkpt>
      <trkpt lat="48.21402" lon="6.85107">
        <ele>643.7</ele>
        <time>2023-09-21T08:39:26Z</time>
      </trkpt>
      <trkpt lat="48.21402" lon="6.85112">
        <ele>643.77</ele>
        <time>2023-09-21T08:39:30Z</time>
      </trkpt>
      <trkpt lat="48.21401" lon="6.85118">
        <ele>644.16</ele>
        <time>2023-09-21T08:39:34Z</time>
      </trkpt>
      <trkpt lat="48.21388" lon="6.85145">
        <ele>645.76</ele>
        <time>2023-09-21T08:39:52Z</time>
      </trkpt>
      <trkpt lat="48.21376" lon="6.85173">
        <ele>647.56</ele>
        <time>2023-09-21T08:40:09Z</time>
      </trkpt>
      <trkpt lat="48.21372" lon="6.85185">
        <ele>648.47</ele>
        <time>2023-09-21T08:40:17Z</time>
      </trkpt>
      <trkpt lat="48.21369" lon="6.85192">
        <ele>648.77</ele>
        <time>2023-09-21T08:40:22Z</time>
      </trkpt>
      <trkpt lat="48.21368" lon="6.85199">
        <ele>649.85</ele>
        <time>2023-09-21T08:40:26Z</time>
      </trkpt>
      <trkpt lat="48.21365" lon="6.85208">
        <ele>650.21</ele>
        <time>2023-09-21T08:40:31Z</time>
      </trkpt>
      <trkpt lat="48.21364" lon="6.85213">
        <ele>650.57</ele>
        <time>2023-09-21T08:40:34Z</time>
      </trkpt>
      <trkpt lat="48.21358" lon="6.85228">
        <ele>651.03</ele>
        <time>2023-09-21T08:40:43Z</time>
      </trkpt>
      <trkpt lat="48.21355" lon="6.85236">
        <ele>651.95</ele>
        <time>2023-09-21T08:40:48Z</time>
      </trkpt>
      <trkpt lat="48.2135" lon="6.85248">
        <ele>652.79</ele>
        <time>2023-09-21T08:40:56Z</time>
      </trkpt>
      <trkpt lat="48.21343" lon="6.85262">
        <ele>654.04</ele>
        <time>2023-09-21T08:41:06Z</time>
      </trkpt>
      <trkpt lat="48.21336" lon="6.85277">
        <ele>655.27</ele>
        <time>2023-09-21T08:41:16Z</time>
      </trkpt>
      <trkpt lat="48.21329" lon="6.85306">
        <ele>656.14</ele>
        <time>2023-09-21T08:41:32Z</time>
      </trkpt>
      <trkpt lat="48.21329" lon="6.85312">
        <ele>657.4</ele>
        <time>2023-09-21T08:41:36Z</time>
      </trkpt>
      <trkpt lat="48.21327" lon="6.85333">
        <ele>658.32</ele>
        <time>2023-09-21T08:41:48Z</time>
      </trkpt>
      <trkpt lat="48.21328" lon="6.85357">
        <ele>659.64</ele>
        <time>2023-09-21T08:42:01Z</time>
      </trkpt>
      <trkpt lat="48.21326" lon="6.85368">
        <ele>659.98</ele>
        <time>2023-09-21T08:42:07Z</time>
      </trkpt>
      <trkpt lat="48.21326" lon="6.85385">
        <ele>660.71</ele>
        <time>2023-09-21T08:42:16Z</time>
      </trkpt>
      <trkpt lat="48.21326" lon="6.8539">
        <ele>661.02</ele>
        <time>2023-09-21T08:42:19Z</time>
      </trkpt>
      <trkpt lat="48.21326" lon="6.85398">
        <ele>661.58</ele>
        <time>2023-09-21T08:42:23Z</time>
      </trkpt>
      <trkpt lat="48.21326" lon="6.85402">
        <ele>661.28</ele>
        <time>2023-09-21T08:42:25Z</time>
      </trkpt>
      <trkpt lat="48.21326" lon="6.85406">
        <ele>661.15</ele>
        <time>2023-09-21T08:42:27Z</time>
      </trkpt>
      <trkpt lat="48.21327" lon="6.85416">
        <ele>662.2</ele>
        <time>2023-09-21T08:42:32Z</time>
      </trkpt>
      <trkpt lat="48.2133" lon="6.85444">
        <ele>663.47</ele>
        <time>2023-09-21T08:42:47Z</time>
      </trkpt>
      <trkpt lat="48.21333" lon="6.8547">
        <ele>664.12</ele>
        <time>2023-09-21T08:43:02Z</time>
      </trkpt>
      <trkpt lat="48.21336" lon="6.85482">
        <ele>664.56</ele>
        <time>2023-09-21T08:43:09Z</time>
      </trkpt>
      <trkpt lat="48.21347" lon="6.85517">
        <ele>666.18</ele>
        <time>2023-09-21T08:43:29Z</time>
      </trkpt>
      <trkpt lat="48.21354" lon="6.85543">
        <ele>666.45</ele>
        <time>2023-09-21T08:43:42Z</time>
      </trkpt>
      <trkpt lat="48.21358" lon="6.85553">
        <ele>666.25</ele>
        <time>2023-09-21T08:43:48Z</time>
      </trkpt>
      <trkpt lat="48.21366" lon="6.8557">
        <ele>666.34</ele>
        <time>2023-09-21T08:43:57Z</time>
      </trkpt>
      <trkpt lat="48.21377" lon="6.85586">
        <ele>666.22</ele>
        <time>2023-09-21T08:44:08Z</time>
      </trkpt>
      <trkpt lat="48.21387" lon="6.85598">
        <ele>666.46</ele>
        <time>2023-09-21T08:44:17Z</time>
      </trkpt>
      <trkpt lat="48.21396" lon="6.8561">
        <ele>665.95</ele>
        <time>2023-09-21T08:44:25Z</time>
      </trkpt>
      <trkpt lat="48.21415" lon="6.85628">
        <ele>665.45</ele>
        <time>2023-09-21T08:44:42Z</time>
      </trkpt>
      <trkpt lat="48.21417" lon="6.8563">
        <ele>665.07</ele>
        <time>2023-09-21T08:44:44Z</time>
      </trkpt>
      <trkpt lat="48.21422" lon="6.85636">
        <ele>665.19</ele>
        <time>2023-09-21T08:44:49Z</time>
      </trkpt>
      <trkpt lat="48.21425" lon="6.85639">
        <ele>665.43</ele>
        <time>2023-09-21T08:44:51Z</time>
      </trkpt>
      <trkpt lat="48.21431" lon="6.85649">
        <ele>664.93</ele>
        <time>2023-09-21T08:44:58Z</time>
      </trkpt>
      <trkpt lat="48.21442" lon="6.85664">
        <ele>664.97</ele>
        <time>2023-09-21T08:45:10Z</time>
      </trkpt>
      <trkpt lat="48.21455" lon="6.85684">
        <ele>665.24</ele>
        <time>2023-09-21T08:45:24Z</time>
      </trkpt>
      <trkpt lat="48.21461" lon="6.85693">
        <ele>665.43</ele>
        <time>2023-09-21T08:45:30Z</time>
      </trkpt>
      <trkpt lat="48.21463" lon="6.85699">
        <ele>665.49</ele>
        <time>2023-09-21T08:45:34Z</time>
      </trkpt>
      <trkpt lat="48.21473" lon="6.8572">
        <ele>664.71</ele>
        <time>2023-09-21T08:45:46Z</time>
      </trkpt>
      <trkpt lat="48.21475" lon="6.85726">
        <ele>664.73</ele>
        <time>2023-09-21T08:45:50Z</time>
      </trkpt>
      <trkpt lat="48.2148" lon="6.85743">
        <ele>664.43</ele>
        <time>2023-09-21T08:45:59Z</time>
      </trkpt>
      <trkpt lat="48.21485" lon="6.85764">
        <ele>664.58</ele>
        <time>2023-09-21T08:46:10Z</time>
      </trkpt>
      <trkpt lat="48.21486" lon="6.85768">
        <ele>664.19</ele>
        <time>2023-09-21T08:46:12Z</time>
      </trkpt>
      <trkpt lat="48.21485" lon="6.8577">
        <ele>664.52</ele>
        <time>2023-09-21T08:46:13Z</time>
      </trkpt>
      <trkpt lat="48.21486" lon="6.85772">
        <ele>664.47</ele>
        <time>2023-09-21T08:46:14Z</time>
      </trkpt>
      <trkpt lat="48.21487" lon="6.85774">
        <ele>664.83</ele>
        <time>2023-09-21T08:46:15Z</time>
      </trkpt>
      <trkpt lat="48.21486" lon="6.85777">
        <ele>664.36</ele>
        <time>2023-09-21T08:46:16Z</time>
      </trkpt>
      <trkpt lat="48.21486" lon="6.85779">
        <ele>664.67</ele>
        <time>2023-09-21T08:46:17Z</time>
      </trkpt>
      <trkpt lat="48.21486" lon="6.85781">
        <ele>664.53</ele>
        <time>2023-09-21T08:46:18Z</time>
      </trkpt>
      <trkpt lat="48.21486" lon="6.85782">
        <ele>664.34</ele>
        <time>2023-09-21T08:46:19Z</time>
      </trkpt>
      <trkpt lat="48.21488" lon="6.85814">
        <ele>665.5</ele>
        <time>2023-09-21T08:46:35Z</time>
      </trkpt>
      <trkpt lat="48.21488" lon="6.85816">
        <ele>665.59</ele>
        <time>2023-09-21T08:46:36Z</time>
      </trkpt>
      <trkpt lat="48.21489" lon="6.85817">
        <ele>665.96</ele>
        <time>2023-09-21T08:46:37Z</time>
      </trkpt>
      <trkpt lat="48.21489" lon="6.85819">
        <ele>666.26</ele>
        <time>2023-09-21T08:46:38Z</time>
      </trkpt>
      <trkpt lat="48.2149" lon="6.85821">
        <ele>666.04</ele>
        <time>2023-09-21T08:46:39Z</time>
      </trkpt>
      <trkpt lat="48.2149" lon="6.85823">
        <ele>666.54</ele>
        <time>2023-09-21T08:46:40Z</time>
      </trkpt>
      <trkpt lat="48.2149" lon="6.85825">
        <ele>666.39</ele>
        <time>2023-09-21T08:46:41Z</time>
      </trkpt>
      <trkpt lat="48.2149" lon="6.85827">
        <ele>666.32</ele>
        <time>2023-09-21T08:46:42Z</time>
      </trkpt>
      <trkpt lat="48.2149" lon="6.85829">
        <ele>666.29</ele>
        <time>2023-09-21T08:46:43Z</time>
      </trkpt>
      <trkpt lat="48.2149" lon="6.85831">
        <ele>666.33</ele>
        <time>2023-09-21T08:46:44Z</time>
      </trkpt>
      <trkpt lat="48.2149" lon="6.85833">
        <ele>666.44</ele>
        <time>2023-09-21T08:46:45Z</time>
      </trkpt>
      <trkpt lat="48.21491" lon="6.85835">
        <ele>665.9</ele>
        <time>2023-09-21T08:46:46Z</time>
      </trkpt>
      <trkpt lat="48.21491" lon="6.85837">
        <ele>666.44</ele>
        <time>2023-09-21T08:46:47Z</time>
      </trkpt>
      <trkpt lat="48.21492" lon="6.85839">
        <ele>666.33</ele>
        <time>2023-09-21T08:46:48Z</time>
      </trkpt>
      <trkpt lat="48.21492" lon="6.85841">
        <ele>666.75</ele>
        <time>2023-09-21T08:46:49Z</time>
      </trkpt>
      <trkpt lat="48.21493" lon="6.85843">
        <ele>666.66</ele>
        <time>2023-09-21T08:46:50Z</time>
      </trkpt>
      <trkpt lat="48.21493" lon="6.85845">
        <ele>666.5</ele>
        <time>2023-09-21T08:46:51Z</time>
      </trkpt>
      <trkpt lat="48.21492" lon="6.85846">
        <ele>666.34</ele>
        <time>2023-09-21T08:46:52Z</time>
      </trkpt>
      <trkpt lat="48.21492" lon="6.85848">
        <ele>666.04</ele>
        <time>2023-09-21T08:46:53Z</time>
      </trkpt>
      <trkpt lat="48.21492" lon="6.85864">
        <ele>666.82</ele>
        <time>2023-09-21T08:47:01Z</time>
      </trkpt>
      <trkpt lat="48.21492" lon="6.85866">
        <ele>666.6</ele>
        <time>2023-09-21T08:47:02Z</time>
      </trkpt>
      <trkpt lat="48.21492" lon="6.85868">
        <ele>666.45</ele>
        <time>2023-09-21T08:47:03Z</time>
      </trkpt>
      <trkpt lat="48.21493" lon="6.8587">
        <ele>666.65</ele>
        <time>2023-09-21T08:47:04Z</time>
      </trkpt>
      <trkpt lat="48.21493" lon="6.85872">
        <ele>666.79</ele>
        <time>2023-09-21T08:47:05Z</time>
      </trkpt>
      <trkpt lat="48.21494" lon="6.85874">
        <ele>666.58</ele>
        <time>2023-09-21T08:47:06Z</time>
      </trkpt>
      <trkpt lat="48.21494" lon="6.85876">
        <ele>666.42</ele>
        <time>2023-09-21T08:47:07Z</time>
      </trkpt>
      <trkpt lat="48.21494" lon="6.85878">
        <ele>666.41</ele>
        <time>2023-09-21T08:47:08Z</time>
      </trkpt>
      <trkpt lat="48.21495" lon="6.85879">
        <ele>666.35</ele>
        <time>2023-09-21T08:47:09Z</time>
      </trkpt>
      <trkpt lat="48.21495" lon="6.85881">
        <ele>666.18</ele>
        <time>2023-09-21T08:47:10Z</time>
      </trkpt>
      <trkpt lat="48.21495" lon="6.85884">
        <ele>666.11</ele>
        <time>2023-09-21T08:47:12Z</time>
      </trkpt>
      <trkpt lat="48.21495" lon="6.85886">
        <ele>666.1</ele>
        <time>2023-09-21T08:47:13Z</time>
      </trkpt>
      <trkpt lat="48.21495" lon="6.85888">
        <ele>666.32</ele>
        <time>2023-09-21T08:47:14Z</time>
      </trkpt>
      <trkpt lat="48.21495" lon="6.8589">
        <ele>666.1</ele>
        <time>2023-09-21T08:47:15Z</time>
      </trkpt>
      <trkpt lat="48.21496" lon="6.85892">
        <ele>666.35</ele>
        <time>2023-09-21T08:47:16Z</time>
      </trkpt>
      <trkpt lat="48.21496" lon="6.85894">
        <ele>666.13</ele>
        <time>2023-09-21T08:47:17Z</time>
      </trkpt>
      <trkpt lat="48.21496" lon="6.85896">
        <ele>666.31</ele>
        <time>2023-09-21T08:47:18Z</time>
      </trkpt>
      <trkpt lat="48.21497" lon="6.85898">
        <ele>665.96</ele>
        <time>2023-09-21T08:47:19Z</time>
      </trkpt>
      <trkpt lat="48.21497" lon="6.85901">
        <ele>665.69</ele>
        <time>2023-09-21T08:47:20Z</time>
      </trkpt>
      <trkpt lat="48.21497" lon="6.85903">
        <ele>665.92</ele>
        <time>2023-09-21T08:47:21Z</time>
      </trkpt>
      <trkpt lat="48.21497" lon="6.85906">
        <ele>666.67</ele>
        <time>2023-09-21T08:47:22Z</time>
      </trkpt>
      <trkpt lat="48.21496" lon="6.85946">
        <ele>665.08</ele>
        <time>2023-09-21T08:47:41Z</time>
      </trkpt>
      <trkpt lat="48.21492" lon="6.85974">
        <ele>661.9</ele>
        <time>2023-09-21T08:47:54Z</time>
      </trkpt>
      <trkpt lat="48.21477" lon="6.85992">
        <ele>661.49</ele>
        <time>2023-09-21T08:48:10Z</time>
      </trkpt>
      <trkpt lat="48.2145" lon="6.85991">
        <ele>660.46</ele>
        <time>2023-09-21T08:48:30Z</time>
      </trkpt>
      <trkpt lat="48.21424" lon="6.85985">
        <ele>657.27</ele>
        <time>2023-09-21T08:48:49Z</time>
      </trkpt>
      <trkpt lat="48.214" lon="6.8598">
        <ele>656.37</ele>
        <time>2023-09-21T08:49:08Z</time>
      </trkpt>
      <trkpt lat="48.21381" lon="6.85976">
        <ele>654.86</ele>
        <time>2023-09-21T08:49:21Z</time>
      </trkpt>
      <trkpt lat="48.21359" lon="6.8597">
        <ele>654.21</ele>
        <time>2023-09-21T08:49:38Z</time>
      </trkpt>
      <trkpt lat="48.21337" lon="6.85965">
        <ele>653.14</ele>
        <time>2023-09-21T08:49:56Z</time>
      </trkpt>
      <trkpt lat="48.21325" lon="6.85956">
        <ele>652.6</ele>
        <time>2023-09-21T08:50:07Z</time>
      </trkpt>
      <trkpt lat="48.21323" lon="6.85955">
        <ele>652.52</ele>
        <time>2023-09-21T08:50:08Z</time>
      </trkpt>
      <trkpt lat="48.21322" lon="6.85955">
        <ele>652.39</ele>
        <time>2023-09-21T08:50:09Z</time>
      </trkpt>
      <trkpt lat="48.21297" lon="6.85944">
        <ele>651.2</ele>
        <time>2023-09-21T08:50:29Z</time>
      </trkpt>
      <trkpt lat="48.21274" lon="6.85943">
        <ele>650.69</ele>
        <time>2023-09-21T08:50:48Z</time>
      </trkpt>
      <trkpt lat="48.21255" lon="6.85951">
        <ele>649.98</ele>
        <time>2023-09-21T08:51:03Z</time>
      </trkpt>
      <trkpt lat="48.2123" lon="6.85955">
        <ele>649.1</ele>
        <time>2023-09-21T08:51:21Z</time>
      </trkpt>
      <trkpt lat="48.21202" lon="6.85959">
        <ele>647.6</ele>
        <time>2023-09-21T08:51:42Z</time>
      </trkpt>
      <trkpt lat="48.21184" lon="6.85958">
        <ele>647.37</ele>
        <time>2023-09-21T08:51:58Z</time>
      </trkpt>
      <trkpt lat="48.21182" lon="6.85958">
        <ele>647.3</ele>
        <time>2023-09-21T08:51:59Z</time>
      </trkpt>
      <trkpt lat="48.21181" lon="6.85958">
        <ele>647.22</ele>
        <time>2023-09-21T08:52:00Z</time>
      </trkpt>
      <trkpt lat="48.2118" lon="6.85959">
        <ele>646.53</ele>
        <time>2023-09-21T08:52:01Z</time>
      </trkpt>
      <trkpt lat="48.21178" lon="6.8596">
        <ele>647.11</ele>
        <time>2023-09-21T08:52:02Z</time>
      </trkpt>
      <trkpt lat="48.21177" lon="6.8596">
        <ele>647.18</ele>
        <time>2023-09-21T08:52:03Z</time>
      </trkpt>
      <trkpt lat="48.21166" lon="6.85968">
        <ele>646.92</ele>
        <time>2023-09-21T08:52:12Z</time>
      </trkpt>
      <trkpt lat="48.21165" lon="6.85968">
        <ele>646.95</ele>
        <time>2023-09-21T08:52:13Z</time>
      </trkpt>
      <trkpt lat="48.21164" lon="6.85967">
        <ele>646.74</ele>
        <time>2023-09-21T08:52:14Z</time>
      </trkpt>
      <trkpt lat="48.21148" lon="6.8596">
        <ele>645.09</ele>
        <time>2023-09-21T08:52:26Z</time>
      </trkpt>
      <trkpt lat="48.21124" lon="6.85956">
        <ele>643.99</ele>
        <time>2023-09-21T08:52:45Z</time>
      </trkpt>
      <trkpt lat="48.21102" lon="6.85956">
        <ele>644.03</ele>
        <time>2023-09-21T08:53:04Z</time>
      </trkpt>
      <trkpt lat="48.21097" lon="6.85958">
        <ele>642.18</ele>
        <time>2023-09-21T08:53:08Z</time>
      </trkpt>
      <trkpt lat="48.21076" lon="6.8597">
        <ele>640.36</ele>
        <time>2023-09-21T08:53:26Z</time>
      </trkpt>
      <trkpt lat="48.21054" lon="6.85985">
        <ele>638.93</ele>
        <time>2023-09-21T08:53:44Z</time>
      </trkpt>
      <trkpt lat="48.21053" lon="6.85985">
        <ele>638.98</ele>
        <time>2023-09-21T08:53:45Z</time>
      </trkpt>
      <trkpt lat="48.21051" lon="6.85986">
        <ele>639.78</ele>
        <time>2023-09-21T08:53:46Z</time>
      </trkpt>
      <trkpt lat="48.2105" lon="6.85986">
        <ele>638.88</ele>
        <time>2023-09-21T08:53:47Z</time>
      </trkpt>
      <trkpt lat="48.21049" lon="6.85987">
        <ele>638.87</ele>
        <time>2023-09-21T08:53:48Z</time>
      </trkpt>
      <trkpt lat="48.21047" lon="6.85988">
        <ele>638.7</ele>
        <time>2023-09-21T08:53:49Z</time>
      </trkpt>
      <trkpt lat="48.21046" lon="6.85988">
        <ele>638.73</ele>
        <time>2023-09-21T08:53:50Z</time>
      </trkpt>
      <trkpt lat="48.21019" lon="6.85998">
        <ele>637.11</ele>
        <time>2023-09-21T08:54:09Z</time>
      </trkpt>
      <trkpt lat="48.21005" lon="6.86011">
        <ele>636.07</ele>
        <time>2023-09-21T08:54:21Z</time>
      </trkpt>
      <trkpt lat="48.21004" lon="6.86012">
        <ele>635.29</ele>
        <time>2023-09-21T08:54:22Z</time>
      </trkpt>
      <trkpt lat="48.21003" lon="6.86014">
        <ele>635.21</ele>
        <time>2023-09-21T08:54:23Z</time>
      </trkpt>
      <trkpt lat="48.21002" lon="6.86016">
        <ele>635.62</ele>
        <time>2023-09-21T08:54:24Z</time>
      </trkpt>
      <trkpt lat="48.21001" lon="6.86017">
        <ele>635.16</ele>
        <time>2023-09-21T08:54:25Z</time>
      </trkpt>
      <trkpt lat="48.20999" lon="6.86018">
        <ele>635.02</ele>
        <time>2023-09-21T08:54:26Z</time>
      </trkpt>
      <trkpt lat="48.20998" lon="6.86019">
        <ele>635.14</ele>
        <time>2023-09-21T08:54:27Z</time>
      </trkpt>
      <trkpt lat="48.20997" lon="6.8602">
        <ele>635.19</ele>
        <time>2023-09-21T08:54:28Z</time>
      </trkpt>
      <trkpt lat="48.20996" lon="6.86022">
        <ele>635</ele>
        <time>2023-09-21T08:54:29Z</time>
      </trkpt>
      <trkpt lat="48.20995" lon="6.86023">
        <ele>634.8</ele>
        <time>2023-09-21T08:54:30Z</time>
      </trkpt>
      <trkpt lat="48.20994" lon="6.86024">
        <ele>634.58</ele>
        <time>2023-09-21T08:54:31Z</time>
      </trkpt>
      <trkpt lat="48.20993" lon="6.86025">
        <ele>634.31</ele>
        <time>2023-09-21T08:54:32Z</time>
      </trkpt>
      <trkpt lat="48.20992" lon="6.86027">
        <ele>634.23</ele>
        <time>2023-09-21T08:54:33Z</time>
      </trkpt>
      <trkpt lat="48.20991" lon="6.86028">
        <ele>634.18</ele>
        <time>2023-09-21T08:54:34Z</time>
      </trkpt>
      <trkpt lat="48.20984" lon="6.86039">
        <ele>632.84</ele>
        <time>2023-09-21T08:54:42Z</time>
      </trkpt>
      <trkpt lat="48.20983" lon="6.8604">
        <ele>632.81</ele>
        <time>2023-09-21T08:54:43Z</time>
      </trkpt>
      <trkpt lat="48.20982" lon="6.86042">
        <ele>632.58</ele>
        <time>2023-09-21T08:54:44Z</time>
      </trkpt>
      <trkpt lat="48.20975" lon="6.86051">
        <ele>631.65</ele>
        <time>2023-09-21T08:54:57Z</time>
      </trkpt>
      <trkpt lat="48.20974" lon="6.86054">
        <ele>631.05</ele>
        <time>2023-09-21T08:54:59Z</time>
      </trkpt>
      <trkpt lat="48.20973" lon="6.86055">
        <ele>631.56</ele>
        <time>2023-09-21T08:55:00Z</time>
      </trkpt>
      <trkpt lat="48.20972" lon="6.86057">
        <ele>631.05</ele>
        <time>2023-09-21T08:55:01Z</time>
      </trkpt>
      <trkpt lat="48.20971" lon="6.86058">
        <ele>631.28</ele>
        <time>2023-09-21T08:55:02Z</time>
      </trkpt>
      <trkpt lat="48.20969" lon="6.86059">
        <ele>630.39</ele>
        <time>2023-09-21T08:55:03Z</time>
      </trkpt>
      <trkpt lat="48.20968" lon="6.8606">
        <ele>630.75</ele>
        <time>2023-09-21T08:55:04Z</time>
      </trkpt>
      <trkpt lat="48.20967" lon="6.86061">
        <ele>630.4</ele>
        <time>2023-09-21T08:55:05Z</time>
      </trkpt>
      <trkpt lat="48.2095" lon="6.86082">
        <ele>629.03</ele>
        <time>2023-09-21T08:55:21Z</time>
      </trkpt>
      <trkpt lat="48.20948" lon="6.86085">
        <ele>629.07</ele>
        <time>2023-09-21T08:55:23Z</time>
      </trkpt>
      <trkpt lat="48.20931" lon="6.86112">
        <ele>626.94</ele>
        <time>2023-09-21T08:55:41Z</time>
      </trkpt>
      <trkpt lat="48.20914" lon="6.86137">
        <ele>625.15</ele>
        <time>2023-09-21T08:55:59Z</time>
      </trkpt>
      <trkpt lat="48.20902" lon="6.86155">
        <ele>623.62</ele>
        <time>2023-09-21T08:56:12Z</time>
      </trkpt>
      <trkpt lat="48.209" lon="6.86156">
        <ele>623.56</ele>
        <time>2023-09-21T08:56:13Z</time>
      </trkpt>
      <trkpt lat="48.20899" lon="6.86158">
        <ele>623.68</ele>
        <time>2023-09-21T08:56:14Z</time>
      </trkpt>
      <trkpt lat="48.20898" lon="6.86159">
        <ele>623.69</ele>
        <time>2023-09-21T08:56:15Z</time>
      </trkpt>
      <trkpt lat="48.20897" lon="6.8616">
        <ele>623.68</ele>
        <time>2023-09-21T08:56:16Z</time>
      </trkpt>
      <trkpt lat="48.2088" lon="6.86185">
        <ele>622.61</ele>
        <time>2023-09-21T08:56:33Z</time>
      </trkpt>
      <trkpt lat="48.20863" lon="6.8621">
        <ele>622.56</ele>
        <time>2023-09-21T08:56:51Z</time>
      </trkpt>
      <trkpt lat="48.20862" lon="6.86211">
        <ele>622.73</ele>
        <time>2023-09-21T08:56:52Z</time>
      </trkpt>
      <trkpt lat="48.20861" lon="6.86212">
        <ele>622.46</ele>
        <time>2023-09-21T08:56:53Z</time>
      </trkpt>
      <trkpt lat="48.2086" lon="6.86213">
        <ele>622.51</ele>
        <time>2023-09-21T08:56:54Z</time>
      </trkpt>
      <trkpt lat="48.20859" lon="6.86215">
        <ele>622.45</ele>
        <time>2023-09-21T08:56:55Z</time>
      </trkpt>
      <trkpt lat="48.20858" lon="6.86216">
        <ele>622.51</ele>
        <time>2023-09-21T08:56:56Z</time>
      </trkpt>
      <trkpt lat="48.20857" lon="6.86217">
        <ele>622.41</ele>
        <time>2023-09-21T08:56:57Z</time>
      </trkpt>
      <trkpt lat="48.20856" lon="6.86218">
        <ele>622.97</ele>
        <time>2023-09-21T08:56:58Z</time>
      </trkpt>
      <trkpt lat="48.20855" lon="6.86219">
        <ele>622.56</ele>
        <time>2023-09-21T08:56:59Z</time>
      </trkpt>
      <trkpt lat="48.20837" lon="6.86231">
        <ele>621.31</ele>
        <time>2023-09-21T08:57:14Z</time>
      </trkpt>
      <trkpt lat="48.2082" lon="6.86238">
        <ele>620.24</ele>
        <time>2023-09-21T08:57:29Z</time>
      </trkpt>
      <trkpt lat="48.208" lon="6.8623">
        <ele>619.16</ele>
        <time>2023-09-21T08:57:44Z</time>
      </trkpt>
      <trkpt lat="48.20785" lon="6.86212">
        <ele>617.88</ele>
        <time>2023-09-21T08:57:59Z</time>
      </trkpt>
      <trkpt lat="48.20775" lon="6.86187">
        <ele>617.22</ele>
        <time>2023-09-21T08:58:14Z</time>
      </trkpt>
      <trkpt lat="48.20771" lon="6.86168">
        <ele>616.43</ele>
        <time>2023-09-21T08:58:26Z</time>
      </trkpt>
      <trkpt lat="48.2076" lon="6.86127">
        <ele>614.47</ele>
        <time>2023-09-21T08:58:42Z</time>
      </trkpt>
      <trkpt lat="48.20752" lon="6.8611">
        <ele>612.45</ele>
        <time>2023-09-21T08:58:53Z</time>
      </trkpt>
      <trkpt lat="48.20749" lon="6.86103">
        <ele>611.72</ele>
        <time>2023-09-21T08:58:58Z</time>
      </trkpt>
      <trkpt lat="48.20748" lon="6.86101">
        <ele>611.7</ele>
        <time>2023-09-21T08:58:59Z</time>
      </trkpt>
      <trkpt lat="48.20737" lon="6.86073">
        <ele>610.57</ele>
        <time>2023-09-21T08:59:15Z</time>
      </trkpt>
      <trkpt lat="48.20724" lon="6.86045">
        <ele>608.63</ele>
        <time>2023-09-21T08:59:32Z</time>
      </trkpt>
      <trkpt lat="48.20713" lon="6.86024">
        <ele>606.79</ele>
        <time>2023-09-21T08:59:47Z</time>
      </trkpt>
      <trkpt lat="48.207" lon="6.86003">
        <ele>606.01</ele>
        <time>2023-09-21T09:00:01Z</time>
      </trkpt>
      <trkpt lat="48.20686" lon="6.85974">
        <ele>604.16</ele>
        <time>2023-09-21T09:00:18Z</time>
      </trkpt>
      <trkpt lat="48.20672" lon="6.85954">
        <ele>603.69</ele>
        <time>2023-09-21T09:00:36Z</time>
      </trkpt>
      <trkpt lat="48.20671" lon="6.85949">
        <ele>603.97</ele>
        <time>2023-09-21T09:00:43Z</time>
      </trkpt>
      <trkpt lat="48.20671" lon="6.85948">
        <ele>603.8</ele>
        <time>2023-09-21T09:00:44Z</time>
      </trkpt>
      <trkpt lat="48.2067" lon="6.85947">
        <ele>603.79</ele>
        <time>2023-09-21T09:00:45Z</time>
      </trkpt>
      <trkpt lat="48.20669" lon="6.85945">
        <ele>603.61</ele>
        <time>2023-09-21T09:00:46Z</time>
      </trkpt>
      <trkpt lat="48.20668" lon="6.85944">
        <ele>603.65</ele>
        <time>2023-09-21T09:00:47Z</time>
      </trkpt>
      <trkpt lat="48.20667" lon="6.85943">
        <ele>603.75</ele>
        <time>2023-09-21T09:00:48Z</time>
      </trkpt>
      <trkpt lat="48.20666" lon="6.85941">
        <ele>603.6</ele>
        <time>2023-09-21T09:00:49Z</time>
      </trkpt>
      <trkpt lat="48.20666" lon="6.8594">
        <ele>603.32</ele>
        <time>2023-09-21T09:00:50Z</time>
      </trkpt>
      <trkpt lat="48.20665" lon="6.85939">
        <ele>603.23</ele>
        <time>2023-09-21T09:00:51Z</time>
      </trkpt>
      <trkpt lat="48.20664" lon="6.85937">
        <ele>603.4</ele>
        <time>2023-09-21T09:00:52Z</time>
      </trkpt>
      <trkpt lat="48.20663" lon="6.85936">
        <ele>603.36</ele>
        <time>2023-09-21T09:00:53Z</time>
      </trkpt>
      <trkpt lat="48.20662" lon="6.85931">
        <ele>603.2</ele>
        <time>2023-09-21T09:00:56Z</time>
      </trkpt>
      <trkpt lat="48.20663" lon="6.85919">
        <ele>602.34</ele>
        <time>2023-09-21T09:01:11Z</time>
      </trkpt>
      <trkpt lat="48.20662" lon="6.85917">
        <ele>602.67</ele>
        <time>2023-09-21T09:01:37Z</time>
      </trkpt>
      <trkpt lat="48.20663" lon="6.85922">
        <ele>602.74</ele>
        <time>2023-09-21T09:02:13Z</time>
      </trkpt>
      <trkpt lat="48.20663" lon="6.85927">
        <ele>603.66</ele>
        <time>2023-09-21T09:02:44Z</time>
      </trkpt>
      <trkpt lat="48.20664" lon="6.85925">
        <ele>603.48</ele>
        <time>2023-09-21T09:03:12Z</time>
      </trkpt>
      <trkpt lat="48.20659" lon="6.85925">
        <ele>604.07</ele>
        <time>2023-09-21T09:03:36Z</time>
      </trkpt>
      <trkpt lat="48.20658" lon="6.85924">
        <ele>604.12</ele>
        <time>2023-09-21T09:03:37Z</time>
      </trkpt>
      <trkpt lat="48.20657" lon="6.85923">
        <ele>604.42</ele>
        <time>2023-09-21T09:03:38Z</time>
      </trkpt>
      <trkpt lat="48.20642" lon="6.85902">
        <ele>603.66</ele>
        <time>2023-09-21T09:03:54Z</time>
      </trkpt>
      <trkpt lat="48.20631" lon="6.85883">
        <ele>603.8</ele>
        <time>2023-09-21T09:04:06Z</time>
      </trkpt>
      <trkpt lat="48.20619" lon="6.85865">
        <ele>604.02</ele>
        <time>2023-09-21T09:04:18Z</time>
      </trkpt>
      <trkpt lat="48.2061" lon="6.85845">
        <ele>603.88</ele>
        <time>2023-09-21T09:04:31Z</time>
      </trkpt>
      <trkpt lat="48.20602" lon="6.85824">
        <ele>603.06</ele>
        <time>2023-09-21T09:04:44Z</time>
      </trkpt>
      <trkpt lat="48.20591" lon="6.85791">
        <ele>602.17</ele>
        <time>2023-09-21T09:04:59Z</time>
      </trkpt>
      <trkpt lat="48.20584" lon="6.85767">
        <ele>600.89</ele>
        <time>2023-09-21T09:05:12Z</time>
      </trkpt>
      <trkpt lat="48.20581" lon="6.85759">
        <ele>600.39</ele>
        <time>2023-09-21T09:05:17Z</time>
      </trkpt>
      <trkpt lat="48.20581" lon="6.85757">
        <ele>600.53</ele>
        <time>2023-09-21T09:05:18Z</time>
      </trkpt>
      <trkpt lat="48.2058" lon="6.85755">
        <ele>600.4</ele>
        <time>2023-09-21T09:05:19Z</time>
      </trkpt>
      <trkpt lat="48.20572" lon="6.85731">
        <ele>598.92</ele>
        <time>2023-09-21T09:05:33Z</time>
      </trkpt>
      <trkpt lat="48.20562" lon="6.85706">
        <ele>599.11</ele>
        <time>2023-09-21T09:05:48Z</time>
      </trkpt>
      <trkpt lat="48.20562" lon="6.85704">
        <ele>599.61</ele>
        <time>2023-09-21T09:05:49Z</time>
      </trkpt>
      <trkpt lat="48.20561" lon="6.85701">
        <ele>598.45</ele>
        <time>2023-09-21T09:05:51Z</time>
      </trkpt>
      <trkpt lat="48.2056" lon="6.85699">
        <ele>598.98</ele>
        <time>2023-09-21T09:05:52Z</time>
      </trkpt>
      <trkpt lat="48.20559" lon="6.85698">
        <ele>599.18</ele>
        <time>2023-09-21T09:05:53Z</time>
      </trkpt>
      <trkpt lat="48.20559" lon="6.85696">
        <ele>599.12</ele>
        <time>2023-09-21T09:05:54Z</time>
      </trkpt>
      <trkpt lat="48.20558" lon="6.85694">
        <ele>598.92</ele>
        <time>2023-09-21T09:05:55Z</time>
      </trkpt>
      <trkpt lat="48.20557" lon="6.85693">
        <ele>599.25</ele>
        <time>2023-09-21T09:05:56Z</time>
      </trkpt>
      <trkpt lat="48.20556" lon="6.85691">
        <ele>598.49</ele>
        <time>2023-09-21T09:05:57Z</time>
      </trkpt>
      <trkpt lat="48.20556" lon="6.8569">
        <ele>598.52</ele>
        <time>2023-09-21T09:05:58Z</time>
      </trkpt>
      <trkpt lat="48.20555" lon="6.85688">
        <ele>598.76</ele>
        <time>2023-09-21T09:05:59Z</time>
      </trkpt>
      <trkpt lat="48.20554" lon="6.85687">
        <ele>598.66</ele>
        <time>2023-09-21T09:06:00Z</time>
      </trkpt>
      <trkpt lat="48.20554" lon="6.85685">
        <ele>597.79</ele>
        <time>2023-09-21T09:06:01Z</time>
      </trkpt>
      <trkpt lat="48.20553" lon="6.85683">
        <ele>598.7</ele>
        <time>2023-09-21T09:06:02Z</time>
      </trkpt>
      <trkpt lat="48.20552" lon="6.85682">
        <ele>597.88</ele>
        <time>2023-09-21T09:06:03Z</time>
      </trkpt>
      <trkpt lat="48.20551" lon="6.8568">
        <ele>598.19</ele>
        <time>2023-09-21T09:06:04Z</time>
      </trkpt>
      <trkpt lat="48.20551" lon="6.85678">
        <ele>597.98</ele>
        <time>2023-09-21T09:06:05Z</time>
      </trkpt>
      <trkpt lat="48.2055" lon="6.85677">
        <ele>598.69</ele>
        <time>2023-09-21T09:06:06Z</time>
      </trkpt>
      <trkpt lat="48.20549" lon="6.85675">
        <ele>598.2</ele>
        <time>2023-09-21T09:06:07Z</time>
      </trkpt>
      <trkpt lat="48.20548" lon="6.85673">
        <ele>598.19</ele>
        <time>2023-09-21T09:06:08Z</time>
      </trkpt>
      <trkpt lat="48.20547" lon="6.85671">
        <ele>597.96</ele>
        <time>2023-09-21T09:06:09Z</time>
      </trkpt>
      <trkpt lat="48.20546" lon="6.8567">
        <ele>598.35</ele>
        <time>2023-09-21T09:06:10Z</time>
      </trkpt>
      <trkpt lat="48.20545" lon="6.85668">
        <ele>597.71</ele>
        <time>2023-09-21T09:06:11Z</time>
      </trkpt>
      <trkpt lat="48.20544" lon="6.85667">
        <ele>598.13</ele>
        <time>2023-09-21T09:06:12Z</time>
      </trkpt>
      <trkpt lat="48.20543" lon="6.85665">
        <ele>598.17</ele>
        <time>2023-09-21T09:06:13Z</time>
      </trkpt>
      <trkpt lat="48.20538" lon="6.85656">
        <ele>597.83</ele>
        <time>2023-09-21T09:06:19Z</time>
      </trkpt>
      <trkpt lat="48.20537" lon="6.85654">
        <ele>598.21</ele>
        <time>2023-09-21T09:06:20Z</time>
      </trkpt>
      <trkpt lat="48.20534" lon="6.8565">
        <ele>598.13</ele>
        <time>2023-09-21T09:06:23Z</time>
      </trkpt>
      <trkpt lat="48.20529" lon="6.85642">
        <ele>597.59</ele>
        <time>2023-09-21T09:06:28Z</time>
      </trkpt>
      <trkpt lat="48.20529" lon="6.85641">
        <ele>598.05</ele>
        <time>2023-09-21T09:06:29Z</time>
      </trkpt>
      <trkpt lat="48.20528" lon="6.85639">
        <ele>597.78</ele>
        <time>2023-09-21T09:06:30Z</time>
      </trkpt>
      <trkpt lat="48.20527" lon="6.85638">
        <ele>597.43</ele>
        <time>2023-09-21T09:06:31Z</time>
      </trkpt>
      <trkpt lat="48.20521" lon="6.85628">
        <ele>597.8</ele>
        <time>2023-09-21T09:06:38Z</time>
      </trkpt>
      <trkpt lat="48.20505" lon="6.85608">
        <ele>596.96</ele>
        <time>2023-09-21T09:06:53Z</time>
      </trkpt>
      <trkpt lat="48.20493" lon="6.85593">
        <ele>596.59</ele>
        <time>2023-09-21T09:07:04Z</time>
      </trkpt>
      <trkpt lat="48.20479" lon="6.85578">
        <ele>596.51</ele>
        <time>2023-09-21T09:07:18Z</time>
      </trkpt>
      <trkpt lat="48.20472" lon="6.85571">
        <ele>596.31</ele>
        <time>2023-09-21T09:07:24Z</time>
      </trkpt>
      <trkpt lat="48.20471" lon="6.8557">
        <ele>596.62</ele>
        <time>2023-09-21T09:07:25Z</time>
      </trkpt>
      <trkpt lat="48.20469" lon="6.85569">
        <ele>596.44</ele>
        <time>2023-09-21T09:07:26Z</time>
      </trkpt>
      <trkpt lat="48.20468" lon="6.85568">
        <ele>596.47</ele>
        <time>2023-09-21T09:07:27Z</time>
      </trkpt>
      <trkpt lat="48.20467" lon="6.85567">
        <ele>596.96</ele>
        <time>2023-09-21T09:07:28Z</time>
      </trkpt>
      <trkpt lat="48.20461" lon="6.85564">
        <ele>596.41</ele>
        <time>2023-09-21T09:07:35Z</time>
      </trkpt>
      <trkpt lat="48.2046" lon="6.85564">
        <ele>596.7</ele>
        <time>2023-09-21T09:07:36Z</time>
      </trkpt>
      <trkpt lat="48.20459" lon="6.85564">
        <ele>596.6</ele>
        <time>2023-09-21T09:07:37Z</time>
      </trkpt>
      <trkpt lat="48.20433" lon="6.8555">
        <ele>595.18</ele>
        <time>2023-09-21T09:07:56Z</time>
      </trkpt>
      <trkpt lat="48.2041" lon="6.85546">
        <ele>595.68</ele>
        <time>2023-09-21T09:08:13Z</time>
      </trkpt>
      <trkpt lat="48.20397" lon="6.85543">
        <ele>595.25</ele>
        <time>2023-09-21T09:08:23Z</time>
      </trkpt>
      <trkpt lat="48.20396" lon="6.85543">
        <ele>595.34</ele>
        <time>2023-09-21T09:08:24Z</time>
      </trkpt>
      <trkpt lat="48.20394" lon="6.85542">
        <ele>595.28</ele>
        <time>2023-09-21T09:08:25Z</time>
      </trkpt>
      <trkpt lat="48.20388" lon="6.85543">
        <ele>594.65</ele>
        <time>2023-09-21T09:08:31Z</time>
      </trkpt>
      <trkpt lat="48.20384" lon="6.85544">
        <ele>594.47</ele>
        <time>2023-09-21T09:08:34Z</time>
      </trkpt>
      <trkpt lat="48.20382" lon="6.85544">
        <ele>594.5</ele>
        <time>2023-09-21T09:08:35Z</time>
      </trkpt>
      <trkpt lat="48.20381" lon="6.85544">
        <ele>594.37</ele>
        <time>2023-09-21T09:08:36Z</time>
      </trkpt>
      <trkpt lat="48.20379" lon="6.85544">
        <ele>594.49</ele>
        <time>2023-09-21T09:08:37Z</time>
      </trkpt>
      <trkpt lat="48.20378" lon="6.85545">
        <ele>593.78</ele>
        <time>2023-09-21T09:08:38Z</time>
      </trkpt>
      <trkpt lat="48.20377" lon="6.85545">
        <ele>593.53</ele>
        <time>2023-09-21T09:08:39Z</time>
      </trkpt>
      <trkpt lat="48.20375" lon="6.85545">
        <ele>594.23</ele>
        <time>2023-09-21T09:08:41Z</time>
      </trkpt>
      <trkpt lat="48.20373" lon="6.85545">
        <ele>594.19</ele>
        <time>2023-09-21T09:08:42Z</time>
      </trkpt>
      <trkpt lat="48.20372" lon="6.85545">
        <ele>593.91</ele>
        <time>2023-09-21T09:08:43Z</time>
      </trkpt>
      <trkpt lat="48.20351" lon="6.85547">
        <ele>593.36</ele>
        <time>2023-09-21T09:08:58Z</time>
      </trkpt>
      <trkpt lat="48.20334" lon="6.85554">
        <ele>592.69</ele>
        <time>2023-09-21T09:09:11Z</time>
      </trkpt>
      <trkpt lat="48.20333" lon="6.85555">
        <ele>592.88</ele>
        <time>2023-09-21T09:09:12Z</time>
      </trkpt>
      <trkpt lat="48.20326" lon="6.85558">
        <ele>592.88</ele>
        <time>2023-09-21T09:09:18Z</time>
      </trkpt>
      <trkpt lat="48.20325" lon="6.85559">
        <ele>592.83</ele>
        <time>2023-09-21T09:09:19Z</time>
      </trkpt>
      <trkpt lat="48.20305" lon="6.85571">
        <ele>592.02</ele>
        <time>2023-09-21T09:09:35Z</time>
      </trkpt>
      <trkpt lat="48.20293" lon="6.85584">
        <ele>592.22</ele>
        <time>2023-09-21T09:09:45Z</time>
      </trkpt>
      <trkpt lat="48.20291" lon="6.85585">
        <ele>592.18</ele>
        <time>2023-09-21T09:09:46Z</time>
      </trkpt>
      <trkpt lat="48.2029" lon="6.85586">
        <ele>592.13</ele>
        <time>2023-09-21T09:09:47Z</time>
      </trkpt>
      <trkpt lat="48.20272" lon="6.85605">
        <ele>591.34</ele>
        <time>2023-09-21T09:10:03Z</time>
      </trkpt>
      <trkpt lat="48.20269" lon="6.85609">
        <ele>591</ele>
        <time>2023-09-21T09:10:07Z</time>
      </trkpt>
      <trkpt lat="48.20268" lon="6.8561">
        <ele>590.79</ele>
        <time>2023-09-21T09:10:08Z</time>
      </trkpt>
      <trkpt lat="48.20266" lon="6.85612">
        <ele>590.42</ele>
        <time>2023-09-21T09:10:09Z</time>
      </trkpt>
      <trkpt lat="48.20265" lon="6.85613">
        <ele>590.55</ele>
        <time>2023-09-21T09:10:10Z</time>
      </trkpt>
      <trkpt lat="48.20264" lon="6.85614">
        <ele>589.78</ele>
        <time>2023-09-21T09:10:11Z</time>
      </trkpt>
      <trkpt lat="48.20264" lon="6.85616">
        <ele>590.33</ele>
        <time>2023-09-21T09:10:12Z</time>
      </trkpt>
      <trkpt lat="48.20263" lon="6.85617">
        <ele>590.39</ele>
        <time>2023-09-21T09:10:13Z</time>
      </trkpt>
      <trkpt lat="48.20262" lon="6.85619">
        <ele>590.24</ele>
        <time>2023-09-21T09:10:14Z</time>
      </trkpt>
      <trkpt lat="48.2026" lon="6.8562">
        <ele>590.45</ele>
        <time>2023-09-21T09:10:15Z</time>
      </trkpt>
      <trkpt lat="48.20259" lon="6.85621">
        <ele>589.86</ele>
        <time>2023-09-21T09:10:16Z</time>
      </trkpt>
      <trkpt lat="48.20253" lon="6.85629">
        <ele>588.83</ele>
        <time>2023-09-21T09:10:22Z</time>
      </trkpt>
      <trkpt lat="48.20253" lon="6.85631">
        <ele>589.48</ele>
        <time>2023-09-21T09:10:23Z</time>
      </trkpt>
      <trkpt lat="48.20252" lon="6.85632">
        <ele>589.36</ele>
        <time>2023-09-21T09:10:24Z</time>
      </trkpt>
      <trkpt lat="48.2025" lon="6.85635">
        <ele>589.48</ele>
        <time>2023-09-21T09:10:26Z</time>
      </trkpt>
      <trkpt lat="48.20249" lon="6.85637">
        <ele>588.95</ele>
        <time>2023-09-21T09:10:27Z</time>
      </trkpt>
      <trkpt lat="48.20248" lon="6.85639">
        <ele>589.1</ele>
        <time>2023-09-21T09:10:28Z</time>
      </trkpt>
      <trkpt lat="48.20247" lon="6.8564">
        <ele>588.76</ele>
        <time>2023-09-21T09:10:29Z</time>
      </trkpt>
      <trkpt lat="48.20246" lon="6.85642">
        <ele>588.75</ele>
        <time>2023-09-21T09:10:30Z</time>
      </trkpt>
      <trkpt lat="48.20238" lon="6.8565">
        <ele>588.59</ele>
        <time>2023-09-21T09:10:44Z</time>
      </trkpt>
      <trkpt lat="48.20237" lon="6.85651">
        <ele>588.32</ele>
        <time>2023-09-21T09:10:45Z</time>
      </trkpt>
      <trkpt lat="48.20236" lon="6.85653">
        <ele>588.46</ele>
        <time>2023-09-21T09:10:46Z</time>
      </trkpt>
      <trkpt lat="48.20235" lon="6.85655">
        <ele>588.56</ele>
        <time>2023-09-21T09:10:47Z</time>
      </trkpt>
      <trkpt lat="48.20234" lon="6.85656">
        <ele>588.51</ele>
        <time>2023-09-21T09:10:48Z</time>
      </trkpt>
      <trkpt lat="48.20234" lon="6.85658">
        <ele>588.49</ele>
        <time>2023-09-21T09:10:49Z</time>
      </trkpt>
      <trkpt lat="48.2023" lon="6.85672">
        <ele>588.24</ele>
        <time>2023-09-21T09:11:01Z</time>
      </trkpt>
      <trkpt lat="48.20231" lon="6.8568">
        <ele>587.98</ele>
        <time>2023-09-21T09:11:09Z</time>
      </trkpt>
      <trkpt lat="48.20231" lon="6.85682">
        <ele>587.97</ele>
        <time>2023-09-21T09:11:10Z</time>
      </trkpt>
      <trkpt lat="48.20231" lon="6.85688">
        <ele>587.29</ele>
        <time>2023-09-21T09:11:13Z</time>
      </trkpt>
      <trkpt lat="48.20232" lon="6.85691">
        <ele>587.32</ele>
        <time>2023-09-21T09:11:14Z</time>
      </trkpt>
      <trkpt lat="48.20232" lon="6.85694">
        <ele>587.64</ele>
        <time>2023-09-21T09:11:16Z</time>
      </trkpt>
      <trkpt lat="48.20231" lon="6.85701">
        <ele>587.19</ele>
        <time>2023-09-21T09:11:26Z</time>
      </trkpt>
      <trkpt lat="48.20227" lon="6.85703">
        <ele>588.02</ele>
        <time>2023-09-21T09:11:34Z</time>
      </trkpt>
      <trkpt lat="48.20224" lon="6.85713">
        <ele>587.96</ele>
        <time>2023-09-21T09:11:49Z</time>
      </trkpt>
      <trkpt lat="48.20222" lon="6.85721">
        <ele>587.57</ele>
        <time>2023-09-21T09:11:56Z</time>
      </trkpt>
      <trkpt lat="48.2022" lon="6.85738">
        <ele>588.22</ele>
        <time>2023-09-21T09:12:06Z</time>
      </trkpt>
      <trkpt lat="48.20213" lon="6.85761">
        <ele>588.42</ele>
        <time>2023-09-21T09:12:19Z</time>
      </trkpt>
      <trkpt lat="48.20213" lon="6.85764">
        <ele>587.48</ele>
        <time>2023-09-21T09:12:21Z</time>
      </trkpt>
      <trkpt lat="48.20212" lon="6.85766">
        <ele>588.29</ele>
        <time>2023-09-21T09:12:22Z</time>
      </trkpt>
      <trkpt lat="48.20212" lon="6.85767">
        <ele>587.31</ele>
        <time>2023-09-21T09:12:23Z</time>
      </trkpt>
      <trkpt lat="48.20212" lon="6.85771">
        <ele>587.31</ele>
        <time>2023-09-21T09:12:25Z</time>
      </trkpt>
      <trkpt lat="48.20211" lon="6.85773">
        <ele>587.49</ele>
        <time>2023-09-21T09:12:26Z</time>
      </trkpt>
      <trkpt lat="48.20208" lon="6.85789">
        <ele>588.3</ele>
        <time>2023-09-21T09:12:34Z</time>
      </trkpt>
      <trkpt lat="48.20204" lon="6.85805">
        <ele>588.31</ele>
        <time>2023-09-21T09:12:41Z</time>
      </trkpt>
      <trkpt lat="48.20203" lon="6.85806">
        <ele>588.01</ele>
        <time>2023-09-21T09:12:42Z</time>
      </trkpt>
      <trkpt lat="48.20203" lon="6.85809">
        <ele>587.8</ele>
        <time>2023-09-21T09:12:43Z</time>
      </trkpt>
      <trkpt lat="48.20202" lon="6.8581">
        <ele>586.91</ele>
        <time>2023-09-21T09:12:44Z</time>
      </trkpt>
      <trkpt lat="48.20201" lon="6.85812">
        <ele>587.59</ele>
        <time>2023-09-21T09:12:45Z</time>
      </trkpt>
      <trkpt lat="48.202" lon="6.85819">
        <ele>587.56</ele>
        <time>2023-09-21T09:13:12Z</time>
      </trkpt>
      <trkpt lat="48.20195" lon="6.85844">
        <ele>588.13</ele>
        <time>2023-09-21T09:13:26Z</time>
      </trkpt>
      <trkpt lat="48.20195" lon="6.85846">
        <ele>588.08</ele>
        <time>2023-09-21T09:13:27Z</time>
      </trkpt>
      <trkpt lat="48.20193" lon="6.85879">
        <ele>586.83</ele>
        <time>2023-09-21T09:13:46Z</time>
      </trkpt>
      <trkpt lat="48.20196" lon="6.859">
        <ele>586.17</ele>
        <time>2023-09-21T09:14:00Z</time>
      </trkpt>
      <trkpt lat="48.20196" lon="6.85919">
        <ele>585.79</ele>
        <time>2023-09-21T09:14:14Z</time>
      </trkpt>
      <trkpt lat="48.20202" lon="6.85951">
        <ele>584.57</ele>
        <time>2023-09-21T09:14:32Z</time>
      </trkpt>
      <trkpt lat="48.20207" lon="6.85974">
        <ele>584.58</ele>
        <time>2023-09-21T09:14:47Z</time>
      </trkpt>
      <trkpt lat="48.20211" lon="6.85993">
        <ele>583.62</ele>
        <time>2023-09-21T09:14:57Z</time>
      </trkpt>
      <trkpt lat="48.20212" lon="6.85995">
        <ele>583.57</ele>
        <time>2023-09-21T09:14:58Z</time>
      </trkpt>
      <trkpt lat="48.20218" lon="6.86013">
        <ele>582.45</ele>
        <time>2023-09-21T09:15:11Z</time>
      </trkpt>
      <trkpt lat="48.20227" lon="6.86045">
        <ele>582.14</ele>
        <time>2023-09-21T09:15:30Z</time>
      </trkpt>
      <trkpt lat="48.20234" lon="6.86061">
        <ele>581.84</ele>
        <time>2023-09-21T09:15:43Z</time>
      </trkpt>
      <trkpt lat="48.20236" lon="6.86065">
        <ele>581.43</ele>
        <time>2023-09-21T09:15:47Z</time>
      </trkpt>
      <trkpt lat="48.20237" lon="6.86067">
        <ele>581.63</ele>
        <time>2023-09-21T09:15:48Z</time>
      </trkpt>
      <trkpt lat="48.20237" lon="6.86068">
        <ele>581.72</ele>
        <time>2023-09-21T09:15:49Z</time>
      </trkpt>
      <trkpt lat="48.20241" lon="6.86093">
        <ele>580.5</ele>
        <time>2023-09-21T09:16:02Z</time>
      </trkpt>
      <trkpt lat="48.20242" lon="6.86095">
        <ele>580.89</ele>
        <time>2023-09-21T09:16:03Z</time>
      </trkpt>
      <trkpt lat="48.20239" lon="6.86124">
        <ele>578.42</ele>
        <time>2023-09-21T09:16:17Z</time>
      </trkpt>
      <trkpt lat="48.20231" lon="6.86161">
        <ele>576.8</ele>
        <time>2023-09-21T09:16:32Z</time>
      </trkpt>
      <trkpt lat="48.20213" lon="6.86216">
        <ele>575.31</ele>
        <time>2023-09-21T09:16:50Z</time>
      </trkpt>
      <trkpt lat="48.2021" lon="6.8622">
        <ele>574.65</ele>
        <time>2023-09-21T09:16:53Z</time>
      </trkpt>
      <trkpt lat="48.20208" lon="6.8622">
        <ele>574.88</ele>
        <time>2023-09-21T09:16:54Z</time>
      </trkpt>
      <trkpt lat="48.20207" lon="6.8622">
        <ele>575.04</ele>
        <time>2023-09-21T09:16:55Z</time>
      </trkpt>
      <trkpt lat="48.20189" lon="6.86232">
        <ele>574.01</ele>
        <time>2023-09-21T09:17:12Z</time>
      </trkpt>
      <trkpt lat="48.20188" lon="6.86232">
        <ele>573.91</ele>
        <time>2023-09-21T09:17:13Z</time>
      </trkpt>
      <trkpt lat="48.20187" lon="6.86232">
        <ele>573.88</ele>
        <time>2023-09-21T09:17:14Z</time>
      </trkpt>
      <trkpt lat="48.20185" lon="6.86232">
        <ele>573.39</ele>
        <time>2023-09-21T09:17:15Z</time>
      </trkpt>
      <trkpt lat="48.20184" lon="6.86232">
        <ele>573.3</ele>
        <time>2023-09-21T09:17:16Z</time>
      </trkpt>
      <trkpt lat="48.20182" lon="6.86232">
        <ele>573.12</ele>
        <time>2023-09-21T09:17:17Z</time>
      </trkpt>
      <trkpt lat="48.20181" lon="6.86233">
        <ele>572.93</ele>
        <time>2023-09-21T09:17:18Z</time>
      </trkpt>
      <trkpt lat="48.20179" lon="6.86234">
        <ele>572.5</ele>
        <time>2023-09-21T09:17:19Z</time>
      </trkpt>
      <trkpt lat="48.20154" lon="6.86241">
        <ele>569.99</ele>
        <time>2023-09-21T09:17:38Z</time>
      </trkpt>
      <trkpt lat="48.2015" lon="6.86242">
        <ele>569.73</ele>
        <time>2023-09-21T09:17:41Z</time>
      </trkpt>
      <trkpt lat="48.20148" lon="6.86243">
        <ele>569.36</ele>
        <time>2023-09-21T09:17:42Z</time>
      </trkpt>
      <trkpt lat="48.20147" lon="6.86243">
        <ele>569.55</ele>
        <time>2023-09-21T09:17:43Z</time>
      </trkpt>
      <trkpt lat="48.20146" lon="6.86243">
        <ele>569.58</ele>
        <time>2023-09-21T09:17:44Z</time>
      </trkpt>
      <trkpt lat="48.20145" lon="6.86244">
        <ele>569.51</ele>
        <time>2023-09-21T09:17:45Z</time>
      </trkpt>
      <trkpt lat="48.20144" lon="6.86245">
        <ele>569.33</ele>
        <time>2023-09-21T09:17:46Z</time>
      </trkpt>
      <trkpt lat="48.20142" lon="6.86245">
        <ele>569.26</ele>
        <time>2023-09-21T09:17:47Z</time>
      </trkpt>
      <trkpt lat="48.20141" lon="6.86246">
        <ele>569.32</ele>
        <time>2023-09-21T09:17:48Z</time>
      </trkpt>
      <trkpt lat="48.2014" lon="6.86247">
        <ele>569.46</ele>
        <time>2023-09-21T09:17:49Z</time>
      </trkpt>
      <trkpt lat="48.20125" lon="6.86253">
        <ele>567.89</ele>
        <time>2023-09-21T09:18:00Z</time>
      </trkpt>
      <trkpt lat="48.20124" lon="6.86253">
        <ele>567.79</ele>
        <time>2023-09-21T09:18:01Z</time>
      </trkpt>
      <trkpt lat="48.20122" lon="6.86253">
        <ele>567.75</ele>
        <time>2023-09-21T09:18:02Z</time>
      </trkpt>
      <trkpt lat="48.20102" lon="6.86259">
        <ele>566.27</ele>
        <time>2023-09-21T09:18:18Z</time>
      </trkpt>
      <trkpt lat="48.20078" lon="6.86271">
        <ele>565.37</ele>
        <time>2023-09-21T09:18:36Z</time>
      </trkpt>
      <trkpt lat="48.20053" lon="6.86295">
        <ele>564.16</ele>
        <time>2023-09-21T09:18:58Z</time>
      </trkpt>
      <trkpt lat="48.20051" lon="6.863">
        <ele>563.59</ele>
        <time>2023-09-21T09:19:01Z</time>
      </trkpt>
      <trkpt lat="48.2005" lon="6.86302">
        <ele>564.24</ele>
        <time>2023-09-21T09:19:02Z</time>
      </trkpt>
      <trkpt lat="48.20049" lon="6.86303">
        <ele>563.47</ele>
        <time>2023-09-21T09:19:03Z</time>
      </trkpt>
      <trkpt lat="48.20049" lon="6.86305">
        <ele>564.01</ele>
        <time>2023-09-21T09:19:04Z</time>
      </trkpt>
      <trkpt lat="48.20048" lon="6.86306">
        <ele>563.53</ele>
        <time>2023-09-21T09:19:05Z</time>
      </trkpt>
      <trkpt lat="48.20047" lon="6.86308">
        <ele>563.46</ele>
        <time>2023-09-21T09:19:06Z</time>
      </trkpt>
      <trkpt lat="48.20046" lon="6.86309">
        <ele>563.56</ele>
        <time>2023-09-21T09:19:07Z</time>
      </trkpt>
      <trkpt lat="48.20045" lon="6.86311">
        <ele>563.54</ele>
        <time>2023-09-21T09:19:08Z</time>
      </trkpt>
      <trkpt lat="48.20044" lon="6.86312">
        <ele>562.91</ele>
        <time>2023-09-21T09:19:09Z</time>
      </trkpt>
      <trkpt lat="48.20044" lon="6.86313">
        <ele>563.08</ele>
        <time>2023-09-21T09:19:10Z</time>
      </trkpt>
      <trkpt lat="48.20031" lon="6.86333">
        <ele>563.05</ele>
        <time>2023-09-21T09:19:24Z</time>
      </trkpt>
      <trkpt lat="48.20023" lon="6.86346">
        <ele>562.67</ele>
        <time>2023-09-21T09:19:33Z</time>
      </trkpt>
      <trkpt lat="48.20022" lon="6.86347">
        <ele>562.58</ele>
        <time>2023-09-21T09:19:34Z</time>
      </trkpt>
      <trkpt lat="48.20022" lon="6.86349">
        <ele>562.14</ele>
        <time>2023-09-21T09:19:35Z</time>
      </trkpt>
      <trkpt lat="48.20021" lon="6.86351">
        <ele>561.73</ele>
        <time>2023-09-21T09:19:36Z</time>
      </trkpt>
      <trkpt lat="48.2002" lon="6.86352">
        <ele>562.35</ele>
        <time>2023-09-21T09:19:37Z</time>
      </trkpt>
      <trkpt lat="48.20011" lon="6.86377">
        <ele>561.59</ele>
        <time>2023-09-21T09:19:52Z</time>
      </trkpt>
      <trkpt lat="48.2001" lon="6.86379">
        <ele>561.84</ele>
        <time>2023-09-21T09:19:53Z</time>
      </trkpt>
      <trkpt lat="48.2001" lon="6.86381">
        <ele>561.63</ele>
        <time>2023-09-21T09:19:54Z</time>
      </trkpt>
      <trkpt lat="48.20009" lon="6.86382">
        <ele>561.6</ele>
        <time>2023-09-21T09:19:55Z</time>
      </trkpt>
      <trkpt lat="48.20009" lon="6.86384">
        <ele>561.37</ele>
        <time>2023-09-21T09:19:56Z</time>
      </trkpt>
      <trkpt lat="48.20008" lon="6.86385">
        <ele>561.39</ele>
        <time>2023-09-21T09:19:57Z</time>
      </trkpt>
      <trkpt lat="48.20005" lon="6.86389">
        <ele>560.74</ele>
        <time>2023-09-21T09:20:00Z</time>
      </trkpt>
      <trkpt lat="48.20005" lon="6.86391">
        <ele>560.8</ele>
        <time>2023-09-21T09:20:01Z</time>
      </trkpt>
      <trkpt lat="48.19999" lon="6.86414">
        <ele>559.09</ele>
        <time>2023-09-21T09:20:14Z</time>
      </trkpt>
      <trkpt lat="48.19999" lon="6.86416">
        <ele>558.73</ele>
        <time>2023-09-21T09:20:15Z</time>
      </trkpt>
      <trkpt lat="48.19999" lon="6.86417">
        <ele>559.37</ele>
        <time>2023-09-21T09:20:16Z</time>
      </trkpt>
      <trkpt lat="48.19999" lon="6.86438">
        <ele>557.89</ele>
        <time>2023-09-21T09:20:31Z</time>
      </trkpt>
      <trkpt lat="48.19999" lon="6.8644">
        <ele>557.8</ele>
        <time>2023-09-21T09:20:32Z</time>
      </trkpt>
      <trkpt lat="48.19999" lon="6.86442">
        <ele>557.23</ele>
        <time>2023-09-21T09:20:33Z</time>
      </trkpt>
      <trkpt lat="48.19999" lon="6.86444">
        <ele>557.47</ele>
        <time>2023-09-21T09:20:34Z</time>
      </trkpt>
      <trkpt lat="48.2" lon="6.86447">
        <ele>557.58</ele>
        <time>2023-09-21T09:20:35Z</time>
      </trkpt>
      <trkpt lat="48.2" lon="6.86449">
        <ele>557.51</ele>
        <time>2023-09-21T09:20:36Z</time>
      </trkpt>
      <trkpt lat="48.2" lon="6.86452">
        <ele>557.53</ele>
        <time>2023-09-21T09:20:37Z</time>
      </trkpt>
      <trkpt lat="48.2" lon="6.86454">
        <ele>557.66</ele>
        <time>2023-09-21T09:20:38Z</time>
      </trkpt>
      <trkpt lat="48.2" lon="6.86456">
        <ele>557.61</ele>
        <time>2023-09-21T09:20:39Z</time>
      </trkpt>
      <trkpt lat="48.2" lon="6.86458">
        <ele>557.87</ele>
        <time>2023-09-21T09:20:40Z</time>
      </trkpt>
      <trkpt lat="48.20001" lon="6.86476">
        <ele>556.89</ele>
        <time>2023-09-21T09:20:52Z</time>
      </trkpt>
      <trkpt lat="48.20001" lon="6.86497">
        <ele>555.13</ele>
        <time>2023-09-21T09:21:07Z</time>
      </trkpt>
      <trkpt lat="48.20005" lon="6.86517">
        <ele>554.31</ele>
        <time>2023-09-21T09:21:21Z</time>
      </trkpt>
      <trkpt lat="48.20006" lon="6.86538">
        <ele>552.55</ele>
        <time>2023-09-21T09:21:37Z</time>
      </trkpt>
      <trkpt lat="48.20006" lon="6.86561">
        <ele>551.27</ele>
        <time>2023-09-21T09:21:54Z</time>
      </trkpt>
      <trkpt lat="48.2001" lon="6.86564">
        <ele>550.86</ele>
        <time>2023-09-21T09:22:13Z</time>
      </trkpt>
      <trkpt lat="48.20002" lon="6.86588">
        <ele>550.5</ele>
        <time>2023-09-21T09:22:58Z</time>
      </trkpt>
      <trkpt lat="48.20001" lon="6.86593">
        <ele>550.73</ele>
        <time>2023-09-21T09:23:05Z</time>
      </trkpt>
      <trkpt lat="48.20001" lon="6.86595">
        <ele>550.59</ele>
        <time>2023-09-21T09:23:06Z</time>
      </trkpt>
      <trkpt lat="48.20001" lon="6.86596">
        <ele>550.45</ele>
        <time>2023-09-21T09:23:07Z</time>
      </trkpt>
      <trkpt lat="48.2" lon="6.86598">
        <ele>550.25</ele>
        <time>2023-09-21T09:23:08Z</time>
      </trkpt>
      <trkpt lat="48.2" lon="6.866">
        <ele>550.15</ele>
        <time>2023-09-21T09:23:09Z</time>
      </trkpt>
      <trkpt lat="48.20003" lon="6.86625">
        <ele>547.7</ele>
        <time>2023-09-21T09:23:27Z</time>
      </trkpt>
      <trkpt lat="48.20008" lon="6.86648">
        <ele>546.74</ele>
        <time>2023-09-21T09:23:42Z</time>
      </trkpt>
      <trkpt lat="48.20018" lon="6.8667">
        <ele>547.15</ele>
        <time>2023-09-21T09:23:57Z</time>
      </trkpt>
      <trkpt lat="48.20025" lon="6.86696">
        <ele>546.32</ele>
        <time>2023-09-21T09:24:11Z</time>
      </trkpt>
      <trkpt lat="48.20026" lon="6.86698">
        <ele>546.35</ele>
        <time>2023-09-21T09:24:12Z</time>
      </trkpt>
      <trkpt lat="48.20027" lon="6.86699">
        <ele>546.76</ele>
        <time>2023-09-21T09:24:13Z</time>
      </trkpt>
      <trkpt lat="48.2003" lon="6.86708">
        <ele>545.76</ele>
        <time>2023-09-21T09:24:19Z</time>
      </trkpt>
      <trkpt lat="48.20031" lon="6.86709">
        <ele>545.77</ele>
        <time>2023-09-21T09:24:20Z</time>
      </trkpt>
      <trkpt lat="48.20038" lon="6.86736">
        <ele>544.72</ele>
        <time>2023-09-21T09:24:37Z</time>
      </trkpt>
      <trkpt lat="48.20045" lon="6.86754">
        <ele>544.15</ele>
        <time>2023-09-21T09:24:50Z</time>
      </trkpt>
      <trkpt lat="48.20046" lon="6.86755">
        <ele>544.04</ele>
        <time>2023-09-21T09:24:51Z</time>
      </trkpt>
      <trkpt lat="48.20046" lon="6.86757">
        <ele>543.94</ele>
        <time>2023-09-21T09:24:52Z</time>
      </trkpt>
      <trkpt lat="48.20047" lon="6.86759">
        <ele>543.77</ele>
        <time>2023-09-21T09:24:53Z</time>
      </trkpt>
      <trkpt lat="48.20048" lon="6.86762">
        <ele>543.27</ele>
        <time>2023-09-21T09:24:54Z</time>
      </trkpt>
      <trkpt lat="48.20049" lon="6.86764">
        <ele>543.07</ele>
        <time>2023-09-21T09:24:55Z</time>
      </trkpt>
      <trkpt lat="48.20049" lon="6.86766">
        <ele>543.55</ele>
        <time>2023-09-21T09:24:56Z</time>
      </trkpt>
      <trkpt lat="48.20055" lon="6.86787">
        <ele>542.03</ele>
        <time>2023-09-21T09:25:05Z</time>
      </trkpt>
      <trkpt lat="48.20056" lon="6.868">
        <ele>541.53</ele>
        <time>2023-09-21T09:25:11Z</time>
      </trkpt>
      <trkpt lat="48.20056" lon="6.86804">
        <ele>541.58</ele>
        <time>2023-09-21T09:25:13Z</time>
      </trkpt>
      <trkpt lat="48.20057" lon="6.86808">
        <ele>541.21</ele>
        <time>2023-09-21T09:25:16Z</time>
      </trkpt>
      <trkpt lat="48.20057" lon="6.86813">
        <ele>540.88</ele>
        <time>2023-09-21T09:25:19Z</time>
      </trkpt>
      <trkpt lat="48.20059" lon="6.86816">
        <ele>540.37</ele>
        <time>2023-09-21T09:25:22Z</time>
      </trkpt>
      <trkpt lat="48.20062" lon="6.86833">
        <ele>539.61</ele>
        <time>2023-09-21T09:25:30Z</time>
      </trkpt>
      <trkpt lat="48.20065" lon="6.86857">
        <ele>538.02</ele>
        <time>2023-09-21T09:25:45Z</time>
      </trkpt>
      <trkpt lat="48.20072" lon="6.86879">
        <ele>535.84</ele>
        <time>2023-09-21T09:26:01Z</time>
      </trkpt>
      <trkpt lat="48.20072" lon="6.8688">
        <ele>535.78</ele>
        <time>2023-09-21T09:26:02Z</time>
      </trkpt>
      <trkpt lat="48.20073" lon="6.86884">
        <ele>535.99</ele>
        <time>2023-09-21T09:26:04Z</time>
      </trkpt>
      <trkpt lat="48.20072" lon="6.86889">
        <ele>535.09</ele>
        <time>2023-09-21T09:26:07Z</time>
      </trkpt>
      <trkpt lat="48.20074" lon="6.869">
        <ele>534.06</ele>
        <time>2023-09-21T09:26:15Z</time>
      </trkpt>
      <trkpt lat="48.20059" lon="6.86976">
        <ele>532.63</ele>
        <time>2023-09-21T09:26:31Z</time>
      </trkpt>
      <trkpt lat="48.20053" lon="6.87009">
        <ele>531.08</ele>
        <time>2023-09-21T09:26:45Z</time>
      </trkpt>
      <trkpt lat="48.20054" lon="6.87023">
        <ele>529.83</ele>
        <time>2023-09-21T09:27:05Z</time>
      </trkpt>
      <trkpt lat="48.20056" lon="6.87035">
        <ele>532.94</ele>
        <time>2023-09-21T09:27:16Z</time>
      </trkpt>
      <trkpt lat="48.20056" lon="6.87037">
        <ele>532.66</ele>
        <time>2023-09-21T09:27:17Z</time>
      </trkpt>
      <trkpt lat="48.20064" lon="6.87062">
        <ele>534.34</ele>
        <time>2023-09-21T09:27:33Z</time>
      </trkpt>
      <trkpt lat="48.20067" lon="6.87071">
        <ele>533.56</ele>
        <time>2023-09-21T09:27:48Z</time>
      </trkpt>
      <trkpt lat="48.20071" lon="6.87082">
        <ele>534.23</ele>
        <time>2023-09-21T09:28:00Z</time>
      </trkpt>
      <trkpt lat="48.20076" lon="6.87103">
        <ele>533.58</ele>
        <time>2023-09-21T09:28:12Z</time>
      </trkpt>
      <trkpt lat="48.20084" lon="6.87122">
        <ele>533.04</ele>
        <time>2023-09-21T09:28:26Z</time>
      </trkpt>
      <trkpt lat="48.20091" lon="6.8713">
        <ele>534.01</ele>
        <time>2023-09-21T09:28:55Z</time>
      </trkpt>
      <trkpt lat="48.20097" lon="6.87147">
        <ele>533.29</ele>
        <time>2023-09-21T09:29:26Z</time>
      </trkpt>
      <trkpt lat="48.20097" lon="6.87156">
        <ele>533.58</ele>
        <time>2023-09-21T09:29:31Z</time>
      </trkpt>
      <trkpt lat="48.20099" lon="6.87168">
        <ele>534.1</ele>
        <time>2023-09-21T09:29:38Z</time>
      </trkpt>
      <trkpt lat="48.20102" lon="6.87193">
        <ele>534.25</ele>
        <time>2023-09-21T09:29:53Z</time>
      </trkpt>
      <trkpt lat="48.20104" lon="6.87219">
        <ele>533.32</ele>
        <time>2023-09-21T09:30:07Z</time>
      </trkpt>
      <trkpt lat="48.20108" lon="6.87245">
        <ele>534.08</ele>
        <time>2023-09-21T09:30:19Z</time>
      </trkpt>
      <trkpt lat="48.20112" lon="6.87271">
        <ele>534.47</ele>
        <time>2023-09-21T09:30:34Z</time>
      </trkpt>
      <trkpt lat="48.20116" lon="6.87287">
        <ele>534.64</ele>
        <time>2023-09-21T09:30:41Z</time>
      </trkpt>
      <trkpt lat="48.20119" lon="6.87301">
        <ele>533.79</ele>
        <time>2023-09-21T09:30:49Z</time>
      </trkpt>
      <trkpt lat="48.20125" lon="6.87327">
        <ele>534.9</ele>
        <time>2023-09-21T09:31:03Z</time>
      </trkpt>
      <trkpt lat="48.20135" lon="6.87356">
        <ele>534.99</ele>
        <time>2023-09-21T09:31:20Z</time>
      </trkpt>
      <trkpt lat="48.20142" lon="6.87382">
        <ele>534.84</ele>
        <time>2023-09-21T09:31:36Z</time>
      </trkpt>
      <trkpt lat="48.20154" lon="6.87409">
        <ele>535.17</ele>
        <time>2023-09-21T09:31:52Z</time>
      </trkpt>
      <trkpt lat="48.20163" lon="6.87442">
        <ele>534.73</ele>
        <time>2023-09-21T09:32:11Z</time>
      </trkpt>
      <trkpt lat="48.20166" lon="6.87443">
        <ele>534.14</ele>
        <time>2023-09-21T09:32:12Z</time>
      </trkpt>
      <trkpt lat="48.2017" lon="6.87454">
        <ele>533.61</ele>
        <time>2023-09-21T09:32:17Z</time>
      </trkpt>
      <trkpt lat="48.20176" lon="6.8748">
        <ele>533.65</ele>
        <time>2023-09-21T09:32:31Z</time>
      </trkpt>
      <trkpt lat="48.20177" lon="6.87502">
        <ele>533.74</ele>
        <time>2023-09-21T09:32:44Z</time>
      </trkpt>
      <trkpt lat="48.2018" lon="6.8751">
        <ele>533.42</ele>
        <time>2023-09-21T09:32:49Z</time>
      </trkpt>
      <trkpt lat="48.20181" lon="6.87512">
        <ele>533.58</ele>
        <time>2023-09-21T09:32:51Z</time>
      </trkpt>
      <trkpt lat="48.20198" lon="6.87556">
        <ele>533.6</ele>
        <time>2023-09-21T09:33:12Z</time>
      </trkpt>
      <trkpt lat="48.20205" lon="6.87581">
        <ele>533.4</ele>
        <time>2023-09-21T09:33:28Z</time>
      </trkpt>
      <trkpt lat="48.20212" lon="6.87607">
        <ele>530.84</ele>
        <time>2023-09-21T09:33:45Z</time>
      </trkpt>
      <trkpt lat="48.20221" lon="6.8763">
        <ele>527.77</ele>
        <time>2023-09-21T09:34:00Z</time>
      </trkpt>
      <trkpt lat="48.2023" lon="6.87655">
        <ele>527.38</ele>
        <time>2023-09-21T09:34:13Z</time>
      </trkpt>
      <trkpt lat="48.20236" lon="6.87672">
        <ele>527.44</ele>
        <time>2023-09-21T09:34:23Z</time>
      </trkpt>
      <trkpt lat="48.20245" lon="6.87698">
        <ele>527.91</ele>
        <time>2023-09-21T09:34:38Z</time>
      </trkpt>
      <trkpt lat="48.20248" lon="6.87707">
        <ele>528.15</ele>
        <time>2023-09-21T09:34:45Z</time>
      </trkpt>
      <trkpt lat="48.2025" lon="6.87714">
        <ele>528.97</ele>
        <time>2023-09-21T09:34:49Z</time>
      </trkpt>
      <trkpt lat="48.20256" lon="6.87732">
        <ele>529.7</ele>
        <time>2023-09-21T09:35:02Z</time>
      </trkpt>
      <trkpt lat="48.20267" lon="6.87751">
        <ele>529.75</ele>
        <time>2023-09-21T09:35:16Z</time>
      </trkpt>
      <trkpt lat="48.20276" lon="6.87769">
        <ele>529.1</ele>
        <time>2023-09-21T09:35:28Z</time>
      </trkpt>
      <trkpt lat="48.20281" lon="6.87805">
        <ele>530.09</ele>
        <time>2023-09-21T09:35:48Z</time>
      </trkpt>
      <trkpt lat="48.20285" lon="6.87834">
        <ele>529.84</ele>
        <time>2023-09-21T09:36:08Z</time>
      </trkpt>
      <trkpt lat="48.20288" lon="6.87845">
        <ele>528.73</ele>
        <time>2023-09-21T09:36:24Z</time>
      </trkpt>
      <trkpt lat="48.20293" lon="6.87865">
        <ele>528.12</ele>
        <time>2023-09-21T09:36:42Z</time>
      </trkpt>
      <trkpt lat="48.20297" lon="6.87888">
        <ele>526.8</ele>
        <time>2023-09-21T09:36:59Z</time>
      </trkpt>
      <trkpt lat="48.20298" lon="6.87894">
        <ele>525.46</ele>
        <time>2023-09-21T09:37:03Z</time>
      </trkpt>
      <trkpt lat="48.20303" lon="6.87915">
        <ele>524.33</ele>
        <time>2023-09-21T09:37:18Z</time>
      </trkpt>
      <trkpt lat="48.20308" lon="6.87951">
        <ele>523.95</ele>
        <time>2023-09-21T09:37:39Z</time>
      </trkpt>
      <trkpt lat="48.20306" lon="6.87993">
        <ele>521.33</ele>
        <time>2023-09-21T09:38:03Z</time>
      </trkpt>
      <trkpt lat="48.20306" lon="6.87999">
        <ele>520.99</ele>
        <time>2023-09-21T09:38:07Z</time>
      </trkpt>
      <trkpt lat="48.20297" lon="6.88011">
        <ele>519.37</ele>
        <time>2023-09-21T09:38:18Z</time>
      </trkpt>
      <trkpt lat="48.20274" lon="6.88028">
        <ele>518.32</ele>
        <time>2023-09-21T09:38:40Z</time>
      </trkpt>
      <trkpt lat="48.20252" lon="6.88045">
        <ele>517.79</ele>
        <time>2023-09-21T09:39:01Z</time>
      </trkpt>
      <trkpt lat="48.20235" lon="6.88062">
        <ele>516.45</ele>
        <time>2023-09-21T09:39:19Z</time>
      </trkpt>
      <trkpt lat="48.20234" lon="6.88063">
        <ele>516.51</ele>
        <time>2023-09-21T09:39:21Z</time>
      </trkpt>
      <trkpt lat="48.20231" lon="6.88067">
        <ele>517.44</ele>
        <time>2023-09-21T09:39:26Z</time>
      </trkpt>
      <trkpt lat="48.20231" lon="6.88071">
        <ele>517.96</ele>
        <time>2023-09-21T09:39:30Z</time>
      </trkpt>
      <trkpt lat="48.20223" lon="6.88102">
        <ele>517.79</ele>
        <time>2023-09-21T09:39:52Z</time>
      </trkpt>
      <trkpt lat="48.20218" lon="6.88114">
        <ele>517.3</ele>
        <time>2023-09-21T09:40:01Z</time>
      </trkpt>
      <trkpt lat="48.20218" lon="6.88115">
        <ele>517.07</ele>
        <time>2023-09-21T09:40:02Z</time>
      </trkpt>
      <trkpt lat="48.20222" lon="6.88145">
        <ele>516.73</ele>
        <time>2023-09-21T09:40:23Z</time>
      </trkpt>
      <trkpt lat="48.20221" lon="6.88147">
        <ele>517.1</ele>
        <time>2023-09-21T09:40:36Z</time>
      </trkpt>
      <trkpt lat="48.20221" lon="6.88145">
        <ele>517.32</ele>
        <time>2023-09-21T09:41:04Z</time>
      </trkpt>
      <trkpt lat="48.20222" lon="6.88146">
        <ele>517.05</ele>
        <time>2023-09-21T09:41:54Z</time>
      </trkpt>
      <trkpt lat="48.20225" lon="6.88149">
        <ele>517.58</ele>
        <time>2023-09-21T09:41:58Z</time>
      </trkpt>
      <trkpt lat="48.20233" lon="6.88179">
        <ele>517.59</ele>
        <time>2023-09-21T09:42:17Z</time>
      </trkpt>
      <trkpt lat="48.20234" lon="6.88185">
        <ele>517.6</ele>
        <time>2023-09-21T09:42:22Z</time>
      </trkpt>
      <trkpt lat="48.20237" lon="6.88198">
        <ele>517.48</ele>
        <time>2023-09-21T09:42:32Z</time>
      </trkpt>
      <trkpt lat="48.20239" lon="6.88202">
        <ele>517.09</ele>
        <time>2023-09-21T09:42:35Z</time>
      </trkpt>
      <trkpt lat="48.20247" lon="6.88233">
        <ele>515.94</ele>
        <time>2023-09-21T09:42:56Z</time>
      </trkpt>
      <trkpt lat="48.20248" lon="6.88238">
        <ele>516.1</ele>
        <time>2023-09-21T09:43:00Z</time>
      </trkpt>
      <trkpt lat="48.20259" lon="6.88268">
        <ele>513.92</ele>
        <time>2023-09-21T09:43:21Z</time>
      </trkpt>
      <trkpt lat="48.20273" lon="6.88299">
        <ele>512.48</ele>
        <time>2023-09-21T09:43:43Z</time>
      </trkpt>
      <trkpt lat="48.20289" lon="6.88318">
        <ele>512.36</ele>
        <time>2023-09-21T09:44:03Z</time>
      </trkpt>
      <trkpt lat="48.20298" lon="6.8833">
        <ele>511.89</ele>
        <time>2023-09-21T09:44:20Z</time>
      </trkpt>
      <trkpt lat="48.20303" lon="6.88331">
        <ele>512.2</ele>
        <time>2023-09-21T09:44:25Z</time>
      </trkpt>
      <trkpt lat="48.20312" lon="6.8834">
        <ele>511.51</ele>
        <time>2023-09-21T09:44:35Z</time>
      </trkpt>
      <trkpt lat="48.20315" lon="6.88345">
        <ele>512.11</ele>
        <time>2023-09-21T09:44:39Z</time>
      </trkpt>
      <trkpt lat="48.20318" lon="6.88349">
        <ele>511.8</ele>
        <time>2023-09-21T09:44:43Z</time>
      </trkpt>
      <trkpt lat="48.20325" lon="6.88357">
        <ele>512.2</ele>
        <time>2023-09-21T09:44:51Z</time>
      </trkpt>
      <trkpt lat="48.2034" lon="6.88366">
        <ele>513.92</ele>
        <time>2023-09-21T09:45:05Z</time>
      </trkpt>
      <trkpt lat="48.20359" lon="6.88392">
        <ele>514.24</ele>
        <time>2023-09-21T09:45:27Z</time>
      </trkpt>
      <trkpt lat="48.20371" lon="6.88425">
        <ele>515.48</ele>
        <time>2023-09-21T09:45:49Z</time>
      </trkpt>
      <trkpt lat="48.20378" lon="6.88453">
        <ele>515.85</ele>
        <time>2023-09-21T09:46:07Z</time>
      </trkpt>
      <trkpt lat="48.20389" lon="6.88494">
        <ele>516.18</ele>
        <time>2023-09-21T09:46:32Z</time>
      </trkpt>
      <trkpt lat="48.20398" lon="6.88524">
        <ele>515.92</ele>
        <time>2023-09-21T09:46:50Z</time>
      </trkpt>
      <trkpt lat="48.20403" lon="6.88537">
        <ele>515.94</ele>
        <time>2023-09-21T09:46:58Z</time>
      </trkpt>
      <trkpt lat="48.20409" lon="6.88561">
        <ele>516.01</ele>
        <time>2023-09-21T09:47:17Z</time>
      </trkpt>
      <trkpt lat="48.2041" lon="6.88567">
        <ele>516.78</ele>
        <time>2023-09-21T09:47:34Z</time>
      </trkpt>
      <trkpt lat="48.2041" lon="6.88569">
        <ele>516.11</ele>
        <time>2023-09-21T09:47:47Z</time>
      </trkpt>
      <trkpt lat="48.20409" lon="6.8857">
        <ele>515.09</ele>
        <time>2023-09-21T09:48:06Z</time>
      </trkpt>
      <trkpt lat="48.20409" lon="6.88571">
        <ele>515.51</ele>
        <time>2023-09-21T09:49:00Z</time>
      </trkpt>
      <trkpt lat="48.2041" lon="6.8857">
        <ele>515.92</ele>
        <time>2023-09-21T09:50:07Z</time>
      </trkpt>
      <trkpt lat="48.2041" lon="6.88569">
        <ele>515.94</ele>
        <time>2023-09-21T09:51:01Z</time>
      </trkpt>
      <trkpt lat="48.20409" lon="6.88569">
        <ele>516.22</ele>
        <time>2023-09-21T09:51:25Z</time>
      </trkpt>
      <trkpt lat="48.20407" lon="6.88568">
        <ele>516.41</ele>
        <time>2023-09-21T09:51:58Z</time>
      </trkpt>
      <trkpt lat="48.20408" lon="6.88568">
        <ele>516.24</ele>
        <time>2023-09-21T09:52:28Z</time>
      </trkpt>
      <trkpt lat="48.20408" lon="6.88568">
        <ele>516.45</ele>
        <time>2023-09-21T09:52:59Z</time>
      </trkpt>
      <trkpt lat="48.20409" lon="6.88565">
        <ele>516.98</ele>
        <time>2023-09-21T09:53:25Z</time>
      </trkpt>
      <trkpt lat="48.20409" lon="6.88568">
        <ele>517.06</ele>
        <time>2023-09-21T09:53:53Z</time>
      </trkpt>
      <trkpt lat="48.2041" lon="6.88566">
        <ele>516.94</ele>
        <time>2023-09-21T09:54:24Z</time>
      </trkpt>
      <trkpt lat="48.20409" lon="6.88564">
        <ele>516.77</ele>
        <time>2023-09-21T09:55:04Z</time>
      </trkpt>
      <trkpt lat="48.20409" lon="6.88564">
        <ele>516.96</ele>
        <time>2023-09-21T09:55:46Z</time>
      </trkpt>
      <trkpt lat="48.20409" lon="6.88566">
        <ele>516.75</ele>
        <time>2023-09-21T09:56:43Z</time>
      </trkpt>
      <trkpt lat="48.20408" lon="6.88566">
        <ele>516.82</ele>
        <time>2023-09-21T09:57:37Z</time>
      </trkpt>
      <trkpt lat="48.20409" lon="6.88568">
        <ele>516.95</ele>
        <time>2023-09-21T09:58:19Z</time>
      </trkpt>
      <trkpt lat="48.20409" lon="6.88569">
        <ele>518.01</ele>
        <time>2023-09-21T09:59:08Z</time>
      </trkpt>
      <trkpt lat="48.20409" lon="6.88568">
        <ele>517.04</ele>
        <time>2023-09-21T09:59:51Z</time>
      </trkpt>
      <trkpt lat="48.20409" lon="6.88568">
        <ele>517.31</ele>
        <time>2023-09-21T10:00:29Z</time>
      </trkpt>
      <trkpt lat="48.20408" lon="6.88568">
        <ele>517.55</ele>
        <time>2023-09-21T10:01:16Z</time>
      </trkpt>
      <trkpt lat="48.20409" lon="6.88568">
        <ele>517.31</ele>
        <time>2023-09-21T10:02:08Z</time>
      </trkpt>
      <trkpt lat="48.20408" lon="6.88568">
        <ele>516.9</ele>
        <time>2023-09-21T10:03:10Z</time>
      </trkpt>
      <trkpt lat="48.20409" lon="6.88569">
        <ele>516.74</ele>
        <time>2023-09-21T10:04:16Z</time>
      </trkpt>
      <trkpt lat="48.20409" lon="6.88568">
        <ele>517.19</ele>
        <time>2023-09-21T10:05:13Z</time>
      </trkpt>
      <trkpt lat="48.20408" lon="6.88568">
        <ele>517.34</ele>
        <time>2023-09-21T10:06:10Z</time>
      </trkpt>
      <trkpt lat="48.20408" lon="6.88568">
        <ele>517.55</ele>
        <time>2023-09-21T10:07:04Z</time>
      </trkpt>
      <trkpt lat="48.20408" lon="6.88568">
        <ele>517.35</ele>
        <time>2023-09-21T10:07:53Z</time>
      </trkpt>
      <trkpt lat="48.20408" lon="6.88568">
        <ele>517.41</ele>
        <time>2023-09-21T10:08:51Z</time>
      </trkpt>
      <trkpt lat="48.20409" lon="6.88566">
        <ele>517.53</ele>
        <time>2023-09-21T10:09:20Z</time>
      </trkpt>
      <trkpt lat="48.20408" lon="6.88566">
        <ele>517.43</ele>
        <time>2023-09-21T10:09:28Z</time>
      </trkpt>
      <trkpt lat="48.20407" lon="6.88566">
        <ele>517.81</ele>
        <time>2023-09-21T10:10:09Z</time>
      </trkpt>
      <trkpt lat="48.20408" lon="6.88566">
        <ele>517.59</ele>
        <time>2023-09-21T10:10:50Z</time>
      </trkpt>
      <trkpt lat="48.20409" lon="6.88566">
        <ele>517.46</ele>
        <time>2023-09-21T10:11:31Z</time>
      </trkpt>
      <trkpt lat="48.20412" lon="6.88564">
        <ele>517.88</ele>
        <time>2023-09-21T10:12:20Z</time>
      </trkpt>
      <trkpt lat="48.20411" lon="6.88563">
        <ele>518.15</ele>
        <time>2023-09-21T10:13:09Z</time>
      </trkpt>
      <trkpt lat="48.20411" lon="6.88563">
        <ele>517.53</ele>
        <time>2023-09-21T10:13:56Z</time>
      </trkpt>
      <trkpt lat="48.20408" lon="6.88566">
        <ele>517.89</ele>
        <time>2023-09-21T10:14:47Z</time>
      </trkpt>
      <trkpt lat="48.20408" lon="6.88566">
        <ele>518.02</ele>
        <time>2023-09-21T10:15:36Z</time>
      </trkpt>
      <trkpt lat="48.20409" lon="6.88565">
        <ele>517.45</ele>
        <time>2023-09-21T10:16:28Z</time>
      </trkpt>
      <trkpt lat="48.20409" lon="6.88566">
        <ele>517.79</ele>
        <time>2023-09-21T10:17:14Z</time>
      </trkpt>
      <trkpt lat="48.20408" lon="6.88566">
        <ele>518.16</ele>
        <time>2023-09-21T10:18:09Z</time>
      </trkpt>
      <trkpt lat="48.20409" lon="6.88565">
        <ele>517.32</ele>
        <time>2023-09-21T10:18:55Z</time>
      </trkpt>
      <trkpt lat="48.2041" lon="6.88566">
        <ele>517.21</ele>
        <time>2023-09-21T10:19:22Z</time>
      </trkpt>
      <trkpt lat="48.2041" lon="6.88566">
        <ele>517.87</ele>
        <time>2023-09-21T10:20:15Z</time>
      </trkpt>
      <trkpt lat="48.20411" lon="6.88566">
        <ele>517.68</ele>
        <time>2023-09-21T10:21:10Z</time>
      </trkpt>
      <trkpt lat="48.20409" lon="6.88567">
        <ele>517.32</ele>
        <time>2023-09-21T10:21:56Z</time>
      </trkpt>
      <trkpt lat="48.20408" lon="6.88568">
        <ele>516.65</ele>
        <time>2023-09-21T10:22:51Z</time>
      </trkpt>
      <trkpt lat="48.20408" lon="6.88568">
        <ele>517.28</ele>
        <time>2023-09-21T10:23:42Z</time>
      </trkpt>
      <trkpt lat="48.20408" lon="6.88568">
        <ele>517.52</ele>
        <time>2023-09-21T10:24:45Z</time>
      </trkpt>
      <trkpt lat="48.20407" lon="6.88567">
        <ele>516.57</ele>
        <time>2023-09-21T10:25:24Z</time>
      </trkpt>
      <trkpt lat="48.2041" lon="6.88569">
        <ele>516.8</ele>
        <time>2023-09-21T10:25:54Z</time>
      </trkpt>
      <trkpt lat="48.20411" lon="6.88568">
        <ele>517.15</ele>
        <time>2023-09-21T10:26:22Z</time>
      </trkpt>
      <trkpt lat="48.2041" lon="6.88566">
        <ele>517.32</ele>
        <time>2023-09-21T10:26:54Z</time>
      </trkpt>
      <trkpt lat="48.20411" lon="6.88566">
        <ele>516.99</ele>
        <time>2023-09-21T10:27:01Z</time>
      </trkpt>
      <trkpt lat="48.20412" lon="6.8857">
        <ele>516.84</ele>
        <time>2023-09-21T10:27:26Z</time>
      </trkpt>
      <trkpt lat="48.2041" lon="6.88569">
        <ele>517.41</ele>
        <time>2023-09-21T10:28:01Z</time>
      </trkpt>
      <trkpt lat="48.20411" lon="6.88569">
        <ele>517.13</ele>
        <time>2023-09-21T10:28:42Z</time>
      </trkpt>
      <trkpt lat="48.20412" lon="6.88569">
        <ele>517</ele>
        <time>2023-09-21T10:29:25Z</time>
      </trkpt>
      <trkpt lat="48.20412" lon="6.88569">
        <ele>517.16</ele>
        <time>2023-09-21T10:30:12Z</time>
      </trkpt>
      <trkpt lat="48.20412" lon="6.88569">
        <ele>517.39</ele>
        <time>2023-09-21T10:31:01Z</time>
      </trkpt>
      <trkpt lat="48.20412" lon="6.88569">
        <ele>517.34</ele>
        <time>2023-09-21T10:31:44Z</time>
      </trkpt>
      <trkpt lat="48.20412" lon="6.88569">
        <ele>516.51</ele>
        <time>2023-09-21T10:32:30Z</time>
      </trkpt>
      <trkpt lat="48.20412" lon="6.88569">
        <ele>517.09</ele>
        <time>2023-09-21T10:33:12Z</time>
      </trkpt>
      <trkpt lat="48.20411" lon="6.88569">
        <ele>517.03</ele>
        <time>2023-09-21T10:33:53Z</time>
      </trkpt>
      <trkpt lat="48.20409" lon="6.88569">
        <ele>517.11</ele>
        <time>2023-09-21T10:34:36Z</time>
      </trkpt>
      <trkpt lat="48.20408" lon="6.88569">
        <ele>517.2</ele>
        <time>2023-09-21T10:35:20Z</time>
      </trkpt>
      <trkpt lat="48.20408" lon="6.88569">
        <ele>517.44</ele>
        <time>2023-09-21T10:36:00Z</time>
      </trkpt>
      <trkpt lat="48.2041" lon="6.88568">
        <ele>516.95</ele>
        <time>2023-09-21T10:36:42Z</time>
      </trkpt>
      <trkpt lat="48.20413" lon="6.88567">
        <ele>517.33</ele>
        <time>2023-09-21T10:37:20Z</time>
      </trkpt>
      <trkpt lat="48.20414" lon="6.88568">
        <ele>518.05</ele>
        <time>2023-09-21T10:38:03Z</time>
      </trkpt>
      <trkpt lat="48.20412" lon="6.88569">
        <ele>517.23</ele>
        <time>2023-09-21T10:38:48Z</time>
      </trkpt>
      <trkpt lat="48.2041" lon="6.88569">
        <ele>517.47</ele>
        <time>2023-09-21T10:39:30Z</time>
      </trkpt>
      <trkpt lat="48.2041" lon="6.88569">
        <ele>518.28</ele>
        <time>2023-09-21T10:40:12Z</time>
      </trkpt>
      <trkpt lat="48.20408" lon="6.8857">
        <ele>518.1</ele>
        <time>2023-09-21T10:41:00Z</time>
      </trkpt>
      <trkpt lat="48.20408" lon="6.88571">
        <ele>518.28</ele>
        <time>2023-09-21T10:41:55Z</time>
      </trkpt>
      <trkpt lat="48.20409" lon="6.88571">
        <ele>518.24</ele>
        <time>2023-09-21T10:42:44Z</time>
      </trkpt>
      <trkpt lat="48.20409" lon="6.8857">
        <ele>517.64</ele>
        <time>2023-09-21T10:43:27Z</time>
      </trkpt>
      <trkpt lat="48.20411" lon="6.8857">
        <ele>518.01</ele>
        <time>2023-09-21T10:44:18Z</time>
      </trkpt>
      <trkpt lat="48.20412" lon="6.8857">
        <ele>517.89</ele>
        <time>2023-09-21T10:45:12Z</time>
      </trkpt>
      <trkpt lat="48.20412" lon="6.88569">
        <ele>518.05</ele>
        <time>2023-09-21T10:46:01Z</time>
      </trkpt>
      <trkpt lat="48.20412" lon="6.88569">
        <ele>518.09</ele>
        <time>2023-09-21T10:46:38Z</time>
      </trkpt>
      <trkpt lat="48.20412" lon="6.88568">
        <ele>518.04</ele>
        <time>2023-09-21T10:47:21Z</time>
      </trkpt>
      <trkpt lat="48.20413" lon="6.88569">
        <ele>518.6</ele>
        <time>2023-09-21T10:47:55Z</time>
      </trkpt>
      <trkpt lat="48.20412" lon="6.88568">
        <ele>518.11</ele>
        <time>2023-09-21T10:48:39Z</time>
      </trkpt>
      <trkpt lat="48.20411" lon="6.88567">
        <ele>518.09</ele>
        <time>2023-09-21T10:49:27Z</time>
      </trkpt>
      <trkpt lat="48.20413" lon="6.88567">
        <ele>518.93</ele>
        <time>2023-09-21T10:50:20Z</time>
      </trkpt>
      <trkpt lat="48.20414" lon="6.88569">
        <ele>518.39</ele>
        <time>2023-09-21T10:50:57Z</time>
      </trkpt>
      <trkpt lat="48.20413" lon="6.8857">
        <ele>518.76</ele>
        <time>2023-09-21T10:51:39Z</time>
      </trkpt>
      <trkpt lat="48.20415" lon="6.88569">
        <ele>519.26</ele>
        <time>2023-09-21T10:52:12Z</time>
      </trkpt>
      <trkpt lat="48.20414" lon="6.88568">
        <ele>519.29</ele>
        <time>2023-09-21T10:52:33Z</time>
      </trkpt>
      <trkpt lat="48.20413" lon="6.88568">
        <ele>519.46</ele>
        <time>2023-09-21T10:52:51Z</time>
      </trkpt>
      <trkpt lat="48.20416" lon="6.88563">
        <ele>519.41</ele>
        <time>2023-09-21T10:53:10Z</time>
      </trkpt>
      <trkpt lat="48.20417" lon="6.88562">
        <ele>519.96</ele>
        <time>2023-09-21T10:53:12Z</time>
      </trkpt>
      <trkpt lat="48.20419" lon="6.88564">
        <ele>520.05</ele>
        <time>2023-09-21T10:53:15Z</time>
      </trkpt>
      <trkpt lat="48.20428" lon="6.88578">
        <ele>520.61</ele>
        <time>2023-09-21T10:53:30Z</time>
      </trkpt>
      <trkpt lat="48.2043" lon="6.88581">
        <ele>520.79</ele>
        <time>2023-09-21T10:53:33Z</time>
      </trkpt>
      <trkpt lat="48.20434" lon="6.8859">
        <ele>520.91</ele>
        <time>2023-09-21T10:53:40Z</time>
      </trkpt>
      <trkpt lat="48.20449" lon="6.88603">
        <ele>521.09</ele>
        <time>2023-09-21T10:53:57Z</time>
      </trkpt>
      <trkpt lat="48.20469" lon="6.88618">
        <ele>521.52</ele>
        <time>2023-09-21T10:54:22Z</time>
      </trkpt>
      <trkpt lat="48.20474" lon="6.88621">
        <ele>521.48</ele>
        <time>2023-09-21T10:54:28Z</time>
      </trkpt>
      <trkpt lat="48.20497" lon="6.88632">
        <ele>521.07</ele>
        <time>2023-09-21T10:54:50Z</time>
      </trkpt>
      <trkpt lat="48.20526" lon="6.88648">
        <ele>522.41</ele>
        <time>2023-09-21T10:55:16Z</time>
      </trkpt>
      <trkpt lat="48.20539" lon="6.88661">
        <ele>523.12</ele>
        <time>2023-09-21T10:55:30Z</time>
      </trkpt>
      <trkpt lat="48.20547" lon="6.88665">
        <ele>523.26</ele>
        <time>2023-09-21T10:55:37Z</time>
      </trkpt>
      <trkpt lat="48.20572" lon="6.88698">
        <ele>525.18</ele>
        <time>2023-09-21T10:56:03Z</time>
      </trkpt>
      <trkpt lat="48.20579" lon="6.88737">
        <ele>525.54</ele>
        <time>2023-09-21T10:56:26Z</time>
      </trkpt>
      <trkpt lat="48.20572" lon="6.88767">
        <ele>527.06</ele>
        <time>2023-09-21T10:56:44Z</time>
      </trkpt>
      <trkpt lat="48.20568" lon="6.88779">
        <ele>528.49</ele>
        <time>2023-09-21T10:56:53Z</time>
      </trkpt>
      <trkpt lat="48.20567" lon="6.88785">
        <ele>529.13</ele>
        <time>2023-09-21T10:56:57Z</time>
      </trkpt>
      <trkpt lat="48.20562" lon="6.88807">
        <ele>532.17</ele>
        <time>2023-09-21T10:57:13Z</time>
      </trkpt>
      <trkpt lat="48.20555" lon="6.88826">
        <ele>534.57</ele>
        <time>2023-09-21T10:57:27Z</time>
      </trkpt>
      <trkpt lat="48.20541" lon="6.88843">
        <ele>537.33</ele>
        <time>2023-09-21T10:57:45Z</time>
      </trkpt>
      <trkpt lat="48.20522" lon="6.88863">
        <ele>539.3</ele>
        <time>2023-09-21T10:58:04Z</time>
      </trkpt>
      <trkpt lat="48.20509" lon="6.8888">
        <ele>540.95</ele>
        <time>2023-09-21T10:58:19Z</time>
      </trkpt>
      <trkpt lat="48.20498" lon="6.88903">
        <ele>543.22</ele>
        <time>2023-09-21T10:58:36Z</time>
      </trkpt>
      <trkpt lat="48.20492" lon="6.88935">
        <ele>545.25</ele>
        <time>2023-09-21T10:58:52Z</time>
      </trkpt>
      <trkpt lat="48.20493" lon="6.88951">
        <ele>545.9</ele>
        <time>2023-09-21T10:59:01Z</time>
      </trkpt>
      <trkpt lat="48.20494" lon="6.88989">
        <ele>547.98</ele>
        <time>2023-09-21T10:59:21Z</time>
      </trkpt>
      <trkpt lat="48.20497" lon="6.89034">
        <ele>550.34</ele>
        <time>2023-09-21T10:59:44Z</time>
      </trkpt>
      <trkpt lat="48.20495" lon="6.89066">
        <ele>552.7</ele>
        <time>2023-09-21T11:00:01Z</time>
      </trkpt>
      <trkpt lat="48.20492" lon="6.8908">
        <ele>552.92</ele>
        <time>2023-09-21T11:00:09Z</time>
      </trkpt>
      <trkpt lat="48.20486" lon="6.89112">
        <ele>554.02</ele>
        <time>2023-09-21T11:00:27Z</time>
      </trkpt>
      <trkpt lat="48.2049" lon="6.8915">
        <ele>556.4</ele>
        <time>2023-09-21T11:00:48Z</time>
      </trkpt>
      <trkpt lat="48.20502" lon="6.89182">
        <ele>558.91</ele>
        <time>2023-09-21T11:01:08Z</time>
      </trkpt>
      <trkpt lat="48.20512" lon="6.89206">
        <ele>561.97</ele>
        <time>2023-09-21T11:01:23Z</time>
      </trkpt>
      <trkpt lat="48.20526" lon="6.89238">
        <ele>564.32</ele>
        <time>2023-09-21T11:01:44Z</time>
      </trkpt>
      <trkpt lat="48.20522" lon="6.89275">
        <ele>566.01</ele>
        <time>2023-09-21T11:02:06Z</time>
      </trkpt>
      <trkpt lat="48.20517" lon="6.89304">
        <ele>567.46</ele>
        <time>2023-09-21T11:02:22Z</time>
      </trkpt>
      <trkpt lat="48.20517" lon="6.89322">
        <ele>568.7</ele>
        <time>2023-09-21T11:02:32Z</time>
      </trkpt>
      <trkpt lat="48.20528" lon="6.89363">
        <ele>570.64</ele>
        <time>2023-09-21T11:02:55Z</time>
      </trkpt>
      <trkpt lat="48.20537" lon="6.89404">
        <ele>571.8</ele>
        <time>2023-09-21T11:03:18Z</time>
      </trkpt>
      <trkpt lat="48.20546" lon="6.89452">
        <ele>573.58</ele>
        <time>2023-09-21T11:03:45Z</time>
      </trkpt>
      <trkpt lat="48.20554" lon="6.89475">
        <ele>574.33</ele>
        <time>2023-09-21T11:04:05Z</time>
      </trkpt>
      <trkpt lat="48.20553" lon="6.89474">
        <ele>575.18</ele>
        <time>2023-09-21T11:04:35Z</time>
      </trkpt>
      <trkpt lat="48.20554" lon="6.89475">
        <ele>575.14</ele>
        <time>2023-09-21T11:04:51Z</time>
      </trkpt>
      <trkpt lat="48.20558" lon="6.89501">
        <ele>576</ele>
        <time>2023-09-21T11:05:07Z</time>
      </trkpt>
      <trkpt lat="48.20564" lon="6.89538">
        <ele>576.17</ele>
        <time>2023-09-21T11:05:27Z</time>
      </trkpt>
      <trkpt lat="48.20569" lon="6.89568">
        <ele>577.15</ele>
        <time>2023-09-21T11:05:44Z</time>
      </trkpt>
      <trkpt lat="48.20571" lon="6.89597">
        <ele>578.39</ele>
        <time>2023-09-21T11:06:00Z</time>
      </trkpt>
      <trkpt lat="48.20571" lon="6.89633">
        <ele>579.11</ele>
        <time>2023-09-21T11:06:19Z</time>
      </trkpt>
      <trkpt lat="48.20566" lon="6.89679">
        <ele>579.76</ele>
        <time>2023-09-21T11:06:43Z</time>
      </trkpt>
      <trkpt lat="48.20559" lon="6.89725">
        <ele>581.33</ele>
        <time>2023-09-21T11:07:07Z</time>
      </trkpt>
      <trkpt lat="48.20554" lon="6.89776">
        <ele>580.49</ele>
        <time>2023-09-21T11:07:33Z</time>
      </trkpt>
      <trkpt lat="48.2055" lon="6.898">
        <ele>578.6</ele>
        <time>2023-09-21T11:07:49Z</time>
      </trkpt>
      <trkpt lat="48.20547" lon="6.89808">
        <ele>577.2</ele>
        <time>2023-09-21T11:07:55Z</time>
      </trkpt>
      <trkpt lat="48.20546" lon="6.89812">
        <ele>577.79</ele>
        <time>2023-09-21T11:07:57Z</time>
      </trkpt>
      <trkpt lat="48.20543" lon="6.8983">
        <ele>575.87</ele>
        <time>2023-09-21T11:08:06Z</time>
      </trkpt>
      <trkpt lat="48.20543" lon="6.89833">
        <ele>575.93</ele>
        <time>2023-09-21T11:08:08Z</time>
      </trkpt>
      <trkpt lat="48.20554" lon="6.89849">
        <ele>574.93</ele>
        <time>2023-09-21T11:08:26Z</time>
      </trkpt>
      <trkpt lat="48.20554" lon="6.8985">
        <ele>574.69</ele>
        <time>2023-09-21T11:08:27Z</time>
      </trkpt>
      <trkpt lat="48.20563" lon="6.89862">
        <ele>574.51</ele>
        <time>2023-09-21T11:08:44Z</time>
      </trkpt>
      <trkpt lat="48.20563" lon="6.89862">
        <ele>574.13</ele>
        <time>2023-09-21T11:08:45Z</time>
      </trkpt>
      <trkpt lat="48.20566" lon="6.89867">
        <ele>573.55</ele>
        <time>2023-09-21T11:08:49Z</time>
      </trkpt>
      <trkpt lat="48.20587" lon="6.89894">
        <ele>572.21</ele>
        <time>2023-09-21T11:09:10Z</time>
      </trkpt>
      <trkpt lat="48.20612" lon="6.89931">
        <ele>571.65</ele>
        <time>2023-09-21T11:09:36Z</time>
      </trkpt>
      <trkpt lat="48.20643" lon="6.89972">
        <ele>570.78</ele>
        <time>2023-09-21T11:10:06Z</time>
      </trkpt>
      <trkpt lat="48.20674" lon="6.90003">
        <ele>570.24</ele>
        <time>2023-09-21T11:10:33Z</time>
      </trkpt>
      <trkpt lat="48.20703" lon="6.90022">
        <ele>569.51</ele>
        <time>2023-09-21T11:10:56Z</time>
      </trkpt>
      <trkpt lat="48.20725" lon="6.90037">
        <ele>568.83</ele>
        <time>2023-09-21T11:11:14Z</time>
      </trkpt>
      <trkpt lat="48.20753" lon="6.90053">
        <ele>567.99</ele>
        <time>2023-09-21T11:11:37Z</time>
      </trkpt>
      <trkpt lat="48.2077" lon="6.90062">
        <ele>567.69</ele>
        <time>2023-09-21T11:11:51Z</time>
      </trkpt>
      <trkpt lat="48.20791" lon="6.90076">
        <ele>567.22</ele>
        <time>2023-09-21T11:12:10Z</time>
      </trkpt>
      <trkpt lat="48.20811" lon="6.9009">
        <ele>567.29</ele>
        <time>2023-09-21T11:12:27Z</time>
      </trkpt>
      <trkpt lat="48.20832" lon="6.90104">
        <ele>567.54</ele>
        <time>2023-09-21T11:12:45Z</time>
      </trkpt>
      <trkpt lat="48.20854" lon="6.90123">
        <ele>567.34</ele>
        <time>2023-09-21T11:13:05Z</time>
      </trkpt>
      <trkpt lat="48.2086" lon="6.90128">
        <ele>567.24</ele>
        <time>2023-09-21T11:13:10Z</time>
      </trkpt>
      <trkpt lat="48.20873" lon="6.9014">
        <ele>566.98</ele>
        <time>2023-09-21T11:13:25Z</time>
      </trkpt>
      <trkpt lat="48.20878" lon="6.90147">
        <ele>566.83</ele>
        <time>2023-09-21T11:13:31Z</time>
      </trkpt>
      <trkpt lat="48.20886" lon="6.90158">
        <ele>566.92</ele>
        <time>2023-09-21T11:13:41Z</time>
      </trkpt>
      <trkpt lat="48.20888" lon="6.9016">
        <ele>566.35</ele>
        <time>2023-09-21T11:13:43Z</time>
      </trkpt>
      <trkpt lat="48.20895" lon="6.90161">
        <ele>566</ele>
        <time>2023-09-21T11:13:48Z</time>
      </trkpt>
      <trkpt lat="48.209" lon="6.90166">
        <ele>565.57</ele>
        <time>2023-09-21T11:13:52Z</time>
      </trkpt>
      <trkpt lat="48.20908" lon="6.90174">
        <ele>565.49</ele>
        <time>2023-09-21T11:13:59Z</time>
      </trkpt>
      <trkpt lat="48.20914" lon="6.9018">
        <ele>564.78</ele>
        <time>2023-09-21T11:14:14Z</time>
      </trkpt>
      <trkpt lat="48.20923" lon="6.90184">
        <ele>564.58</ele>
        <time>2023-09-21T11:14:27Z</time>
      </trkpt>
      <trkpt lat="48.20924" lon="6.90183">
        <ele>564.74</ele>
        <time>2023-09-21T11:14:40Z</time>
      </trkpt>
      <trkpt lat="48.20924" lon="6.90183">
        <ele>564.73</ele>
        <time>2023-09-21T11:14:47Z</time>
      </trkpt>
      <trkpt lat="48.20922" lon="6.90181">
        <ele>565.18</ele>
        <time>2023-09-21T11:14:50Z</time>
      </trkpt>
      <trkpt lat="48.20917" lon="6.90176">
        <ele>565.23</ele>
        <time>2023-09-21T11:14:56Z</time>
      </trkpt>
      <trkpt lat="48.20906" lon="6.90167">
        <ele>565.55</ele>
        <time>2023-09-21T11:15:08Z</time>
      </trkpt>
      <trkpt lat="48.20901" lon="6.90161">
        <ele>565.55</ele>
        <time>2023-09-21T11:15:15Z</time>
      </trkpt>
      <trkpt lat="48.20891" lon="6.90151">
        <ele>566.35</ele>
        <time>2023-09-21T11:15:24Z</time>
      </trkpt>
      <trkpt lat="48.20878" lon="6.90148">
        <ele>569</ele>
        <time>2023-09-21T11:15:38Z</time>
      </trkpt>
      <trkpt lat="48.20878" lon="6.90149">
        <ele>568.54</ele>
        <time>2023-09-21T11:15:42Z</time>
      </trkpt>
      <trkpt lat="48.20877" lon="6.90153">
        <ele>568.94</ele>
        <time>2023-09-21T11:15:44Z</time>
      </trkpt>
      <trkpt lat="48.20875" lon="6.90163">
        <ele>569.45</ele>
        <time>2023-09-21T11:15:49Z</time>
      </trkpt>
      <trkpt lat="48.20873" lon="6.90169">
        <ele>570.13</ele>
        <time>2023-09-21T11:15:53Z</time>
      </trkpt>
      <trkpt lat="48.20871" lon="6.9019">
        <ele>571.72</ele>
        <time>2023-09-21T11:16:05Z</time>
      </trkpt>
      <trkpt lat="48.20869" lon="6.90195">
        <ele>572.05</ele>
        <time>2023-09-21T11:16:09Z</time>
      </trkpt>
      <trkpt lat="48.20864" lon="6.9022">
        <ele>573.55</ele>
        <time>2023-09-21T11:16:24Z</time>
      </trkpt>
      <trkpt lat="48.20859" lon="6.9025">
        <ele>575.28</ele>
        <time>2023-09-21T11:16:41Z</time>
      </trkpt>
      <trkpt lat="48.20855" lon="6.90274">
        <ele>575.74</ele>
        <time>2023-09-21T11:16:52Z</time>
      </trkpt>
      <trkpt lat="48.20853" lon="6.90289">
        <ele>575.85</ele>
        <time>2023-09-21T11:17:00Z</time>
      </trkpt>
      <trkpt lat="48.20845" lon="6.90326">
        <ele>575.16</ele>
        <time>2023-09-21T11:17:20Z</time>
      </trkpt>
      <trkpt lat="48.20845" lon="6.90328">
        <ele>575.16</ele>
        <time>2023-09-21T11:17:21Z</time>
      </trkpt>
      <trkpt lat="48.20843" lon="6.90338">
        <ele>575.48</ele>
        <time>2023-09-21T11:17:26Z</time>
      </trkpt>
      <trkpt lat="48.20836" lon="6.90377">
        <ele>576.07</ele>
        <time>2023-09-21T11:17:46Z</time>
      </trkpt>
      <trkpt lat="48.20834" lon="6.90389">
        <ele>576.93</ele>
        <time>2023-09-21T11:17:52Z</time>
      </trkpt>
      <trkpt lat="48.20827" lon="6.90422">
        <ele>578.35</ele>
        <time>2023-09-21T11:18:10Z</time>
      </trkpt>
      <trkpt lat="48.20823" lon="6.90443">
        <ele>579.4</ele>
        <time>2023-09-21T11:18:22Z</time>
      </trkpt>
      <trkpt lat="48.20818" lon="6.90475">
        <ele>580.93</ele>
        <time>2023-09-21T11:18:38Z</time>
      </trkpt>
      <trkpt lat="48.20811" lon="6.90515">
        <ele>581.64</ele>
        <time>2023-09-21T11:18:59Z</time>
      </trkpt>
      <trkpt lat="48.20799" lon="6.90545">
        <ele>582.8</ele>
        <time>2023-09-21T11:19:17Z</time>
      </trkpt>
      <trkpt lat="48.20781" lon="6.90564">
        <ele>583.86</ele>
        <time>2023-09-21T11:19:34Z</time>
      </trkpt>
      <trkpt lat="48.20765" lon="6.90571">
        <ele>585.87</ele>
        <time>2023-09-21T11:19:51Z</time>
      </trkpt>
      <trkpt lat="48.20746" lon="6.90581">
        <ele>587.4</ele>
        <time>2023-09-21T11:20:08Z</time>
      </trkpt>
      <trkpt lat="48.2073" lon="6.9059">
        <ele>587.65</ele>
        <time>2023-09-21T11:20:22Z</time>
      </trkpt>
      <trkpt lat="48.20707" lon="6.90599">
        <ele>587.57</ele>
        <time>2023-09-21T11:20:42Z</time>
      </trkpt>
      <trkpt lat="48.20688" lon="6.90607">
        <ele>588.12</ele>
        <time>2023-09-21T11:20:59Z</time>
      </trkpt>
      <trkpt lat="48.20671" lon="6.90621">
        <ele>588.92</ele>
        <time>2023-09-21T11:21:14Z</time>
      </trkpt>
      <trkpt lat="48.2065" lon="6.90639">
        <ele>588.95</ele>
        <time>2023-09-21T11:21:27Z</time>
      </trkpt>
      <trkpt lat="48.20628" lon="6.90669">
        <ele>588.83</ele>
        <time>2023-09-21T11:21:46Z</time>
      </trkpt>
      <trkpt lat="48.20625" lon="6.90675">
        <ele>589.31</ele>
        <time>2023-09-21T11:21:50Z</time>
      </trkpt>
      <trkpt lat="48.20621" lon="6.90683">
        <ele>589.99</ele>
        <time>2023-09-21T11:21:55Z</time>
      </trkpt>
      <trkpt lat="48.20608" lon="6.90718">
        <ele>589.54</ele>
        <time>2023-09-21T11:22:14Z</time>
      </trkpt>
      <trkpt lat="48.20587" lon="6.90761">
        <ele>589.83</ele>
        <time>2023-09-21T11:22:33Z</time>
      </trkpt>
      <trkpt lat="48.20578" lon="6.90783">
        <ele>590.05</ele>
        <time>2023-09-21T11:22:47Z</time>
      </trkpt>
      <trkpt lat="48.20564" lon="6.90819">
        <ele>589.8</ele>
        <time>2023-09-21T11:23:09Z</time>
      </trkpt>
      <trkpt lat="48.20549" lon="6.90846">
        <ele>589.62</ele>
        <time>2023-09-21T11:23:27Z</time>
      </trkpt>
      <trkpt lat="48.20533" lon="6.9085">
        <ele>589.06</ele>
        <time>2023-09-21T11:23:40Z</time>
      </trkpt>
      <trkpt lat="48.20521" lon="6.90845">
        <ele>588.12</ele>
        <time>2023-09-21T11:23:50Z</time>
      </trkpt>
      <trkpt lat="48.20504" lon="6.9083">
        <ele>587.33</ele>
        <time>2023-09-21T11:24:08Z</time>
      </trkpt>
      <trkpt lat="48.205" lon="6.90824">
        <ele>587.21</ele>
        <time>2023-09-21T11:24:13Z</time>
      </trkpt>
      <trkpt lat="48.20493" lon="6.90818">
        <ele>587.69</ele>
        <time>2023-09-21T11:24:18Z</time>
      </trkpt>
      <trkpt lat="48.20487" lon="6.90806">
        <ele>588.51</ele>
        <time>2023-09-21T11:24:25Z</time>
      </trkpt>
      <trkpt lat="48.20482" lon="6.90799">
        <ele>588.26</ele>
        <time>2023-09-21T11:24:29Z</time>
      </trkpt>
      <trkpt lat="48.20472" lon="6.90788">
        <ele>589.89</ele>
        <time>2023-09-21T11:24:39Z</time>
      </trkpt>
      <trkpt lat="48.20463" lon="6.9078">
        <ele>590.32</ele>
        <time>2023-09-21T11:24:47Z</time>
      </trkpt>
      <trkpt lat="48.20444" lon="6.9079">
        <ele>592.49</ele>
        <time>2023-09-21T11:25:00Z</time>
      </trkpt>
      <trkpt lat="48.20429" lon="6.90809">
        <ele>594.71</ele>
        <time>2023-09-21T11:25:15Z</time>
      </trkpt>
      <trkpt lat="48.20419" lon="6.90827">
        <ele>595.69</ele>
        <time>2023-09-21T11:25:27Z</time>
      </trkpt>
      <trkpt lat="48.20417" lon="6.90835">
        <ele>595.69</ele>
        <time>2023-09-21T11:25:33Z</time>
      </trkpt>
      <trkpt lat="48.20412" lon="6.90844">
        <ele>596.55</ele>
        <time>2023-09-21T11:25:38Z</time>
      </trkpt>
      <trkpt lat="48.20403" lon="6.90864">
        <ele>597.22</ele>
        <time>2023-09-21T11:25:52Z</time>
      </trkpt>
      <trkpt lat="48.20402" lon="6.90866">
        <ele>597.55</ele>
        <time>2023-09-21T11:25:55Z</time>
      </trkpt>
      <trkpt lat="48.204" lon="6.90869">
        <ele>597.97</ele>
        <time>2023-09-21T11:25:57Z</time>
      </trkpt>
      <trkpt lat="48.20398" lon="6.90872">
        <ele>598.01</ele>
        <time>2023-09-21T11:25:59Z</time>
      </trkpt>
      <trkpt lat="48.20388" lon="6.90897">
        <ele>598.72</ele>
        <time>2023-09-21T11:26:13Z</time>
      </trkpt>
      <trkpt lat="48.2038" lon="6.9092">
        <ele>600.11</ele>
        <time>2023-09-21T11:26:28Z</time>
      </trkpt>
      <trkpt lat="48.20371" lon="6.90939">
        <ele>601.9</ele>
        <time>2023-09-21T11:26:42Z</time>
      </trkpt>
      <trkpt lat="48.20367" lon="6.90947">
        <ele>601.96</ele>
        <time>2023-09-21T11:26:48Z</time>
      </trkpt>
      <trkpt lat="48.2035" lon="6.90977">
        <ele>602.53</ele>
        <time>2023-09-21T11:27:04Z</time>
      </trkpt>
      <trkpt lat="48.20336" lon="6.90992">
        <ele>603.4</ele>
        <time>2023-09-21T11:27:18Z</time>
      </trkpt>
      <trkpt lat="48.2033" lon="6.90997">
        <ele>603.97</ele>
        <time>2023-09-21T11:27:23Z</time>
      </trkpt>
      <trkpt lat="48.20309" lon="6.91008">
        <ele>605.57</ele>
        <time>2023-09-21T11:27:41Z</time>
      </trkpt>
      <trkpt lat="48.20291" lon="6.91014">
        <ele>606.65</ele>
        <time>2023-09-21T11:27:55Z</time>
      </trkpt>
      <trkpt lat="48.20273" lon="6.91029">
        <ele>607.52</ele>
        <time>2023-09-21T11:28:11Z</time>
      </trkpt>
      <trkpt lat="48.2026" lon="6.91054">
        <ele>608.92</ele>
        <time>2023-09-21T11:28:28Z</time>
      </trkpt>
      <trkpt lat="48.20249" lon="6.91076">
        <ele>608.67</ele>
        <time>2023-09-21T11:28:43Z</time>
      </trkpt>
      <trkpt lat="48.20244" lon="6.91089">
        <ele>609.23</ele>
        <time>2023-09-21T11:28:52Z</time>
      </trkpt>
      <trkpt lat="48.2024" lon="6.911">
        <ele>609.12</ele>
        <time>2023-09-21T11:28:58Z</time>
      </trkpt>
      <trkpt lat="48.20227" lon="6.9113">
        <ele>608.44</ele>
        <time>2023-09-21T11:29:17Z</time>
      </trkpt>
      <trkpt lat="48.20214" lon="6.91155">
        <ele>606.72</ele>
        <time>2023-09-21T11:29:34Z</time>
      </trkpt>
      <trkpt lat="48.20214" lon="6.91156">
        <ele>606.91</ele>
        <time>2023-09-21T11:29:35Z</time>
      </trkpt>
      <trkpt lat="48.20199" lon="6.9118">
        <ele>603.82</ele>
        <time>2023-09-21T11:29:52Z</time>
      </trkpt>
      <trkpt lat="48.20194" lon="6.9119">
        <ele>602.62</ele>
        <time>2023-09-21T11:30:00Z</time>
      </trkpt>
      <trkpt lat="48.20176" lon="6.91204">
        <ele>601</ele>
        <time>2023-09-21T11:30:16Z</time>
      </trkpt>
      <trkpt lat="48.20173" lon="6.91206">
        <ele>600.61</ele>
        <time>2023-09-21T11:30:19Z</time>
      </trkpt>
      <trkpt lat="48.20168" lon="6.9121">
        <ele>600.7</ele>
        <time>2023-09-21T11:30:23Z</time>
      </trkpt>
      <trkpt lat="48.2015" lon="6.91228">
        <ele>600.68</ele>
        <time>2023-09-21T11:30:39Z</time>
      </trkpt>
      <trkpt lat="48.20145" lon="6.91234">
        <ele>601.03</ele>
        <time>2023-09-21T11:30:44Z</time>
      </trkpt>
      <trkpt lat="48.2013" lon="6.91264">
        <ele>601.78</ele>
        <time>2023-09-21T11:30:59Z</time>
      </trkpt>
      <trkpt lat="48.20129" lon="6.91266">
        <ele>602.14</ele>
        <time>2023-09-21T11:31:00Z</time>
      </trkpt>
      <trkpt lat="48.20122" lon="6.91287">
        <ele>603.15</ele>
        <time>2023-09-21T11:31:12Z</time>
      </trkpt>
      <trkpt lat="48.20114" lon="6.91307">
        <ele>604.85</ele>
        <time>2023-09-21T11:31:25Z</time>
      </trkpt>
      <trkpt lat="48.20101" lon="6.91326">
        <ele>605.7</ele>
        <time>2023-09-21T11:31:40Z</time>
      </trkpt>
      <trkpt lat="48.20085" lon="6.91329">
        <ele>607.92</ele>
        <time>2023-09-21T11:31:54Z</time>
      </trkpt>
      <trkpt lat="48.20065" lon="6.91333">
        <ele>609.62</ele>
        <time>2023-09-21T11:32:11Z</time>
      </trkpt>
      <trkpt lat="48.20046" lon="6.91335">
        <ele>610.12</ele>
        <time>2023-09-21T11:32:26Z</time>
      </trkpt>
      <trkpt lat="48.20038" lon="6.91336">
        <ele>609.45</ele>
        <time>2023-09-21T11:32:32Z</time>
      </trkpt>
      <trkpt lat="48.20027" lon="6.9134">
        <ele>609.54</ele>
        <time>2023-09-21T11:32:41Z</time>
      </trkpt>
      <trkpt lat="48.20008" lon="6.91349">
        <ele>607.96</ele>
        <time>2023-09-21T11:32:56Z</time>
      </trkpt>
      <trkpt lat="48.19992" lon="6.9136">
        <ele>607.78</ele>
        <time>2023-09-21T11:33:09Z</time>
      </trkpt>
      <trkpt lat="48.19986" lon="6.91366">
        <ele>607.77</ele>
        <time>2023-09-21T11:33:13Z</time>
      </trkpt>
      <trkpt lat="48.19979" lon="6.91387">
        <ele>607.52</ele>
        <time>2023-09-21T11:33:24Z</time>
      </trkpt>
      <trkpt lat="48.19969" lon="6.91419">
        <ele>606.94</ele>
        <time>2023-09-21T11:33:40Z</time>
      </trkpt>
      <trkpt lat="48.19962" lon="6.91447">
        <ele>606.07</ele>
        <time>2023-09-21T11:33:55Z</time>
      </trkpt>
      <trkpt lat="48.19957" lon="6.9147">
        <ele>604.24</ele>
        <time>2023-09-21T11:34:08Z</time>
      </trkpt>
      <trkpt lat="48.19953" lon="6.91497">
        <ele>603.5</ele>
        <time>2023-09-21T11:34:24Z</time>
      </trkpt>
      <trkpt lat="48.19951" lon="6.91505">
        <ele>602.46</ele>
        <time>2023-09-21T11:34:28Z</time>
      </trkpt>
      <trkpt lat="48.1995" lon="6.91514">
        <ele>602.44</ele>
        <time>2023-09-21T11:34:33Z</time>
      </trkpt>
      <trkpt lat="48.19949" lon="6.9154">
        <ele>601.14</ele>
        <time>2023-09-21T11:34:47Z</time>
      </trkpt>
      <trkpt lat="48.19946" lon="6.91555">
        <ele>601.21</ele>
        <time>2023-09-21T11:34:55Z</time>
      </trkpt>
      <trkpt lat="48.19945" lon="6.91583">
        <ele>599.14</ele>
        <time>2023-09-21T11:35:09Z</time>
      </trkpt>
      <trkpt lat="48.19944" lon="6.91591">
        <ele>599.25</ele>
        <time>2023-09-21T11:35:14Z</time>
      </trkpt>
      <trkpt lat="48.19945" lon="6.91611">
        <ele>598.58</ele>
        <time>2023-09-21T11:35:25Z</time>
      </trkpt>
      <trkpt lat="48.19943" lon="6.91635">
        <ele>597.79</ele>
        <time>2023-09-21T11:35:38Z</time>
      </trkpt>
      <trkpt lat="48.19938" lon="6.91645">
        <ele>597.65</ele>
        <time>2023-09-21T11:35:51Z</time>
      </trkpt>
      <trkpt lat="48.19935" lon="6.91648">
        <ele>597.84</ele>
        <time>2023-09-21T11:35:55Z</time>
      </trkpt>
      <trkpt lat="48.19919" lon="6.91649">
        <ele>597.56</ele>
        <time>2023-09-21T11:36:10Z</time>
      </trkpt>
      <trkpt lat="48.19914" lon="6.91648">
        <ele>597.87</ele>
        <time>2023-09-21T11:36:22Z</time>
      </trkpt>
      <trkpt lat="48.19917" lon="6.91655">
        <ele>597.19</ele>
        <time>2023-09-21T11:36:35Z</time>
      </trkpt>
      <trkpt lat="48.19903" lon="6.91655">
        <ele>595.07</ele>
        <time>2023-09-21T11:36:50Z</time>
      </trkpt>
      <trkpt lat="48.19886" lon="6.91655">
        <ele>593.21</ele>
        <time>2023-09-21T11:37:05Z</time>
      </trkpt>
      <trkpt lat="48.19882" lon="6.91655">
        <ele>591.4</ele>
        <time>2023-09-21T11:37:09Z</time>
      </trkpt>
      <trkpt lat="48.1988" lon="6.91654">
        <ele>590.34</ele>
        <time>2023-09-21T11:37:11Z</time>
      </trkpt>
      <trkpt lat="48.19871" lon="6.91648">
        <ele>589.4</ele>
        <time>2023-09-21T11:37:19Z</time>
      </trkpt>
      <trkpt lat="48.19868" lon="6.91646">
        <ele>588.43</ele>
        <time>2023-09-21T11:37:21Z</time>
      </trkpt>
      <trkpt lat="48.1985" lon="6.91635">
        <ele>586.06</ele>
        <time>2023-09-21T11:37:35Z</time>
      </trkpt>
      <trkpt lat="48.19843" lon="6.91627">
        <ele>584.56</ele>
        <time>2023-09-21T11:37:43Z</time>
      </trkpt>
      <trkpt lat="48.19841" lon="6.91625">
        <ele>583.84</ele>
        <time>2023-09-21T11:37:45Z</time>
      </trkpt>
      <trkpt lat="48.1984" lon="6.91624">
        <ele>583.74</ele>
        <time>2023-09-21T11:37:46Z</time>
      </trkpt>
      <trkpt lat="48.19832" lon="6.9162">
        <ele>583.32</ele>
        <time>2023-09-21T11:37:53Z</time>
      </trkpt>
      <trkpt lat="48.19824" lon="6.91605">
        <ele>581.66</ele>
        <time>2023-09-21T11:38:03Z</time>
      </trkpt>
      <trkpt lat="48.19809" lon="6.91584">
        <ele>579.92</ele>
        <time>2023-09-21T11:38:19Z</time>
      </trkpt>
      <trkpt lat="48.19797" lon="6.91569">
        <ele>578.72</ele>
        <time>2023-09-21T11:38:31Z</time>
      </trkpt>
      <trkpt lat="48.19794" lon="6.91564">
        <ele>577.88</ele>
        <time>2023-09-21T11:38:35Z</time>
      </trkpt>
      <trkpt lat="48.19787" lon="6.91552">
        <ele>576.84</ele>
        <time>2023-09-21T11:38:44Z</time>
      </trkpt>
      <trkpt lat="48.19775" lon="6.91532">
        <ele>575.32</ele>
        <time>2023-09-21T11:38:57Z</time>
      </trkpt>
      <trkpt lat="48.19768" lon="6.9152">
        <ele>574.63</ele>
        <time>2023-09-21T11:39:05Z</time>
      </trkpt>
      <trkpt lat="48.1976" lon="6.91511">
        <ele>572.26</ele>
        <time>2023-09-21T11:39:15Z</time>
      </trkpt>
      <trkpt lat="48.1975" lon="6.91493">
        <ele>569.54</ele>
        <time>2023-09-21T11:39:28Z</time>
      </trkpt>
      <trkpt lat="48.1974" lon="6.91478">
        <ele>567.2</ele>
        <time>2023-09-21T11:39:40Z</time>
      </trkpt>
      <trkpt lat="48.1973" lon="6.91465">
        <ele>564.68</ele>
        <time>2023-09-21T11:39:52Z</time>
      </trkpt>
      <trkpt lat="48.19717" lon="6.91462">
        <ele>562.28</ele>
        <time>2023-09-21T11:40:02Z</time>
      </trkpt>
      <trkpt lat="48.19716" lon="6.91462">
        <ele>562.26</ele>
        <time>2023-09-21T11:40:03Z</time>
      </trkpt>
      <trkpt lat="48.1971" lon="6.91467">
        <ele>562.59</ele>
        <time>2023-09-21T11:40:10Z</time>
      </trkpt>
      <trkpt lat="48.19697" lon="6.9148">
        <ele>560.47</ele>
        <time>2023-09-21T11:40:26Z</time>
      </trkpt>
      <trkpt lat="48.19697" lon="6.91484">
        <ele>560.61</ele>
        <time>2023-09-21T11:40:35Z</time>
      </trkpt>
      <trkpt lat="48.19688" lon="6.91496">
        <ele>559.25</ele>
        <time>2023-09-21T11:40:43Z</time>
      </trkpt>
      <trkpt lat="48.19665" lon="6.91513">
        <ele>558.13</ele>
        <time>2023-09-21T11:41:00Z</time>
      </trkpt>
      <trkpt lat="48.19665" lon="6.91514">
        <ele>557.86</ele>
        <time>2023-09-21T11:41:18Z</time>
      </trkpt>
      <trkpt lat="48.19662" lon="6.91513">
        <ele>558.49</ele>
        <time>2023-09-21T11:41:22Z</time>
      </trkpt>
      <trkpt lat="48.19659" lon="6.91514">
        <ele>558.77</ele>
        <time>2023-09-21T11:41:24Z</time>
      </trkpt>
      <trkpt lat="48.19644" lon="6.91532">
        <ele>558.81</ele>
        <time>2023-09-21T11:41:38Z</time>
      </trkpt>
      <trkpt lat="48.19631" lon="6.91552">
        <ele>560.08</ele>
        <time>2023-09-21T11:41:52Z</time>
      </trkpt>
      <trkpt lat="48.19623" lon="6.91569">
        <ele>559.97</ele>
        <time>2023-09-21T11:42:03Z</time>
      </trkpt>
      <trkpt lat="48.196" lon="6.91582">
        <ele>559.18</ele>
        <time>2023-09-21T11:42:20Z</time>
      </trkpt>
      <trkpt lat="48.19584" lon="6.91597">
        <ele>558.64</ele>
        <time>2023-09-21T11:42:35Z</time>
      </trkpt>
      <trkpt lat="48.19584" lon="6.91599">
        <ele>558.32</ele>
        <time>2023-09-21T11:42:36Z</time>
      </trkpt>
      <trkpt lat="48.19584" lon="6.91603">
        <ele>558.33</ele>
        <time>2023-09-21T11:42:39Z</time>
      </trkpt>
      <trkpt lat="48.1958" lon="6.91633">
        <ele>556.63</ele>
        <time>2023-09-21T11:42:55Z</time>
      </trkpt>
      <trkpt lat="48.19571" lon="6.91662">
        <ele>556.19</ele>
        <time>2023-09-21T11:43:12Z</time>
      </trkpt>
      <trkpt lat="48.19561" lon="6.91695">
        <ele>555.01</ele>
        <time>2023-09-21T11:43:30Z</time>
      </trkpt>
      <trkpt lat="48.19554" lon="6.9172">
        <ele>554.84</ele>
        <time>2023-09-21T11:43:44Z</time>
      </trkpt>
      <trkpt lat="48.19552" lon="6.91727">
        <ele>555.28</ele>
        <time>2023-09-21T11:43:48Z</time>
      </trkpt>
      <trkpt lat="48.19536" lon="6.91751">
        <ele>555.23</ele>
        <time>2023-09-21T11:44:05Z</time>
      </trkpt>
      <trkpt lat="48.19514" lon="6.91773">
        <ele>556.06</ele>
        <time>2023-09-21T11:44:23Z</time>
      </trkpt>
      <trkpt lat="48.19494" lon="6.91793">
        <ele>555.89</ele>
        <time>2023-09-21T11:44:41Z</time>
      </trkpt>
      <trkpt lat="48.19489" lon="6.91796">
        <ele>555.73</ele>
        <time>2023-09-21T11:44:46Z</time>
      </trkpt>
      <trkpt lat="48.19483" lon="6.918">
        <ele>556.34</ele>
        <time>2023-09-21T11:44:52Z</time>
      </trkpt>
      <trkpt lat="48.19469" lon="6.91806">
        <ele>556.67</ele>
        <time>2023-09-21T11:45:06Z</time>
      </trkpt>
      <trkpt lat="48.19467" lon="6.91807">
        <ele>557.08</ele>
        <time>2023-09-21T11:45:07Z</time>
      </trkpt>
      <trkpt lat="48.1945" lon="6.9182">
        <ele>556.55</ele>
        <time>2023-09-21T11:45:21Z</time>
      </trkpt>
      <trkpt lat="48.19437" lon="6.91824">
        <ele>555.52</ele>
        <time>2023-09-21T11:45:31Z</time>
      </trkpt>
      <trkpt lat="48.19434" lon="6.91828">
        <ele>555.56</ele>
        <time>2023-09-21T11:45:43Z</time>
      </trkpt>
      <trkpt lat="48.19431" lon="6.91836">
        <ele>554.73</ele>
        <time>2023-09-21T11:46:00Z</time>
      </trkpt>
      <trkpt lat="48.1943" lon="6.91838">
        <ele>554.65</ele>
        <time>2023-09-21T11:46:20Z</time>
      </trkpt>
      <trkpt lat="48.19429" lon="6.91841">
        <ele>554.72</ele>
        <time>2023-09-21T11:46:22Z</time>
      </trkpt>
      <trkpt lat="48.19423" lon="6.91847">
        <ele>554.07</ele>
        <time>2023-09-21T11:46:28Z</time>
      </trkpt>
      <trkpt lat="48.19417" lon="6.91851">
        <ele>553.01</ele>
        <time>2023-09-21T11:46:41Z</time>
      </trkpt>
      <trkpt lat="48.19412" lon="6.91853">
        <ele>552.7</ele>
        <time>2023-09-21T11:46:58Z</time>
      </trkpt>
      <trkpt lat="48.19417" lon="6.91852">
        <ele>552.95</ele>
        <time>2023-09-21T11:47:19Z</time>
      </trkpt>
      <trkpt lat="48.19416" lon="6.91854">
        <ele>552.62</ele>
        <time>2023-09-21T11:47:26Z</time>
      </trkpt>
      <trkpt lat="48.19415" lon="6.91859">
        <ele>551.92</ele>
        <time>2023-09-21T11:47:29Z</time>
      </trkpt>
      <trkpt lat="48.19416" lon="6.91865">
        <ele>550.74</ele>
        <time>2023-09-21T11:47:33Z</time>
      </trkpt>
      <trkpt lat="48.19416" lon="6.91874">
        <ele>550.02</ele>
        <time>2023-09-21T11:47:49Z</time>
      </trkpt>
      <trkpt lat="48.19416" lon="6.91875">
        <ele>549.97</ele>
        <time>2023-09-21T11:47:50Z</time>
      </trkpt>
      <trkpt lat="48.19404" lon="6.91907">
        <ele>545.9</ele>
        <time>2023-09-21T11:48:09Z</time>
      </trkpt>
      <trkpt lat="48.19398" lon="6.91923">
        <ele>542.64</ele>
        <time>2023-09-21T11:48:19Z</time>
      </trkpt>
      <trkpt lat="48.19393" lon="6.91942">
        <ele>539.6</ele>
        <time>2023-09-21T11:48:31Z</time>
      </trkpt>
      <trkpt lat="48.19386" lon="6.91977">
        <ele>536.61</ele>
        <time>2023-09-21T11:48:50Z</time>
      </trkpt>
      <trkpt lat="48.19382" lon="6.91998">
        <ele>534.15</ele>
        <time>2023-09-21T11:49:01Z</time>
      </trkpt>
      <trkpt lat="48.19374" lon="6.92021">
        <ele>530.49</ele>
        <time>2023-09-21T11:49:15Z</time>
      </trkpt>
      <trkpt lat="48.19373" lon="6.92022">
        <ele>530.73</ele>
        <time>2023-09-21T11:49:16Z</time>
      </trkpt>
      <trkpt lat="48.19365" lon="6.9205">
        <ele>527.33</ele>
        <time>2023-09-21T11:49:33Z</time>
      </trkpt>
      <trkpt lat="48.19361" lon="6.92072">
        <ele>524.09</ele>
        <time>2023-09-21T11:49:47Z</time>
      </trkpt>
      <trkpt lat="48.19357" lon="6.9209">
        <ele>522.29</ele>
        <time>2023-09-21T11:50:02Z</time>
      </trkpt>
      <trkpt lat="48.19356" lon="6.92091">
        <ele>522.93</ele>
        <time>2023-09-21T11:50:04Z</time>
      </trkpt>
      <trkpt lat="48.19354" lon="6.92093">
        <ele>521.98</ele>
        <time>2023-09-21T11:50:06Z</time>
      </trkpt>
      <trkpt lat="48.19348" lon="6.92121">
        <ele>518.79</ele>
        <time>2023-09-21T11:50:24Z</time>
      </trkpt>
      <trkpt lat="48.19341" lon="6.9215">
        <ele>516.03</ele>
        <time>2023-09-21T11:50:42Z</time>
      </trkpt>
      <trkpt lat="48.19326" lon="6.92174">
        <ele>513.07</ele>
        <time>2023-09-21T11:51:02Z</time>
      </trkpt>
      <trkpt lat="48.19308" lon="6.92194">
        <ele>510.05</ele>
        <time>2023-09-21T11:51:21Z</time>
      </trkpt>
      <trkpt lat="48.19286" lon="6.92209">
        <ele>506.87</ele>
        <time>2023-09-21T11:51:41Z</time>
      </trkpt>
      <trkpt lat="48.1926" lon="6.92215">
        <ele>505.21</ele>
        <time>2023-09-21T11:52:04Z</time>
      </trkpt>
      <trkpt lat="48.19257" lon="6.92216">
        <ele>504.1</ele>
        <time>2023-09-21T11:52:10Z</time>
      </trkpt>
      <trkpt lat="48.19254" lon="6.92216">
        <ele>504.3</ele>
        <time>2023-09-21T11:52:14Z</time>
      </trkpt>
      <trkpt lat="48.19232" lon="6.92204">
        <ele>502.66</ele>
        <time>2023-09-21T11:52:34Z</time>
      </trkpt>
      <trkpt lat="48.19216" lon="6.9222">
        <ele>500.28</ele>
        <time>2023-09-21T11:52:51Z</time>
      </trkpt>
      <trkpt lat="48.19196" lon="6.9225">
        <ele>498.9</ele>
        <time>2023-09-21T11:53:14Z</time>
      </trkpt>
      <trkpt lat="48.19169" lon="6.9227">
        <ele>496.2</ele>
        <time>2023-09-21T11:53:39Z</time>
      </trkpt>
      <trkpt lat="48.19157" lon="6.92292">
        <ele>495.2</ele>
        <time>2023-09-21T11:53:55Z</time>
      </trkpt>
      <trkpt lat="48.19155" lon="6.92305">
        <ele>494.89</ele>
        <time>2023-09-21T11:54:14Z</time>
      </trkpt>
      <trkpt lat="48.19155" lon="6.92309">
        <ele>494.46</ele>
        <time>2023-09-21T11:54:22Z</time>
      </trkpt>
      <trkpt lat="48.19155" lon="6.9232">
        <ele>493.74</ele>
        <time>2023-09-21T11:54:29Z</time>
      </trkpt>
      <trkpt lat="48.19156" lon="6.92338">
        <ele>492.23</ele>
        <time>2023-09-21T11:54:39Z</time>
      </trkpt>
      <trkpt lat="48.19159" lon="6.92354">
        <ele>491.31</ele>
        <time>2023-09-21T11:54:54Z</time>
      </trkpt>
      <trkpt lat="48.19159" lon="6.92355">
        <ele>491.58</ele>
        <time>2023-09-21T11:55:03Z</time>
      </trkpt>
      <trkpt lat="48.1916" lon="6.9236">
        <ele>491.29</ele>
        <time>2023-09-21T11:55:06Z</time>
      </trkpt>
      <trkpt lat="48.19168" lon="6.92395">
        <ele>488.48</ele>
        <time>2023-09-21T11:55:25Z</time>
      </trkpt>
      <trkpt lat="48.19169" lon="6.92422">
        <ele>487.01</ele>
        <time>2023-09-21T11:55:38Z</time>
      </trkpt>
      <trkpt lat="48.19171" lon="6.92431">
        <ele>484.68</ele>
        <time>2023-09-21T11:55:52Z</time>
      </trkpt>
      <trkpt lat="48.19166" lon="6.92431">
        <ele>486.08</ele>
        <time>2023-09-21T11:56:12Z</time>
      </trkpt>
      <trkpt lat="48.19167" lon="6.92468">
        <ele>484.22</ele>
        <time>2023-09-21T11:56:31Z</time>
      </trkpt>
      <trkpt lat="48.19165" lon="6.92502">
        <ele>483.26</ele>
        <time>2023-09-21T11:56:48Z</time>
      </trkpt>
      <trkpt lat="48.19161" lon="6.92533">
        <ele>481.84</ele>
        <time>2023-09-21T11:57:05Z</time>
      </trkpt>
      <trkpt lat="48.19149" lon="6.92561">
        <ele>482.09</ele>
        <time>2023-09-21T11:57:22Z</time>
      </trkpt>
      <trkpt lat="48.1913" lon="6.92585">
        <ele>481.92</ele>
        <time>2023-09-21T11:57:41Z</time>
      </trkpt>
      <trkpt lat="48.19114" lon="6.926">
        <ele>482.8</ele>
        <time>2023-09-21T11:57:56Z</time>
      </trkpt>
      <trkpt lat="48.19103" lon="6.9261">
        <ele>482.82</ele>
        <time>2023-09-21T11:58:06Z</time>
      </trkpt>
      <trkpt lat="48.19095" lon="6.92613">
        <ele>483.07</ele>
        <time>2023-09-21T11:58:11Z</time>
      </trkpt>
      <trkpt lat="48.19072" lon="6.92633">
        <ele>484.51</ele>
        <time>2023-09-21T11:58:31Z</time>
      </trkpt>
      <trkpt lat="48.19054" lon="6.92661">
        <ele>485.96</ele>
        <time>2023-09-21T11:58:50Z</time>
      </trkpt>
      <trkpt lat="48.19042" lon="6.92709">
        <ele>487.73</ele>
        <time>2023-09-21T11:59:14Z</time>
      </trkpt>
      <trkpt lat="48.19041" lon="6.92746">
        <ele>487.2</ele>
        <time>2023-09-21T11:59:31Z</time>
      </trkpt>
      <trkpt lat="48.19049" lon="6.92785">
        <ele>487.19</ele>
        <time>2023-09-21T11:59:51Z</time>
      </trkpt>
      <trkpt lat="48.19065" lon="6.92822">
        <ele>485.31</ele>
        <time>2023-09-21T12:00:13Z</time>
      </trkpt>
      <trkpt lat="48.19072" lon="6.92836">
        <ele>483.97</ele>
        <time>2023-09-21T12:00:29Z</time>
      </trkpt>
      <trkpt lat="48.19073" lon="6.92836">
        <ele>484.46</ele>
        <time>2023-09-21T12:00:35Z</time>
      </trkpt>
      <trkpt lat="48.19077" lon="6.92838">
        <ele>484.45</ele>
        <time>2023-09-21T12:00:48Z</time>
      </trkpt>
      <trkpt lat="48.19077" lon="6.92841">
        <ele>483.4</ele>
        <time>2023-09-21T12:01:05Z</time>
      </trkpt>
      <trkpt lat="48.19078" lon="6.92841">
        <ele>484.25</ele>
        <time>2023-09-21T12:01:07Z</time>
      </trkpt>
      <trkpt lat="48.19083" lon="6.92848">
        <ele>483.63</ele>
        <time>2023-09-21T12:01:14Z</time>
      </trkpt>
      <trkpt lat="48.1909" lon="6.92855">
        <ele>483.33</ele>
        <time>2023-09-21T12:01:21Z</time>
      </trkpt>
      <trkpt lat="48.19102" lon="6.92879">
        <ele>481.67</ele>
        <time>2023-09-21T12:01:38Z</time>
      </trkpt>
      <trkpt lat="48.19109" lon="6.92898">
        <ele>481.07</ele>
        <time>2023-09-21T12:01:51Z</time>
      </trkpt>
      <trkpt lat="48.19112" lon="6.92903">
        <ele>481.67</ele>
        <time>2023-09-21T12:02:02Z</time>
      </trkpt>
      <trkpt lat="48.19114" lon="6.92908">
        <ele>480.83</ele>
        <time>2023-09-21T12:02:05Z</time>
      </trkpt>
      <trkpt lat="48.19132" lon="6.92943">
        <ele>479.25</ele>
        <time>2023-09-21T12:02:30Z</time>
      </trkpt>
      <trkpt lat="48.19149" lon="6.9298">
        <ele>477.17</ele>
        <time>2023-09-21T12:02:56Z</time>
      </trkpt>
      <trkpt lat="48.19168" lon="6.93022">
        <ele>474.61</ele>
        <time>2023-09-21T12:03:24Z</time>
      </trkpt>
      <trkpt lat="48.19179" lon="6.93059">
        <ele>472.81</ele>
        <time>2023-09-21T12:03:46Z</time>
      </trkpt>
      <trkpt lat="48.19187" lon="6.93093">
        <ele>470.56</ele>
        <time>2023-09-21T12:04:07Z</time>
      </trkpt>
      <trkpt lat="48.19199" lon="6.93117">
        <ele>468.57</ele>
        <time>2023-09-21T12:04:26Z</time>
      </trkpt>
      <trkpt lat="48.19203" lon="6.93121">
        <ele>468.27</ele>
        <time>2023-09-21T12:04:44Z</time>
      </trkpt>
      <trkpt lat="48.19211" lon="6.93138">
        <ele>467.06</ele>
        <time>2023-09-21T12:04:57Z</time>
      </trkpt>
      <trkpt lat="48.19213" lon="6.93146">
        <ele>466.89</ele>
        <time>2023-09-21T12:05:02Z</time>
      </trkpt>
      <trkpt lat="48.19217" lon="6.9317">
        <ele>464.78</ele>
        <time>2023-09-21T12:05:16Z</time>
      </trkpt>
      <trkpt lat="48.19202" lon="6.93191">
        <ele>463.55</ele>
        <time>2023-09-21T12:05:31Z</time>
      </trkpt>
      <trkpt lat="48.19178" lon="6.93194">
        <ele>462.46</ele>
        <time>2023-09-21T12:05:50Z</time>
      </trkpt>
      <trkpt lat="48.19172" lon="6.93193">
        <ele>462.99</ele>
        <time>2023-09-21T12:06:05Z</time>
      </trkpt>
      <trkpt lat="48.19171" lon="6.93191">
        <ele>462.27</ele>
        <time>2023-09-21T12:06:09Z</time>
      </trkpt>
      <trkpt lat="48.19169" lon="6.93191">
        <ele>462.76</ele>
        <time>2023-09-21T12:06:11Z</time>
      </trkpt>
      <trkpt lat="48.19143" lon="6.9317">
        <ele>460.93</ele>
        <time>2023-09-21T12:06:36Z</time>
      </trkpt>
      <trkpt lat="48.19123" lon="6.93145">
        <ele>459.85</ele>
        <time>2023-09-21T12:06:56Z</time>
      </trkpt>
      <trkpt lat="48.19104" lon="6.93118">
        <ele>460.56</ele>
        <time>2023-09-21T12:07:17Z</time>
      </trkpt>
      <trkpt lat="48.19082" lon="6.93105">
        <ele>460.98</ele>
        <time>2023-09-21T12:07:36Z</time>
      </trkpt>
      <trkpt lat="48.19057" lon="6.9311">
        <ele>462.06</ele>
        <time>2023-09-21T12:07:57Z</time>
      </trkpt>
      <trkpt lat="48.19033" lon="6.9312">
        <ele>462.38</ele>
        <time>2023-09-21T12:08:16Z</time>
      </trkpt>
      <trkpt lat="48.19026" lon="6.93123">
        <ele>462.38</ele>
        <time>2023-09-21T12:08:32Z</time>
      </trkpt>
      <trkpt lat="48.19024" lon="6.93125">
        <ele>462.86</ele>
        <time>2023-09-21T12:08:41Z</time>
      </trkpt>
      <trkpt lat="48.19022" lon="6.93124">
        <ele>463.13</ele>
        <time>2023-09-21T12:08:43Z</time>
      </trkpt>
      <trkpt lat="48.19006" lon="6.9313">
        <ele>464.22</ele>
        <time>2023-09-21T12:08:56Z</time>
      </trkpt>
      <trkpt lat="48.18995" lon="6.93134">
        <ele>465.17</ele>
        <time>2023-09-21T12:09:05Z</time>
      </trkpt>
      <trkpt lat="48.18977" lon="6.93157">
        <ele>466.05</ele>
        <time>2023-09-21T12:09:25Z</time>
      </trkpt>
      <trkpt lat="48.18959" lon="6.93187">
        <ele>466.42</ele>
        <time>2023-09-21T12:09:46Z</time>
      </trkpt>
      <trkpt lat="48.1894" lon="6.93216">
        <ele>466.16</ele>
        <time>2023-09-21T12:10:08Z</time>
      </trkpt>
      <trkpt lat="48.18928" lon="6.9325">
        <ele>467.01</ele>
        <time>2023-09-21T12:10:29Z</time>
      </trkpt>
      <trkpt lat="48.18921" lon="6.9328">
        <ele>465.79</ele>
        <time>2023-09-21T12:10:46Z</time>
      </trkpt>
      <trkpt lat="48.18921" lon="6.93297">
        <ele>466.07</ele>
        <time>2023-09-21T12:10:55Z</time>
      </trkpt>
      <trkpt lat="48.18922" lon="6.93341">
        <ele>465.41</ele>
        <time>2023-09-21T12:11:17Z</time>
      </trkpt>
      <trkpt lat="48.18928" lon="6.93393">
        <ele>464.39</ele>
        <time>2023-09-21T12:11:44Z</time>
      </trkpt>
      <trkpt lat="48.18932" lon="6.93436">
        <ele>464.16</ele>
        <time>2023-09-21T12:12:06Z</time>
      </trkpt>
      <trkpt lat="48.1894" lon="6.93475">
        <ele>464.69</ele>
        <time>2023-09-21T12:12:29Z</time>
      </trkpt>
      <trkpt lat="48.18953" lon="6.93504">
        <ele>465.47</ele>
        <time>2023-09-21T12:12:48Z</time>
      </trkpt>
      <trkpt lat="48.18964" lon="6.93534">
        <ele>465.4</ele>
        <time>2023-09-21T12:13:07Z</time>
      </trkpt>
      <trkpt lat="48.18962" lon="6.93577">
        <ele>466.22</ele>
        <time>2023-09-21T12:13:31Z</time>
      </trkpt>
      <trkpt lat="48.18949" lon="6.93617">
        <ele>465.84</ele>
        <time>2023-09-21T12:13:55Z</time>
      </trkpt>
      <trkpt lat="48.18945" lon="6.9363">
        <ele>464.85</ele>
        <time>2023-09-21T12:14:03Z</time>
      </trkpt>
      <trkpt lat="48.18946" lon="6.93667">
        <ele>461.47</ele>
        <time>2023-09-21T12:14:22Z</time>
      </trkpt>
      <trkpt lat="48.18956" lon="6.93694">
        <ele>462.61</ele>
        <time>2023-09-21T12:14:38Z</time>
      </trkpt>
      <trkpt lat="48.18969" lon="6.9373">
        <ele>461.67</ele>
        <time>2023-09-21T12:14:58Z</time>
      </trkpt>
      <trkpt lat="48.18974" lon="6.93751">
        <ele>460.05</ele>
        <time>2023-09-21T12:15:09Z</time>
      </trkpt>
      <trkpt lat="48.18981" lon="6.93783">
        <ele>458.74</ele>
        <time>2023-09-21T12:15:26Z</time>
      </trkpt>
      <trkpt lat="48.18984" lon="6.93829">
        <ele>458.72</ele>
        <time>2023-09-21T12:15:50Z</time>
      </trkpt>
      <trkpt lat="48.1898" lon="6.93833">
        <ele>458</ele>
        <time>2023-09-21T12:15:57Z</time>
      </trkpt>
      <trkpt lat="48.18982" lon="6.93839">
        <ele>458.19</ele>
        <time>2023-09-21T12:16:01Z</time>
      </trkpt>
      <trkpt lat="48.18981" lon="6.93881">
        <ele>457.1</ele>
        <time>2023-09-21T12:16:23Z</time>
      </trkpt>
      <trkpt lat="48.18974" lon="6.93921">
        <ele>457.38</ele>
        <time>2023-09-21T12:16:44Z</time>
      </trkpt>
      <trkpt lat="48.18959" lon="6.93957">
        <ele>456.18</ele>
        <time>2023-09-21T12:17:06Z</time>
      </trkpt>
      <trkpt lat="48.1894" lon="6.93987">
        <ele>454.31</ele>
        <time>2023-09-21T12:17:27Z</time>
      </trkpt>
      <trkpt lat="48.18922" lon="6.94022">
        <ele>453.07</ele>
        <time>2023-09-21T12:17:49Z</time>
      </trkpt>
      <trkpt lat="48.18915" lon="6.94063">
        <ele>451.27</ele>
        <time>2023-09-21T12:18:10Z</time>
      </trkpt>
      <trkpt lat="48.18919" lon="6.94109">
        <ele>451.16</ele>
        <time>2023-09-21T12:18:33Z</time>
      </trkpt>
      <trkpt lat="48.18912" lon="6.94152">
        <ele>450.96</ele>
        <time>2023-09-21T12:18:55Z</time>
      </trkpt>
      <trkpt lat="48.18903" lon="6.94192">
        <ele>450.14</ele>
        <time>2023-09-21T12:19:17Z</time>
      </trkpt>
      <trkpt lat="48.18891" lon="6.94234">
        <ele>449.55</ele>
        <time>2023-09-21T12:19:41Z</time>
      </trkpt>
      <trkpt lat="48.18877" lon="6.94281">
        <ele>450.62</ele>
        <time>2023-09-21T12:20:07Z</time>
      </trkpt>
      <trkpt lat="48.18867" lon="6.94317">
        <ele>449.84</ele>
        <time>2023-09-21T12:20:28Z</time>
      </trkpt>
      <trkpt lat="48.18856" lon="6.94347">
        <ele>449.57</ele>
        <time>2023-09-21T12:20:47Z</time>
      </trkpt>
      <trkpt lat="48.18855" lon="6.9435">
        <ele>449.99</ele>
        <time>2023-09-21T12:20:49Z</time>
      </trkpt>
      <trkpt lat="48.18857" lon="6.94366">
        <ele>449.44</ele>
        <time>2023-09-21T12:20:55Z</time>
      </trkpt>
      <trkpt lat="48.18857" lon="6.94382">
        <ele>449.54</ele>
        <time>2023-09-21T12:21:02Z</time>
      </trkpt>
      <trkpt lat="48.18855" lon="6.94403">
        <ele>450.39</ele>
        <time>2023-09-21T12:21:14Z</time>
      </trkpt>
      <trkpt lat="48.18854" lon="6.94405">
        <ele>450.09</ele>
        <time>2023-09-21T12:21:15Z</time>
      </trkpt>
      <trkpt lat="48.18848" lon="6.94428">
        <ele>450.35</ele>
        <time>2023-09-21T12:21:28Z</time>
      </trkpt>
      <trkpt lat="48.18842" lon="6.94455">
        <ele>450.33</ele>
        <time>2023-09-21T12:21:43Z</time>
      </trkpt>
      <trkpt lat="48.1883" lon="6.94483">
        <ele>450.63</ele>
        <time>2023-09-21T12:22:01Z</time>
      </trkpt>
      <trkpt lat="48.18833" lon="6.94508">
        <ele>450.56</ele>
        <time>2023-09-21T12:22:17Z</time>
      </trkpt>
      <trkpt lat="48.18834" lon="6.94511">
        <ele>450.5</ele>
        <time>2023-09-21T12:22:19Z</time>
      </trkpt>
      <trkpt lat="48.18841" lon="6.94542">
        <ele>450.14</ele>
        <time>2023-09-21T12:22:36Z</time>
      </trkpt>
      <trkpt lat="48.18848" lon="6.94582">
        <ele>450.56</ele>
        <time>2023-09-21T12:22:57Z</time>
      </trkpt>
      <trkpt lat="48.18853" lon="6.94616">
        <ele>451.52</ele>
        <time>2023-09-21T12:23:15Z</time>
      </trkpt>
      <trkpt lat="48.18861" lon="6.94659">
        <ele>451.77</ele>
        <time>2023-09-21T12:23:38Z</time>
      </trkpt>
      <trkpt lat="48.18872" lon="6.94701">
        <ele>451.9</ele>
        <time>2023-09-21T12:24:01Z</time>
      </trkpt>
      <trkpt lat="48.1888" lon="6.94739">
        <ele>451.56</ele>
        <time>2023-09-21T12:24:22Z</time>
      </trkpt>
      <trkpt lat="48.18887" lon="6.94776">
        <ele>452.11</ele>
        <time>2023-09-21T12:24:42Z</time>
      </trkpt>
      <trkpt lat="48.18893" lon="6.94815">
        <ele>452.23</ele>
        <time>2023-09-21T12:25:03Z</time>
      </trkpt>
      <trkpt lat="48.18895" lon="6.94848">
        <ele>453.64</ele>
        <time>2023-09-21T12:25:20Z</time>
      </trkpt>
      <trkpt lat="48.18895" lon="6.94894">
        <ele>452</ele>
        <time>2023-09-21T12:25:43Z</time>
      </trkpt>
      <trkpt lat="48.18895" lon="6.94927">
        <ele>452.49</ele>
        <time>2023-09-21T12:26:00Z</time>
      </trkpt>
      <trkpt lat="48.18892" lon="6.94962">
        <ele>452.48</ele>
        <time>2023-09-21T12:26:19Z</time>
      </trkpt>
      <trkpt lat="48.18889" lon="6.94994">
        <ele>453.19</ele>
        <time>2023-09-21T12:26:36Z</time>
      </trkpt>
      <trkpt lat="48.18888" lon="6.95029">
        <ele>452.56</ele>
        <time>2023-09-21T12:26:54Z</time>
      </trkpt>
      <trkpt lat="48.18883" lon="6.95077">
        <ele>453.96</ele>
        <time>2023-09-21T12:27:17Z</time>
      </trkpt>
      <trkpt lat="48.18876" lon="6.95119">
        <ele>454.88</ele>
        <time>2023-09-21T12:27:39Z</time>
      </trkpt>
      <trkpt lat="48.1887" lon="6.95157">
        <ele>455.13</ele>
        <time>2023-09-21T12:27:59Z</time>
      </trkpt>
      <trkpt lat="48.18851" lon="6.95174">
        <ele>454.39</ele>
        <time>2023-09-21T12:28:16Z</time>
      </trkpt>
      <trkpt lat="48.18823" lon="6.95179">
        <ele>455.68</ele>
        <time>2023-09-21T12:28:37Z</time>
      </trkpt>
      <trkpt lat="48.18796" lon="6.95182">
        <ele>454.72</ele>
        <time>2023-09-21T12:28:57Z</time>
      </trkpt>
      <trkpt lat="48.18789" lon="6.95191">
        <ele>455.26</ele>
        <time>2023-09-21T12:29:05Z</time>
      </trkpt>
      <trkpt lat="48.18786" lon="6.952">
        <ele>455.6</ele>
        <time>2023-09-21T12:29:11Z</time>
      </trkpt>
      <trkpt lat="48.18796" lon="6.9523">
        <ele>455.93</ele>
        <time>2023-09-21T12:29:29Z</time>
      </trkpt>
      <trkpt lat="48.18794" lon="6.9524">
        <ele>455.89</ele>
        <time>2023-09-21T12:29:35Z</time>
      </trkpt>
      <trkpt lat="48.18794" lon="6.95252">
        <ele>456</ele>
        <time>2023-09-21T12:29:41Z</time>
      </trkpt>
      <trkpt lat="48.18797" lon="6.95265">
        <ele>455.94</ele>
        <time>2023-09-21T12:29:48Z</time>
      </trkpt>
      <trkpt lat="48.18812" lon="6.95312">
        <ele>456.36</ele>
        <time>2023-09-21T12:30:14Z</time>
      </trkpt>
      <trkpt lat="48.18814" lon="6.95333">
        <ele>457.01</ele>
        <time>2023-09-21T12:30:30Z</time>
      </trkpt>
      <trkpt lat="48.18813" lon="6.95339">
        <ele>457.02</ele>
        <time>2023-09-21T12:30:34Z</time>
      </trkpt>
      <trkpt lat="48.18806" lon="6.95375">
        <ele>457.07</ele>
        <time>2023-09-21T12:30:55Z</time>
      </trkpt>
      <trkpt lat="48.18794" lon="6.95399">
        <ele>457.31</ele>
        <time>2023-09-21T12:31:11Z</time>
      </trkpt>
      <trkpt lat="48.1878" lon="6.95436">
        <ele>457.54</ele>
        <time>2023-09-21T12:31:34Z</time>
      </trkpt>
      <trkpt lat="48.18767" lon="6.95466">
        <ele>457.98</ele>
        <time>2023-09-21T12:31:53Z</time>
      </trkpt>
      <trkpt lat="48.18755" lon="6.95496">
        <ele>458.13</ele>
        <time>2023-09-21T12:32:12Z</time>
      </trkpt>
      <trkpt lat="48.18746" lon="6.95522">
        <ele>459.89</ele>
        <time>2023-09-21T12:32:29Z</time>
      </trkpt>
      <trkpt lat="48.18737" lon="6.95542">
        <ele>458.83</ele>
        <time>2023-09-21T12:32:48Z</time>
      </trkpt>
      <trkpt lat="48.18737" lon="6.95544">
        <ele>458.39</ele>
        <time>2023-09-21T12:32:53Z</time>
      </trkpt>
      <trkpt lat="48.18734" lon="6.95549">
        <ele>458.82</ele>
        <time>2023-09-21T12:32:57Z</time>
      </trkpt>
      <trkpt lat="48.18723" lon="6.9558">
        <ele>458.68</ele>
        <time>2023-09-21T12:33:18Z</time>
      </trkpt>
      <trkpt lat="48.1871" lon="6.9561">
        <ele>458.87</ele>
        <time>2023-09-21T12:33:38Z</time>
      </trkpt>
      <trkpt lat="48.18694" lon="6.95648">
        <ele>458.51</ele>
        <time>2023-09-21T12:34:00Z</time>
      </trkpt>
      <trkpt lat="48.18681" lon="6.95686">
        <ele>459.09</ele>
        <time>2023-09-21T12:34:21Z</time>
      </trkpt>
      <trkpt lat="48.18665" lon="6.95726">
        <ele>460.45</ele>
        <time>2023-09-21T12:34:44Z</time>
      </trkpt>
      <trkpt lat="48.18649" lon="6.95765">
        <ele>460.52</ele>
        <time>2023-09-21T12:35:07Z</time>
      </trkpt>
      <trkpt lat="48.18637" lon="6.95797">
        <ele>460.57</ele>
        <time>2023-09-21T12:35:26Z</time>
      </trkpt>
      <trkpt lat="48.18623" lon="6.95826">
        <ele>460.93</ele>
        <time>2023-09-21T12:35:44Z</time>
      </trkpt>
      <trkpt lat="48.18606" lon="6.95869">
        <ele>461.72</ele>
        <time>2023-09-21T12:36:09Z</time>
      </trkpt>
      <trkpt lat="48.1859" lon="6.95907">
        <ele>461.82</ele>
        <time>2023-09-21T12:36:31Z</time>
      </trkpt>
      <trkpt lat="48.18575" lon="6.95941">
        <ele>461.97</ele>
        <time>2023-09-21T12:36:51Z</time>
      </trkpt>
      <trkpt lat="48.18558" lon="6.95982">
        <ele>463.54</ele>
        <time>2023-09-21T12:37:15Z</time>
      </trkpt>
      <trkpt lat="48.18554" lon="6.95993">
        <ele>462.94</ele>
        <time>2023-09-21T12:37:23Z</time>
      </trkpt>
      <trkpt lat="48.18557" lon="6.96002">
        <ele>463.41</ele>
        <time>2023-09-21T12:37:28Z</time>
      </trkpt>
      <trkpt lat="48.18555" lon="6.96023">
        <ele>463.41</ele>
        <time>2023-09-21T12:37:38Z</time>
      </trkpt>
      <trkpt lat="48.18539" lon="6.96062">
        <ele>464.31</ele>
        <time>2023-09-21T12:38:01Z</time>
      </trkpt>
      <trkpt lat="48.18525" lon="6.96097">
        <ele>464.5</ele>
        <time>2023-09-21T12:38:22Z</time>
      </trkpt>
      <trkpt lat="48.18514" lon="6.96125">
        <ele>464.88</ele>
        <time>2023-09-21T12:38:38Z</time>
      </trkpt>
      <trkpt lat="48.18501" lon="6.96163">
        <ele>465.47</ele>
        <time>2023-09-21T12:38:59Z</time>
      </trkpt>
      <trkpt lat="48.18492" lon="6.96202">
        <ele>465.36</ele>
        <time>2023-09-21T12:39:20Z</time>
      </trkpt>
      <trkpt lat="48.18492" lon="6.96204">
        <ele>465.36</ele>
        <time>2023-09-21T12:39:21Z</time>
      </trkpt>
      <trkpt lat="48.18483" lon="6.96211">
        <ele>466.14</ele>
        <time>2023-09-21T12:39:28Z</time>
      </trkpt>
      <trkpt lat="48.18476" lon="6.96248">
        <ele>466.83</ele>
        <time>2023-09-21T12:39:47Z</time>
      </trkpt>
      <trkpt lat="48.18468" lon="6.963">
        <ele>467.7</ele>
        <time>2023-09-21T12:40:14Z</time>
      </trkpt>
      <trkpt lat="48.18465" lon="6.96321">
        <ele>467.48</ele>
        <time>2023-09-21T12:40:25Z</time>
      </trkpt>
      <trkpt lat="48.18464" lon="6.9633">
        <ele>467.36</ele>
        <time>2023-09-21T12:40:30Z</time>
      </trkpt>
      <trkpt lat="48.1846" lon="6.96358">
        <ele>467.7</ele>
        <time>2023-09-21T12:40:44Z</time>
      </trkpt>
      <trkpt lat="48.18455" lon="6.96393">
        <ele>469.21</ele>
        <time>2023-09-21T12:41:03Z</time>
      </trkpt>
      <trkpt lat="48.18447" lon="6.96451">
        <ele>468.7</ele>
        <time>2023-09-21T12:41:33Z</time>
      </trkpt>
      <trkpt lat="48.18447" lon="6.96455">
        <ele>468.74</ele>
        <time>2023-09-21T12:41:35Z</time>
      </trkpt>
      <trkpt lat="48.18438" lon="6.96502">
        <ele>468.76</ele>
        <time>2023-09-21T12:41:59Z</time>
      </trkpt>
      <trkpt lat="48.18433" lon="6.96543">
        <ele>469.94</ele>
        <time>2023-09-21T12:42:20Z</time>
      </trkpt>
      <trkpt lat="48.18426" lon="6.96578">
        <ele>470.75</ele>
        <time>2023-09-21T12:42:39Z</time>
      </trkpt>
      <trkpt lat="48.18412" lon="6.96606">
        <ele>470.36</ele>
        <time>2023-09-21T12:42:58Z</time>
      </trkpt>
      <trkpt lat="48.18389" lon="6.96621">
        <ele>471.19</ele>
        <time>2023-09-21T12:43:18Z</time>
      </trkpt>
      <trkpt lat="48.18368" lon="6.96629">
        <ele>471.34</ele>
        <time>2023-09-21T12:43:35Z</time>
      </trkpt>
      <trkpt lat="48.1834" lon="6.96638">
        <ele>472.25</ele>
        <time>2023-09-21T12:43:57Z</time>
      </trkpt>
      <trkpt lat="48.18319" lon="6.96643">
        <ele>473.1</ele>
        <time>2023-09-21T12:44:13Z</time>
      </trkpt>
      <trkpt lat="48.183" lon="6.96649">
        <ele>472.73</ele>
        <time>2023-09-21T12:44:29Z</time>
      </trkpt>
      <trkpt lat="48.18284" lon="6.96656">
        <ele>473.97</ele>
        <time>2023-09-21T12:44:45Z</time>
      </trkpt>
      <trkpt lat="48.18279" lon="6.96658">
        <ele>473.67</ele>
        <time>2023-09-21T12:45:07Z</time>
      </trkpt>
      <trkpt lat="48.18278" lon="6.96666">
        <ele>473.68</ele>
        <time>2023-09-21T12:45:13Z</time>
      </trkpt>
      <trkpt lat="48.18278" lon="6.96667">
        <ele>473.68</ele>
        <time>2023-09-21T12:45:14Z</time>
      </trkpt>
      <trkpt lat="48.18278" lon="6.96669">
        <ele>473.69</ele>
        <time>2023-09-21T12:45:15Z</time>
      </trkpt>
      <trkpt lat="48.18278" lon="6.9667">
        <ele>473.69</ele>
        <time>2023-09-21T12:45:16Z</time>
      </trkpt>
      <trkpt lat="48.18277" lon="6.96672">
        <ele>473.68</ele>
        <time>2023-09-21T12:45:17Z</time>
      </trkpt>
      <trkpt lat="48.18275" lon="6.96711">
        <ele>474.08</ele>
        <time>2023-09-21T12:45:40Z</time>
      </trkpt>
      <trkpt lat="48.18273" lon="6.96745">
        <ele>475.07</ele>
        <time>2023-09-21T12:45:59Z</time>
      </trkpt>
      <trkpt lat="48.1827" lon="6.96785">
        <ele>474.88</ele>
        <time>2023-09-21T12:46:22Z</time>
      </trkpt>
      <trkpt lat="48.18269" lon="6.96791">
        <ele>474.33</ele>
        <time>2023-09-21T12:46:37Z</time>
      </trkpt>
      <trkpt lat="48.18271" lon="6.96791">
        <ele>475.29</ele>
        <time>2023-09-21T12:47:01Z</time>
      </trkpt>
      <trkpt lat="48.1827" lon="6.96792">
        <ele>475.21</ele>
        <time>2023-09-21T12:47:19Z</time>
      </trkpt>
      <trkpt lat="48.1827" lon="6.96793">
        <ele>475.29</ele>
        <time>2023-09-21T12:47:44Z</time>
      </trkpt>
      <trkpt lat="48.1827" lon="6.96794">
        <ele>475.12</ele>
        <time>2023-09-21T12:48:16Z</time>
      </trkpt>
      <trkpt lat="48.18269" lon="6.96794">
        <ele>474.72</ele>
        <time>2023-09-21T12:48:39Z</time>
      </trkpt>
      <trkpt lat="48.18268" lon="6.96794">
        <ele>474.49</ele>
        <time>2023-09-21T12:48:54Z</time>
      </trkpt>
      <trkpt lat="48.18268" lon="6.96799">
        <ele>474.98</ele>
        <time>2023-09-21T12:49:12Z</time>
      </trkpt>
      <trkpt lat="48.18269" lon="6.96804">
        <ele>474.84</ele>
        <time>2023-09-21T12:49:18Z</time>
      </trkpt>
      <trkpt lat="48.18269" lon="6.96806">
        <ele>474.57</ele>
        <time>2023-09-21T12:49:19Z</time>
      </trkpt>
      <trkpt lat="48.18269" lon="6.96809">
        <ele>474.57</ele>
        <time>2023-09-21T12:49:21Z</time>
      </trkpt>
      <trkpt lat="48.1827" lon="6.96811">
        <ele>474.59</ele>
        <time>2023-09-21T12:49:22Z</time>
      </trkpt>
      <trkpt lat="48.18271" lon="6.96813">
        <ele>474.92</ele>
        <time>2023-09-21T12:49:23Z</time>
      </trkpt>
      <trkpt lat="48.18271" lon="6.96815">
        <ele>474.93</ele>
        <time>2023-09-21T12:49:24Z</time>
      </trkpt>
      <trkpt lat="48.18271" lon="6.96817">
        <ele>474.87</ele>
        <time>2023-09-21T12:49:25Z</time>
      </trkpt>
      <trkpt lat="48.18271" lon="6.96819">
        <ele>474.93</ele>
        <time>2023-09-21T12:49:26Z</time>
      </trkpt>
      <trkpt lat="48.18271" lon="6.96822">
        <ele>474.7</ele>
        <time>2023-09-21T12:49:27Z</time>
      </trkpt>
      <trkpt lat="48.18268" lon="6.96877">
        <ele>474.69</ele>
        <time>2023-09-21T12:49:53Z</time>
      </trkpt>
      <trkpt lat="48.18264" lon="6.96924">
        <ele>475.55</ele>
        <time>2023-09-21T12:50:17Z</time>
      </trkpt>
      <trkpt lat="48.18261" lon="6.96967">
        <ele>476.05</ele>
        <time>2023-09-21T12:50:39Z</time>
      </trkpt>
      <trkpt lat="48.18258" lon="6.97008">
        <ele>475.72</ele>
        <time>2023-09-21T12:51:00Z</time>
      </trkpt>
      <trkpt lat="48.18256" lon="6.97039">
        <ele>476.09</ele>
        <time>2023-09-21T12:51:17Z</time>
      </trkpt>
      <trkpt lat="48.18252" lon="6.97071">
        <ele>475.97</ele>
        <time>2023-09-21T12:51:37Z</time>
      </trkpt>
      <trkpt lat="48.18252" lon="6.97079">
        <ele>475.59</ele>
        <time>2023-09-21T12:51:50Z</time>
      </trkpt>
      <trkpt lat="48.18252" lon="6.97081">
        <ele>475.86</ele>
        <time>2023-09-21T12:51:51Z</time>
      </trkpt>
      <trkpt lat="48.18252" lon="6.97083">
        <ele>475.61</ele>
        <time>2023-09-21T12:51:52Z</time>
      </trkpt>
      <trkpt lat="48.1825" lon="6.97115">
        <ele>475.98</ele>
        <time>2023-09-21T12:52:09Z</time>
      </trkpt>
      <trkpt lat="48.18247" lon="6.97143">
        <ele>476.57</ele>
        <time>2023-09-21T12:52:25Z</time>
      </trkpt>
      <trkpt lat="48.18247" lon="6.97155">
        <ele>476.16</ele>
        <time>2023-09-21T12:52:31Z</time>
      </trkpt>
      <trkpt lat="48.18247" lon="6.97159">
        <ele>475.96</ele>
        <time>2023-09-21T12:52:33Z</time>
      </trkpt>
      <trkpt lat="48.18247" lon="6.97161">
        <ele>475.9</ele>
        <time>2023-09-21T12:52:34Z</time>
      </trkpt>
      <trkpt lat="48.18247" lon="6.97163">
        <ele>476.25</ele>
        <time>2023-09-21T12:52:35Z</time>
      </trkpt>
      <trkpt lat="48.18247" lon="6.97165">
        <ele>476.18</ele>
        <time>2023-09-21T12:52:36Z</time>
      </trkpt>
      <trkpt lat="48.18246" lon="6.97167">
        <ele>475.62</ele>
        <time>2023-09-21T12:52:37Z</time>
      </trkpt>
      <trkpt lat="48.18246" lon="6.97169">
        <ele>476.23</ele>
        <time>2023-09-21T12:52:38Z</time>
      </trkpt>
      <trkpt lat="48.18244" lon="6.97197">
        <ele>476.98</ele>
        <time>2023-09-21T12:52:51Z</time>
      </trkpt>
      <trkpt lat="48.18243" lon="6.97199">
        <ele>476.74</ele>
        <time>2023-09-21T12:52:52Z</time>
      </trkpt>
      <trkpt lat="48.18237" lon="6.97227">
        <ele>476.87</ele>
        <time>2023-09-21T12:53:05Z</time>
      </trkpt>
      <trkpt lat="48.18237" lon="6.97229">
        <ele>476.82</ele>
        <time>2023-09-21T12:53:06Z</time>
      </trkpt>
      <trkpt lat="48.18237" lon="6.97231">
        <ele>476.98</ele>
        <time>2023-09-21T12:53:07Z</time>
      </trkpt>
      <trkpt lat="48.18237" lon="6.97233">
        <ele>476.89</ele>
        <time>2023-09-21T12:53:08Z</time>
      </trkpt>
      <trkpt lat="48.18237" lon="6.97235">
        <ele>476.5</ele>
        <time>2023-09-21T12:53:09Z</time>
      </trkpt>
      <trkpt lat="48.18237" lon="6.97277">
        <ele>475.51</ele>
        <time>2023-09-21T12:53:30Z</time>
      </trkpt>
      <trkpt lat="48.18237" lon="6.97279">
        <ele>476.16</ele>
        <time>2023-09-21T12:53:31Z</time>
      </trkpt>
      <trkpt lat="48.18237" lon="6.97281">
        <ele>476.39</ele>
        <time>2023-09-21T12:53:32Z</time>
      </trkpt>
      <trkpt lat="48.18237" lon="6.97283">
        <ele>475.82</ele>
        <time>2023-09-21T12:53:33Z</time>
      </trkpt>
      <trkpt lat="48.18237" lon="6.97286">
        <ele>476.61</ele>
        <time>2023-09-21T12:53:34Z</time>
      </trkpt>
      <trkpt lat="48.18238" lon="6.97296">
        <ele>476.6</ele>
        <time>2023-09-21T12:53:39Z</time>
      </trkpt>
      <trkpt lat="48.18238" lon="6.97298">
        <ele>475.54</ele>
        <time>2023-09-21T12:53:40Z</time>
      </trkpt>
      <trkpt lat="48.18238" lon="6.973">
        <ele>477.04</ele>
        <time>2023-09-21T12:53:41Z</time>
      </trkpt>
      <trkpt lat="48.18238" lon="6.97302">
        <ele>477.15</ele>
        <time>2023-09-21T12:53:42Z</time>
      </trkpt>
      <trkpt lat="48.18238" lon="6.97304">
        <ele>477.13</ele>
        <time>2023-09-21T12:53:43Z</time>
      </trkpt>
      <trkpt lat="48.18238" lon="6.97307">
        <ele>477.25</ele>
        <time>2023-09-21T12:53:44Z</time>
      </trkpt>
      <trkpt lat="48.18238" lon="6.97309">
        <ele>477.61</ele>
        <time>2023-09-21T12:53:45Z</time>
      </trkpt>
      <trkpt lat="48.18238" lon="6.97311">
        <ele>477.29</ele>
        <time>2023-09-21T12:53:46Z</time>
      </trkpt>
      <trkpt lat="48.18238" lon="6.97313">
        <ele>477.79</ele>
        <time>2023-09-21T12:53:47Z</time>
      </trkpt>
      <trkpt lat="48.1824" lon="6.97345">
        <ele>478.18</ele>
        <time>2023-09-21T12:54:05Z</time>
      </trkpt>
      <trkpt lat="48.1824" lon="6.97349">
        <ele>477.62</ele>
        <time>2023-09-21T12:54:28Z</time>
      </trkpt>
      <trkpt lat="48.18239" lon="6.97351">
        <ele>477.84</ele>
        <time>2023-09-21T12:54:29Z</time>
      </trkpt>
      <trkpt lat="48.1824" lon="6.97353">
        <ele>477.91</ele>
        <time>2023-09-21T12:54:30Z</time>
      </trkpt>
      <trkpt lat="48.18239" lon="6.97354">
        <ele>478.44</ele>
        <time>2023-09-21T12:54:31Z</time>
      </trkpt>
      <trkpt lat="48.18239" lon="6.97356">
        <ele>477.64</ele>
        <time>2023-09-21T12:54:32Z</time>
      </trkpt>
      <trkpt lat="48.18239" lon="6.97358">
        <ele>477.77</ele>
        <time>2023-09-21T12:54:33Z</time>
      </trkpt>
      <trkpt lat="48.18239" lon="6.97361">
        <ele>477.63</ele>
        <time>2023-09-21T12:54:34Z</time>
      </trkpt>
      <trkpt lat="48.18239" lon="6.97363">
        <ele>477.92</ele>
        <time>2023-09-21T12:54:35Z</time>
      </trkpt>
      <trkpt lat="48.18241" lon="6.97399">
        <ele>478.46</ele>
        <time>2023-09-21T12:54:54Z</time>
      </trkpt>
      <trkpt lat="48.18245" lon="6.97429">
        <ele>478.6</ele>
        <time>2023-09-21T12:55:10Z</time>
      </trkpt>
      <trkpt lat="48.18254" lon="6.97468">
        <ele>479.22</ele>
        <time>2023-09-21T12:55:30Z</time>
      </trkpt>
      <trkpt lat="48.18265" lon="6.97525">
        <ele>479.68</ele>
        <time>2023-09-21T12:55:59Z</time>
      </trkpt>
      <trkpt lat="48.18274" lon="6.97574">
        <ele>479.96</ele>
        <time>2023-09-21T12:56:24Z</time>
      </trkpt>
      <trkpt lat="48.18284" lon="6.97622">
        <ele>480.3</ele>
        <time>2023-09-21T12:56:49Z</time>
      </trkpt>
      <trkpt lat="48.1829" lon="6.97654">
        <ele>480.94</ele>
        <time>2023-09-21T12:57:06Z</time>
      </trkpt>
      <trkpt lat="48.18293" lon="6.97669">
        <ele>480.78</ele>
        <time>2023-09-21T12:57:14Z</time>
      </trkpt>
      <trkpt lat="48.18294" lon="6.97673">
        <ele>480.65</ele>
        <time>2023-09-21T12:57:16Z</time>
      </trkpt>
      <trkpt lat="48.18294" lon="6.97675">
        <ele>480.75</ele>
        <time>2023-09-21T12:57:17Z</time>
      </trkpt>
      <trkpt lat="48.18295" lon="6.97677">
        <ele>480.29</ele>
        <time>2023-09-21T12:57:18Z</time>
      </trkpt>
      <trkpt lat="48.18296" lon="6.9768">
        <ele>480.71</ele>
        <time>2023-09-21T12:57:19Z</time>
      </trkpt>
      <trkpt lat="48.18297" lon="6.97682">
        <ele>480.77</ele>
        <time>2023-09-21T12:57:20Z</time>
      </trkpt>
      <trkpt lat="48.18297" lon="6.97684">
        <ele>480.66</ele>
        <time>2023-09-21T12:57:21Z</time>
      </trkpt>
      <trkpt lat="48.18297" lon="6.97686">
        <ele>480.69</ele>
        <time>2023-09-21T12:57:22Z</time>
      </trkpt>
      <trkpt lat="48.18298" lon="6.97688">
        <ele>481.04</ele>
        <time>2023-09-21T12:57:23Z</time>
      </trkpt>
      <trkpt lat="48.18305" lon="6.97732">
        <ele>481.53</ele>
        <time>2023-09-21T12:57:44Z</time>
      </trkpt>
      <trkpt lat="48.18316" lon="6.97789">
        <ele>482.42</ele>
        <time>2023-09-21T12:58:15Z</time>
      </trkpt>
      <trkpt lat="48.18323" lon="6.9782">
        <ele>482.43</ele>
        <time>2023-09-21T12:58:32Z</time>
      </trkpt>
      <trkpt lat="48.18332" lon="6.97868">
        <ele>482.88</ele>
        <time>2023-09-21T12:58:57Z</time>
      </trkpt>
      <trkpt lat="48.18342" lon="6.97918">
        <ele>484.15</ele>
        <time>2023-09-21T12:59:25Z</time>
      </trkpt>
      <trkpt lat="48.18343" lon="6.9792">
        <ele>484.4</ele>
        <time>2023-09-21T12:59:42Z</time>
      </trkpt>
      <trkpt lat="48.18343" lon="6.97923">
        <ele>483.89</ele>
        <time>2023-09-21T12:59:52Z</time>
      </trkpt>
      <trkpt lat="48.18344" lon="6.97927">
        <ele>484.1</ele>
        <time>2023-09-21T12:59:54Z</time>
      </trkpt>
      <trkpt lat="48.18353" lon="6.97978">
        <ele>484.31</ele>
        <time>2023-09-21T13:00:21Z</time>
      </trkpt>
      <trkpt lat="48.18356" lon="6.98005">
        <ele>485.12</ele>
        <time>2023-09-21T13:00:39Z</time>
      </trkpt>
      <trkpt lat="48.18356" lon="6.98007">
        <ele>485.11</ele>
        <time>2023-09-21T13:00:40Z</time>
      </trkpt>
      <trkpt lat="48.18356" lon="6.98009">
        <ele>485.08</ele>
        <time>2023-09-21T13:00:41Z</time>
      </trkpt>
      <trkpt lat="48.18357" lon="6.98045">
        <ele>485.41</ele>
        <time>2023-09-21T13:01:04Z</time>
      </trkpt>
      <trkpt lat="48.18359" lon="6.9807">
        <ele>485.27</ele>
        <time>2023-09-21T13:01:20Z</time>
      </trkpt>
      <trkpt lat="48.1836" lon="6.98079">
        <ele>485.68</ele>
        <time>2023-09-21T13:01:33Z</time>
      </trkpt>
      <trkpt lat="48.1836" lon="6.98082">
        <ele>485.35</ele>
        <time>2023-09-21T13:01:39Z</time>
      </trkpt>
      <trkpt lat="48.18359" lon="6.98084">
        <ele>485.68</ele>
        <time>2023-09-21T13:01:40Z</time>
      </trkpt>
      <trkpt lat="48.18359" lon="6.98085">
        <ele>485.68</ele>
        <time>2023-09-21T13:01:41Z</time>
      </trkpt>
      <trkpt lat="48.18359" lon="6.98087">
        <ele>485.71</ele>
        <time>2023-09-21T13:01:42Z</time>
      </trkpt>
      <trkpt lat="48.18359" lon="6.98088">
        <ele>485.59</ele>
        <time>2023-09-21T13:01:43Z</time>
      </trkpt>
      <trkpt lat="48.18359" lon="6.98089">
        <ele>485.64</ele>
        <time>2023-09-21T13:01:44Z</time>
      </trkpt>
      <trkpt lat="48.1836" lon="6.98091">
        <ele>485.37</ele>
        <time>2023-09-21T13:01:45Z</time>
      </trkpt>
      <trkpt lat="48.18364" lon="6.98119">
        <ele>485.78</ele>
        <time>2023-09-21T13:02:00Z</time>
      </trkpt>
      <trkpt lat="48.18363" lon="6.98121">
        <ele>486.07</ele>
        <time>2023-09-21T13:02:01Z</time>
      </trkpt>
      <trkpt lat="48.18364" lon="6.98123">
        <ele>486.13</ele>
        <time>2023-09-21T13:02:02Z</time>
      </trkpt>
      <trkpt lat="48.18363" lon="6.98143">
        <ele>485.84</ele>
        <time>2023-09-21T13:02:14Z</time>
      </trkpt>
      <trkpt lat="48.18362" lon="6.98151">
        <ele>485.77</ele>
        <time>2023-09-21T13:02:19Z</time>
      </trkpt>
      <trkpt lat="48.18362" lon="6.98153">
        <ele>485.78</ele>
        <time>2023-09-21T13:02:20Z</time>
      </trkpt>
      <trkpt lat="48.18361" lon="6.98184">
        <ele>485.97</ele>
        <time>2023-09-21T13:02:37Z</time>
      </trkpt>
      <trkpt lat="48.18359" lon="6.98214">
        <ele>486.03</ele>
        <time>2023-09-21T13:02:52Z</time>
      </trkpt>
      <trkpt lat="48.18359" lon="6.98246">
        <ele>486.59</ele>
        <time>2023-09-21T13:03:08Z</time>
      </trkpt>
      <trkpt lat="48.18361" lon="6.98268">
        <ele>486.59</ele>
        <time>2023-09-21T13:03:20Z</time>
      </trkpt>
      <trkpt lat="48.18364" lon="6.98298">
        <ele>486.79</ele>
        <time>2023-09-21T13:03:36Z</time>
      </trkpt>
      <trkpt lat="48.18365" lon="6.98322">
        <ele>486.8</ele>
        <time>2023-09-21T13:03:49Z</time>
      </trkpt>
      <trkpt lat="48.18367" lon="6.9836">
        <ele>486.68</ele>
        <time>2023-09-21T13:04:07Z</time>
      </trkpt>
      <trkpt lat="48.18367" lon="6.98385">
        <ele>487.03</ele>
        <time>2023-09-21T13:04:21Z</time>
      </trkpt>
      <trkpt lat="48.1837" lon="6.98411">
        <ele>486.92</ele>
        <time>2023-09-21T13:04:35Z</time>
      </trkpt>
      <trkpt lat="48.18371" lon="6.98429">
        <ele>487.03</ele>
        <time>2023-09-21T13:04:45Z</time>
      </trkpt>
      <trkpt lat="48.1837" lon="6.9843">
        <ele>487.25</ele>
        <time>2023-09-21T13:04:46Z</time>
      </trkpt>
      <trkpt lat="48.1837" lon="6.98432">
        <ele>487.59</ele>
        <time>2023-09-21T13:04:47Z</time>
      </trkpt>
      <trkpt lat="48.18369" lon="6.98434">
        <ele>486.99</ele>
        <time>2023-09-21T13:04:48Z</time>
      </trkpt>
      <trkpt lat="48.18369" lon="6.98436">
        <ele>487.46</ele>
        <time>2023-09-21T13:04:49Z</time>
      </trkpt>
      <trkpt lat="48.18368" lon="6.98453">
        <ele>487.3</ele>
        <time>2023-09-21T13:04:58Z</time>
      </trkpt>
      <trkpt lat="48.18368" lon="6.98454">
        <ele>486.91</ele>
        <time>2023-09-21T13:04:59Z</time>
      </trkpt>
      <trkpt lat="48.18368" lon="6.98456">
        <ele>487.36</ele>
        <time>2023-09-21T13:05:00Z</time>
      </trkpt>
      <trkpt lat="48.1837" lon="6.98472">
        <ele>487.52</ele>
        <time>2023-09-21T13:05:09Z</time>
      </trkpt>
      <trkpt lat="48.1837" lon="6.98474">
        <ele>487.34</ele>
        <time>2023-09-21T13:05:10Z</time>
      </trkpt>
      <trkpt lat="48.18369" lon="6.98476">
        <ele>487.49</ele>
        <time>2023-09-21T13:05:11Z</time>
      </trkpt>
      <trkpt lat="48.1837" lon="6.98479">
        <ele>487.42</ele>
        <time>2023-09-21T13:05:12Z</time>
      </trkpt>
      <trkpt lat="48.1837" lon="6.98481">
        <ele>487.08</ele>
        <time>2023-09-21T13:05:13Z</time>
      </trkpt>
      <trkpt lat="48.18371" lon="6.98508">
        <ele>487.94</ele>
        <time>2023-09-21T13:05:27Z</time>
      </trkpt>
      <trkpt lat="48.18372" lon="6.98512">
        <ele>487.95</ele>
        <time>2023-09-21T13:05:30Z</time>
      </trkpt>
      <trkpt lat="48.18373" lon="6.98514">
        <ele>487.62</ele>
        <time>2023-09-21T13:05:31Z</time>
      </trkpt>
      <trkpt lat="48.18373" lon="6.98516">
        <ele>487.51</ele>
        <time>2023-09-21T13:05:32Z</time>
      </trkpt>
      <trkpt lat="48.18373" lon="6.98517">
        <ele>487.73</ele>
        <time>2023-09-21T13:05:33Z</time>
      </trkpt>
      <trkpt lat="48.18373" lon="6.98518">
        <ele>487.87</ele>
        <time>2023-09-21T13:05:34Z</time>
      </trkpt>
      <trkpt lat="48.18374" lon="6.9854">
        <ele>488.03</ele>
        <time>2023-09-21T13:05:46Z</time>
      </trkpt>
      <trkpt lat="48.18374" lon="6.98542">
        <ele>487.94</ele>
        <time>2023-09-21T13:05:47Z</time>
      </trkpt>
      <trkpt lat="48.18374" lon="6.98544">
        <ele>488.06</ele>
        <time>2023-09-21T13:05:48Z</time>
      </trkpt>
      <trkpt lat="48.18375" lon="6.98576">
        <ele>487.86</ele>
        <time>2023-09-21T13:06:04Z</time>
      </trkpt>
      <trkpt lat="48.18371" lon="6.98609">
        <ele>488.37</ele>
        <time>2023-09-21T13:06:21Z</time>
      </trkpt>
      <trkpt lat="48.18368" lon="6.98642">
        <ele>487.69</ele>
        <time>2023-09-21T13:06:39Z</time>
      </trkpt>
      <trkpt lat="48.18365" lon="6.98668">
        <ele>488.74</ele>
        <time>2023-09-21T13:06:53Z</time>
      </trkpt>
      <trkpt lat="48.18362" lon="6.98697">
        <ele>488.18</ele>
        <time>2023-09-21T13:07:09Z</time>
      </trkpt>
      <trkpt lat="48.18358" lon="6.98741">
        <ele>488.93</ele>
        <time>2023-09-21T13:07:32Z</time>
      </trkpt>
      <trkpt lat="48.1835" lon="6.98775">
        <ele>489.52</ele>
        <time>2023-09-21T13:07:53Z</time>
      </trkpt>
      <trkpt lat="48.18347" lon="6.98811">
        <ele>490.92</ele>
        <time>2023-09-21T13:08:14Z</time>
      </trkpt>
      <trkpt lat="48.18347" lon="6.98838">
        <ele>490.85</ele>
        <time>2023-09-21T13:08:30Z</time>
      </trkpt>
      <trkpt lat="48.18347" lon="6.98866">
        <ele>490.6</ele>
        <time>2023-09-21T13:08:46Z</time>
      </trkpt>
      <trkpt lat="48.18347" lon="6.98905">
        <ele>491.19</ele>
        <time>2023-09-21T13:09:06Z</time>
      </trkpt>
      <trkpt lat="48.18348" lon="6.98933">
        <ele>491.28</ele>
        <time>2023-09-21T13:09:22Z</time>
      </trkpt>
      <trkpt lat="48.18349" lon="6.98958">
        <ele>491.32</ele>
        <time>2023-09-21T13:09:37Z</time>
      </trkpt>
      <trkpt lat="48.18349" lon="6.98962">
        <ele>491.72</ele>
        <time>2023-09-21T13:09:39Z</time>
      </trkpt>
      <trkpt lat="48.1835" lon="6.98964">
        <ele>491.72</ele>
        <time>2023-09-21T13:09:40Z</time>
      </trkpt>
      <trkpt lat="48.18354" lon="6.98987">
        <ele>491.78</ele>
        <time>2023-09-21T13:09:57Z</time>
      </trkpt>
      <trkpt lat="48.18354" lon="6.98989">
        <ele>491.76</ele>
        <time>2023-09-21T13:09:58Z</time>
      </trkpt>
      <trkpt lat="48.18354" lon="6.98991">
        <ele>491.71</ele>
        <time>2023-09-21T13:09:59Z</time>
      </trkpt>
      <trkpt lat="48.18354" lon="6.98993">
        <ele>491.89</ele>
        <time>2023-09-21T13:10:00Z</time>
      </trkpt>
      <trkpt lat="48.18355" lon="6.98995">
        <ele>492.29</ele>
        <time>2023-09-21T13:10:01Z</time>
      </trkpt>
      <trkpt lat="48.18355" lon="6.98997">
        <ele>492.34</ele>
        <time>2023-09-21T13:10:02Z</time>
      </trkpt>
      <trkpt lat="48.18356" lon="6.98999">
        <ele>492.31</ele>
        <time>2023-09-21T13:10:03Z</time>
      </trkpt>
      <trkpt lat="48.18356" lon="6.99">
        <ele>492.03</ele>
        <time>2023-09-21T13:10:04Z</time>
      </trkpt>
      <trkpt lat="48.18357" lon="6.99005">
        <ele>492.22</ele>
        <time>2023-09-21T13:10:07Z</time>
      </trkpt>
      <trkpt lat="48.18358" lon="6.99009">
        <ele>491.66</ele>
        <time>2023-09-21T13:10:09Z</time>
      </trkpt>
      <trkpt lat="48.18358" lon="6.99011">
        <ele>492.23</ele>
        <time>2023-09-21T13:10:10Z</time>
      </trkpt>
      <trkpt lat="48.18358" lon="6.99012">
        <ele>491.71</ele>
        <time>2023-09-21T13:10:11Z</time>
      </trkpt>
      <trkpt lat="48.18358" lon="6.99014">
        <ele>492.63</ele>
        <time>2023-09-21T13:10:12Z</time>
      </trkpt>
      <trkpt lat="48.18359" lon="6.99016">
        <ele>492.06</ele>
        <time>2023-09-21T13:10:13Z</time>
      </trkpt>
      <trkpt lat="48.18359" lon="6.99018">
        <ele>492.25</ele>
        <time>2023-09-21T13:10:14Z</time>
      </trkpt>
      <trkpt lat="48.1836" lon="6.9902">
        <ele>492.22</ele>
        <time>2023-09-21T13:10:15Z</time>
      </trkpt>
      <trkpt lat="48.18366" lon="6.99048">
        <ele>492.66</ele>
        <time>2023-09-21T13:10:30Z</time>
      </trkpt>
      <trkpt lat="48.18378" lon="6.99096">
        <ele>493.32</ele>
        <time>2023-09-21T13:10:56Z</time>
      </trkpt>
      <trkpt lat="48.1838" lon="6.99105">
        <ele>493.3</ele>
        <time>2023-09-21T13:11:01Z</time>
      </trkpt>
      <trkpt lat="48.1838" lon="6.99106">
        <ele>493.35</ele>
        <time>2023-09-21T13:11:02Z</time>
      </trkpt>
      <trkpt lat="48.18381" lon="6.99108">
        <ele>493.32</ele>
        <time>2023-09-21T13:11:03Z</time>
      </trkpt>
      <trkpt lat="48.18384" lon="6.99115">
        <ele>493.02</ele>
        <time>2023-09-21T13:11:16Z</time>
      </trkpt>
      <trkpt lat="48.18386" lon="6.99128">
        <ele>493.43</ele>
        <time>2023-09-21T13:11:24Z</time>
      </trkpt>
      <trkpt lat="48.18387" lon="6.9913">
        <ele>493.26</ele>
        <time>2023-09-21T13:11:25Z</time>
      </trkpt>
      <trkpt lat="48.18387" lon="6.99132">
        <ele>493.26</ele>
        <time>2023-09-21T13:11:26Z</time>
      </trkpt>
      <trkpt lat="48.18388" lon="6.9914">
        <ele>493.77</ele>
        <time>2023-09-21T13:11:31Z</time>
      </trkpt>
      <trkpt lat="48.18389" lon="6.99145">
        <ele>494.2</ele>
        <time>2023-09-21T13:11:35Z</time>
      </trkpt>
      <trkpt lat="48.1839" lon="6.99146">
        <ele>493.61</ele>
        <time>2023-09-21T13:11:36Z</time>
      </trkpt>
      <trkpt lat="48.18393" lon="6.99145">
        <ele>493.75</ele>
        <time>2023-09-21T13:11:48Z</time>
      </trkpt>
      <trkpt lat="48.18394" lon="6.99154">
        <ele>494.46</ele>
        <time>2023-09-21T13:12:06Z</time>
      </trkpt>
      <trkpt lat="48.18394" lon="6.99155">
        <ele>494.21</ele>
        <time>2023-09-21T13:12:07Z</time>
      </trkpt>
      <trkpt lat="48.18394" lon="6.99157">
        <ele>493.95</ele>
        <time>2023-09-21T13:12:08Z</time>
      </trkpt>
      <trkpt lat="48.184" lon="6.99174">
        <ele>494.24</ele>
        <time>2023-09-21T13:12:18Z</time>
      </trkpt>
      <trkpt lat="48.184" lon="6.99176">
        <ele>494.88</ele>
        <time>2023-09-21T13:12:19Z</time>
      </trkpt>
      <trkpt lat="48.184" lon="6.99178">
        <ele>494.47</ele>
        <time>2023-09-21T13:12:20Z</time>
      </trkpt>
      <trkpt lat="48.18401" lon="6.9918">
        <ele>494.03</ele>
        <time>2023-09-21T13:12:21Z</time>
      </trkpt>
      <trkpt lat="48.18401" lon="6.99182">
        <ele>494.67</ele>
        <time>2023-09-21T13:12:22Z</time>
      </trkpt>
      <trkpt lat="48.18403" lon="6.99187">
        <ele>494.95</ele>
        <time>2023-09-21T13:12:25Z</time>
      </trkpt>
      <trkpt lat="48.18404" lon="6.99189">
        <ele>494.88</ele>
        <time>2023-09-21T13:12:26Z</time>
      </trkpt>
      <trkpt lat="48.18405" lon="6.99191">
        <ele>495.02</ele>
        <time>2023-09-21T13:12:27Z</time>
      </trkpt>
      <trkpt lat="48.18405" lon="6.99193">
        <ele>494.52</ele>
        <time>2023-09-21T13:12:28Z</time>
      </trkpt>
      <trkpt lat="48.18406" lon="6.99195">
        <ele>494.26</ele>
        <time>2023-09-21T13:12:29Z</time>
      </trkpt>
      <trkpt lat="48.18407" lon="6.99198">
        <ele>494.63</ele>
        <time>2023-09-21T13:12:31Z</time>
      </trkpt>
      <trkpt lat="48.18408" lon="6.992">
        <ele>494.5</ele>
        <time>2023-09-21T13:12:32Z</time>
      </trkpt>
      <trkpt lat="48.18408" lon="6.99202">
        <ele>494.55</ele>
        <time>2023-09-21T13:12:33Z</time>
      </trkpt>
      <trkpt lat="48.18408" lon="6.99204">
        <ele>494.7</ele>
        <time>2023-09-21T13:12:34Z</time>
      </trkpt>
      <trkpt lat="48.18409" lon="6.99205">
        <ele>494.74</ele>
        <time>2023-09-21T13:12:35Z</time>
      </trkpt>
      <trkpt lat="48.18409" lon="6.99207">
        <ele>494.91</ele>
        <time>2023-09-21T13:12:36Z</time>
      </trkpt>
      <trkpt lat="48.18409" lon="6.99209">
        <ele>494.74</ele>
        <time>2023-09-21T13:12:37Z</time>
      </trkpt>
      <trkpt lat="48.18409" lon="6.99211">
        <ele>494.66</ele>
        <time>2023-09-21T13:12:38Z</time>
      </trkpt>
      <trkpt lat="48.1841" lon="6.99214">
        <ele>494.51</ele>
        <time>2023-09-21T13:12:40Z</time>
      </trkpt>
      <trkpt lat="48.18411" lon="6.99215">
        <ele>495.15</ele>
        <time>2023-09-21T13:12:41Z</time>
      </trkpt>
      <trkpt lat="48.18411" lon="6.99217">
        <ele>494.94</ele>
        <time>2023-09-21T13:12:42Z</time>
      </trkpt>
      <trkpt lat="48.18411" lon="6.99219">
        <ele>494.86</ele>
        <time>2023-09-21T13:12:43Z</time>
      </trkpt>
      <trkpt lat="48.18411" lon="6.99221">
        <ele>494.99</ele>
        <time>2023-09-21T13:12:44Z</time>
      </trkpt>
      <trkpt lat="48.18412" lon="6.99223">
        <ele>494.65</ele>
        <time>2023-09-21T13:12:45Z</time>
      </trkpt>
      <trkpt lat="48.18413" lon="6.99225">
        <ele>494.99</ele>
        <time>2023-09-21T13:12:46Z</time>
      </trkpt>
      <trkpt lat="48.18414" lon="6.99227">
        <ele>494.82</ele>
        <time>2023-09-21T13:12:47Z</time>
      </trkpt>
      <trkpt lat="48.18415" lon="6.99229">
        <ele>494.87</ele>
        <time>2023-09-21T13:12:48Z</time>
      </trkpt>
      <trkpt lat="48.18417" lon="6.9925">
        <ele>495.81</ele>
        <time>2023-09-21T13:12:59Z</time>
      </trkpt>
      <trkpt lat="48.18417" lon="6.99252">
        <ele>495.2</ele>
        <time>2023-09-21T13:13:00Z</time>
      </trkpt>
      <trkpt lat="48.18418" lon="6.99271">
        <ele>495.69</ele>
        <time>2023-09-21T13:13:12Z</time>
      </trkpt>
      <trkpt lat="48.1842" lon="6.99299">
        <ele>496.38</ele>
        <time>2023-09-21T13:13:28Z</time>
      </trkpt>
      <trkpt lat="48.1842" lon="6.99301">
        <ele>496.32</ele>
        <time>2023-09-21T13:13:29Z</time>
      </trkpt>
      <trkpt lat="48.1842" lon="6.99303">
        <ele>496.18</ele>
        <time>2023-09-21T13:13:30Z</time>
      </trkpt>
      <trkpt lat="48.18423" lon="6.99326">
        <ele>496.06</ele>
        <time>2023-09-21T13:13:42Z</time>
      </trkpt>
      <trkpt lat="48.18423" lon="6.99328">
        <ele>496.51</ele>
        <time>2023-09-21T13:13:43Z</time>
      </trkpt>
      <trkpt lat="48.18424" lon="6.9933">
        <ele>495.85</ele>
        <time>2023-09-21T13:13:44Z</time>
      </trkpt>
      <trkpt lat="48.18424" lon="6.99331">
        <ele>496.19</ele>
        <time>2023-09-21T13:13:45Z</time>
      </trkpt>
      <trkpt lat="48.18424" lon="6.99337">
        <ele>496.37</ele>
        <time>2023-09-21T13:13:48Z</time>
      </trkpt>
      <trkpt lat="48.18425" lon="6.99339">
        <ele>496.36</ele>
        <time>2023-09-21T13:13:49Z</time>
      </trkpt>
      <trkpt lat="48.18425" lon="6.99342">
        <ele>496.01</ele>
        <time>2023-09-21T13:13:50Z</time>
      </trkpt>
      <trkpt lat="48.18425" lon="6.99344">
        <ele>496.48</ele>
        <time>2023-09-21T13:13:51Z</time>
      </trkpt>
      <trkpt lat="48.18424" lon="6.99346">
        <ele>496.57</ele>
        <time>2023-09-21T13:13:52Z</time>
      </trkpt>
      <trkpt lat="48.18424" lon="6.99348">
        <ele>495.93</ele>
        <time>2023-09-21T13:13:53Z</time>
      </trkpt>
      <trkpt lat="48.18425" lon="6.99351">
        <ele>496.52</ele>
        <time>2023-09-21T13:13:54Z</time>
      </trkpt>
      <trkpt lat="48.18425" lon="6.99353">
        <ele>496.61</ele>
        <time>2023-09-21T13:13:55Z</time>
      </trkpt>
      <trkpt lat="48.18425" lon="6.99357">
        <ele>496.63</ele>
        <time>2023-09-21T13:13:57Z</time>
      </trkpt>
      <trkpt lat="48.18425" lon="6.99359">
        <ele>496.6</ele>
        <time>2023-09-21T13:13:58Z</time>
      </trkpt>
      <trkpt lat="48.18425" lon="6.9938">
        <ele>496.52</ele>
        <time>2023-09-21T13:14:10Z</time>
      </trkpt>
      <trkpt lat="48.1843" lon="6.99399">
        <ele>496.57</ele>
        <time>2023-09-21T13:14:20Z</time>
      </trkpt>
      <trkpt lat="48.1843" lon="6.99401">
        <ele>496.67</ele>
        <time>2023-09-21T13:14:21Z</time>
      </trkpt>
      <trkpt lat="48.1843" lon="6.99407">
        <ele>496.41</ele>
        <time>2023-09-21T13:14:24Z</time>
      </trkpt>
      <trkpt lat="48.18429" lon="6.9943">
        <ele>497.12</ele>
        <time>2023-09-21T13:14:37Z</time>
      </trkpt>
      <trkpt lat="48.18424" lon="6.99473">
        <ele>496.47</ele>
        <time>2023-09-21T13:14:58Z</time>
      </trkpt>
      <trkpt lat="48.18422" lon="6.99488">
        <ele>497.01</ele>
        <time>2023-09-21T13:15:07Z</time>
      </trkpt>
      <trkpt lat="48.18422" lon="6.99497">
        <ele>496.9</ele>
        <time>2023-09-21T13:15:12Z</time>
      </trkpt>
      <trkpt lat="48.18422" lon="6.995">
        <ele>496.64</ele>
        <time>2023-09-21T13:15:13Z</time>
      </trkpt>
      <trkpt lat="48.18422" lon="6.99501">
        <ele>496.9</ele>
        <time>2023-09-21T13:15:14Z</time>
      </trkpt>
      <trkpt lat="48.18422" lon="6.99503">
        <ele>496.77</ele>
        <time>2023-09-21T13:15:15Z</time>
      </trkpt>
      <trkpt lat="48.18422" lon="6.99532">
        <ele>496.9</ele>
        <time>2023-09-21T13:15:31Z</time>
      </trkpt>
      <trkpt lat="48.18422" lon="6.99536">
        <ele>497.05</ele>
        <time>2023-09-21T13:15:33Z</time>
      </trkpt>
      <trkpt lat="48.18422" lon="6.99538">
        <ele>496.87</ele>
        <time>2023-09-21T13:15:34Z</time>
      </trkpt>
      <trkpt lat="48.18422" lon="6.9954">
        <ele>497.03</ele>
        <time>2023-09-21T13:15:35Z</time>
      </trkpt>
      <trkpt lat="48.18417" lon="6.99567">
        <ele>496.91</ele>
        <time>2023-09-21T13:15:51Z</time>
      </trkpt>
      <trkpt lat="48.18417" lon="6.99595">
        <ele>497.14</ele>
        <time>2023-09-21T13:16:07Z</time>
      </trkpt>
      <trkpt lat="48.18411" lon="6.99617">
        <ele>496.78</ele>
        <time>2023-09-21T13:16:20Z</time>
      </trkpt>
      <trkpt lat="48.18409" lon="6.99634">
        <ele>497.33</ele>
        <time>2023-09-21T13:16:30Z</time>
      </trkpt>
      <trkpt lat="48.18408" lon="6.99636">
        <ele>497.73</ele>
        <time>2023-09-21T13:16:31Z</time>
      </trkpt>
      <trkpt lat="48.18408" lon="6.99637">
        <ele>497.72</ele>
        <time>2023-09-21T13:16:32Z</time>
      </trkpt>
      <trkpt lat="48.18408" lon="6.99639">
        <ele>497.76</ele>
        <time>2023-09-21T13:16:33Z</time>
      </trkpt>
      <trkpt lat="48.18407" lon="6.99641">
        <ele>497.9</ele>
        <time>2023-09-21T13:16:34Z</time>
      </trkpt>
      <trkpt lat="48.18402" lon="6.99669">
        <ele>497.62</ele>
        <time>2023-09-21T13:16:51Z</time>
      </trkpt>
      <trkpt lat="48.18402" lon="6.99671">
        <ele>498</ele>
        <time>2023-09-21T13:16:52Z</time>
      </trkpt>
      <trkpt lat="48.18396" lon="6.99703">
        <ele>498.44</ele>
        <time>2023-09-21T13:17:11Z</time>
      </trkpt>
      <trkpt lat="48.1839" lon="6.99734">
        <ele>498.01</ele>
        <time>2023-09-21T13:17:30Z</time>
      </trkpt>
      <trkpt lat="48.18379" lon="6.99775">
        <ele>499.08</ele>
        <time>2023-09-21T13:17:54Z</time>
      </trkpt>
      <trkpt lat="48.18367" lon="6.99817">
        <ele>499.14</ele>
        <time>2023-09-21T13:18:19Z</time>
      </trkpt>
      <trkpt lat="48.18361" lon="6.99844">
        <ele>499.22</ele>
        <time>2023-09-21T13:18:37Z</time>
      </trkpt>
      <trkpt lat="48.18352" lon="6.99877">
        <ele>499.41</ele>
        <time>2023-09-21T13:18:57Z</time>
      </trkpt>
      <trkpt lat="48.18341" lon="6.99921">
        <ele>501.01</ele>
        <time>2023-09-21T13:19:23Z</time>
      </trkpt>
      <trkpt lat="48.1834" lon="6.99956">
        <ele>499.98</ele>
        <time>2023-09-21T13:19:43Z</time>
      </trkpt>
      <trkpt lat="48.1834" lon="6.99989">
        <ele>498.98</ele>
        <time>2023-09-21T13:20:05Z</time>
      </trkpt>
      <trkpt lat="48.18339" lon="7.00018">
        <ele>500.54</ele>
        <time>2023-09-21T13:20:27Z</time>
      </trkpt>
      <trkpt lat="48.18343" lon="7.00019">
        <ele>499.52</ele>
        <time>2023-09-21T13:20:46Z</time>
      </trkpt>
      <trkpt lat="48.18347" lon="7.00021">
        <ele>498.53</ele>
        <time>2023-09-21T13:21:00Z</time>
      </trkpt>
      <trkpt lat="48.18348" lon="7.00022">
        <ele>498.27</ele>
        <time>2023-09-21T13:21:01Z</time>
      </trkpt>
      <trkpt lat="48.18349" lon="7.00023">
        <ele>498.33</ele>
        <time>2023-09-21T13:21:02Z</time>
      </trkpt>
      <trkpt lat="48.1835" lon="7.00024">
        <ele>498.37</ele>
        <time>2023-09-21T13:21:03Z</time>
      </trkpt>
      <trkpt lat="48.18351" lon="7.00025">
        <ele>498.6</ele>
        <time>2023-09-21T13:21:04Z</time>
      </trkpt>
      <trkpt lat="48.18352" lon="7.00025">
        <ele>498.25</ele>
        <time>2023-09-21T13:21:05Z</time>
      </trkpt>
      <trkpt lat="48.18353" lon="7.00026">
        <ele>498.09</ele>
        <time>2023-09-21T13:21:06Z</time>
      </trkpt>
      <trkpt lat="48.18376" lon="7.00049">
        <ele>495.53</ele>
        <time>2023-09-21T13:21:30Z</time>
      </trkpt>
      <trkpt lat="48.18396" lon="7.0007">
        <ele>495.53</ele>
        <time>2023-09-21T13:21:50Z</time>
      </trkpt>
      <trkpt lat="48.18415" lon="7.00086">
        <ele>494.77</ele>
        <time>2023-09-21T13:22:09Z</time>
      </trkpt>
      <trkpt lat="48.18424" lon="7.00094">
        <ele>495.03</ele>
        <time>2023-09-21T13:22:20Z</time>
      </trkpt>
      <trkpt lat="48.18425" lon="7.00096">
        <ele>494.96</ele>
        <time>2023-09-21T13:22:21Z</time>
      </trkpt>
      <trkpt lat="48.18424" lon="7.00098">
        <ele>495.3</ele>
        <time>2023-09-21T13:22:22Z</time>
      </trkpt>
      <trkpt lat="48.18424" lon="7.001">
        <ele>494.45</ele>
        <time>2023-09-21T13:22:23Z</time>
      </trkpt>
      <trkpt lat="48.18424" lon="7.00101">
        <ele>494.79</ele>
        <time>2023-09-21T13:22:24Z</time>
      </trkpt>
      <trkpt lat="48.18424" lon="7.00112">
        <ele>495.18</ele>
        <time>2023-09-21T13:22:30Z</time>
      </trkpt>
      <trkpt lat="48.18424" lon="7.00114">
        <ele>495.22</ele>
        <time>2023-09-21T13:22:31Z</time>
      </trkpt>
      <trkpt lat="48.18423" lon="7.00116">
        <ele>495.23</ele>
        <time>2023-09-21T13:22:32Z</time>
      </trkpt>
      <trkpt lat="48.18423" lon="7.00117">
        <ele>495.23</ele>
        <time>2023-09-21T13:22:33Z</time>
      </trkpt>
      <trkpt lat="48.18422" lon="7.00119">
        <ele>494.71</ele>
        <time>2023-09-21T13:22:34Z</time>
      </trkpt>
      <trkpt lat="48.18422" lon="7.00121">
        <ele>494.81</ele>
        <time>2023-09-21T13:22:35Z</time>
      </trkpt>
      <trkpt lat="48.1842" lon="7.00148">
        <ele>495.84</ele>
        <time>2023-09-21T13:22:49Z</time>
      </trkpt>
      <trkpt lat="48.18419" lon="7.0015">
        <ele>495.18</ele>
        <time>2023-09-21T13:22:50Z</time>
      </trkpt>
      <trkpt lat="48.18419" lon="7.00152">
        <ele>496.24</ele>
        <time>2023-09-21T13:22:51Z</time>
      </trkpt>
      <trkpt lat="48.18419" lon="7.00154">
        <ele>495.41</ele>
        <time>2023-09-21T13:22:52Z</time>
      </trkpt>
      <trkpt lat="48.18419" lon="7.00156">
        <ele>496.56</ele>
        <time>2023-09-21T13:22:53Z</time>
      </trkpt>
      <trkpt lat="48.18419" lon="7.00158">
        <ele>496.33</ele>
        <time>2023-09-21T13:22:54Z</time>
      </trkpt>
      <trkpt lat="48.18418" lon="7.00159">
        <ele>496.39</ele>
        <time>2023-09-21T13:22:55Z</time>
      </trkpt>
      <trkpt lat="48.18418" lon="7.00161">
        <ele>496.04</ele>
        <time>2023-09-21T13:22:56Z</time>
      </trkpt>
      <trkpt lat="48.18419" lon="7.00163">
        <ele>495.79</ele>
        <time>2023-09-21T13:22:57Z</time>
      </trkpt>
      <trkpt lat="48.1842" lon="7.00166">
        <ele>495.99</ele>
        <time>2023-09-21T13:22:58Z</time>
      </trkpt>
      <trkpt lat="48.1842" lon="7.00189">
        <ele>495.63</ele>
        <time>2023-09-21T13:23:11Z</time>
      </trkpt>
      <trkpt lat="48.1842" lon="7.00191">
        <ele>496.02</ele>
        <time>2023-09-21T13:23:12Z</time>
      </trkpt>
      <trkpt lat="48.1842" lon="7.00193">
        <ele>496.51</ele>
        <time>2023-09-21T13:23:13Z</time>
      </trkpt>
      <trkpt lat="48.18419" lon="7.00195">
        <ele>495.74</ele>
        <time>2023-09-21T13:23:14Z</time>
      </trkpt>
      <trkpt lat="48.18419" lon="7.00197">
        <ele>496.33</ele>
        <time>2023-09-21T13:23:15Z</time>
      </trkpt>
      <trkpt lat="48.18416" lon="7.00211">
        <ele>496.06</ele>
        <time>2023-09-21T13:23:24Z</time>
      </trkpt>
      <trkpt lat="48.18416" lon="7.00212">
        <ele>495.46</ele>
        <time>2023-09-21T13:23:25Z</time>
      </trkpt>
      <trkpt lat="48.18415" lon="7.00214">
        <ele>496.13</ele>
        <time>2023-09-21T13:23:26Z</time>
      </trkpt>
      <trkpt lat="48.18415" lon="7.00216">
        <ele>495.64</ele>
        <time>2023-09-21T13:23:27Z</time>
      </trkpt>
      <trkpt lat="48.18415" lon="7.00217">
        <ele>495.9</ele>
        <time>2023-09-21T13:23:28Z</time>
      </trkpt>
      <trkpt lat="48.18415" lon="7.00221">
        <ele>496.06</ele>
        <time>2023-09-21T13:23:31Z</time>
      </trkpt>
      <trkpt lat="48.18414" lon="7.00222">
        <ele>495.7</ele>
        <time>2023-09-21T13:23:32Z</time>
      </trkpt>
      <trkpt lat="48.18414" lon="7.00224">
        <ele>496</ele>
        <time>2023-09-21T13:23:33Z</time>
      </trkpt>
      <trkpt lat="48.18413" lon="7.00225">
        <ele>496.3</ele>
        <time>2023-09-21T13:23:34Z</time>
      </trkpt>
      <trkpt lat="48.18413" lon="7.00227">
        <ele>496.05</ele>
        <time>2023-09-21T13:23:35Z</time>
      </trkpt>
      <trkpt lat="48.18411" lon="7.00232">
        <ele>496.61</ele>
        <time>2023-09-21T13:23:38Z</time>
      </trkpt>
      <trkpt lat="48.1841" lon="7.00234">
        <ele>496.42</ele>
        <time>2023-09-21T13:23:39Z</time>
      </trkpt>
      <trkpt lat="48.18409" lon="7.00235">
        <ele>496.44</ele>
        <time>2023-09-21T13:23:40Z</time>
      </trkpt>
      <trkpt lat="48.18409" lon="7.00237">
        <ele>496.43</ele>
        <time>2023-09-21T13:23:41Z</time>
      </trkpt>
      <trkpt lat="48.18408" lon="7.00238">
        <ele>496.12</ele>
        <time>2023-09-21T13:23:42Z</time>
      </trkpt>
      <trkpt lat="48.18406" lon="7.0024">
        <ele>496.49</ele>
        <time>2023-09-21T13:23:44Z</time>
      </trkpt>
      <trkpt lat="48.18405" lon="7.00242">
        <ele>496.38</ele>
        <time>2023-09-21T13:23:45Z</time>
      </trkpt>
      <trkpt lat="48.18404" lon="7.00243">
        <ele>496.67</ele>
        <time>2023-09-21T13:23:46Z</time>
      </trkpt>
      <trkpt lat="48.18403" lon="7.00244">
        <ele>496.26</ele>
        <time>2023-09-21T13:23:47Z</time>
      </trkpt>
      <trkpt lat="48.18403" lon="7.00246">
        <ele>496.79</ele>
        <time>2023-09-21T13:23:48Z</time>
      </trkpt>
      <trkpt lat="48.18402" lon="7.00247">
        <ele>496.46</ele>
        <time>2023-09-21T13:23:49Z</time>
      </trkpt>
      <trkpt lat="48.18401" lon="7.00248">
        <ele>496.58</ele>
        <time>2023-09-21T13:23:50Z</time>
      </trkpt>
      <trkpt lat="48.184" lon="7.0025">
        <ele>496.87</ele>
        <time>2023-09-21T13:23:51Z</time>
      </trkpt>
      <trkpt lat="48.18399" lon="7.00251">
        <ele>496.56</ele>
        <time>2023-09-21T13:23:52Z</time>
      </trkpt>
      <trkpt lat="48.18399" lon="7.00252">
        <ele>496.72</ele>
        <time>2023-09-21T13:23:53Z</time>
      </trkpt>
      <trkpt lat="48.18398" lon="7.00253">
        <ele>496.76</ele>
        <time>2023-09-21T13:23:54Z</time>
      </trkpt>
      <trkpt lat="48.18397" lon="7.00254">
        <ele>496.91</ele>
        <time>2023-09-21T13:23:55Z</time>
      </trkpt>
      <trkpt lat="48.18396" lon="7.00255">
        <ele>497.06</ele>
        <time>2023-09-21T13:23:56Z</time>
      </trkpt>
      <trkpt lat="48.18396" lon="7.00256">
        <ele>496.98</ele>
        <time>2023-09-21T13:23:57Z</time>
      </trkpt>
      <trkpt lat="48.18391" lon="7.00264">
        <ele>497.38</ele>
        <time>2023-09-21T13:24:09Z</time>
      </trkpt>
      <trkpt lat="48.18392" lon="7.00269">
        <ele>497.19</ele>
        <time>2023-09-21T13:24:18Z</time>
      </trkpt>
      <trkpt lat="48.18394" lon="7.00273">
        <ele>497.68</ele>
        <time>2023-09-21T13:24:25Z</time>
      </trkpt>
      <trkpt lat="48.18396" lon="7.00271">
        <ele>497.59</ele>
        <time>2023-09-21T13:24:27Z</time>
      </trkpt>
      <trkpt lat="48.18417" lon="7.0024">
        <ele>497.22</ele>
        <time>2023-09-21T13:24:51Z</time>
      </trkpt>
      <trkpt lat="48.18431" lon="7.00207">
        <ele>497.46</ele>
        <time>2023-09-21T13:25:14Z</time>
      </trkpt>
      <trkpt lat="48.18435" lon="7.00204">
        <ele>497.27</ele>
        <time>2023-09-21T13:25:18Z</time>
      </trkpt>
      <trkpt lat="48.18462" lon="7.00202">
        <ele>497.2</ele>
        <time>2023-09-21T13:25:41Z</time>
      </trkpt>
      <trkpt lat="48.18486" lon="7.00204">
        <ele>497.55</ele>
        <time>2023-09-21T13:26:02Z</time>
      </trkpt>
      <trkpt lat="48.18508" lon="7.00204">
        <ele>497.71</ele>
        <time>2023-09-21T13:26:21Z</time>
      </trkpt>
      <trkpt lat="48.18527" lon="7.00193">
        <ele>496.7</ele>
        <time>2023-09-21T13:26:39Z</time>
      </trkpt>
      <trkpt lat="48.1854" lon="7.00201">
        <ele>497.08</ele>
        <time>2023-09-21T13:26:54Z</time>
      </trkpt>
      <trkpt lat="48.18542" lon="7.00204">
        <ele>497.14</ele>
        <time>2023-09-21T13:27:12Z</time>
      </trkpt>
      <trkpt lat="48.18539" lon="7.00207">
        <ele>496.75</ele>
        <time>2023-09-21T13:27:34Z</time>
      </trkpt>
      <trkpt lat="48.18541" lon="7.00211">
        <ele>497.85</ele>
        <time>2023-09-21T13:28:10Z</time>
      </trkpt>
      <trkpt lat="48.18541" lon="7.00209">
        <ele>497.96</ele>
        <time>2023-09-21T13:28:49Z</time>
      </trkpt>
      <trkpt lat="48.1854" lon="7.00209">
        <ele>497.84</ele>
        <time>2023-09-21T13:29:18Z</time>
      </trkpt>
      <trkpt lat="48.18541" lon="7.00209">
        <ele>497.11</ele>
        <time>2023-09-21T13:29:53Z</time>
      </trkpt>
      <trkpt lat="48.18541" lon="7.0021">
        <ele>499.67</ele>
        <time>2023-09-21T13:30:29Z</time>
      </trkpt>
      <trkpt lat="48.18541" lon="7.0021">
        <ele>499.75</ele>
        <time>2023-09-21T13:31:06Z</time>
      </trkpt>
      <trkpt lat="48.18541" lon="7.00209">
        <ele>500.23</ele>
        <time>2023-09-21T13:31:51Z</time>
      </trkpt>
      <trkpt lat="48.18541" lon="7.00208">
        <ele>500.74</ele>
        <time>2023-09-21T13:32:26Z</time>
      </trkpt>
      <trkpt lat="48.18542" lon="7.00206">
        <ele>501.37</ele>
        <time>2023-09-21T13:33:03Z</time>
      </trkpt>
      <trkpt lat="48.18543" lon="7.00203">
        <ele>500.81</ele>
        <time>2023-09-21T13:33:36Z</time>
      </trkpt>
      <trkpt lat="48.18542" lon="7.00206">
        <ele>501.9</ele>
        <time>2023-09-21T13:34:13Z</time>
      </trkpt>
      <trkpt lat="48.18544" lon="7.00207">
        <ele>501.26</ele>
        <time>2023-09-21T13:34:51Z</time>
      </trkpt>
      <trkpt lat="48.18543" lon="7.00207">
        <ele>501.39</ele>
        <time>2023-09-21T13:35:31Z</time>
      </trkpt>
      <trkpt lat="48.18543" lon="7.00209">
        <ele>502.94</ele>
        <time>2023-09-21T13:36:11Z</time>
      </trkpt>
      <trkpt lat="48.18542" lon="7.00209">
        <ele>503.91</ele>
        <time>2023-09-21T13:36:47Z</time>
      </trkpt>
      <trkpt lat="48.18541" lon="7.00213">
        <ele>504.59</ele>
        <time>2023-09-21T13:37:11Z</time>
      </trkpt>
      <trkpt lat="48.18539" lon="7.00211">
        <ele>504.4</ele>
        <time>2023-09-21T13:37:26Z</time>
      </trkpt>
      <trkpt lat="48.18538" lon="7.0021">
        <ele>504.04</ele>
        <time>2023-09-21T13:37:28Z</time>
      </trkpt>
      <trkpt lat="48.18522" lon="7.00207">
        <ele>504.19</ele>
        <time>2023-09-21T13:37:43Z</time>
      </trkpt>
      <trkpt lat="48.18505" lon="7.00206">
        <ele>504.67</ele>
        <time>2023-09-21T13:38:03Z</time>
      </trkpt>
      <trkpt lat="48.18487" lon="7.00203">
        <ele>504.82</ele>
        <time>2023-09-21T13:38:19Z</time>
      </trkpt>
      <trkpt lat="48.18472" lon="7.00201">
        <ele>505.8</ele>
        <time>2023-09-21T13:38:32Z</time>
      </trkpt>
      <trkpt lat="48.1847" lon="7.00206">
        <ele>506.23</ele>
        <time>2023-09-21T13:38:37Z</time>
      </trkpt>
      <trkpt lat="48.18472" lon="7.0021">
        <ele>506.71</ele>
        <time>2023-09-21T13:38:53Z</time>
      </trkpt>
      <trkpt lat="48.18452" lon="7.0021">
        <ele>505.93</ele>
        <time>2023-09-21T13:39:11Z</time>
      </trkpt>
      <trkpt lat="48.18436" lon="7.00207">
        <ele>505.86</ele>
        <time>2023-09-21T13:39:27Z</time>
      </trkpt>
      <trkpt lat="48.18431" lon="7.00209">
        <ele>506.32</ele>
        <time>2023-09-21T13:39:32Z</time>
      </trkpt>
      <trkpt lat="48.18428" lon="7.00214">
        <ele>506.67</ele>
        <time>2023-09-21T13:39:36Z</time>
      </trkpt>
      <trkpt lat="48.1842" lon="7.0024">
        <ele>507.63</ele>
        <time>2023-09-21T13:39:53Z</time>
      </trkpt>
      <trkpt lat="48.18408" lon="7.0026">
        <ele>506.7</ele>
        <time>2023-09-21T13:40:08Z</time>
      </trkpt>
      <trkpt lat="48.18406" lon="7.00263">
        <ele>507.51</ele>
        <time>2023-09-21T13:40:10Z</time>
      </trkpt>
      <trkpt lat="48.18402" lon="7.00269">
        <ele>506.72</ele>
        <time>2023-09-21T13:40:15Z</time>
      </trkpt>
      <trkpt lat="48.18398" lon="7.00275">
        <ele>506.59</ele>
        <time>2023-09-21T13:40:20Z</time>
      </trkpt>
      <trkpt lat="48.18394" lon="7.00278">
        <ele>507.56</ele>
        <time>2023-09-21T13:40:23Z</time>
      </trkpt>
      <trkpt lat="48.18379" lon="7.00289">
        <ele>507.36</ele>
        <time>2023-09-21T13:40:37Z</time>
      </trkpt>
      <trkpt lat="48.18358" lon="7.00306">
        <ele>508.43</ele>
        <time>2023-09-21T13:40:57Z</time>
      </trkpt>
      <trkpt lat="48.18341" lon="7.00309">
        <ele>508.86</ele>
        <time>2023-09-21T13:41:12Z</time>
      </trkpt>
      <trkpt lat="48.18334" lon="7.00315">
        <ele>508.95</ele>
        <time>2023-09-21T13:41:19Z</time>
      </trkpt>
      <trkpt lat="48.18329" lon="7.00318">
        <ele>509.51</ele>
        <time>2023-09-21T13:41:23Z</time>
      </trkpt>
      <trkpt lat="48.18317" lon="7.0033">
        <ele>510.52</ele>
        <time>2023-09-21T13:41:36Z</time>
      </trkpt>
      <trkpt lat="48.18301" lon="7.00347">
        <ele>510.94</ele>
        <time>2023-09-21T13:41:51Z</time>
      </trkpt>
      <trkpt lat="48.18291" lon="7.00357">
        <ele>510.64</ele>
        <time>2023-09-21T13:42:02Z</time>
      </trkpt>
      <trkpt lat="48.18284" lon="7.00361">
        <ele>511.25</ele>
        <time>2023-09-21T13:42:09Z</time>
      </trkpt>
      <trkpt lat="48.18268" lon="7.00374">
        <ele>511.98</ele>
        <time>2023-09-21T13:42:22Z</time>
      </trkpt>
      <trkpt lat="48.18254" lon="7.00386">
        <ele>512.21</ele>
        <time>2023-09-21T13:42:34Z</time>
      </trkpt>
      <trkpt lat="48.18243" lon="7.00396">
        <ele>512.23</ele>
        <time>2023-09-21T13:42:45Z</time>
      </trkpt>
      <trkpt lat="48.18223" lon="7.00414">
        <ele>512.63</ele>
        <time>2023-09-21T13:43:03Z</time>
      </trkpt>
      <trkpt lat="48.18222" lon="7.00416">
        <ele>512.94</ele>
        <time>2023-09-21T13:43:04Z</time>
      </trkpt>
      <trkpt lat="48.18219" lon="7.00418">
        <ele>512.88</ele>
        <time>2023-09-21T13:43:07Z</time>
      </trkpt>
      <trkpt lat="48.18203" lon="7.00434">
        <ele>512.81</ele>
        <time>2023-09-21T13:43:22Z</time>
      </trkpt>
      <trkpt lat="48.18199" lon="7.00439">
        <ele>512.67</ele>
        <time>2023-09-21T13:43:26Z</time>
      </trkpt>
      <trkpt lat="48.18182" lon="7.00454">
        <ele>513.19</ele>
        <time>2023-09-21T13:43:42Z</time>
      </trkpt>
      <trkpt lat="48.18168" lon="7.0047">
        <ele>513.02</ele>
        <time>2023-09-21T13:43:57Z</time>
      </trkpt>
      <trkpt lat="48.18164" lon="7.00472">
        <ele>513.93</ele>
        <time>2023-09-21T13:44:00Z</time>
      </trkpt>
      <trkpt lat="48.18163" lon="7.00475">
        <ele>513.21</ele>
        <time>2023-09-21T13:44:02Z</time>
      </trkpt>
      <trkpt lat="48.18145" lon="7.0049">
        <ele>514.13</ele>
        <time>2023-09-21T13:44:18Z</time>
      </trkpt>
      <trkpt lat="48.1814" lon="7.00494">
        <ele>513.89</ele>
        <time>2023-09-21T13:44:22Z</time>
      </trkpt>
      <trkpt lat="48.18131" lon="7.00502">
        <ele>514.77</ele>
        <time>2023-09-21T13:44:31Z</time>
      </trkpt>
      <trkpt lat="48.18113" lon="7.00523">
        <ele>516.15</ele>
        <time>2023-09-21T13:44:48Z</time>
      </trkpt>
      <trkpt lat="48.181" lon="7.00541">
        <ele>516.32</ele>
        <time>2023-09-21T13:45:01Z</time>
      </trkpt>
      <trkpt lat="48.1809" lon="7.00559">
        <ele>516.76</ele>
        <time>2023-09-21T13:45:14Z</time>
      </trkpt>
      <trkpt lat="48.18084" lon="7.00568">
        <ele>516.71</ele>
        <time>2023-09-21T13:45:21Z</time>
      </trkpt>
      <trkpt lat="48.18079" lon="7.00576">
        <ele>517.06</ele>
        <time>2023-09-21T13:45:27Z</time>
      </trkpt>
      <trkpt lat="48.18065" lon="7.00597">
        <ele>517.25</ele>
        <time>2023-09-21T13:45:43Z</time>
      </trkpt>
      <trkpt lat="48.18053" lon="7.00614">
        <ele>518.51</ele>
        <time>2023-09-21T13:45:57Z</time>
      </trkpt>
      <trkpt lat="48.18046" lon="7.00625">
        <ele>519.12</ele>
        <time>2023-09-21T13:46:06Z</time>
      </trkpt>
      <trkpt lat="48.18045" lon="7.00628">
        <ele>518.84</ele>
        <time>2023-09-21T13:46:08Z</time>
      </trkpt>
      <trkpt lat="48.18041" lon="7.00635">
        <ele>518.88</ele>
        <time>2023-09-21T13:46:13Z</time>
      </trkpt>
      <trkpt lat="48.18028" lon="7.00654">
        <ele>518.85</ele>
        <time>2023-09-21T13:46:26Z</time>
      </trkpt>
      <trkpt lat="48.18024" lon="7.0066">
        <ele>519.63</ele>
        <time>2023-09-21T13:46:31Z</time>
      </trkpt>
      <trkpt lat="48.18018" lon="7.0067">
        <ele>520.05</ele>
        <time>2023-09-21T13:46:38Z</time>
      </trkpt>
      <trkpt lat="48.18007" lon="7.00694">
        <ele>520.26</ele>
        <time>2023-09-21T13:46:54Z</time>
      </trkpt>
      <trkpt lat="48.17996" lon="7.00711">
        <ele>520.79</ele>
        <time>2023-09-21T13:47:08Z</time>
      </trkpt>
      <trkpt lat="48.17991" lon="7.00717">
        <ele>520.18</ele>
        <time>2023-09-21T13:47:13Z</time>
      </trkpt>
      <trkpt lat="48.17988" lon="7.0072">
        <ele>520.81</ele>
        <time>2023-09-21T13:47:15Z</time>
      </trkpt>
      <trkpt lat="48.17975" lon="7.00732">
        <ele>521</ele>
        <time>2023-09-21T13:47:26Z</time>
      </trkpt>
      <trkpt lat="48.17974" lon="7.00733">
        <ele>521</ele>
        <time>2023-09-21T13:47:27Z</time>
      </trkpt>
      <trkpt lat="48.17973" lon="7.00735">
        <ele>521.08</ele>
        <time>2023-09-21T13:47:28Z</time>
      </trkpt>
      <trkpt lat="48.17972" lon="7.00736">
        <ele>521.45</ele>
        <time>2023-09-21T13:47:29Z</time>
      </trkpt>
      <trkpt lat="48.17947" lon="7.00757">
        <ele>521.4</ele>
        <time>2023-09-21T13:47:50Z</time>
      </trkpt>
      <trkpt lat="48.17945" lon="7.00757">
        <ele>521.31</ele>
        <time>2023-09-21T13:47:52Z</time>
      </trkpt>
      <trkpt lat="48.17941" lon="7.0076">
        <ele>521.49</ele>
        <time>2023-09-21T13:47:56Z</time>
      </trkpt>
      <trkpt lat="48.17934" lon="7.00767">
        <ele>521.5</ele>
        <time>2023-09-21T13:48:03Z</time>
      </trkpt>
      <trkpt lat="48.1793" lon="7.00772">
        <ele>521.34</ele>
        <time>2023-09-21T13:48:07Z</time>
      </trkpt>
      <trkpt lat="48.17913" lon="7.00786">
        <ele>521.86</ele>
        <time>2023-09-21T13:48:22Z</time>
      </trkpt>
      <trkpt lat="48.17896" lon="7.008">
        <ele>523.29</ele>
        <time>2023-09-21T13:48:38Z</time>
      </trkpt>
      <trkpt lat="48.17883" lon="7.00808">
        <ele>523.34</ele>
        <time>2023-09-21T13:48:49Z</time>
      </trkpt>
      <trkpt lat="48.17878" lon="7.00813">
        <ele>523.42</ele>
        <time>2023-09-21T13:48:54Z</time>
      </trkpt>
      <trkpt lat="48.17873" lon="7.00817">
        <ele>523.49</ele>
        <time>2023-09-21T13:48:58Z</time>
      </trkpt>
      <trkpt lat="48.17856" lon="7.00829">
        <ele>524.09</ele>
        <time>2023-09-21T13:49:14Z</time>
      </trkpt>
      <trkpt lat="48.17835" lon="7.00845">
        <ele>523.7</ele>
        <time>2023-09-21T13:49:32Z</time>
      </trkpt>
      <trkpt lat="48.17816" lon="7.00859">
        <ele>523.9</ele>
        <time>2023-09-21T13:49:49Z</time>
      </trkpt>
      <trkpt lat="48.17796" lon="7.00873">
        <ele>524.51</ele>
        <time>2023-09-21T13:50:08Z</time>
      </trkpt>
      <trkpt lat="48.17778" lon="7.00892">
        <ele>524.55</ele>
        <time>2023-09-21T13:50:26Z</time>
      </trkpt>
      <trkpt lat="48.17759" lon="7.00907">
        <ele>524.96</ele>
        <time>2023-09-21T13:50:43Z</time>
      </trkpt>
      <trkpt lat="48.1774" lon="7.00923">
        <ele>525.4</ele>
        <time>2023-09-21T13:51:00Z</time>
      </trkpt>
      <trkpt lat="48.17722" lon="7.00941">
        <ele>525.03</ele>
        <time>2023-09-21T13:51:17Z</time>
      </trkpt>
      <trkpt lat="48.17702" lon="7.00962">
        <ele>525.14</ele>
        <time>2023-09-21T13:51:36Z</time>
      </trkpt>
      <trkpt lat="48.17683" lon="7.00984">
        <ele>525.67</ele>
        <time>2023-09-21T13:51:55Z</time>
      </trkpt>
      <trkpt lat="48.17681" lon="7.00987">
        <ele>526.03</ele>
        <time>2023-09-21T13:52:07Z</time>
      </trkpt>
      <trkpt lat="48.17678" lon="7.00992">
        <ele>525.96</ele>
        <time>2023-09-21T13:52:11Z</time>
      </trkpt>
      <trkpt lat="48.17662" lon="7.01016">
        <ele>525.78</ele>
        <time>2023-09-21T13:52:30Z</time>
      </trkpt>
      <trkpt lat="48.17649" lon="7.01036">
        <ele>526.92</ele>
        <time>2023-09-21T13:52:45Z</time>
      </trkpt>
      <trkpt lat="48.17632" lon="7.01061">
        <ele>527.33</ele>
        <time>2023-09-21T13:53:03Z</time>
      </trkpt>
      <trkpt lat="48.17622" lon="7.01076">
        <ele>528.17</ele>
        <time>2023-09-21T13:53:14Z</time>
      </trkpt>
      <trkpt lat="48.17612" lon="7.01091">
        <ele>528.08</ele>
        <time>2023-09-21T13:53:26Z</time>
      </trkpt>
      <trkpt lat="48.17596" lon="7.01113">
        <ele>528.69</ele>
        <time>2023-09-21T13:53:43Z</time>
      </trkpt>
      <trkpt lat="48.17579" lon="7.01135">
        <ele>529.62</ele>
        <time>2023-09-21T13:54:00Z</time>
      </trkpt>
      <trkpt lat="48.1756" lon="7.0115">
        <ele>528.77</ele>
        <time>2023-09-21T13:54:19Z</time>
      </trkpt>
      <trkpt lat="48.17542" lon="7.0116">
        <ele>530.68</ele>
        <time>2023-09-21T13:54:35Z</time>
      </trkpt>
      <trkpt lat="48.17522" lon="7.01169">
        <ele>530.72</ele>
        <time>2023-09-21T13:54:51Z</time>
      </trkpt>
      <trkpt lat="48.17501" lon="7.01179">
        <ele>530.94</ele>
        <time>2023-09-21T13:55:09Z</time>
      </trkpt>
      <trkpt lat="48.17481" lon="7.01189">
        <ele>530.63</ele>
        <time>2023-09-21T13:55:25Z</time>
      </trkpt>
      <trkpt lat="48.17462" lon="7.01204">
        <ele>530.33</ele>
        <time>2023-09-21T13:55:42Z</time>
      </trkpt>
      <trkpt lat="48.17442" lon="7.01221">
        <ele>530.73</ele>
        <time>2023-09-21T13:56:01Z</time>
      </trkpt>
      <trkpt lat="48.17422" lon="7.01237">
        <ele>531.05</ele>
        <time>2023-09-21T13:56:20Z</time>
      </trkpt>
      <trkpt lat="48.17404" lon="7.01253">
        <ele>530.5</ele>
        <time>2023-09-21T13:56:37Z</time>
      </trkpt>
      <trkpt lat="48.17386" lon="7.01269">
        <ele>530.43</ele>
        <time>2023-09-21T13:56:54Z</time>
      </trkpt>
      <trkpt lat="48.17365" lon="7.01286">
        <ele>530.64</ele>
        <time>2023-09-21T13:57:13Z</time>
      </trkpt>
      <trkpt lat="48.17351" lon="7.01299">
        <ele>530.8</ele>
        <time>2023-09-21T13:57:27Z</time>
      </trkpt>
      <trkpt lat="48.17345" lon="7.01306">
        <ele>530.75</ele>
        <time>2023-09-21T13:57:34Z</time>
      </trkpt>
      <trkpt lat="48.17326" lon="7.01322">
        <ele>531.2</ele>
        <time>2023-09-21T13:57:52Z</time>
      </trkpt>
      <trkpt lat="48.1731" lon="7.01342">
        <ele>531.44</ele>
        <time>2023-09-21T13:58:09Z</time>
      </trkpt>
      <trkpt lat="48.17302" lon="7.01358">
        <ele>531.5</ele>
        <time>2023-09-21T13:58:20Z</time>
      </trkpt>
      <trkpt lat="48.1729" lon="7.01379">
        <ele>530.68</ele>
        <time>2023-09-21T13:58:36Z</time>
      </trkpt>
      <trkpt lat="48.17283" lon="7.01397">
        <ele>530.94</ele>
        <time>2023-09-21T13:58:48Z</time>
      </trkpt>
      <trkpt lat="48.17275" lon="7.01414">
        <ele>531.33</ele>
        <time>2023-09-21T13:58:59Z</time>
      </trkpt>
      <trkpt lat="48.17272" lon="7.01419">
        <ele>531.9</ele>
        <time>2023-09-21T13:59:02Z</time>
      </trkpt>
      <trkpt lat="48.17268" lon="7.01429">
        <ele>531.79</ele>
        <time>2023-09-21T13:59:09Z</time>
      </trkpt>
      <trkpt lat="48.17267" lon="7.01433">
        <ele>532.63</ele>
        <time>2023-09-21T13:59:12Z</time>
      </trkpt>
      <trkpt lat="48.17264" lon="7.01436">
        <ele>532.25</ele>
        <time>2023-09-21T13:59:16Z</time>
      </trkpt>
      <trkpt lat="48.17262" lon="7.01447">
        <ele>532.36</ele>
        <time>2023-09-21T13:59:22Z</time>
      </trkpt>
      <trkpt lat="48.17262" lon="7.01452">
        <ele>532.04</ele>
        <time>2023-09-21T13:59:28Z</time>
      </trkpt>
      <trkpt lat="48.17257" lon="7.01466">
        <ele>532.47</ele>
        <time>2023-09-21T13:59:38Z</time>
      </trkpt>
      <trkpt lat="48.17249" lon="7.01482">
        <ele>532.38</ele>
        <time>2023-09-21T13:59:49Z</time>
      </trkpt>
      <trkpt lat="48.17235" lon="7.01517">
        <ele>533.15</ele>
        <time>2023-09-21T14:00:11Z</time>
      </trkpt>
      <trkpt lat="48.17223" lon="7.01546">
        <ele>534.72</ele>
        <time>2023-09-21T14:00:31Z</time>
      </trkpt>
      <trkpt lat="48.17212" lon="7.01567">
        <ele>534.51</ele>
        <time>2023-09-21T14:00:47Z</time>
      </trkpt>
      <trkpt lat="48.172" lon="7.01603">
        <ele>534.47</ele>
        <time>2023-09-21T14:01:09Z</time>
      </trkpt>
      <trkpt lat="48.17188" lon="7.01647">
        <ele>535.12</ele>
        <time>2023-09-21T14:01:35Z</time>
      </trkpt>
      <trkpt lat="48.17176" lon="7.01685">
        <ele>535.42</ele>
        <time>2023-09-21T14:01:59Z</time>
      </trkpt>
      <trkpt lat="48.17161" lon="7.01716">
        <ele>536.62</ele>
        <time>2023-09-21T14:02:21Z</time>
      </trkpt>
      <trkpt lat="48.17148" lon="7.01736">
        <ele>537.05</ele>
        <time>2023-09-21T14:02:37Z</time>
      </trkpt>
      <trkpt lat="48.17131" lon="7.0176">
        <ele>538.23</ele>
        <time>2023-09-21T14:02:55Z</time>
      </trkpt>
      <trkpt lat="48.17126" lon="7.01768">
        <ele>538.17</ele>
        <time>2023-09-21T14:03:01Z</time>
      </trkpt>
      <trkpt lat="48.17118" lon="7.01785">
        <ele>538.57</ele>
        <time>2023-09-21T14:03:13Z</time>
      </trkpt>
      <trkpt lat="48.17114" lon="7.01794">
        <ele>538.48</ele>
        <time>2023-09-21T14:03:19Z</time>
      </trkpt>
      <trkpt lat="48.17112" lon="7.01797">
        <ele>539.34</ele>
        <time>2023-09-21T14:03:21Z</time>
      </trkpt>
      <trkpt lat="48.17103" lon="7.01822">
        <ele>539.2</ele>
        <time>2023-09-21T14:03:37Z</time>
      </trkpt>
      <trkpt lat="48.17094" lon="7.01859">
        <ele>540.31</ele>
        <time>2023-09-21T14:03:59Z</time>
      </trkpt>
      <trkpt lat="48.17088" lon="7.01885">
        <ele>541.39</ele>
        <time>2023-09-21T14:04:15Z</time>
      </trkpt>
      <trkpt lat="48.17082" lon="7.01909">
        <ele>542.04</ele>
        <time>2023-09-21T14:04:30Z</time>
      </trkpt>
      <trkpt lat="48.17081" lon="7.01911">
        <ele>542.1</ele>
        <time>2023-09-21T14:04:38Z</time>
      </trkpt>
      <trkpt lat="48.17079" lon="7.01918">
        <ele>542.39</ele>
        <time>2023-09-21T14:04:43Z</time>
      </trkpt>
      <trkpt lat="48.17071" lon="7.01944">
        <ele>543.42</ele>
        <time>2023-09-21T14:04:58Z</time>
      </trkpt>
      <trkpt lat="48.17059" lon="7.01976">
        <ele>543.62</ele>
        <time>2023-09-21T14:05:18Z</time>
      </trkpt>
      <trkpt lat="48.17044" lon="7.01997">
        <ele>544.85</ele>
        <time>2023-09-21T14:05:35Z</time>
      </trkpt>
      <trkpt lat="48.17026" lon="7.02026">
        <ele>545.28</ele>
        <time>2023-09-21T14:05:56Z</time>
      </trkpt>
      <trkpt lat="48.1701" lon="7.02057">
        <ele>547.05</ele>
        <time>2023-09-21T14:06:17Z</time>
      </trkpt>
      <trkpt lat="48.17" lon="7.02079">
        <ele>547.93</ele>
        <time>2023-09-21T14:06:32Z</time>
      </trkpt>
      <trkpt lat="48.16988" lon="7.02116">
        <ele>549.38</ele>
        <time>2023-09-21T14:06:55Z</time>
      </trkpt>
      <trkpt lat="48.16986" lon="7.02123">
        <ele>549.76</ele>
        <time>2023-09-21T14:07:11Z</time>
      </trkpt>
      <trkpt lat="48.16984" lon="7.02122">
        <ele>548.6</ele>
        <time>2023-09-21T14:07:28Z</time>
      </trkpt>
      <trkpt lat="48.16983" lon="7.02116">
        <ele>549.83</ele>
        <time>2023-09-21T14:08:04Z</time>
      </trkpt>
      <trkpt lat="48.16985" lon="7.02118">
        <ele>550.55</ele>
        <time>2023-09-21T14:08:21Z</time>
      </trkpt>
      <trkpt lat="48.16985" lon="7.02122">
        <ele>550.45</ele>
        <time>2023-09-21T14:08:37Z</time>
      </trkpt>
      <trkpt lat="48.16983" lon="7.02126">
        <ele>550.84</ele>
        <time>2023-09-21T14:08:41Z</time>
      </trkpt>
      <trkpt lat="48.16974" lon="7.02155">
        <ele>551.72</ele>
        <time>2023-09-21T14:08:59Z</time>
      </trkpt>
      <trkpt lat="48.16972" lon="7.02159">
        <ele>551.84</ele>
        <time>2023-09-21T14:09:08Z</time>
      </trkpt>
      <trkpt lat="48.1697" lon="7.02164">
        <ele>552.35</ele>
        <time>2023-09-21T14:09:12Z</time>
      </trkpt>
      <trkpt lat="48.16964" lon="7.02194">
        <ele>552.93</ele>
        <time>2023-09-21T14:09:30Z</time>
      </trkpt>
      <trkpt lat="48.16957" lon="7.02227">
        <ele>553.88</ele>
        <time>2023-09-21T14:09:49Z</time>
      </trkpt>
      <trkpt lat="48.16949" lon="7.02255">
        <ele>555.74</ele>
        <time>2023-09-21T14:10:07Z</time>
      </trkpt>
      <trkpt lat="48.16949" lon="7.02257">
        <ele>555.16</ele>
        <time>2023-09-21T14:10:08Z</time>
      </trkpt>
      <trkpt lat="48.16949" lon="7.02272">
        <ele>555.14</ele>
        <time>2023-09-21T14:10:17Z</time>
      </trkpt>
      <trkpt lat="48.16943" lon="7.02305">
        <ele>555.3</ele>
        <time>2023-09-21T14:10:36Z</time>
      </trkpt>
      <trkpt lat="48.16933" lon="7.02332">
        <ele>556.41</ele>
        <time>2023-09-21T14:10:53Z</time>
      </trkpt>
      <trkpt lat="48.16926" lon="7.02363">
        <ele>556.25</ele>
        <time>2023-09-21T14:11:11Z</time>
      </trkpt>
      <trkpt lat="48.16915" lon="7.02392">
        <ele>556.38</ele>
        <time>2023-09-21T14:11:29Z</time>
      </trkpt>
      <trkpt lat="48.16907" lon="7.0242">
        <ele>557.03</ele>
        <time>2023-09-21T14:11:46Z</time>
      </trkpt>
      <trkpt lat="48.16899" lon="7.02448">
        <ele>556.95</ele>
        <time>2023-09-21T14:12:02Z</time>
      </trkpt>
      <trkpt lat="48.16888" lon="7.02484">
        <ele>557.47</ele>
        <time>2023-09-21T14:12:24Z</time>
      </trkpt>
      <trkpt lat="48.16879" lon="7.02517">
        <ele>558.88</ele>
        <time>2023-09-21T14:12:43Z</time>
      </trkpt>
      <trkpt lat="48.16876" lon="7.0253">
        <ele>558.76</ele>
        <time>2023-09-21T14:12:51Z</time>
      </trkpt>
      <trkpt lat="48.16875" lon="7.02533">
        <ele>559.07</ele>
        <time>2023-09-21T14:12:53Z</time>
      </trkpt>
      <trkpt lat="48.16873" lon="7.02544">
        <ele>558.67</ele>
        <time>2023-09-21T14:12:59Z</time>
      </trkpt>
      <trkpt lat="48.16872" lon="7.02549">
        <ele>559.83</ele>
        <time>2023-09-21T14:13:02Z</time>
      </trkpt>
      <trkpt lat="48.16869" lon="7.02558">
        <ele>559.42</ele>
        <time>2023-09-21T14:13:18Z</time>
      </trkpt>
      <trkpt lat="48.16867" lon="7.02565">
        <ele>559.66</ele>
        <time>2023-09-21T14:13:23Z</time>
      </trkpt>
      <trkpt lat="48.16859" lon="7.02595">
        <ele>561</ele>
        <time>2023-09-21T14:13:41Z</time>
      </trkpt>
      <trkpt lat="48.16852" lon="7.02624">
        <ele>562.81</ele>
        <time>2023-09-21T14:13:59Z</time>
      </trkpt>
      <trkpt lat="48.16845" lon="7.02652">
        <ele>563.39</ele>
        <time>2023-09-21T14:14:16Z</time>
      </trkpt>
      <trkpt lat="48.16837" lon="7.02678">
        <ele>564.12</ele>
        <time>2023-09-21T14:14:32Z</time>
      </trkpt>
      <trkpt lat="48.1683" lon="7.02703">
        <ele>564.93</ele>
        <time>2023-09-21T14:14:47Z</time>
      </trkpt>
      <trkpt lat="48.16825" lon="7.02725">
        <ele>565.25</ele>
        <time>2023-09-21T14:15:03Z</time>
      </trkpt>
      <trkpt lat="48.16824" lon="7.02729">
        <ele>564.86</ele>
        <time>2023-09-21T14:15:06Z</time>
      </trkpt>
      <trkpt lat="48.16822" lon="7.02737">
        <ele>565.1</ele>
        <time>2023-09-21T14:15:11Z</time>
      </trkpt>
      <trkpt lat="48.16821" lon="7.02741">
        <ele>565.11</ele>
        <time>2023-09-21T14:15:13Z</time>
      </trkpt>
      <trkpt lat="48.16813" lon="7.02764">
        <ele>566.88</ele>
        <time>2023-09-21T14:15:28Z</time>
      </trkpt>
      <trkpt lat="48.16806" lon="7.02793">
        <ele>568.3</ele>
        <time>2023-09-21T14:15:45Z</time>
      </trkpt>
      <trkpt lat="48.16806" lon="7.02799">
        <ele>568.58</ele>
        <time>2023-09-21T14:15:49Z</time>
      </trkpt>
      <trkpt lat="48.1681" lon="7.02804">
        <ele>568.64</ele>
        <time>2023-09-21T14:15:53Z</time>
      </trkpt>
      <trkpt lat="48.16833" lon="7.02814">
        <ele>567.74</ele>
        <time>2023-09-21T14:16:12Z</time>
      </trkpt>
      <trkpt lat="48.16853" lon="7.02808">
        <ele>566.8</ele>
        <time>2023-09-21T14:16:30Z</time>
      </trkpt>
      <trkpt lat="48.16874" lon="7.02798">
        <ele>565.49</ele>
        <time>2023-09-21T14:16:49Z</time>
      </trkpt>
      <trkpt lat="48.16896" lon="7.0279">
        <ele>566.16</ele>
        <time>2023-09-21T14:17:07Z</time>
      </trkpt>
      <trkpt lat="48.16924" lon="7.02787">
        <ele>568.16</ele>
        <time>2023-09-21T14:17:30Z</time>
      </trkpt>
      <trkpt lat="48.16943" lon="7.02798">
        <ele>570.01</ele>
        <time>2023-09-21T14:17:49Z</time>
      </trkpt>
      <trkpt lat="48.16946" lon="7.02799">
        <ele>569.79</ele>
        <time>2023-09-21T14:18:00Z</time>
      </trkpt>
      <trkpt lat="48.16952" lon="7.02804">
        <ele>571.2</ele>
        <time>2023-09-21T14:18:07Z</time>
      </trkpt>
      <trkpt lat="48.16967" lon="7.02815">
        <ele>574.51</ele>
        <time>2023-09-21T14:18:23Z</time>
      </trkpt>
      <trkpt lat="48.16978" lon="7.02822">
        <ele>575.59</ele>
        <time>2023-09-21T14:18:35Z</time>
      </trkpt>
      <trkpt lat="48.16991" lon="7.0283">
        <ele>578.01</ele>
        <time>2023-09-21T14:18:51Z</time>
      </trkpt>
      <trkpt lat="48.16996" lon="7.02838">
        <ele>579.61</ele>
        <time>2023-09-21T14:19:07Z</time>
      </trkpt>
      <trkpt lat="48.17003" lon="7.02857">
        <ele>582.17</ele>
        <time>2023-09-21T14:19:23Z</time>
      </trkpt>
      <trkpt lat="48.17004" lon="7.02864">
        <ele>582.56</ele>
        <time>2023-09-21T14:19:28Z</time>
      </trkpt>
      <trkpt lat="48.17007" lon="7.02885">
        <ele>585.12</ele>
        <time>2023-09-21T14:19:43Z</time>
      </trkpt>
      <trkpt lat="48.1701" lon="7.02899">
        <ele>586.04</ele>
        <time>2023-09-21T14:20:03Z</time>
      </trkpt>
      <trkpt lat="48.17012" lon="7.02904">
        <ele>586.53</ele>
        <time>2023-09-21T14:20:07Z</time>
      </trkpt>
      <trkpt lat="48.17011" lon="7.02905">
        <ele>587.65</ele>
        <time>2023-09-21T14:20:08Z</time>
      </trkpt>
      <trkpt lat="48.17012" lon="7.02923">
        <ele>589.77</ele>
        <time>2023-09-21T14:20:21Z</time>
      </trkpt>
      <trkpt lat="48.17011" lon="7.02932">
        <ele>590.36</ele>
        <time>2023-09-21T14:20:27Z</time>
      </trkpt>
      <trkpt lat="48.17013" lon="7.02949">
        <ele>591.3</ele>
        <time>2023-09-21T14:20:45Z</time>
      </trkpt>
      <trkpt lat="48.17012" lon="7.02951">
        <ele>591.47</ele>
        <time>2023-09-21T14:20:58Z</time>
      </trkpt>
      <trkpt lat="48.17011" lon="7.02955">
        <ele>591.93</ele>
        <time>2023-09-21T14:21:01Z</time>
      </trkpt>
      <trkpt lat="48.1701" lon="7.02957">
        <ele>591.95</ele>
        <time>2023-09-21T14:21:02Z</time>
      </trkpt>
      <trkpt lat="48.17009" lon="7.02961">
        <ele>592.32</ele>
        <time>2023-09-21T14:21:05Z</time>
      </trkpt>
      <trkpt lat="48.17013" lon="7.02977">
        <ele>593.7</ele>
        <time>2023-09-21T14:21:19Z</time>
      </trkpt>
      <trkpt lat="48.17014" lon="7.02978">
        <ele>593.67</ele>
        <time>2023-09-21T14:21:20Z</time>
      </trkpt>
      <trkpt lat="48.17015" lon="7.0298">
        <ele>593.95</ele>
        <time>2023-09-21T14:21:21Z</time>
      </trkpt>
      <trkpt lat="48.17015" lon="7.02981">
        <ele>593.65</ele>
        <time>2023-09-21T14:21:22Z</time>
      </trkpt>
      <trkpt lat="48.17016" lon="7.02982">
        <ele>593.9</ele>
        <time>2023-09-21T14:21:23Z</time>
      </trkpt>
      <trkpt lat="48.17017" lon="7.02982">
        <ele>594.43</ele>
        <time>2023-09-21T14:21:24Z</time>
      </trkpt>
      <trkpt lat="48.17028" lon="7.03003">
        <ele>596.89</ele>
        <time>2023-09-21T14:21:42Z</time>
      </trkpt>
      <trkpt lat="48.17025" lon="7.03017">
        <ele>598.92</ele>
        <time>2023-09-21T14:21:52Z</time>
      </trkpt>
      <trkpt lat="48.17007" lon="7.03043">
        <ele>596.9</ele>
        <time>2023-09-21T14:22:14Z</time>
      </trkpt>
      <trkpt lat="48.16988" lon="7.03074">
        <ele>595.47</ele>
        <time>2023-09-21T14:22:38Z</time>
      </trkpt>
      <trkpt lat="48.16978" lon="7.03094">
        <ele>595.35</ele>
        <time>2023-09-21T14:22:53Z</time>
      </trkpt>
      <trkpt lat="48.16974" lon="7.03099">
        <ele>594.98</ele>
        <time>2023-09-21T14:22:57Z</time>
      </trkpt>
      <trkpt lat="48.16967" lon="7.03114">
        <ele>594.44</ele>
        <time>2023-09-21T14:23:08Z</time>
      </trkpt>
      <trkpt lat="48.16957" lon="7.03135">
        <ele>594.76</ele>
        <time>2023-09-21T14:23:23Z</time>
      </trkpt>
      <trkpt lat="48.16946" lon="7.03161">
        <ele>594.18</ele>
        <time>2023-09-21T14:23:41Z</time>
      </trkpt>
      <trkpt lat="48.16946" lon="7.03164">
        <ele>593.96</ele>
        <time>2023-09-21T14:23:43Z</time>
      </trkpt>
      <trkpt lat="48.16947" lon="7.03176">
        <ele>596.72</ele>
        <time>2023-09-21T14:23:59Z</time>
      </trkpt>
      <trkpt lat="48.16952" lon="7.03182">
        <ele>597.87</ele>
        <time>2023-09-21T14:24:23Z</time>
      </trkpt>
    </trkseg>
  </trk>
</gpx>